# Wetter Temperatur Luftdruck Luftfeuchtigkeit Sichtweite Windgeschwindigkeit Windrichtung Zeit
1 Rain 0 1013 80 10000 5.7 300 09:58 29.01.2020
2 Rain 0 1013 80 10000 5.7 300 09:40 29.01.2020
3 Rain 0 1013 80 10000 5.7 300 09:20 29.01.2020
4 Rain 0 1014 86 10000 2.1 200 08:56 29.01.2020
5 Rain 0 1011 100 10000 3.1 90 08:37 29.01.2020
6 Rain 1 1013 93 7000 3.1 250 08:18 29.01.2020
7 Rain 1 1012 86 0 7.7 310 07:43 29.01.2020
8 Rain 0 1011 86 0 6.7 300 07:21 29.01.2020
9 Rain 0 1010 100 0 2.6 70 06:38 29.01.2020
10 Rain 0 1011 80 0 7.2 290 06:19 29.01.2020
11 Rain 0 1010 95 0 9.8 270 05:52 29.01.2020
12 Rain 0 1010 100 0 3.1 80 05:33 29.01.2020
13 Rain 1 1009 75 0 9.8 300 04:39 29.01.2020
14 Rain 1 1009 75 0 9.8 300 04:39 29.01.2020
15 Rain 1 1009 80 0 3.6 240 03:59 29.01.2020
16 Rain 1 1009 80 0 3.6 90 02:34 29.01.2020
17 Rain 1 1009 95 0 1 0 01:18 29.01.2020
18 Rain 1 1009 95 0 1 0 01:18 29.01.2020
19 Rain 1 1009 95 0 2.34 255 00:39 29.01.2020
20 Rain 1 1009 95 0 2.6 250 00:20 29.01.2020
21 Rain 1 1009 95 0 3.6 250 23:40 28.01.2020
22 Rain 1 1009 69 0 6.2 300 23:20 28.01.2020
23 Rain 1 1009 52 10000 6.7 240 22:51 28.01.2020
24 Rain 1 1009 56 0 4.6 280 22:27 28.01.2020
25 Clouds 1 1009 52 0 6.2 300 21:58 28.01.2020
26 Clouds 1 1009 52 0 6.2 300 21:39 28.01.2020
27 Clouds 1 1010 52 0 6.2 300 21:20 28.01.2020
28 Clouds 1 1010 52 0 5.7 290 20:46 28.01.2020
29 Rain 1 1010 52 0 6.7 290 20:26 28.01.2020
30 Rain 1 1009 52 0 7.2 280 19:56 28.01.2020
31 Clouds 1 1008 75 0 2.6 110 19:37 28.01.2020
32 Clouds 1 1009 45 0 10.3 270 19:19 28.01.2020
33 Clouds 1 1009 52 0 9.8 270 18:54 28.01.2020
34 Clouds 1 1007 93 0 1.5 50 18:36 28.01.2020
35 Clouds 1 1008 69 0 3.6 240 18:18 28.01.2020
36 Clouds 1 1008 69 0 4.1 230 17:54 28.01.2020
37 Clouds 1 1007 100 0 3.1 80 17:36 28.01.2020
38 Clouds 1 1008 69 0 9.3 320 17:18 28.01.2020
39 Rain 2 1008 69 0 8.7 290 16:44 28.01.2020
40 Rain 3 1008 56 0 12.9 260 16:25 28.01.2020
41 Rain 2 1008 56 0 14.4 260 15:57 28.01.2020
42 Rain 3 1008 56 0 14.4 260 15:38 28.01.2020
43 Rain 2 1005 100 7000 2.6 100 15:18 28.01.2020
44 Rain 2 1008 86 0 6.7 300 14:44 28.01.2020
45 Rain 3 1008 86 0 3.1 260 14:20 28.01.2020
46 Rain 3 1008 86 0 3.1 230 13:42 28.01.2020
47 Rain 3 1008 95 0 6.2 290 13:24 28.01.2020
48 Rain 2 1009 95 0 8.2 280 12:45 28.01.2020
49 Rain 3 1009 80 0 8.7 300 12:25 28.01.2020
50 Rain 2 1008 95 0 7.7 280 11:59 28.01.2020
51 Rain 2 1008 95 0 7.7 280 11:41 28.01.2020
52 Rain 3 1006 75 4000 11.3 260 11:22 28.01.2020
53 Clouds 3 1003 94 10000 2.1 280 10:55 28.01.2020
54 Rain 3 1009 100 5000 2.67 209 10:36 28.01.2020
55 Rain 4 1003 93 10000 0.5 0 10:18 28.01.2020
56 Clouds 4 1004 86 10000 3.1 130 09:41 28.01.2020
57 Rain 3 1004 93 10000 1 0 09:20 28.01.2020
58 Rain 3 1004 93 10000 1 0 09:20 28.01.2020
59 Rain 3 1004 93 10000 1 0 09:20 28.01.2020
60 Rain 3 1004 93 10000 2.6 90 08:45 28.01.2020
61 Rain 3 1004 93 10000 1.5 80 08:26 28.01.2020
62 Rain 2 1004 93 10000 0.5 0 07:53 28.01.2020
63 Rain 2 1004 100 0 1 0 07:31 28.01.2020
64 Rain 3 1004 100 0 1 0 06:47 28.01.2020
65 Clouds 3 1004 93 0 2.1 70 06:24 28.01.2020
66 Rain 3 1005 100 0 0.5 0 05:38 28.01.2020
67 Rain 3 1006 93 0 1.5 100 05:20 28.01.2020
68 Rain 3 1007 93 0 2.6 110 03:49 28.01.2020
69 Clouds 3 1007 93 0 2.1 250 02:46 28.01.2020
70 Clouds 3 1007 93 0 2.1 250 02:46 28.01.2020
71 Clouds 3 1007 93 0 3.6 110 02:25 28.01.2020
72 Rain 3 1008 93 0 1.5 110 01:53 28.01.2020
73 Rain 3 1008 93 0 3.52 186 01:20 28.01.2020
74 Clouds 3 1008 93 0 3.52 186 00:43 28.01.2020
75 Rain 4 1009 93 0 1 140 00:19 28.01.2020
76 Rain 3 1010 100 0 2.6 80 23:43 27.01.2020
77 Rain 3 1010 86 0 1 0 23:19 27.01.2020
78 Rain 3 1010 93 10000 3.6 230 22:45 27.01.2020
79 Rain 3 1010 96 10000 3.1 260 22:20 27.01.2020
80 Rain 3 1010 96 10000 3.1 260 22:20 27.01.2020
81 Clouds 3 1010 96 0 2.1 270 21:57 27.01.2020
82 Clouds 3 1010 96 0 2.1 270 21:57 27.01.2020
83 Clouds 3 1010 96 0 2.1 270 21:39 27.01.2020
84 Clouds 3 1010 96 10000 1 0 21:19 27.01.2020
85 Clouds 3 1010 96 10000 0.5 0 20:57 27.01.2020
86 Clouds 3 1016 96 0 0.5 0 20:37 27.01.2020
87 Clouds 3 1010 99 10000 3.26 174 20:19 27.01.2020
88 Clouds 3 1010 99 10000 3.31 172 19:55 27.01.2020
89 Clouds 3 1016 74 0 3.31 172 19:37 27.01.2020
90 Clouds 3 1010 99 10000 3.31 172 19:19 27.01.2020
91 Clouds 4 1011 99 10000 1 0 18:39 27.01.2020
92 Clouds 4 1011 99 10000 3.31 172 18:21 27.01.2020
93 Clouds 4 1011 99 0 2.6 100 17:57 27.01.2020
94 Clouds 4 1011 99 0 2.6 100 17:57 27.01.2020
95 Clouds 5 1016 99 0 1 0 17:38 27.01.2020
96 Clouds 5 1017 92 0 1.5 230 17:18 27.01.2020
97 Clouds 6 1012 75 10000 0.5 0 16:55 27.01.2020
98 Clouds 6 1017 92 10000 1 0 16:36 27.01.2020
99 Clouds 6 1017 92 10000 1 0 16:36 27.01.2020
100 Clouds 6 1012 75 10000 2.1 250 16:18 27.01.2020
101 Clouds 5 1013 75 10000 3.6 250 15:41 27.01.2020
102 Clouds 5 1013 92 10000 1.5 290 15:20 27.01.2020
103 Clouds 5 1013 70 10000 1.5 40 14:57 27.01.2020
104 Clouds 5 1013 70 10000 1.5 40 14:39 27.01.2020
105 Clouds 6 1013 80 10000 1.5 250 14:20 27.01.2020
106 Clouds 6 1014 81 10000 3.34 172 13:42 27.01.2020
107 Clouds 6 1014 81 0 0.5 0 13:22 27.01.2020
108 Clouds 6 1015 80 0 1 0 12:57 27.01.2020
109 Clouds 6 1015 80 0 1 0 12:57 27.01.2020
110 Clouds 6 1015 80 0 1 0 12:57 27.01.2020
111 Clouds 6 1015 80 0 1 0 12:39 27.01.2020
112 Clouds 5 1015 80 10000 1 0 12:20 27.01.2020
113 Clouds 4 1016 80 10000 1.5 270 11:42 27.01.2020
114 Clouds 3 1016 92 10000 1 0 11:21 27.01.2020
115 Clouds 2 1017 92 10000 1 0 10:56 27.01.2020
116 Clouds 1 1020 77 10000 0.5 0 10:37 27.01.2020
117 Clouds 0 1017 86 10000 1 0 10:18 27.01.2020
118 Clouds 0 1020 100 10000 1.67 222 09:39 27.01.2020
119 Clouds 0 1018 92 10000 3.1 100 09:19 27.01.2020
120 Clouds -1 1018 100 10000 1 0 08:48 27.01.2020
121 Clear -1 1018 92 10000 2.1 0 08:23 27.01.2020
122 Clouds -1 1018 92 10000 2.1 80 07:56 27.01.2020
123 Clouds -1 1020 100 10000 0.5 0 07:37 27.01.2020
124 Clouds -1 1019 92 10000 1 0 07:19 27.01.2020
125 Clouds 0 1020 100 0 0.5 0 06:37 27.01.2020
126 Clouds 0 1019 86 0 2.6 90 05:38 27.01.2020
127 Clouds 0 1019 86 0 2.6 90 05:38 27.01.2020
128 Clouds 0 1020 100 0 1 90 04:37 27.01.2020
129 Clouds 0 1020 100 0 1 90 03:35 27.01.2020
130 Clouds 1 1019 90 0 1 0 01:47 27.01.2020
131 Clouds 1 1020 88 0 2.6 120 01:22 27.01.2020
132 Clouds 1 1020 80 0 2.6 120 00:40 27.01.2020
133 Clouds 1 1020 88 0 2.1 90 00:21 27.01.2020
134 Clouds 1 1020 88 0 2.1 100 23:43 26.01.2020
135 Clouds 1 1020 91 0 1.5 100 23:21 26.01.2020
136 Clouds 1 1020 91 0 1.76 324 22:58 26.01.2020
137 Clouds 1 1020 91 0 1.76 324 22:38 26.01.2020
138 Clouds 1 1019 91 0 1.5 280 22:20 26.01.2020
139 Clouds 2 1019 86 0 1.76 324 21:57 26.01.2020
140 Clouds 1 1019 86 0 1.76 324 21:39 26.01.2020
141 Clouds 2 1020 91 0 1.5 90 21:20 26.01.2020
142 Rain 2 1020 91 0 1.5 0 20:57 26.01.2020
143 Rain 2 1020 91 0 1.5 0 20:38 26.01.2020
144 Rain 2 1020 92 0 3.1 100 20:19 26.01.2020
145 Rain 2 1020 92 0 3.1 100 20:19 26.01.2020
146 Rain 2 1020 92 0 1.46 345 19:57 26.01.2020
147 Clouds 2 1020 80 0 1.46 345 19:38 26.01.2020
148 Clouds 2 1020 92 0 1 0 19:18 26.01.2020
149 Clouds 2 1019 92 0 0.5 0 18:54 26.01.2020
150 Clouds 2 1019 92 0 1 0 18:36 26.01.2020
151 Clouds 2 1019 92 0 1 120 18:18 26.01.2020
152 Clouds 2 1019 92 0 1 120 18:18 26.01.2020
153 Clouds 2 1019 92 0 1.5 100 17:54 26.01.2020
154 Clouds 3 1019 92 0 1.46 345 17:36 26.01.2020
155 Clouds 3 1019 89 0 2.1 90 17:18 26.01.2020
156 Clouds 3 1019 75 0 1.5 310 16:54 26.01.2020
157 Clouds 4 1019 65 0 1.5 240 16:36 26.01.2020
158 Clouds 4 1019 75 0 4.1 240 16:18 26.01.2020
159 Clouds 4 1019 89 0 1.5 240 15:41 26.01.2020
160 Clouds 4 1020 52 0 2.1 240 15:19 26.01.2020
161 Clouds 4 1020 52 0 2.1 240 14:41 26.01.2020
162 Clouds 4 1020 52 0 2.1 230 14:23 26.01.2020
163 Clouds 4 1020 52 0 2.1 230 13:59 26.01.2020
164 Clouds 4 1020 52 0 2.1 230 13:59 26.01.2020
165 Clouds 4 1021 52 0 1 0 13:38 26.01.2020
166 Clouds 4 1021 52 0 1 0 13:18 26.01.2020
167 Clouds 5 1021 52 0 0.5 0 12:43 26.01.2020
168 Clouds 4 1021 52 0 0.5 0 12:24 26.01.2020
169 Clouds 5 1022 56 0 0.5 0 11:58 26.01.2020
170 Clouds 4 1022 86 0 1.62 168 11:40 26.01.2020
171 Clouds 2 1022 86 0 0.4 219 11:19 26.01.2020
172 Clouds 2 1022 86 0 0.4 219 10:59 26.01.2020
173 Clouds 2 1022 86 0 0.4 219 10:39 26.01.2020
174 Clouds 1 1020 92 0 0.4 219 10:21 26.01.2020
175 Clouds 0 1020 86 0 2.1 100 09:58 26.01.2020
176 Clouds 0 1020 86 0 2.1 100 09:40 26.01.2020
177 Clouds -1 1020 92 0 1 90 09:21 26.01.2020
178 Clouds -1 1020 92 0 0.4 219 08:45 26.01.2020
179 Clouds -1 1020 92 0 1 0 08:23 26.01.2020
180 Clouds -1 1020 92 0 0.97 321 07:58 26.01.2020
181 Clouds -1 1020 92 0 0.97 321 07:40 26.01.2020
182 Clouds -1 1019 92 0 0.97 321 07:22 26.01.2020
183 Clouds -1 1022 87 0 0.97 321 06:32 26.01.2020
184 Clouds -1 1022 100 0 0.97 321 05:35 26.01.2020
185 Clouds -1 1020 86 0 0.5 0 04:52 26.01.2020
186 Clouds -1 1020 100 0 2.6 90 02:59 26.01.2020
187 Clouds -1 1020 92 0 1 80 01:59 26.01.2020
188 Clouds -1 1023 90 0 0.79 223 01:38 26.01.2020
189 Clouds -1 1020 92 0 0.79 223 01:19 26.01.2020
190 Clouds -1 1020 92 0 0.91 248 00:39 26.01.2020
191 Clouds -1 1020 92 0 0.91 248 00:20 26.01.2020
192 Clouds -1 1020 92 0 0.91 248 00:20 26.01.2020
193 Clouds 0 1023 90 0 0.91 248 23:37 25.01.2020
194 Clouds -1 1023 89 0 1.12 250 23:18 25.01.2020
195 Clouds 0 1023 89 0 1.12 250 22:43 25.01.2020
196 Clouds -1 1023 89 0 0.5 70 22:20 25.01.2020
197 Clouds -1 1023 86 0 0.5 80 21:57 25.01.2020
198 Clouds -1 1023 86 0 0.5 80 21:39 25.01.2020
199 Clouds 0 1023 100 0 1.12 250 21:20 25.01.2020
200 Clouds 0 1023 89 0 1 80 20:45 25.01.2020
201 Clouds 0 1023 74 0 1.12 250 20:26 25.01.2020
202 Clouds -8 1023 91 0 0.96 243 19:56 25.01.2020
203 Clouds 0 1023 72 0 0.96 243 19:38 25.01.2020
204 Clouds 1 1022 69 0 1 90 19:19 25.01.2020
205 Clouds 0 1023 74 0 1 252 18:55 25.01.2020
206 Clouds 0 1022 69 0 1 90 18:37 25.01.2020
207 Clouds 0 1023 72 0 1 252 18:18 25.01.2020
208 Clouds 0 1022 69 0 1 90 18:18 25.01.2020
209 Clouds 0 1023 70 0 0.96 243 17:39 25.01.2020
210 Clouds 2 1022 60 0 0.5 230 17:19 25.01.2020
211 Clouds 2 1022 60 0 1.17 174 16:56 25.01.2020
212 Clouds 3 1022 60 0 1.17 174 16:37 25.01.2020
213 Clouds 3 1023 60 0 1.5 240 16:18 25.01.2020
214 Clouds 3 1023 60 0 1.5 240 15:42 25.01.2020
215 Clouds 3 1023 60 0 1.5 240 15:23 25.01.2020
216 Clouds 3 1024 56 0 1.17 174 14:46 25.01.2020
217 Clouds 4 1024 56 0 2.2 183 14:19 25.01.2020
218 Clouds 4 1024 56 0 2.2 183 13:57 25.01.2020
219 Clouds 4 1025 65 0 2.2 183 13:39 25.01.2020
220 Clouds 4 1025 65 0 2.24 183 13:20 25.01.2020
221 Clouds 4 1025 69 0 2.24 183 12:42 25.01.2020
222 Clouds 3 1025 69 0 2.24 183 12:21 25.01.2020
223 Clouds 3 1023 100 0 1 240 11:45 25.01.2020
224 Clouds 1 1023 92 0 1.66 181 11:21 25.01.2020
225 Clouds 1 1023 92 0 1.5 120 10:56 25.01.2020
226 Clouds 0 1023 92 0 1.5 120 10:38 25.01.2020
227 Fog 0 1023 100 250 1 250 10:19 25.01.2020
228 Clouds -1 1022 100 0 1.66 181 09:40 25.01.2020
229 Clouds -1 1022 92 0 1.66 181 09:21 25.01.2020
230 Clouds -2 1022 92 0 1.66 181 08:43 25.01.2020
231 Clouds -2 1022 92 0 1 0 08:21 25.01.2020
232 Fog -1 1022 92 150 2.1 220 07:41 25.01.2020
233 Clouds -2 1022 92 0 1 0 06:44 25.01.2020
234 Clouds -2 1022 92 0 1.14 252 06:24 25.01.2020
235 Clouds -2 1022 92 0 1.14 252 06:24 25.01.2020
236 Clouds -1 1022 100 0 1.14 252 05:44 25.01.2020
237 Fog -1 1022 93 100 2.1 210 04:26 25.01.2020
238 Fog -1 1023 93 150 1 0 03:50 25.01.2020
239 Clouds -1 1022 92 0 0.5 0 02:48 25.01.2020
240 Mist 0 1023 86 3400 1 200 01:59 25.01.2020
241 Mist 0 1023 86 3400 1 200 01:59 25.01.2020
242 Clouds -1 1023 100 0 1.04 269 01:37 25.01.2020
243 Snow -1 1023 92 0 1.22 227 00:42 25.01.2020
244 Snow -1 1023 92 0 1 0 00:23 25.01.2020
245 Clouds -1 1023 92 0 0.5 0 23:56 24.01.2020
246 Clouds -1 1023 92 0 1 0 23:38 24.01.2020
247 Clouds -1 1023 92 0 1 0 23:38 24.01.2020
248 Clouds 0 1023 92 0 1 0 23:19 24.01.2020
249 Clouds 0 1023 92 0 0.5 0 22:42 24.01.2020
250 Clouds 0 1023 93 0 2.6 90 22:23 24.01.2020
251 Clouds 0 1023 92 0 1.5 120 21:41 24.01.2020
252 Clouds 0 1023 92 0 1.5 300 21:20 24.01.2020
253 Clouds 0 1023 100 0 0.94 231 20:55 24.01.2020
254 Clouds 0 1026 69 0 0.94 231 20:37 24.01.2020
255 Clouds 0 1022 92 0 1.91 175 20:18 24.01.2020
256 Clouds 0 1023 92 0 1 0 19:55 24.01.2020
257 Clouds 0 1023 92 0 1.91 175 19:37 24.01.2020
258 Clouds 0 1023 92 0 1.91 175 19:19 24.01.2020
259 Clouds 0 1022 92 0 1.91 175 18:42 24.01.2020
260 Clouds 1 1022 58 0 1.91 175 18:22 24.01.2020
261 Clouds 1 1023 58 0 2.1 100 17:44 24.01.2020
262 Clouds 2 1023 58 10000 2.1 90 17:22 24.01.2020
263 Clouds 2 1023 65 10000 1.4 161 16:57 24.01.2020
264 Clouds 2 1023 65 10000 1.4 161 16:38 24.01.2020
265 Clouds 3 1023 65 10000 1.4 161 16:19 24.01.2020
266 Clouds 2 1023 65 10000 1 0 15:41 24.01.2020
267 Clouds 2 1023 65 10000 0.5 0 15:21 24.01.2020
268 Clouds 3 1023 65 10000 1 0 14:42 24.01.2020
269 Clouds 3 1023 100 10000 2.6 260 14:24 24.01.2020
270 Clouds 4 1023 100 10000 2.4 164 13:59 24.01.2020
271 Clouds 3 1023 100 10000 2.4 164 13:40 24.01.2020
272 Clouds 4 1024 100 6000 1 0 13:21 24.01.2020
273 Clouds 4 1024 100 5000 2.23 161 12:42 24.01.2020
274 Fog 4 1025 92 5000 1 240 12:20 24.01.2020
275 Fog 3 1026 92 400 2.23 161 11:44 24.01.2020
276 Fog 1 1026 100 400 1.5 110 11:19 24.01.2020
277 Fog 1 1026 100 300 2.1 90 10:56 24.01.2020
278 Fog 1 1026 100 300 2.1 90 10:56 24.01.2020
279 Fog 1 1026 100 300 2.1 90 10:38 24.01.2020
280 Fog 0 1026 100 350 1 0 10:18 24.01.2020
281 Fog -1 1026 100 650 1 90 09:41 24.01.2020
282 Fog -1 1026 92 1200 1 0 09:23 24.01.2020
283 Fog -1 1025 100 1300 1.5 290 08:41 24.01.2020
284 Fog -2 1025 100 550 1 0 08:21 24.01.2020
285 Fog -2 1025 92 600 2.1 110 07:58 24.01.2020
286 Clouds -2 1027 92 10000 1 0 07:37 24.01.2020
287 Fog -1 1025 100 600 2.6 260 06:54 24.01.2020
288 Clouds -2 1027 100 0 1 0 06:33 24.01.2020
289 Fog -2 1025 100 900 2.1 110 05:59 24.01.2020
290 Fog -1 1026 92 800 2.1 130 05:18 24.01.2020
291 Mist -1 1027 100 5000 1 230 02:54 24.01.2020
292 Clouds -1 1027 92 5000 1 0 02:27 24.01.2020
293 Clouds -1 1027 92 6000 2.1 110 01:53 24.01.2020
294 Clouds -1 1027 92 6000 2.1 120 01:33 24.01.2020
295 Clear 0 1030 100 0 1.06 229 00:33 24.01.2020
296 Clouds 0 1027 92 6000 2.6 120 23:58 23.01.2020
297 Clouds 0 1027 92 6000 2.6 120 23:40 23.01.2020
298 Clouds 0 1027 92 6000 0.5 0 23:20 23.01.2020
299 Clouds 0 1027 92 6000 1.77 215 22:39 23.01.2020
300 Clouds 0 1027 92 6000 2.1 260 22:20 23.01.2020
301 Clouds 0 1026 92 7000 1.77 215 21:58 23.01.2020
302 Clouds 0 1026 92 7000 1.77 215 21:39 23.01.2020
303 Clouds 0 1026 92 8000 1 0 21:21 23.01.2020
304 Clouds 1 1026 54 8000 1.77 215 20:59 23.01.2020
305 Clouds 1 1026 54 8000 1.77 215 20:39 23.01.2020
306 Clouds 1 1026 54 7000 1 0 20:21 23.01.2020
307 Clouds 0 1026 55 7000 2.16 205 19:56 23.01.2020
308 Clouds 1 1026 55 7000 2.16 205 19:38 23.01.2020
309 Clouds 0 1026 55 7000 1 210 19:20 23.01.2020
310 Clouds 1 1025 55 7000 1.5 240 18:56 23.01.2020
311 Clouds 1 1030 74 10000 1.5 70 18:37 23.01.2020
312 Clouds 1 1025 55 6000 1 0 18:19 23.01.2020
313 Clouds 0 1025 55 6000 1.5 270 17:43 23.01.2020
314 Clouds 2 1025 61 6000 2.1 270 17:20 23.01.2020
315 Clouds 2 1025 61 7000 2.1 260 16:58 23.01.2020
316 Clouds 2 1029 52 10000 0.5 0 16:37 23.01.2020
317 Clouds 2 1025 61 7000 1 0 16:18 23.01.2020
318 Clouds 2 1025 61 7000 3.6 250 15:57 23.01.2020
319 Clouds 1 1025 92 8000 2.1 270 15:37 23.01.2020
320 Clouds 1 1025 92 8000 2.1 270 15:18 23.01.2020
321 Clouds 1 1025 92 8000 1.5 260 14:56 23.01.2020
322 Clouds 1 1025 92 10000 1 0 14:38 23.01.2020
323 Clouds 2 1025 92 10000 1 0 14:20 23.01.2020
324 Clouds 2 1026 92 7000 2.1 270 13:43 23.01.2020
325 Clouds 3 1027 92 9000 1.5 260 13:20 23.01.2020
326 Clouds 2 1027 92 8000 2.1 240 12:54 23.01.2020
327 Clear 3 1032 65 0 2.1 220 12:36 23.01.2020
328 Clouds 2 1028 92 10000 2.1 260 12:18 23.01.2020
329 Mist 2 1028 65 5000 1 0 11:42 23.01.2020
330 Mist 1 1029 92 4000 2.75 172 11:23 23.01.2020
331 Mist 0 1029 92 3500 2.37 179 10:56 23.01.2020
332 Clear 0 1032 74 10000 1.5 60 10:38 23.01.2020
333 Mist 0 1029 86 4000 1 0 10:18 23.01.2020
334 Clouds 0 1029 92 4000 0.5 0 09:40 23.01.2020
335 Clouds -1 1028 92 6000 1 0 09:21 23.01.2020
336 Clouds -1 1028 92 10000 1 100 08:43 23.01.2020
337 Clouds -1 1029 92 5000 2.6 210 08:25 23.01.2020
338 Clear -2 1028 92 10000 0.86 197 07:51 23.01.2020
339 Clear -2 1028 92 10000 0.86 197 07:27 23.01.2020
340 Clear -2 1028 92 10000 0.86 197 06:54 23.01.2020
341 Clear -2 1028 92 10000 0.86 197 06:25 23.01.2020
342 Clear -2 1028 92 10000 0.86 197 05:59 23.01.2020
343 Mist -1 1031 92 4100 2.1 210 04:24 23.01.2020
344 Mist -1 1032 92 4900 1.5 210 02:48 23.01.2020
345 Clouds -1 1032 100 4200 0.5 0 01:50 23.01.2020
346 Clear -1 1032 92 10000 2.16 328 00:29 23.01.2020
347 Mist 0 1033 27 2900 1.5 170 23:57 22.01.2020
348 Clear 0 1030 86 0 2.16 328 23:39 22.01.2020
349 Clouds 0 1033 29 4200 0.5 0 23:20 22.01.2020
350 Clouds -1 1033 29 4200 0.5 0 22:42 22.01.2020
351 Clouds 0 1033 29 4200 0.5 0 22:23 22.01.2020
352 Clear -1 1031 92 10000 2.43 328 21:56 22.01.2020
353 Clear 0 1030 29 0 2.43 328 21:36 22.01.2020
354 Clear 0 1031 92 10000 0.5 0 21:18 22.01.2020
355 Clouds 0 1032 29 4200 0.5 0 20:41 22.01.2020
356 Mist 0 1032 29 2500 1 0 20:23 22.01.2020
357 Clear 0 1031 92 10000 2.69 334 19:58 22.01.2020
358 Clear 0 1031 92 10000 2.69 334 19:58 22.01.2020
359 Clear 0 1031 92 10000 2.69 334 19:39 22.01.2020
360 Mist 0 1032 33 2800 1 0 19:20 22.01.2020
361 Clear 0 1032 92 10000 1.5 100 18:58 22.01.2020
362 Clear 0 1032 92 10000 1.5 100 18:38 22.01.2020
363 Mist 0 1032 33 3800 0.5 0 18:20 22.01.2020
364 Clear 0 1031 86 10000 1.5 80 17:55 22.01.2020
365 Clear 0 1031 80 10000 1.5 100 17:37 22.01.2020
366 Clear 2 1031 80 10000 1.5 100 17:19 22.01.2020
367 Clear 2 1030 80 10000 1.5 0 16:43 22.01.2020
368 Clear 3 1030 86 10000 1.12 237 16:23 22.01.2020
369 Clear 2 1030 45 10000 1.12 237 15:59 22.01.2020
370 Clear 2 1030 45 10000 1.12 237 15:40 22.01.2020
371 Clear 3 1030 86 10000 1 0 15:22 22.01.2020
372 Clear 2 1030 45 10000 1.12 237 14:57 22.01.2020
373 Clear 2 1031 45 10000 1.12 237 14:37 22.01.2020
374 Clear 2 1031 74 10000 1.56 181 14:18 22.01.2020
375 Clear 3 1031 74 10000 1.56 181 13:54 22.01.2020
376 Clear 3 1032 92 10000 1.5 270 13:36 22.01.2020
377 Clear 3 1032 92 10000 1.5 270 13:18 22.01.2020
378 Clear 4 1032 92 10000 1.5 270 12:55 22.01.2020
379 Clear 4 1034 48 0 1.5 90 12:37 22.01.2020
380 Clear 3 1033 92 10000 1 0 12:18 22.01.2020
381 Clear 3 1033 100 10000 1.63 184 11:56 22.01.2020
382 Clear 3 1036 55 10000 1.5 110 11:37 22.01.2020
383 Clear 1 1033 92 10000 1 0 11:18 22.01.2020
384 Clear 0 1033 92 10000 1.33 207 10:43 22.01.2020
385 Clear -1 1033 92 10000 1.33 207 10:20 22.01.2020
386 Clear -1 1033 92 10000 1.33 207 09:43 22.01.2020
387 Clear -2 1033 92 10000 1.5 90 09:25 22.01.2020
388 Clear -1 1033 92 9000 1 100 08:57 22.01.2020
389 Clear -1 1033 92 9000 1 100 08:39 22.01.2020
390 Clouds -1 1033 92 10000 1 0 08:21 22.01.2020
391 Clouds -1 1033 92 10000 1 0 07:48 22.01.2020
392 Clouds -1 1033 92 10000 0.5 0 07:30 22.01.2020
393 Clouds -1 1032 92 10000 0.5 0 06:50 22.01.2020
394 Clouds -1 1032 92 10000 1.38 215 06:26 22.01.2020
395 Clouds -2 1037 100 0 1.38 215 05:33 22.01.2020
396 Clouds -1 1034 86 10000 1 0 04:18 22.01.2020
397 Clouds -1 1034 86 10000 1.5 100 03:21 22.01.2020
398 Clouds -1 1035 92 10000 1 0 01:43 22.01.2020
399 Clouds -1 1035 86 10000 1 0 00:44 22.01.2020
400 Clouds -2 1035 92 10000 0.5 0 00:26 22.01.2020
401 Clouds -1 1035 86 10000 0.5 0 23:38 21.01.2020
402 Clouds -1 1034 86 10000 1 0 23:20 21.01.2020
403 Clouds -1 1035 86 10000 1 0 22:56 21.01.2020
404 Clouds -1 1035 86 10000 1 0 22:56 21.01.2020
405 Clouds -1 1039 53 0 1 0 22:37 21.01.2020
406 Clouds -1 1039 53 0 1 0 22:37 21.01.2020
407 Clouds -1 1035 86 10000 0.5 0 22:19 21.01.2020
408 Clouds -1 1035 92 10000 0.5 0 21:55 21.01.2020
409 Clouds -1 1039 80 0 1 90 21:37 21.01.2020
410 Clouds -1 1035 85 10000 0.5 0 21:18 21.01.2020
411 Clouds -1 1035 86 10000 1.5 80 20:55 21.01.2020
412 Clouds -1 1039 74 0 1.74 203 20:37 21.01.2020
413 Clouds -1 1036 86 10000 0.5 0 20:18 21.01.2020
414 Clouds -1 1036 92 10000 1.5 80 19:55 21.01.2020
415 Clouds 0 1039 80 0 1 80 19:36 21.01.2020
416 Clouds 0 1036 86 10000 1.88 201 19:18 21.01.2020
417 Clouds -1 1035 85 10000 1 0 18:54 21.01.2020
418 Clouds -1 1039 64 0 1 80 18:36 21.01.2020
419 Clouds -1 1035 86 10000 1.88 201 18:18 21.01.2020
420 Clouds 0 1035 80 10000 1.88 201 17:42 21.01.2020
421 Clouds 2 1036 53 10000 1.5 80 17:19 21.01.2020
422 Clouds 2 1036 86 10000 0.5 0 16:56 21.01.2020
423 Clouds 2 1039 56 10000 1.5 240 16:36 21.01.2020
424 Clouds 2 1036 53 10000 1.85 183 16:18 21.01.2020
425 Clouds 2 1036 53 10000 1 0 15:39 21.01.2020
426 Clouds 2 1037 53 10000 2.1 90 15:20 21.01.2020
427 Clouds 2 1037 74 10000 1.5 230 14:54 21.01.2020
428 Clouds 2 1038 74 10000 2.1 190 14:36 21.01.2020
429 Clouds 3 1037 79 10000 1 0 14:18 21.01.2020
430 Clouds 3 1037 86 10000 1 0 13:38 21.01.2020
431 Clouds 3 1038 69 10000 1.5 0 13:18 21.01.2020
432 Clouds 3 1039 69 10000 0.5 0 12:43 21.01.2020
433 Clouds 3 1039 74 10000 0.5 0 12:24 21.01.2020
434 Clouds 3 1040 54 10000 1 230 11:56 21.01.2020
435 Clouds 2 1043 51 10000 0.5 0 11:38 21.01.2020
436 Clouds 2 1043 51 10000 0.5 0 11:38 21.01.2020
437 Clouds 2 1043 51 10000 0.5 0 11:38 21.01.2020
438 Clouds 0 1039 85 10000 2.07 200 11:19 21.01.2020
439 Clouds -1 1039 92 10000 1 0 10:43 21.01.2020
440 Clouds -2 1040 86 10000 1.5 250 10:23 21.01.2020
441 Clouds -2 1039 92 10000 2.07 200 09:57 21.01.2020
442 Clouds -2 1039 92 10000 2.07 200 09:39 21.01.2020
443 Clouds -3 1039 85 10000 0.5 0 09:21 21.01.2020
444 Clouds -3 1039 92 10000 0.5 0 08:45 21.01.2020
445 Clouds -3 1039 92 10000 2.6 100 08:27 21.01.2020
446 Clouds -4 1040 92 10000 1.5 70 07:45 21.01.2020
447 Clouds -4 1040 85 10000 1 0 07:26 21.01.2020
448 Clouds -4 1040 85 10000 1.5 100 06:58 21.01.2020
449 Clouds -4 1040 85 10000 1.5 100 06:39 21.01.2020
450 Clouds -4 1039 85 10000 1 0 06:20 21.01.2020
451 Clouds -4 1040 85 10000 2.1 250 05:40 21.01.2020
452 Clouds -4 1044 73 0 1.2 216 04:38 21.01.2020
453 Clouds -4 1039 79 10000 1 0 02:34 21.01.2020
454 Clear -4 1045 79 0 0.5 0 01:37 21.01.2020
455 Clear -4 1039 85 10000 2.1 280 00:52 21.01.2020
456 Clear -4 1039 73 10000 3.6 250 00:29 21.01.2020
457 Clear -4 1039 85 10000 3.6 250 23:56 20.01.2020
458 Clear -3 1046 74 0 0.5 0 23:36 20.01.2020
459 Clear -3 1039 79 10000 3.1 250 23:18 20.01.2020
460 Clear -3 1039 79 10000 0.5 0 22:54 20.01.2020
461 Clear -3 1045 68 0 2.29 196 22:36 20.01.2020
462 Clear -3 1039 85 10000 1.5 300 22:18 20.01.2020
463 Clear -3 1039 79 10000 1.5 320 21:54 20.01.2020
464 Clear -3 1044 68 0 2.29 196 21:36 20.01.2020
465 Clear -4 1039 73 10000 1.5 240 21:18 20.01.2020
466 Clouds -3 1038 73 10000 2.29 196 20:42 20.01.2020
467 Clouds -3 1039 74 10000 2.1 70 20:20 20.01.2020
468 Clouds -3 1039 74 10000 4.1 110 19:59 20.01.2020
469 Clouds -2 1039 74 10000 4.1 110 19:40 20.01.2020
470 Clouds -2 1039 68 10000 3.1 120 19:19 20.01.2020
471 Clouds -2 1039 68 10000 3.6 100 18:56 20.01.2020
472 Clouds -3 1042 51 0 1 0 18:38 20.01.2020
473 Clouds -3 1039 68 10000 3.1 90 18:19 20.01.2020
474 Clouds -2 1040 59 0 2.1 170 17:38 20.01.2020
475 Clear -1 1039 55 10000 3.6 50 17:19 20.01.2020
476 Clear -1 1038 55 10000 3.1 0 16:46 20.01.2020
477 Clear 0 1038 55 10000 4.1 70 16:26 20.01.2020
478 Clear 0 1038 55 10000 5.1 40 15:59 20.01.2020
479 Clear 1 1038 55 10000 5.1 40 15:40 20.01.2020
480 -273 0 0 0 0 0 15:22 20.01.2020
481 Clear 1 1038 50 10000 4.1 60 14:58 20.01.2020
482 Clear 0 1038 50 10000 4.1 60 14:39 20.01.2020
483 Clear 0 1038 55 10000 5.1 60 14:20 20.01.2020
484 Clear 0 1039 55 10000 5.7 60 13:44 20.01.2020
485 Clear -1 1039 60 10000 2.1 0 13:24 20.01.2020
486 Clear 0 1039 60 10000 3.1 0 12:58 20.01.2020
487 Clear 0 1039 60 10000 3.1 0 12:40 20.01.2020
488 Clear 1 1039 60 10000 3.1 0 12:21 20.01.2020
489 Clouds -1 1040 68 10000 2.1 100 11:55 20.01.2020
490 Clear -1 1043 32 10000 2.1 90 11:36 20.01.2020
491 Clouds -3 1040 68 10000 3.1 120 11:18 20.01.2020
492 Clouds -3 1040 68 10000 4.1 80 10:41 20.01.2020
493 Clouds -4 1040 73 10000 4.1 90 10:20 20.01.2020
494 Clouds -3 1040 73 10000 4.1 100 09:42 20.01.2020
495 Clouds -4 1040 73 10000 4.1 90 09:24 20.01.2020
496 Clouds -4 1040 73 10000 5.1 100 08:55 20.01.2020
497 Clear -3 1041 60 10000 2.1 30 08:34 20.01.2020
498 Clear -4 1040 79 10000 1.5 230 07:56 20.01.2020
499 Clear -4 1040 37 10000 1.5 70 07:38 20.01.2020
500 Clouds -3 1038 73 0 5.7 100 07:19 20.01.2020
501 Clouds -3 1038 73 0 5.7 70 06:42 20.01.2020
502 Clouds -4 1038 74 0 5.1 120 06:21 20.01.2020
503 Clouds -3 1039 43 0 3.6 70 05:38 20.01.2020
504 Clouds -3 1037 74 0 5.7 140 05:19 20.01.2020
505 Clouds -3 1039 74 0 5.1 130 03:55 20.01.2020
506 Clouds -2 1038 74 0 4.1 100 01:58 20.01.2020
507 Clouds -1 1038 74 0 4.1 100 01:39 20.01.2020
508 Clouds -2 1038 79 0 4.6 100 00:56 20.01.2020
509 Clouds -2 1037 43 0 1.5 40 00:38 20.01.2020
510 Clouds -1 1037 80 0 4.6 110 00:20 20.01.2020
511 Clouds -2 1036 40 0 1.5 40 23:38 19.01.2020
512 Clouds -2 1037 69 0 4.1 0 23:18 19.01.2020
513 Clouds -2 1037 69 0 5.1 120 22:55 19.01.2020
514 Clouds -2 1036 35 0 1.5 80 22:37 19.01.2020
515 Clouds -2 1036 74 0 4.6 100 22:19 19.01.2020
516 Rain 0 1036 74 0 2.6 0 21:56 19.01.2020
517 Clouds -1 1035 43 0 1 0 21:37 19.01.2020
518 Clouds 0 1036 74 0 4.6 120 21:19 19.01.2020
519 Rain -1 1036 74 0 4.6 110 20:56 19.01.2020
520 Rain 0 1034 28 0 2.6 110 20:38 19.01.2020
521 Rain -1 1035 74 0 4.1 120 20:19 19.01.2020
522 Clouds -2 1035 74 0 3.6 120 19:55 19.01.2020
523 Clouds -1 1033 28 0 1.5 0 19:37 19.01.2020
524 Rain -1 1035 74 0 4.6 120 19:19 19.01.2020
525 Rain -1 1034 74 0 5.1 120 18:55 19.01.2020
526 Clouds -2 1032 26 0 1.5 320 18:37 19.01.2020
527 Rain -2 1034 64 0 4.6 150 18:19 19.01.2020
528 Rain -1 1034 64 0 5.7 160 17:57 19.01.2020
529 Rain -1 1034 64 0 5.7 160 17:38 19.01.2020
530 Rain 1 1033 64 0 5.1 200 17:19 19.01.2020
531 Clouds 1 1033 64 0 3.6 0 16:57 19.01.2020
532 Clouds 1 1030 21 0 4.1 110 16:37 19.01.2020
533 Clouds 1 1030 21 0 4.1 110 16:37 19.01.2020
534 Clouds 1 1030 21 0 4.1 110 16:37 19.01.2020
535 Clouds 0 1033 64 0 3.1 0 16:19 19.01.2020
536 Rain 1 1033 69 0 3.6 0 15:55 19.01.2020
537 Rain 1 1029 23 0 4.1 110 15:37 19.01.2020
538 Rain 1 1032 64 0 3.6 90 15:18 19.01.2020
539 Snow 1 1032 64 0 4.6 30 14:41 19.01.2020
540 Snow 1 1032 64 0 4.6 30 14:41 19.01.2020
541 Rain 1 1032 69 0 3.6 0 14:21 19.01.2020
542 Clouds 0 1032 69 0 3.6 0 13:59 19.01.2020
543 Clouds 1 1032 69 0 3.6 0 13:40 19.01.2020
544 Clouds 0 1032 69 0 3.1 0 13:22 19.01.2020
545 Clouds 0 1032 69 0 3.1 0 13:22 19.01.2020
546 Clouds 0 1032 69 0 2.6 0 12:59 19.01.2020
547 Clouds 0 1032 69 0 2.6 0 12:41 19.01.2020
548 Clouds 1 1032 69 0 4.1 0 12:21 19.01.2020
549 Rain 1 1032 64 0 2.1 0 11:57 19.01.2020
550 Clouds 1 1028 23 0 3.1 130 11:38 19.01.2020
551 Rain -1 1032 64 0 3.1 0 11:18 19.01.2020
552 Clouds -1 1031 93 0 4.1 100 10:41 19.01.2020
553 Clouds -1 1031 93 0 4.1 100 10:21 19.01.2020
554 Clouds -1 1031 93 0 4.6 90 09:58 19.01.2020
555 Clouds -1 1031 93 0 4.6 90 09:39 19.01.2020
556 Clouds -1 1031 93 0 4.1 100 09:21 19.01.2020
557 Rain -2 1030 74 0 4.1 100 08:56 19.01.2020
558 Clouds -1 1027 51 0 1.5 90 08:38 19.01.2020
559 Snow -1 1030 82 0 3.6 100 08:19 19.01.2020
560 Snow -1 1030 76 0 2.1 120 07:29 19.01.2020
561 Clouds -1 1029 76 0 2.6 140 06:56 19.01.2020
562 Snow -1 1029 76 0 2.6 130 06:23 19.01.2020
563 Clouds -1 1028 54 0 3.1 90 04:19 19.01.2020
564 Clouds -1 1025 44 0 1.5 70 02:35 19.01.2020
565 Clouds -1 1028 74 10000 2.1 290 01:58 19.01.2020
566 Clouds -1 1027 55 0 4.6 90 01:22 19.01.2020
567 Clouds -2 1027 54 0 4.1 100 00:45 19.01.2020
568 Clouds -2 1027 54 0 4.1 100 00:45 19.01.2020
569 Clouds -2 1025 38 0 1 0 00:26 19.01.2020
570 Clouds -2 1027 54 0 4.1 110 23:55 18.01.2020
571 Clouds -2 1024 47 0 2.6 100 23:36 18.01.2020
572 Clouds -2 1027 80 0 3.6 110 23:18 18.01.2020
573 Clouds -1 1027 80 0 4.1 100 22:54 18.01.2020
574 Clouds -1 1027 80 0 4.1 100 22:54 18.01.2020
575 Clouds -1 1024 38 0 1.5 60 22:36 18.01.2020
576 Clouds -1 1024 38 0 1.5 60 22:36 18.01.2020
577 Clouds -1 1027 80 0 3.6 100 22:18 18.01.2020
578 Clouds -1 1028 69 10000 2.1 0 21:55 18.01.2020
579 Clouds -1 1027 86 0 2.6 90 21:36 18.01.2020
580 Clouds -1 1027 86 0 2.6 90 21:18 18.01.2020
581 Clouds -1 1027 86 0 2.1 110 20:41 18.01.2020
582 Clouds -1 1027 92 0 0.5 0 20:19 18.01.2020
583 Clouds -1 1027 92 0 4.23 336 19:44 18.01.2020
584 Clouds -1 1027 86 0 1.5 90 19:25 18.01.2020
585 Clouds 0 1027 86 0 2.1 90 18:56 18.01.2020
586 Clouds -1 1023 23 0 2.6 110 18:37 18.01.2020
587 Clouds -2 1027 92 0 1.5 90 18:19 18.01.2020
588 Clouds 0 1027 86 0 1 90 17:41 18.01.2020
589 Clouds 1 1026 86 0 1 0 17:21 18.01.2020
590 Clouds 1 1026 87 0 1 0 16:57 18.01.2020
591 Clear 2 1022 15 0 4.6 320 16:38 18.01.2020
592 Clear 2 1026 86 0 3.4 342 16:20 18.01.2020
593 Clear 2 1026 87 0 3.4 342 15:56 18.01.2020
594 Clear 2 1021 50 0 1 0 15:38 18.01.2020
595 Clouds 1 1026 87 10000 2.1 60 15:20 18.01.2020
596 Clear 2 1026 87 0 3.4 342 14:41 18.01.2020
597 Clouds 2 1027 93 0 3.89 338 14:20 18.01.2020
598 Clouds 2 1027 73 0 1 0 13:57 18.01.2020
599 Clouds 3 1022 57 0 3.89 338 13:37 18.01.2020
600 Clouds 2 1027 86 0 0.5 0 13:18 18.01.2020
601 Clouds 4 1028 93 0 3.97 340 12:43 18.01.2020
602 Clouds 3 1028 86 0 3.97 340 12:22 18.01.2020
603 Clouds 3 1028 100 0 1.5 280 11:58 18.01.2020
604 Clouds 4 1028 100 0 1.5 280 11:40 18.01.2020
605 Clouds 2 1028 93 0 4.13 333 11:20 18.01.2020
606 Clouds 3 1028 100 0 1.5 140 10:43 18.01.2020
607 Clouds 2 1028 93 0 1 60 10:21 18.01.2020
608 Clouds 2 1028 100 0 4.13 333 09:56 18.01.2020
609 Clouds 1 1028 100 0 4.13 333 09:38 18.01.2020
610 Clouds 1 1028 100 0 0.5 0 09:18 18.01.2020
611 Clouds 1 1028 100 0 1 0 08:42 18.01.2020
612 Rain 1 1028 93 0 4.28 335 08:20 18.01.2020
613 Rain 1 1028 93 0 4.24 334 08:20 18.01.2020
614 Rain 1 1028 93 0 1.5 260 07:58 18.01.2020
615 Rain 1 1022 93 0 0.5 0 07:37 18.01.2020
616 Clouds 2 1027 93 0 1.5 300 06:50 18.01.2020
617 Rain 2 1027 86 0 3.1 250 06:27 18.01.2020
618 Rain 1 1027 93 0 2.6 270 05:49 18.01.2020
619 Rain 2 1027 100 0 0.5 0 04:24 18.01.2020
620 Rain 2 1022 86 0 1.5 220 02:34 18.01.2020
621 Rain 2 1026 100 0 3.79 337 01:40 18.01.2020
622 Rain 2 1025 100 0 3.65 338 00:39 18.01.2020
623 Rain 2 1025 100 0 3.65 338 00:39 18.01.2020
624 Rain 2 1025 100 0 1 0 00:19 18.01.2020
625 Rain 2 1025 93 0 0.5 0 23:58 17.01.2020
626 Rain 2 1025 93 0 0.5 0 23:38 17.01.2020
627 Rain 2 1024 93 0 1.69 353 23:18 17.01.2020
628 Rain 3 1024 93 0 1.69 353 22:41 17.01.2020
629 Rain 3 1024 93 0 2.1 110 22:19 17.01.2020
630 Rain 3 1024 93 0 2.1 90 21:54 17.01.2020
631 Clouds 3 1023 95 0 1.5 70 21:36 17.01.2020
632 Rain 3 1023 93 0 1.69 353 21:18 17.01.2020
633 Rain 3 1024 86 0 0.5 60 20:41 17.01.2020
634 Rain 3 1023 95 0 1 0 20:21 17.01.2020
635 Rain 3 1023 95 0 1 0 20:21 17.01.2020
636 Rain 3 1023 95 0 1 0 19:57 17.01.2020
637 Rain 3 1023 95 0 1 0 19:38 17.01.2020
638 Rain 3 1023 95 0 1.5 150 19:20 17.01.2020
639 Rain 4 1022 95 0 2.6 90 18:58 17.01.2020
640 Rain 4 1022 95 0 2.6 90 18:58 17.01.2020
641 Clouds 4 1023 95 0 0.5 60 18:38 17.01.2020
642 Clouds 4 1022 95 0 1 0 18:20 17.01.2020
643 Clouds 4 1022 74 0 3.1 270 17:40 17.01.2020
644 Clouds 5 1021 74 10000 2.1 320 17:21 17.01.2020
645 Clouds 5 1021 96 10000 0.5 0 16:57 17.01.2020
646 Clouds 5 1021 96 10000 0.5 0 16:57 17.01.2020
647 Clouds 5 1023 96 10000 1 0 16:38 17.01.2020
648 Clouds 5 1020 96 10000 2.1 90 16:18 17.01.2020
649 Clouds 6 1021 65 10000 2.6 230 15:44 17.01.2020
650 Clouds 5 1020 74 10000 2.1 260 15:26 17.01.2020
651 Clouds 5 1020 80 10000 2.1 280 14:44 17.01.2020
652 Clouds 6 1020 80 10000 1.5 100 14:26 17.01.2020
653 Clouds 5 1020 74 10000 1.5 80 13:58 17.01.2020
654 Clouds 5 1024 56 10000 1 0 13:37 17.01.2020
655 Clouds 5 1021 80 10000 1 0 13:19 17.01.2020
656 Clouds 4 1021 86 10000 2.1 270 12:42 17.01.2020
657 Clouds 4 1022 86 10000 2.1 260 12:21 17.01.2020
658 Clouds 3 1022 86 10000 2.8 176 11:38 17.01.2020
659 Clouds 3 1023 92 10000 1 0 11:18 17.01.2020
660 Clouds 1 1024 80 10000 0.5 0 10:44 17.01.2020
661 Clouds 0 1025 86 10000 2.1 280 10:23 17.01.2020
662 Clouds 0 1024 79 10000 1.5 250 09:58 17.01.2020
663 Clouds -1 1024 79 10000 1.5 250 09:39 17.01.2020
664 Clouds -1 1024 74 10000 5.7 70 09:20 17.01.2020
665 Clouds -2 1024 85 10000 2.6 100 08:45 17.01.2020
666 Clouds -2 1024 86 10000 3.6 90 08:25 17.01.2020
667 Clouds -2 1024 86 10000 1.5 310 07:55 17.01.2020
668 Clouds -2 1024 92 10000 1.5 270 07:32 17.01.2020
669 Clouds -2 1024 86 10000 1.5 260 06:58 17.01.2020
670 Clouds -2 1024 86 10000 1.5 260 06:58 17.01.2020
671 Clouds -1 1024 86 10000 1.5 260 06:40 17.01.2020
672 Clouds -1 1024 86 10000 1.5 220 05:56 17.01.2020
673 Clouds -1 1029 100 0 0.5 0 03:39 17.01.2020
674 Clouds -1 1029 100 0 2.31 221 02:52 17.01.2020
675 Clear 0 1030 100 0 2.43 201 01:47 17.01.2020
676 Clear 0 1030 100 0 2.43 201 01:29 17.01.2020
677 Clear 0 1030 100 0 2.33 207 00:50 17.01.2020
678 Clear -1 1030 100 0 2.33 207 00:26 17.01.2020
679 Clear 0 1030 100 0 2.33 207 23:44 16.01.2020
680 Clear 0 1026 82 10000 1.5 0 23:26 16.01.2020
681 Clear 0 1026 79 10000 1.5 260 22:57 16.01.2020
682 Clear 0 1026 79 10000 1.5 260 22:39 16.01.2020
683 Clear 1 1026 80 10000 1 230 22:20 16.01.2020
684 Clear 1 1026 80 10000 1.5 260 21:55 16.01.2020
685 Clear 1 1031 79 0 2.29 211 21:36 16.01.2020
686 Clear 1 1026 74 10000 1.5 0 21:18 16.01.2020
687 Clear 1 1026 74 10000 2.6 250 20:41 16.01.2020
688 Clear 2 1026 74 10000 2.1 240 20:21 16.01.2020
689 Clear 2 1026 80 10000 2.1 230 19:59 16.01.2020
690 Clear 2 1026 80 10000 2.1 230 19:41 16.01.2020
691 Clear 1 1027 92 10000 1 0 19:22 16.01.2020
692 Clear 2 1026 69 10000 2.1 260 18:57 16.01.2020
693 Clear 2 1026 69 10000 2.1 260 18:39 16.01.2020
694 Clear 3 1026 68 10000 1 0 18:20 16.01.2020
695 Clear 3 1026 68 10000 0.5 0 17:59 16.01.2020
696 Clear 4 1026 68 10000 0.5 0 17:40 16.01.2020
697 Clear 4 1026 85 10000 0.5 100 17:20 16.01.2020
698 Clear 5 1026 75 10000 1.5 100 16:42 16.01.2020
699 Clear 5 1026 85 10000 2.6 60 16:24 16.01.2020
700 Clear 5 1026 80 10000 1.5 100 15:59 16.01.2020
701 Clear 5 1026 80 10000 1.5 100 15:40 16.01.2020
702 Clear 6 1027 74 10000 2.1 90 15:21 16.01.2020
703 Clear 6 1027 85 10000 1 0 14:45 16.01.2020
704 Clear 6 1027 85 10000 1.5 0 14:24 16.01.2020
705 Clouds 7 1027 87 10000 1 0 13:56 16.01.2020
706 Clouds 7 1031 87 10000 1 0 13:37 16.01.2020
707 Clouds 7 1031 87 10000 1 0 13:37 16.01.2020
708 Clouds 6 1027 87 10000 1 0 13:19 16.01.2020
709 Clouds 7 1028 87 10000 1 0 12:43 16.01.2020
710 Clouds 6 1028 87 10000 0.5 0 12:25 16.01.2020
711 Clouds 4 1028 87 10000 1.5 220 11:43 16.01.2020
712 Clouds 4 1029 69 10000 1 230 11:25 16.01.2020
713 Clouds 2 1029 80 10000 1.5 0 10:59 16.01.2020
714 Clouds 2 1033 93 10000 1 0 10:38 16.01.2020
715 Clouds 1 1029 83 10000 1.5 250 10:20 16.01.2020
716 Clouds 0 1029 83 10000 1 0 09:56 16.01.2020
717 Clouds -1 1032 100 10000 1 0 09:37 16.01.2020
718 Clouds -1 1029 83 10000 2.1 220 09:19 16.01.2020
719 Clouds -1 1029 85 10000 1 0 08:48 16.01.2020
720 Clouds -1 1029 92 0 2.1 50 08:29 16.01.2020
721 Clouds -1 1029 92 10000 1.5 60 07:44 16.01.2020
722 Clouds -1 1029 92 10000 1 0 07:25 16.01.2020
723 Clouds -2 1029 92 0 1.5 90 06:59 16.01.2020
724 Clouds -1 1030 100 0 0.5 0 06:37 16.01.2020
725 Clouds -1 1029 92 0 3.21 346 05:58 16.01.2020
726 Clouds -2 1029 92 0 3.21 346 05:39 16.01.2020
727 Clear -1 1030 100 0 1.5 70 04:37 16.01.2020
728 Clear -1 1030 100 0 1.5 70 04:37 16.01.2020
729 Clouds -1 1029 74 10000 0.5 0 03:28 16.01.2020
730 Clouds 0 1029 75 10000 1.5 220 02:36 16.01.2020
731 Clouds -1 1029 86 0 2.1 70 00:48 16.01.2020
732 Clouds 0 1028 85 0 2.1 100 00:24 16.01.2020
733 Clouds 0 1028 86 0 1 0 23:48 15.01.2020
734 Clouds -1 1027 86 0 1 0 23:23 15.01.2020
735 Clouds 0 1027 86 0 2.1 110 22:57 15.01.2020
736 Clouds 0 1027 86 0 2.1 110 22:57 15.01.2020
737 Clouds 0 1027 86 0 2.1 110 22:39 15.01.2020
738 Clouds 0 1027 92 0 1 0 22:19 15.01.2020
739 Clouds 0 1027 86 0 2.05 333 21:57 15.01.2020
740 Clouds 0 1029 80 0 0.5 0 21:37 15.01.2020
741 Clouds 0 1027 92 0 2.6 100 21:19 15.01.2020
742 Clouds 1 1026 69 10000 2.1 230 20:57 15.01.2020
743 Clouds 1 1026 69 10000 2.1 230 20:57 15.01.2020
744 Clouds 1 1026 86 0 1 0 20:39 15.01.2020
745 Clouds 2 1026 86 0 1.09 197 20:20 15.01.2020
746 Clouds 2 1026 86 0 0.76 239 19:55 15.01.2020
747 Clouds 2 1025 86 0 1 0 19:37 15.01.2020
748 Clouds 2 1025 86 0 1 0 19:19 15.01.2020
749 Clouds 2 1025 86 0 2.6 110 18:56 15.01.2020
750 Clouds 3 1025 86 0 2.6 110 18:56 15.01.2020
751 Clouds 2 1028 69 0 0.76 239 18:38 15.01.2020
752 Clouds 2 1024 92 0 2.1 110 18:19 15.01.2020
753 Clouds 3 1024 94 0 1 0 17:57 15.01.2020
754 Clouds 3 1028 65 0 1 0 17:38 15.01.2020
755 Clouds 4 1023 60 10000 1 0 17:19 15.01.2020
756 Clouds 5 1023 98 10000 1.5 90 16:41 15.01.2020
757 Clouds 5 1023 86 10000 1 0 16:22 15.01.2020
758 Clouds 5 1022 98 10000 1 0 15:58 15.01.2020
759 Clouds 5 1027 60 10000 2.59 186 15:39 15.01.2020
760 Clouds 5 1022 74 10000 0.5 0 15:20 15.01.2020
761 Clouds 6 1022 74 10000 1 0 14:43 15.01.2020
762 Clouds 7 1021 45 10000 1 0 14:20 15.01.2020
763 Clouds 7 1022 49 10000 1.5 250 13:46 15.01.2020
764 Clouds 7 1022 49 10000 1.5 250 13:46 15.01.2020
765 Clouds 7 1022 52 10000 2.1 230 13:27 15.01.2020
766 Clouds 7 1021 48 10000 1 0 12:59 15.01.2020
767 Clouds 7 1021 48 10000 1 0 12:40 15.01.2020
768 Clouds 6 1021 56 10000 1 0 12:20 15.01.2020
769 Clouds 5 1021 64 10000 1 0 11:58 15.01.2020
770 Clouds 4 1029 96 10000 0.5 0 11:37 15.01.2020
771 Clouds 3 1021 80 10000 0.5 0 11:19 15.01.2020
772 Clouds 2 1021 80 10000 2.1 240 10:46 15.01.2020
773 Clouds 0 1021 86 10000 1 0 10:27 15.01.2020
774 Clouds 0 1021 92 10000 2.63 184 09:46 15.01.2020
775 Clouds 0 1021 86 10000 2.6 80 09:26 15.01.2020
776 Clouds -1 1021 85 10000 2.6 100 08:59 15.01.2020
777 Clouds -1 1021 85 10000 2.6 100 08:59 15.01.2020
778 Clouds -1 1021 85 10000 2.6 100 08:41 15.01.2020
779 Clear -1 1021 86 10000 2.28 190 08:22 15.01.2020
780 Clear -1 1020 80 10000 1 260 07:52 15.01.2020
781 Clear -1 1020 80 10000 1.5 320 07:32 15.01.2020
782 Clear -1 1020 86 0 3.1 110 06:46 15.01.2020
783 Clear -1 1020 86 0 3.6 100 06:20 15.01.2020
784 Clear -1 1020 92 0 1 0 04:44 15.01.2020
785 Clear 0 1020 86 0 3.1 110 02:38 15.01.2020
786 Clouds 0 1020 86 0 1.5 110 01:28 15.01.2020
787 Clouds 0 1020 92 0 0.5 0 00:47 15.01.2020
788 Clouds 0 1020 86 0 1 0 00:27 15.01.2020
789 Clouds 0 1019 86 0 2.13 196 23:57 14.01.2020
790 Clouds 0 1028 92 0 2.13 196 23:38 14.01.2020
791 Clouds 0 1019 92 0 1.94 189 23:19 14.01.2020
792 Clouds 0 1019 92 0 1 0 22:41 14.01.2020
793 Clouds 0 1020 80 0 1 0 22:19 14.01.2020
794 Clouds 1 1020 86 0 1.94 189 21:59 14.01.2020
795 Clouds 1 1028 66 0 1.94 189 21:40 14.01.2020
796 Clouds 1 1020 80 0 1.94 189 21:21 14.01.2020
797 Clouds 1 1020 80 0 1.94 189 21:21 14.01.2020
798 Clouds 2 1020 64 10000 1.5 250 20:59 14.01.2020
799 Clouds 2 1020 64 10000 1.5 250 20:40 14.01.2020
800 Clouds 2 1020 86 0 0.5 0 20:20 14.01.2020
801 Clouds 2 1020 86 0 0.5 0 19:56 14.01.2020
802 Clouds 2 1027 69 0 1.38 230 19:38 14.01.2020
803 Clouds 2 1020 69 10000 2.1 250 19:18 14.01.2020
804 Clouds 2 1020 64 10000 1 250 18:56 14.01.2020
805 Clouds 3 1026 69 0 1 90 18:37 14.01.2020
806 Clouds 3 1026 74 0 1.38 230 18:18 14.01.2020
807 Clouds 3 1020 60 10000 2.1 230 17:38 14.01.2020
808 Clouds 4 1019 89 10000 1 0 17:19 14.01.2020
809 Clouds 4 1019 60 10000 0.5 0 16:55 14.01.2020
810 Clouds 5 1025 60 10000 1 220 16:37 14.01.2020
811 Clouds 5 1019 65 10000 1 0 16:19 14.01.2020
812 Clouds 6 1019 60 10000 1.5 70 15:43 14.01.2020
813 Clouds 6 1019 56 10000 1.5 70 15:19 14.01.2020
814 Clouds 6 1019 60 10000 2.1 50 14:47 14.01.2020
815 Clouds 6 1019 52 10000 1 0 14:23 14.01.2020
816 Clouds 6 1019 52 10000 0.5 0 13:59 14.01.2020
817 Clouds 6 1019 52 10000 0.5 0 13:41 14.01.2020
818 Clouds 6 1020 56 10000 1 0 13:19 14.01.2020
819 Clouds 5 1020 60 10000 1 0 12:42 14.01.2020
820 Clouds 5 1020 55 10000 1 0 12:24 14.01.2020
821 Clouds 3 1020 59 10000 1.5 230 11:58 14.01.2020
822 Clouds 3 1021 79 10000 1 0 11:40 14.01.2020
823 Clouds 2 1020 64 10000 1 0 11:22 14.01.2020
824 Clouds 1 1019 92 10000 1 0 10:56 14.01.2020
825 Clouds 0 1026 67 10000 2.6 70 10:37 14.01.2020
826 Clouds 0 1018 85 10000 0.5 0 10:19 14.01.2020
827 Clouds -1 1019 79 10000 1 0 09:43 14.01.2020
828 Clouds -2 1020 85 10000 3.1 90 09:24 14.01.2020
829 Clouds -3 1020 85 10000 2.6 90 08:58 14.01.2020
830 Clouds -3 1020 85 10000 2.6 90 08:39 14.01.2020
831 Clouds -3 1020 85 10000 1 100 08:20 14.01.2020
832 Clouds -3 1019 92 10000 1.78 212 07:46 14.01.2020
833 Clouds -3 1018 85 10000 1.78 212 07:18 14.01.2020
834 Clouds -3 1018 85 0 1 0 06:42 14.01.2020
835 Clouds -3 1018 79 10000 1.5 230 05:57 14.01.2020
836 Clouds -2 1018 74 10000 2.6 280 04:49 14.01.2020
837 Clouds -2 1019 86 10000 2.6 220 03:45 14.01.2020
838 Clouds -2 1019 79 10000 1.5 240 02:32 14.01.2020
839 Clouds -2 1019 85 0 1.52 204 01:19 14.01.2020
840 Clouds -2 1020 85 0 1.52 204 00:47 14.01.2020
841 Clouds -2 1020 85 0 0.5 0 00:21 14.01.2020
842 Clouds -2 1020 85 0 0.5 0 00:21 14.01.2020
843 Clouds -2 1019 80 10000 1.5 240 23:42 13.01.2020
844 Clouds -1 1019 85 0 1 0 23:19 13.01.2020
845 Clouds -1 1018 85 0 0.5 0 22:56 13.01.2020
846 Clouds -2 1025 100 0 1 0 22:37 13.01.2020
847 Clouds -1 1019 79 0 1.72 211 22:19 13.01.2020
848 Clouds -1 1019 86 0 2.1 70 21:55 13.01.2020
849 Clouds -1 1025 92 0 1.72 211 21:36 13.01.2020
850 Clouds 0 1019 52 10000 1.5 210 21:18 13.01.2020
851 Clouds -1 1020 86 0 1.5 60 20:42 13.01.2020
852 Clear -1 1020 86 0 2.1 80 20:23 13.01.2020
853 Clear -1 1020 86 0 2.1 80 20:23 13.01.2020
854 Clouds 0 1020 86 0 1 310 20:00 13.01.2020
855 Clouds 0 1020 86 0 1 310 19:41 13.01.2020
856 Clouds 0 1020 92 0 0.5 0 19:20 13.01.2020
857 Clouds 0 1020 86 0 0.5 0 18:58 13.01.2020
858 Clouds 0 1024 80 0 1.52 238 18:38 13.01.2020
859 Clouds 1 1020 86 0 0.5 0 18:19 13.01.2020
860 Clouds 1 1019 55 0 1 0 17:58 13.01.2020
861 Clouds 2 1019 55 0 1 0 17:38 13.01.2020
862 Clouds 3 1020 64 10000 1 190 17:20 13.01.2020
863 Clouds 4 1024 60 10000 1.5 120 16:42 13.01.2020
864 Clouds 4 1024 56 10000 2.1 250 16:22 13.01.2020
865 Clouds 5 1023 45 0 1.96 191 15:58 13.01.2020
866 Clouds 5 1021 31 0 1.96 191 15:40 13.01.2020
867 Clouds 6 1022 68 0 1.96 191 15:20 13.01.2020
868 Clouds 5 1036 31 0 1.788 67 14:43 13.01.2020
869 Clouds 6 1022 68 0 1.96 191 14:24 13.01.2020
870 Clouds 5 1022 41 0 2.72 183 13:59 13.01.2020
871 Clouds 5 1023 44 0 2.72 183 13:40 13.01.2020
872 Clouds 5 1023 44 0 2.72 183 13:40 13.01.2020
873 Clouds 5 1023 41 0 2.71 183 13:21 13.01.2020
874 Clouds 4 1023 45 0 2.71 183 12:57 13.01.2020
875 Clouds 4 1024 74 10000 0.5 0 12:39 13.01.2020
876 Clouds 4 1024 74 10000 0.5 0 12:21 13.01.2020
877 Clouds 2 1028 69 10000 1 0 11:40 13.01.2020
878 Clouds 1 1024 80 10000 2.23 195 11:20 13.01.2020
879 Clouds 1 1024 80 10000 2.23 195 11:20 13.01.2020
880 Clouds 1 1025 86 10000 2.23 195 10:58 13.01.2020
881 Clouds 0 1025 86 10000 2.23 195 10:39 13.01.2020
882 Clouds 0 1025 86 10000 2.23 195 10:39 13.01.2020
883 Clouds -1 1025 86 10000 2.23 195 10:20 13.01.2020
884 Clouds -1 1025 86 10000 2.23 195 10:20 13.01.2020
885 Clouds -2 1024 92 10000 1 0 09:58 13.01.2020
886 Clouds -2 1028 100 10000 2.23 195 09:38 13.01.2020
887 Clouds -2 1024 85 10000 1 140 09:19 13.01.2020
888 Clouds -2 1024 79 10000 1.5 240 08:41 13.01.2020
889 Clouds -3 1024 92 10000 1.52 208 08:20 13.01.2020
890 Clouds -3 1024 86 10000 1.5 240 07:48 13.01.2020
891 Clouds -3 1025 79 10000 1.5 260 07:27 13.01.2020
892 Clouds -3 1026 100 0 1.52 208 06:43 13.01.2020
893 Clouds -3 1025 79 10000 2.1 230 06:21 13.01.2020
894 Clouds -2 1026 74 10000 1.5 270 05:27 13.01.2020
895 Clear -2 1026 79 10000 1 230 03:55 13.01.2020
896 Clear -2 1027 92 0 0.5 0 03:25 13.01.2020
897 Clear -2 1027 86 10000 1.5 250 02:47 13.01.2020
898 Clear -2 1027 80 10000 1.5 240 02:28 13.01.2020
899 Clouds -1 1027 80 10000 2.1 250 01:21 13.01.2020
900 Clouds -1 1028 86 10000 2.1 250 00:41 13.01.2020
901 Clouds -1 1028 86 10000 1.5 240 00:23 13.01.2020
902 Clouds -1 1028 80 10000 1 220 23:54 12.01.2020
903 Clouds -1 1028 29 10000 2.1 280 23:36 12.01.2020
904 Clouds -1 1028 26 10000 2.1 280 23:18 12.01.2020
905 Clouds -1 1028 26 10000 1.5 250 22:42 12.01.2020
906 Clouds -1 1029 26 10000 1.5 210 22:23 12.01.2020
907 Clouds 0 1029 69 10000 1.5 0 21:56 12.01.2020
908 Clouds 0 1027 74 0 3.55 335 21:38 12.01.2020
909 Clouds 0 1029 74 10000 2.1 270 21:19 12.01.2020
910 Clouds 0 1029 74 10000 0.5 0 20:56 12.01.2020
911 Clouds 1 1027 80 0 1 70 20:38 12.01.2020
912 Clouds 1 1029 80 10000 1 0 20:20 12.01.2020
913 Clouds 1 1028 74 10000 2.1 270 19:56 12.01.2020
914 Clouds 1 1027 80 0 1 0 19:37 12.01.2020
915 Clouds 1 1028 74 10000 1 0 19:18 12.01.2020
916 Clouds 1 1028 74 10000 1.5 250 18:57 12.01.2020
917 Clouds 2 1028 74 10000 1.5 250 18:39 12.01.2020
918 Clouds 2 1028 74 10000 1.5 260 18:21 12.01.2020
919 Clouds 2 1028 74 10000 0.5 0 17:43 12.01.2020
920 Clouds 3 1028 80 0 1.5 80 17:23 12.01.2020
921 Clouds 3 1028 80 0 1.5 80 17:23 12.01.2020
922 Clouds 4 1028 69 10000 0.5 0 16:59 12.01.2020
923 Clouds 4 1028 69 10000 0.5 0 16:40 12.01.2020
924 Clouds 5 1028 74 10000 2.1 220 16:21 12.01.2020
925 Clouds 5 1028 74 10000 2.1 220 16:21 12.01.2020
926 Clouds 5 1028 35 10000 2.6 90 15:58 12.01.2020
927 Clouds 5 1028 35 10000 2.6 90 15:39 12.01.2020
928 Clouds 5 1028 65 10000 1.5 0 15:21 12.01.2020
929 Clouds 5 1028 35 10000 1 90 14:44 12.01.2020
930 Clouds 5 1028 35 10000 0.5 0 14:25 12.01.2020
931 Clear 6 1028 59 10000 1 0 13:57 12.01.2020
932 Clear 6 1028 59 10000 1 0 13:39 12.01.2020
933 Clear 5 1028 60 10000 0.5 0 13:20 12.01.2020
934 Clear 5 1029 58 10000 0.5 0 12:57 12.01.2020
935 Clear 5 1029 56 0 3 332 12:38 12.01.2020
936 Clear 5 1029 65 10000 0.5 0 12:19 12.01.2020
937 Clear 4 1029 69 10000 1 0 11:42 12.01.2020
938 Clear 1 1029 74 10000 2.1 210 11:22 12.01.2020
939 Clear 1 1029 26 10000 1.5 0 10:57 12.01.2020
940 Clear 1 1029 26 10000 1.5 0 10:39 12.01.2020
941 Clear 1 1029 26 10000 1.5 0 10:39 12.01.2020
942 Clear -1 1029 85 0 1 0 10:20 12.01.2020
943 Clear -1 1029 79 0 2.6 120 09:43 12.01.2020
944 Clear -1 1029 92 0 3.1 100 09:23 12.01.2020
945 Clear -1 1029 92 0 1.64 311 08:48 12.01.2020
946 Clear -1 1029 92 0 0.5 0 08:25 12.01.2020
947 Clear -2 1029 92 0 1 0 07:58 12.01.2020
948 Clear -2 1029 92 0 1.5 110 07:38 12.01.2020
949 Clear -2 1029 92 0 1.5 110 07:19 12.01.2020
950 Clear -2 1031 100 0 1 0 06:40 12.01.2020
951 Clear -2 1028 92 0 1 0 05:58 12.01.2020
952 Clear -1 1028 92 0 1.55 214 05:18 12.01.2020
953 Clear -1 1029 86 10000 1.5 0 03:44 12.01.2020
954 Clear -1 1030 92 0 0.5 0 02:52 12.01.2020
955 Clear -1 1029 20 10000 2.1 280 02:27 12.01.2020
956 Clear -1 1030 100 0 0.75 237 01:35 12.01.2020
957 Clear -1 1030 92 0 0.5 0 00:57 12.01.2020
958 Clear 0 1030 100 0 1.13 232 00:37 12.01.2020
959 Clear -1 1030 92 0 1.13 232 00:18 12.01.2020
960 Clear 0 1030 92 0 1.13 232 23:41 11.01.2020
961 Clear 0 1030 74 10000 2.1 260 23:19 11.01.2020
962 Clear 0 1030 92 0 0.41 224 22:56 11.01.2020
963 Clear 0 1030 100 0 1 80 22:38 11.01.2020
964 Clear 0 1030 92 0 0.41 224 22:20 11.01.2020
965 Clear 0 1030 92 0 2.6 100 21:54 11.01.2020
966 Clear 0 1030 13 0 0.41 224 21:36 11.01.2020
967 Clear 0 1030 92 0 1 0 21:18 11.01.2020
968 Clear 1 1030 13 0 1 0 20:39 11.01.2020
969 Clear 1 1030 86 0 1 0 20:20 11.01.2020
970 Clear 1 1030 86 0 1 0 19:58 11.01.2020
971 Clear 2 1030 80 0 3.1 110 19:38 11.01.2020
972 Clear 1 1030 80 0 3.1 110 19:20 11.01.2020
973 Clear 2 1030 86 0 1.5 100 18:56 11.01.2020
974 Clear 2 1029 74 0 1.5 330 18:37 11.01.2020
975 Clear 2 1031 17 0 2.1 110 18:19 11.01.2020
976 Clear 2 1031 17 0 2.1 110 18:19 11.01.2020
977 Clear 2 1030 64 0 4.6 90 17:57 11.01.2020
978 Clear 2 1030 64 0 4.6 90 17:39 11.01.2020
979 Clear 4 1030 64 0 3.6 90 17:18 11.01.2020
980 Clear 4 1030 69 0 4.6 90 16:44 11.01.2020
981 Clear 4 1030 69 0 4.6 70 16:25 11.01.2020
982 Clear 4 1030 74 0 3.6 0 15:56 11.01.2020
983 Clear 4 1027 53 0 1 0 15:38 11.01.2020
984 Clear 5 1030 80 0 2.29 347 15:20 11.01.2020
985 Clear 5 1030 80 0 2.1 100 14:46 11.01.2020
986 Clear 5 1030 80 0 2.1 100 14:46 11.01.2020
987 Clear 5 1031 86 0 2.29 347 14:25 11.01.2020
988 Clouds 4 1031 80 0 2.1 260 13:57 11.01.2020
989 Clouds 5 1028 49 0 1 0 13:38 11.01.2020
990 Clouds 5 1031 80 0 0.5 0 13:20 11.01.2020
991 Clear 4 1031 80 0 0.5 0 12:56 11.01.2020
992 Clear 4 1029 65 0 0.5 0 12:37 11.01.2020
993 Clear 4 1031 57 0 0.5 0 12:19 11.01.2020
994 Clear 4 1031 80 0 1 0 11:42 11.01.2020
995 Clear 3 1032 74 0 3.1 120 11:24 11.01.2020
996 Clouds 3 1032 80 0 3.6 110 10:46 11.01.2020
997 Clouds 2 1032 57 0 3.6 110 10:25 11.01.2020
998 Clouds 1 1033 86 0 4.1 100 09:43 11.01.2020
999 Clouds 1 1033 92 0 2.6 100 09:21 11.01.2020
1000 Clouds 1 1033 92 0 2.6 100 09:21 11.01.2020
1001 Clouds 1 1032 86 0 3.1 90 08:43 11.01.2020
1002 Clouds 2 1032 57 0 3.6 110 08:24 11.01.2020
1003 Clouds 1 1032 92 0 4.5 343 07:59 11.01.2020
1004 Clouds 2 1028 100 0 0.5 0 07:41 11.01.2020
1005 Clouds 2 1031 92 0 4.5 343 07:22 11.01.2020
1006 Clouds 1 1031 92 0 4.5 343 06:42 11.01.2020
1007 Clouds 1 1032 93 0 1 0 05:22 11.01.2020
1008 Clouds 1 1028 100 0 0.5 0 04:38 11.01.2020
1009 Clouds 1 1031 93 0 3.1 100 04:20 11.01.2020
1010 Clouds 2 1031 86 10000 2.6 240 02:46 11.01.2020
1011 Clouds 1 1030 100 0 2.1 70 01:45 11.01.2020
1012 Clouds 1 1030 92 0 1 0 01:25 11.01.2020
1013 Clouds 2 1030 92 0 0.5 0 00:52 11.01.2020
1014 Clouds 2 1030 92 0 2.1 80 00:24 11.01.2020
1015 Clouds 2 1030 92 0 1 0 23:58 10.01.2020
1016 Clouds 2 1027 92 0 4.05 341 23:38 10.01.2020
1017 Clouds 2 1030 91 0 1 0 23:20 10.01.2020
1018 Clouds 2 1030 86 0 1.5 0 22:41 10.01.2020
1019 -273 0 0 0 0 0 22:22 10.01.2020
1020 Clouds 2 1029 91 0 0.5 0 21:58 10.01.2020
1021 Clouds 2 1026 100 0 4.35 338 21:40 10.01.2020
1022 Clouds 2 1028 86 0 0.5 0 21:20 10.01.2020
1023 Clouds 2 1028 86 0 0.5 0 21:20 10.01.2020
1024 Clouds 2 1028 91 0 2.1 130 20:56 10.01.2020
1025 Clouds 2 1026 91 0 4.35 338 20:38 10.01.2020
1026 Clouds 2 1028 80 10000 1.5 0 20:19 10.01.2020
1027 Clouds 3 1028 80 0 2.1 90 19:40 10.01.2020
1028 Clouds 3 1028 80 0 2.1 90 19:40 10.01.2020
1029 Clouds 3 1027 90 0 1 0 19:20 10.01.2020
1030 Rain 3 1027 90 0 2.1 90 18:55 10.01.2020
1031 Rain 4 1025 90 0 4.34 335 18:36 10.01.2020
1032 Rain 4 1027 90 0 1 0 18:18 10.01.2020
1033 Rain 3 1026 90 0 1 0 17:56 10.01.2020
1034 Clouds 4 1024 90 0 4.34 335 17:37 10.01.2020
1035 Clouds 5 1025 87 0 3.09 342 17:19 10.01.2020
1036 Clouds 5 1024 87 10000 3.09 342 16:41 10.01.2020
1037 Clouds 6 1024 87 10000 3.09 342 16:21 10.01.2020
1038 Clouds 6 1024 80 10000 3.09 342 15:56 10.01.2020
1039 Clouds 6 1024 80 10000 3.09 342 15:56 10.01.2020
1040 Clouds 6 1023 70 10000 1.5 190 15:37 10.01.2020
1041 Clouds 6 1024 87 10000 2.1 120 15:19 10.01.2020
1042 Clouds 6 1024 70 10000 0.5 0 14:57 10.01.2020
1043 Clouds 6 1023 87 10000 1.5 90 14:39 10.01.2020
1044 Clouds 7 1023 65 10000 1.5 90 14:19 10.01.2020
1045 Clouds 6 1023 80 10000 0.5 0 13:54 10.01.2020
1046 Clear 6 1023 86 0 0.76 216 13:36 10.01.2020
1047 Clear 6 1023 86 0 0.62 222 13:18 10.01.2020
1048 Clear 6 1023 80 0 1.5 260 12:54 10.01.2020
1049 Clouds 6 1024 52 0 1 0 12:36 10.01.2020
1050 Clear 6 1023 74 10000 1 0 12:18 10.01.2020
1051 Clouds 5 1022 80 10000 1 0 11:42 10.01.2020
1052 Clouds 5 1022 80 10000 1 0 11:42 10.01.2020
1053 Clouds 5 1022 80 10000 1 0 11:42 10.01.2020
1054 Clouds 5 1022 80 10000 1 0 11:42 10.01.2020
1055 Clouds 5 1022 80 10000 1 0 11:42 10.01.2020
1056 Clouds 3 1022 86 10000 1.5 300 11:21 10.01.2020
1057 Clouds 2 1022 86 10000 1.5 310 10:59 10.01.2020
1058 Clouds 2 1025 65 10000 1 0 10:38 10.01.2020
1059 Clouds 2 1022 86 10000 1 0 10:19 10.01.2020
1060 Clouds 1 1022 63 10000 1.5 70 09:48 10.01.2020
1061 Clouds 1 1022 92 10000 2.1 110 09:27 10.01.2020
1062 Clouds 1 1022 92 10000 2.6 100 08:59 10.01.2020
1063 Clouds 0 1022 92 10000 2.6 100 08:38 10.01.2020
1064 Clouds 0 1021 86 10000 1 0 08:20 10.01.2020
1065 Clouds 1 1021 92 10000 1 0 07:41 10.01.2020
1066 Clouds 0 1021 92 10000 1.18 296 07:22 10.01.2020
1067 Clouds 0 1021 92 0 1.18 296 06:43 10.01.2020
1068 Clouds 0 1021 86 0 1 0 06:24 10.01.2020
1069 Clouds -1 1025 60 0 1 50 05:33 10.01.2020
1070 Clouds -1 1021 92 0 1 0 05:33 10.01.2020
1071 Clouds 0 1025 100 0 0.5 0 03:34 10.01.2020
1072 Clouds 0 1020 86 0 1 0 02:54 10.01.2020
1073 Clouds 0 1025 100 0 1 0 02:36 10.01.2020
1074 Clouds 0 1025 100 0 1 30 01:34 10.01.2020
1075 Clouds 0 1019 86 0 1.5 120 00:56 10.01.2020
1076 Clouds 0 1026 100 0 1.92 203 00:38 10.01.2020
1077 Clouds 1 1019 74 10000 2.6 250 23:57 09.01.2020
1078 Clouds 0 1026 100 0 0.5 0 23:37 09.01.2020
1079 Clouds 1 1018 86 0 0.5 0 23:19 09.01.2020
1080 Clouds 1 1018 86 0 0.5 0 23:19 09.01.2020
1081 Clouds 1 1018 86 0 2.1 0 22:56 09.01.2020
1082 Clouds 1 1026 100 0 0.5 0 22:37 09.01.2020
1083 Clouds 1 1019 92 0 2.17 195 22:18 09.01.2020
1084 Clouds 2 1018 74 10000 2.6 250 21:56 09.01.2020
1085 Clouds 1 1026 100 0 1 70 21:37 09.01.2020
1086 Clouds 2 1020 86 0 1 0 21:18 09.01.2020
1087 Clouds 2 1019 80 10000 1 0 20:55 09.01.2020
1088 Clouds 2 1020 86 0 2.6 100 20:37 09.01.2020
1089 Clouds 2 1020 74 10000 1.5 220 20:19 09.01.2020
1090 Clouds 2 1020 74 10000 1.5 220 19:54 09.01.2020
1091 Clouds 2 1020 74 10000 2.1 230 19:36 09.01.2020
1092 Clouds 2 1020 74 10000 2.1 250 19:18 09.01.2020
1093 Clouds 3 1020 69 10000 2.1 240 18:41 09.01.2020
1094 Clouds 3 1020 74 10000 1.5 260 18:22 09.01.2020
1095 Clouds 3 1020 74 10000 1.5 260 17:58 09.01.2020
1096 Clouds 4 1020 74 10000 0.5 0 17:40 09.01.2020
1097 Clouds 5 1020 80 0 2.09 183 17:18 09.01.2020
1098 Clouds 5 1020 80 0 2.09 183 17:18 09.01.2020
1099 Clouds 6 1021 74 0 1.5 300 16:46 09.01.2020
1100 Clouds 6 1021 74 10000 1 0 16:22 09.01.2020
1101 Clouds 6 1021 69 10000 2.6 90 15:44 09.01.2020
1102 Clouds 7 1021 65 10000 1 50 15:25 09.01.2020
1103 Clouds 7 1021 65 10000 1 50 14:59 09.01.2020
1104 Clouds 8 1022 52 10000 1.5 80 14:41 09.01.2020
1105 Clouds 8 1022 79 10000 2.1 60 14:19 09.01.2020
1106 Clouds 8 1022 79 10000 2.1 60 13:57 09.01.2020
1107 Clouds 8 1022 56 10000 1.5 60 13:38 09.01.2020
1108 Clouds 8 1023 56 10000 1.5 70 13:19 09.01.2020
1109 Clouds 8 1023 56 10000 1.5 70 12:57 09.01.2020
1110 Clouds 7 1023 49 10000 0.5 0 12:38 09.01.2020
1111 Clouds 6 1023 52 10000 1 0 12:18 09.01.2020
1112 Clouds 5 1024 64 10000 1.5 240 11:43 09.01.2020
1113 Clouds 5 1024 64 10000 1.5 240 11:25 09.01.2020
1114 Clouds 4 1025 58 10000 2.13 195 10:59 09.01.2020
1115 Clouds 3 1025 92 10000 1 0 10:41 09.01.2020
1116 Clouds 2 1025 86 10000 2.13 195 10:21 09.01.2020
1117 Clouds 1 1025 92 10000 1 0 09:47 09.01.2020
1118 Clouds 1 1025 69 10000 2.1 280 09:25 09.01.2020
1119 Clouds 1 1025 69 10000 2.1 280 08:59 09.01.2020
1120 Clouds 0 1026 86 10000 2.13 195 08:39 09.01.2020
1121 Clouds 0 1026 92 10000 1.5 90 08:21 09.01.2020
1122 Clouds 0 1027 86 10000 3.6 110 07:53 09.01.2020
1123 Clouds 0 1027 86 10000 3.6 110 07:33 09.01.2020
1124 Clouds 0 1027 92 0 1.5 80 06:52 09.01.2020
1125 Clouds 0 1027 92 0 1.5 80 06:32 09.01.2020
1126 Clouds 0 1026 92 0 0.5 0 05:52 09.01.2020
1127 Clouds 0 1026 92 0 0.5 0 05:26 09.01.2020
1128 Clouds 0 1026 74 10000 1 0 04:40 09.01.2020
1129 Clouds 0 1027 53 10000 2.1 290 03:27 09.01.2020
1130 Clouds 1 1028 69 10000 2.1 250 02:47 09.01.2020
1131 Clouds 1 1029 55 10000 2.1 250 01:42 09.01.2020
1132 Clouds 1 1029 55 10000 1 0 01:18 09.01.2020
1133 Clouds 1 1030 55 10000 1 0 00:38 09.01.2020
1134 Clouds 1 1030 74 10000 1 0 00:19 09.01.2020
1135 Clouds 1 1030 74 10000 1 0 00:19 09.01.2020
1136 Clouds 1 1030 80 10000 1.5 0 23:40 08.01.2020
1137 Clouds 1 1030 86 0 1 0 23:22 08.01.2020
1138 Clouds 1 1030 92 0 1.5 210 22:56 08.01.2020
1139 Clouds 1 1030 74 10000 1.5 250 22:37 08.01.2020
1140 Clouds 1 1030 80 10000 1.5 0 22:18 08.01.2020
1141 Clouds 1 1030 80 10000 1.5 0 21:55 08.01.2020
1142 Clouds 1 1030 86 0 1 0 21:37 08.01.2020
1143 Clouds 2 1029 80 10000 2.1 250 21:18 08.01.2020
1144 Clouds 1 1029 74 10000 2.1 250 20:41 08.01.2020
1145 Clouds 2 1029 74 10000 1.5 250 20:21 08.01.2020
1146 Clouds 2 1029 74 10000 1.5 250 19:59 08.01.2020
1147 Clouds 2 1030 80 10000 1.5 0 19:38 08.01.2020
1148 Clouds 2 1030 44 0 2.94 334 19:20 08.01.2020
1149 Clouds 2 1030 44 0 2.94 334 18:58 08.01.2020
1150 Clouds 2 1030 74 10000 1 0 18:39 08.01.2020
1151 Clouds 2 1030 69 10000 1.5 270 18:19 08.01.2020
1152 Clouds 3 1030 69 10000 1.5 270 17:57 08.01.2020
1153 Clouds 3 1030 74 10000 1.5 0 17:38 08.01.2020
1154 Clouds 3 1030 69 10000 2.1 320 17:19 08.01.2020
1155 Clouds 4 1030 69 10000 2.1 320 16:56 08.01.2020
1156 Clouds 5 1030 69 10000 1 0 16:38 08.01.2020
1157 Clouds 5 1030 60 10000 1 0 16:18 08.01.2020
1158 Clouds 6 1030 50 10000 1 0 15:44 08.01.2020
1159 Clouds 6 1030 50 10000 3.1 70 15:21 08.01.2020
1160 Clouds 6 1030 50 10000 3.1 70 14:59 08.01.2020
1161 Clouds 6 1030 50 10000 1.5 110 14:40 08.01.2020
1162 Clouds 6 1030 50 10000 1.5 110 14:40 08.01.2020
1163 Clouds 6 1029 66 10000 1.5 60 14:21 08.01.2020
1164 Clouds 5 1030 66 10000 1 0 13:41 08.01.2020
1165 Clouds 5 1031 80 10000 1 0 13:22 08.01.2020
1166 Clouds 5 1031 80 10000 1 0 13:22 08.01.2020
1167 Clouds 6 1031 80 10000 1 0 12:55 08.01.2020
1168 Clouds 5 1031 70 10000 0.5 0 12:37 08.01.2020
1169 Clouds 3 1032 80 10000 1.5 110 12:18 08.01.2020
1170 Clouds 3 1032 86 10000 1.5 310 11:48 08.01.2020
1171 Clouds 3 1032 86 10000 1.5 310 11:48 08.01.2020
1172 Clouds 1 1032 80 10000 1.5 130 11:19 08.01.2020
1173 Clouds 1 1032 80 10000 1.5 130 10:59 08.01.2020
1174 Clouds 1 1032 80 10000 1.5 130 10:59 08.01.2020
1175 Clouds 0 1033 92 10000 1.5 90 10:40 08.01.2020
1176 Clouds 0 1032 92 10000 1.5 240 10:21 08.01.2020
1177 Clouds 0 1032 92 10000 1.5 240 10:21 08.01.2020
1178 Clouds -1 1031 86 10000 0.5 0 09:43 08.01.2020
1179 Clouds -1 1031 86 10000 1 0 09:20 08.01.2020
1180 Clouds -1 1030 86 10000 2.1 250 08:58 08.01.2020
1181 Clouds -2 1030 86 10000 2.1 250 08:40 08.01.2020
1182 Clear -2 1031 92 10000 3.38 326 08:21 08.01.2020
1183 Clear -2 1031 86 10000 3.38 326 07:52 08.01.2020
1184 Clear -2 1031 86 10000 3.38 326 07:33 08.01.2020
1185 Clear -2 1031 92 10000 0.5 0 06:58 08.01.2020
1186 Clear -2 1031 92 0 2.6 100 06:40 08.01.2020
1187 Clear -1 1030 92 0 3.38 326 05:54 08.01.2020
1188 Clear -2 1030 92 0 1 0 05:25 08.01.2020
1189 Clear -1 1030 92 0 1 0 04:35 08.01.2020
1190 Clear -1 1031 86 0 2.12 319 02:46 08.01.2020
1191 Clear -1 1031 86 0 2.12 319 02:28 08.01.2020
1192 Clouds -1 1030 92 0 3.1 110 01:54 08.01.2020
1193 Clouds -1 1030 92 0 1.6 316 01:29 08.01.2020
1194 Clouds -1 1030 27 10000 2.1 240 00:42 08.01.2020
1195 Clouds 0 1030 100 0 1.6 316 00:21 08.01.2020
1196 Clouds 0 1030 27 10000 2.1 280 23:45 07.01.2020
1197 Clouds 0 1030 37 0 1 0 23:20 07.01.2020
1198 Clouds 0 1030 86 0 1 0 22:41 07.01.2020
1199 Clouds 0 1031 80 10000 3.1 110 22:21 07.01.2020
1200 Clouds 0 1031 37 10000 2.1 90 21:58 07.01.2020
1201 Clouds 1 1031 37 10000 2.1 90 21:40 07.01.2020
1202 Clouds 1 1031 37 10000 2.6 110 21:21 07.01.2020
1203 Clouds 1 1031 37 10000 2.6 110 20:57 07.01.2020
1204 Clouds 1 1031 37 10000 4.6 110 20:39 07.01.2020
1205 Clouds 1 1031 75 10000 5.7 70 20:21 07.01.2020
1206 Clouds 2 1031 75 10000 5.7 70 19:56 07.01.2020
1207 Clouds 2 1031 75 10000 5.7 70 19:37 07.01.2020
1208 Clouds 2 1030 70 10000 8.2 70 19:18 07.01.2020
1209 Clouds 2 1030 70 10000 8.2 70 19:18 07.01.2020
1210 Clouds 2 1030 75 10000 8.2 70 18:55 07.01.2020
1211 Clouds 2 1030 75 10000 8.2 70 18:37 07.01.2020
1212 Clouds 2 1029 70 10000 3.1 0 18:18 07.01.2020
1213 Clouds 2 1029 70 10000 3.1 0 18:18 07.01.2020
1214 Clouds 2 1029 70 10000 3.1 0 18:18 07.01.2020
1215 Clouds 2 1029 74 0 1 0 17:41 07.01.2020
1216 Clouds 3 1029 66 10000 1 0 17:22 07.01.2020
1217 Clouds 3 1029 66 10000 1 0 16:58 07.01.2020
1218 Clouds 3 1029 80 10000 1 0 16:38 07.01.2020
1219 Clouds 3 1029 80 10000 1 0 16:38 07.01.2020
1220 Clouds 3 1029 80 10000 1 0 16:38 07.01.2020
1221 Clouds 3 1030 75 10000 0.5 0 16:19 07.01.2020
1222 Clouds 3 1030 75 10000 0.5 0 15:59 07.01.2020
1223 Clouds 3 1029 74 10000 2.6 0 15:40 07.01.2020
1224 Clear 4 1029 70 10000 0.5 0 15:22 07.01.2020
1225 Clear 4 1029 70 10000 0.5 0 14:56 07.01.2020
1226 Clear 4 1029 66 10000 1 0 14:37 07.01.2020
1227 Clouds 4 1029 76 10000 5.13 333 14:19 07.01.2020
1228 Clouds 4 1030 76 10000 5.13 333 13:40 07.01.2020
1229 Clouds 4 1030 86 0 1.5 90 13:19 07.01.2020
1230 Clouds 3 1031 86 0 1 0 12:42 07.01.2020
1231 Clouds 3 1031 86 0 1 0 12:21 07.01.2020
1232 Clouds 3 1031 86 0 1 0 11:59 07.01.2020
1233 Clouds 2 1031 82 10000 0.5 0 11:40 07.01.2020
1234 Clouds 2 1031 79 10000 1 0 11:21 07.01.2020
1235 Clouds 1 1031 79 10000 0.5 0 10:42 07.01.2020
1236 Clouds 0 1031 79 10000 0.5 0 10:24 07.01.2020
1237 Clouds 0 1031 86 10000 1.5 0 09:59 07.01.2020
1238 Clouds -1 1030 92 10000 1 0 09:38 07.01.2020
1239 Clouds -1 1030 92 10000 1 0 09:20 07.01.2020
1240 Clouds -1 1030 80 10000 0.5 0 08:46 07.01.2020
1241 Clouds -1 1030 80 10000 0.5 0 08:27 07.01.2020
1242 Clouds -1 1029 92 10000 3.1 100 07:54 07.01.2020
1243 Clouds -1 1029 92 10000 1 0 07:29 07.01.2020
1244 Clouds -1 1029 86 0 3.6 90 06:54 07.01.2020
1245 Clouds -1 1029 86 0 3.6 90 06:54 07.01.2020
1246 Clouds -1 1029 86 0 3.6 90 06:35 07.01.2020
1247 Clouds -1 1029 86 0 1 0 05:57 07.01.2020
1248 Clouds -1 1030 92 0 2.1 110 05:38 07.01.2020
1249 Clear -2 1028 92 0 1 0 03:44 07.01.2020
1250 Clear -2 1028 92 0 2.1 0 02:25 07.01.2020
1251 Clear -1 1028 92 0 2.1 0 01:57 07.01.2020
1252 Clear -2 1028 92 0 1.5 300 01:34 07.01.2020
1253 Clear -2 1028 92 0 3.1 90 00:40 07.01.2020
1254 Clear -1 1029 92 0 4.76 327 00:20 07.01.2020
1255 Clear -1 1029 92 0 4.76 327 23:55 06.01.2020
1256 Clear -1 1028 92 0 1.5 80 23:36 06.01.2020
1257 Clear -1 1028 48 10000 0.5 0 23:18 06.01.2020
1258 Clear -1 1029 92 0 0.5 0 22:43 06.01.2020
1259 Clear -1 1029 92 0 4.68 326 22:23 06.01.2020
1260 Clear 0 1028 48 10000 1 260 21:57 06.01.2020
1261 Clear 0 1028 48 10000 1 260 21:39 06.01.2020
1262 Clear 0 1028 86 10000 2.1 210 21:20 06.01.2020
1263 Clear 0 1028 86 10000 2.1 210 21:20 06.01.2020
1264 Clear 0 1028 86 10000 2.1 210 21:20 06.01.2020
1265 Clear 0 1028 86 10000 2.1 210 20:57 06.01.2020
1266 Clear 0 1028 92 0 1 0 20:38 06.01.2020
1267 Clear 0 1028 46 10000 1.5 0 20:20 06.01.2020
1268 Clear 0 1028 48 10000 1.5 0 19:56 06.01.2020
1269 Clear 0 1028 48 10000 1.5 250 19:38 06.01.2020
1270 Clear 0 1028 48 10000 2.1 210 19:19 06.01.2020
1271 Clear 0 1027 80 10000 2.1 270 18:47 06.01.2020
1272 Clear 0 1027 80 10000 2.1 270 18:47 06.01.2020
1273 Clear 0 1028 48 10000 1 270 18:21 06.01.2020
1274 Clear 0 1028 48 10000 1 270 17:58 06.01.2020
1275 Clear 1 1028 80 10000 0.5 0 17:38 06.01.2020
1276 Clear 2 1027 86 10000 0.5 0 17:18 06.01.2020
1277 Clear 2 1027 80 10000 0.5 0 16:44 06.01.2020
1278 Clear 2 1027 86 10000 2.02 332 16:25 06.01.2020
1279 Clear 2 1027 80 10000 1 210 16:25 06.01.2020
1280 Clear 3 1027 86 10000 2.02 332 15:59 06.01.2020
1281 Clear 3 1027 86 10000 2.6 100 15:39 06.01.2020
1282 Clear 3 1027 92 10000 2.02 332 15:19 06.01.2020
1283 Clear 3 1027 92 10000 2.02 332 14:57 06.01.2020
1284 Clear 3 1027 64 10000 1 0 14:39 06.01.2020
1285 Clear 4 1028 89 10000 1 0 14:18 06.01.2020
1286 Clear 4 1028 89 10000 1 0 13:41 06.01.2020
1287 Clear 4 1029 90 10000 0.5 0 13:22 06.01.2020
1288 Clear 4 1029 90 10000 0.5 0 12:59 06.01.2020
1289 Clear 4 1030 90 10000 1 0 12:41 06.01.2020
1290 Clear 3 1030 90 10000 1 0 12:20 06.01.2020
1291 Clear 2 1030 90 10000 1 0 11:56 06.01.2020
1292 Clear 2 1030 92 10000 1 80 11:38 06.01.2020
1293 Clouds 1 1030 92 10000 1.48 328 11:20 06.01.2020
1294 Clouds 1 1030 92 10000 1.48 328 10:42 06.01.2020
1295 Clouds 1 1030 92 10000 1.48 328 10:42 06.01.2020
1296 Clouds 0 1030 92 10000 1.48 328 10:21 06.01.2020
1297 Clouds -1 1031 92 10000 2.1 240 09:42 06.01.2020
1298 Clouds -1 1030 85 10000 1 110 09:24 06.01.2020
1299 Clouds -2 1030 85 10000 1 110 08:58 06.01.2020
1300 Clouds -2 1031 92 10000 1.48 328 08:39 06.01.2020
1301 Clear -2 1031 92 10000 2 335 08:21 06.01.2020
1302 Clouds -2 1031 92 10000 2.02 335 08:21 06.01.2020
1303 Clear -2 1031 92 10000 2 335 07:46 06.01.2020
1304 Clear -2 1031 92 10000 1 0 07:21 06.01.2020
1305 Clear -2 1031 92 0 2 335 06:41 06.01.2020
1306 Clear -2 1031 92 0 1 110 05:51 06.01.2020
1307 Clear -2 1031 92 0 1 110 05:29 06.01.2020
1308 Clouds -2 1031 92 10000 1 260 04:25 06.01.2020
1309 Clear -2 1031 92 0 0.5 60 03:52 06.01.2020
1310 Clear -2 1031 92 0 1.31 320 02:32 06.01.2020
1311 Clear -1 1031 92 0 1 110 01:55 06.01.2020
1312 Clear -1 1031 92 0 1 100 01:32 06.01.2020
1313 Clear -1 1032 92 0 0.92 344 00:48 06.01.2020
1314 Clear -1 1032 92 0 0.92 344 00:29 06.01.2020
1315 Clear -1 1032 86 0 1 0 23:59 05.01.2020
1316 Clear -1 1032 92 0 1 0 23:40 05.01.2020
1317 Clear -1 1032 92 0 1.73 340 23:21 05.01.2020
1318 Clear -1 1032 86 0 1.73 340 22:40 05.01.2020
1319 Clear 0 1032 86 0 2.1 110 22:21 05.01.2020
1320 Clear -1 1032 86 0 2.1 110 21:59 05.01.2020
1321 Clear 0 1032 86 0 3.6 110 21:40 05.01.2020
1322 Clear 0 1033 86 0 4.6 120 21:20 05.01.2020
1323 Clear 0 1033 86 0 4.6 120 20:58 05.01.2020
1324 Clear 0 1033 80 0 4.6 100 20:39 05.01.2020
1325 Clear 0 1033 74 0 5.7 90 20:19 05.01.2020
1326 Clear 0 1033 74 0 5.7 90 19:58 05.01.2020
1327 Clear 0 1033 74 0 6.2 90 19:39 05.01.2020
1328 Clear 0 1033 74 0 6.2 90 19:39 05.01.2020
1329 Clear 0 1032 74 0 5.7 110 19:20 05.01.2020
1330 Clear 0 1032 74 0 5.7 110 18:56 05.01.2020
1331 Clear 0 1032 29 0 5.1 0 18:37 05.01.2020
1332 Clear 1 1034 80 10000 2.1 290 18:19 05.01.2020
1333 Clear 1 1034 80 10000 2.1 290 17:58 05.01.2020
1334 Clear 1 1034 80 10000 1.5 250 17:39 05.01.2020
1335 Clear 2 1033 74 0 4.6 120 17:20 05.01.2020
1336 Clear 1 1033 74 0 4.6 120 16:56 05.01.2020
1337 Clear 1 1033 74 0 4.6 120 16:56 05.01.2020
1338 Clear 2 1034 46 10000 1.5 220 16:38 05.01.2020
1339 Clear 2 1032 69 0 4.1 0 16:19 05.01.2020
1340 Clear 2 1033 46 0 6.7 60 15:39 05.01.2020
1341 Clear 2 1033 69 0 6.2 60 15:20 05.01.2020
1342 Clear 3 1033 69 0 6.2 60 14:56 05.01.2020
1343 Clear 3 1033 69 0 7.2 60 14:38 05.01.2020
1344 Clear 3 1033 69 0 5.1 0 14:20 05.01.2020
1345 Clear 3 1033 69 0 5.1 0 13:56 05.01.2020
1346 Clear 3 1033 69 0 5.7 60 13:38 05.01.2020
1347 Clear 3 1034 75 10000 1 0 13:19 05.01.2020
1348 Clear 3 1033 86 0 2.6 120 12:55 05.01.2020
1349 Clear 3 1034 75 10000 1 0 12:55 05.01.2020
1350 Clear 3 1033 86 0 2.6 120 12:37 05.01.2020
1351 Clear 3 1034 86 0 2.1 100 12:18 05.01.2020
1352 Clear 3 1034 86 0 2.1 100 12:18 05.01.2020
1353 Clouds 3 1034 80 0 1.5 120 11:43 05.01.2020
1354 Clouds 2 1034 74 0 2.1 70 11:20 05.01.2020
1355 Clouds 1 1034 74 0 2.1 70 10:58 05.01.2020
1356 Clouds 1 1034 69 0 3.6 20 10:39 05.01.2020
1357 Clouds 1 1034 69 0 3.6 20 10:39 05.01.2020
1358 Clouds 0 1034 69 0 3.1 20 10:19 05.01.2020
1359 Clouds 0 1034 69 0 2.1 50 09:42 05.01.2020
1360 Clouds 0 1034 69 0 2.1 50 09:42 05.01.2020
1361 Clouds 0 1034 74 0 2.1 100 09:22 05.01.2020
1362 Clouds 0 1034 69 0 2.1 170 08:50 05.01.2020
1363 Clouds 0 1034 69 0 2.1 170 08:31 05.01.2020
1364 Clouds -1 1034 69 0 3.1 0 07:59 05.01.2020
1365 Clouds -1 1034 69 0 3.6 70 07:39 05.01.2020
1366 Clouds -1 1035 45 10000 1 0 07:20 05.01.2020
1367 Clouds 0 1034 74 0 4.6 30 06:21 05.01.2020
1368 Clouds -1 1035 45 10000 0.5 0 05:33 05.01.2020
1369 Clouds 0 1034 74 0 3.1 90 04:48 05.01.2020
1370 Clouds 1 1034 74 0 5.7 60 04:18 05.01.2020
1371 Clouds 1 1034 74 0 5.7 30 02:47 05.01.2020
1372 Clouds 1 1034 74 0 5.7 30 02:24 05.01.2020
1373 Clouds 0 1035 69 10000 2.6 340 01:48 05.01.2020
1374 Clouds 1 1034 69 0 6.2 40 01:19 05.01.2020
1375 Clouds 1 1034 65 0 7.2 30 00:54 05.01.2020
1376 Clouds 1 1034 65 0 7.2 30 00:36 05.01.2020
1377 Clouds 1 1034 65 0 7.2 30 00:36 05.01.2020
1378 Clouds 2 1034 80 0 7.7 30 00:18 05.01.2020
1379 Clouds 2 1034 86 0 6.7 40 23:40 04.01.2020
1380 Clouds 1 1034 86 0 0.5 0 23:20 04.01.2020
1381 Clouds 2 1034 80 0 4.1 40 22:40 04.01.2020
1382 Clouds 1 1034 80 0 7.7 30 22:22 04.01.2020
1383 Clouds 2 1034 80 0 7.7 30 21:58 04.01.2020
1384 Clouds 2 1033 86 0 7.2 40 21:40 04.01.2020
1385 Clouds 2 1033 86 0 6.93 333 21:20 04.01.2020
1386 Clouds 2 1033 86 0 6.93 333 20:59 04.01.2020
1387 Clouds 2 1033 93 0 2.6 90 20:40 04.01.2020
1388 Clouds 2 1033 93 0 1 0 20:22 04.01.2020
1389 Clouds 2 1033 93 0 1 0 19:57 04.01.2020
1390 Clouds 2 1033 100 0 1 0 19:38 04.01.2020
1391 Clouds 2 1033 100 0 1 0 19:20 04.01.2020
1392 Clouds 3 1033 100 0 1 0 18:56 04.01.2020
1393 Clouds 2 1033 100 0 1 0 18:37 04.01.2020
1394 Clouds 2 1033 93 0 1 130 18:18 04.01.2020
1395 Clouds 2 1032 100 0 6.62 331 17:41 04.01.2020
1396 Clouds 4 1032 100 0 0.5 0 17:23 04.01.2020
1397 Clouds 4 1032 100 0 0.5 0 16:58 04.01.2020
1398 Clouds 4 1032 100 0 1 90 16:39 04.01.2020
1399 Clouds 4 1032 93 0 0.5 0 16:21 04.01.2020
1400 Clouds 4 1032 93 0 0.5 0 15:55 04.01.2020
1401 Clouds 4 1032 93 0 1 0 15:37 04.01.2020
1402 Clouds 5 1031 93 0 1.5 120 15:18 04.01.2020
1403 Clouds 4 1031 93 0 0.5 0 14:42 04.01.2020
1404 Clouds 4 1031 93 0 0.5 0 14:42 04.01.2020
1405 Clouds 5 1031 100 0 1 0 14:20 04.01.2020
1406 Clouds 5 1031 100 0 1 0 13:59 04.01.2020
1407 Drizzle 5 1031 81 10000 6.2 330 13:38 04.01.2020
1408 Clouds 5 1032 100 0 1 0 13:19 04.01.2020
1409 Clouds 5 1032 100 0 1 0 12:57 04.01.2020
1410 Clouds 5 1032 100 0 1.5 80 12:39 04.01.2020
1411 Clouds 5 1032 100 0 1.5 80 12:39 04.01.2020
1412 Clouds 4 1032 87 10000 1 0 12:18 04.01.2020
1413 Clouds 4 1032 87 10000 1 0 12:18 04.01.2020
1414 Clouds 4 1032 87 10000 1 0 11:56 04.01.2020
1415 Mist 4 1032 87 0 1 0 11:37 04.01.2020
1416 Clouds 4 1032 90 0 1 0 11:18 04.01.2020
1417 Mist 3 1032 90 0 0.5 0 10:40 04.01.2020
1418 Mist 3 1032 90 0 1 0 10:21 04.01.2020
1419 Clouds 3 1032 90 0 1 0 09:47 04.01.2020
1420 Clouds 2 1032 90 0 1 0 09:26 04.01.2020
1421 Mist 2 1031 90 0 5.44 333 08:49 04.01.2020
1422 Mist 2 1031 90 0 5.44 333 08:29 04.01.2020
1423 Mist 2 1031 91 0 5.3 332 07:57 04.01.2020
1424 Clouds 2 1031 91 0 5.3 332 07:39 04.01.2020
1425 Mist 2 1030 91 0 1.5 70 06:44 04.01.2020
1426 Mist 2 1031 91 0 5.3 332 05:59 04.01.2020
1427 Rain 1 1031 92 0 4.96 331 04:53 04.01.2020
1428 Rain 2 1031 92 0 4.96 331 04:32 04.01.2020
1429 Rain 2 1031 92 0 1.5 80 03:37 04.01.2020
1430 Rain 2 1030 93 10000 1 0 03:18 04.01.2020
1431 Drizzle 2 1030 90 0 1 0 02:18 04.01.2020
1432 Rain 1 1030 93 10000 1 0 01:51 04.01.2020
1433 Rain 1 1030 93 10000 1 0 01:30 04.01.2020
1434 Clouds 1 1030 93 10000 1.5 330 00:29 04.01.2020
1435 Clouds 1 1031 91 0 1 0 23:59 03.01.2020
1436 Clouds 1 1031 91 0 1.5 100 23:37 03.01.2020
1437 Rain 1 1031 90 0 1.5 90 23:19 03.01.2020
1438 Rain 2 1031 90 0 1 90 22:41 03.01.2020
1439 Rain 2 1031 90 0 2.6 90 22:19 03.01.2020
1440 Rain 2 1031 90 0 2.6 90 21:58 03.01.2020
1441 Clouds 2 1031 90 0 2.1 100 21:38 03.01.2020
1442 Clouds 2 1030 90 0 2.1 110 21:19 03.01.2020
1443 Clouds 2 1030 90 0 2.1 110 21:19 03.01.2020
1444 Clouds 2 1030 90 0 2.1 110 20:56 03.01.2020
1445 Clouds 1 1030 90 0 1.5 0 20:38 03.01.2020
1446 Clouds 1 1029 100 0 1.5 260 20:18 03.01.2020
1447 Clouds 1 1029 100 0 1.5 260 19:55 03.01.2020
1448 Clouds 1 1029 100 0 1.5 0 19:37 03.01.2020
1449 Mist 1 1029 100 0 3.6 100 19:18 03.01.2020
1450 Mist 1 1029 92 0 5.16 329 18:40 03.01.2020
1451 Clouds 1 1028 74 10000 1.5 270 18:21 03.01.2020
1452 Clouds 1 1028 100 0 5.16 329 17:54 03.01.2020
1453 Clouds 1 1028 100 0 5.16 329 17:36 03.01.2020
1454 Clouds 2 1028 77 10000 1 0 17:18 03.01.2020
1455 Clouds 3 1028 77 0 3.1 100 16:42 03.01.2020
1456 Clouds 3 1028 77 0 1.5 100 16:22 03.01.2020
1457 Clouds 3 1028 77 0 1 0 15:43 03.01.2020
1458 Clouds 4 1028 77 0 1.5 110 15:19 03.01.2020
1459 Clouds 4 1028 77 0 1.5 110 15:19 03.01.2020
1460 Clouds 4 1028 77 10000 1 0 14:56 03.01.2020
1461 Clouds 4 1028 86 10000 1.5 200 14:37 03.01.2020
1462 Clouds 4 1028 86 10000 1 0 14:19 03.01.2020
1463 Clouds 4 1028 86 10000 1 0 13:41 03.01.2020
1464 Clouds 4 1028 84 10000 0.5 0 13:23 03.01.2020
1465 Clouds 4 1028 83 10000 0.5 0 12:56 03.01.2020
1466 Clouds 4 1027 83 10000 0.5 0 12:38 03.01.2020
1467 Clouds 3 1028 83 9000 0.5 0 12:19 03.01.2020
1468 Clouds 3 1028 100 0 2.1 100 11:42 03.01.2020
1469 Clouds 2 1028 100 0 2.1 250 11:18 03.01.2020
1470 Clouds 2 1028 100 0 1.5 270 10:43 03.01.2020
1471 Clouds 1 1027 100 0 2.6 100 10:24 03.01.2020
1472 Clouds 1 1027 100 0 2.6 100 09:57 03.01.2020
1473 Mist 1 1028 92 5000 0.5 0 09:38 03.01.2020
1474 Clouds 1 1028 92 6000 1.5 210 09:20 03.01.2020
1475 Clouds 1 1027 100 0 2.1 100 08:54 03.01.2020
1476 Clouds 0 1027 100 0 2.1 100 08:36 03.01.2020
1477 Clouds 0 1027 92 0 1 0 08:18 03.01.2020
1478 Clouds 0 1028 46 8000 2.1 250 07:39 03.01.2020
1479 Clouds 0 1027 46 6000 0.5 0 07:18 03.01.2020
1480 Clouds 0 1027 100 0 2.23 319 06:42 03.01.2020
1481 Clouds 0 1027 92 6000 1 260 06:23 03.01.2020
1482 Clouds 0 1027 92 0 1.5 110 05:20 03.01.2020
1483 Clouds 0 1028 47 7000 2.1 250 03:45 03.01.2020
1484 Clouds 0 1029 92 0 0.5 110 02:54 03.01.2020
1485 Clouds 0 1029 92 0 1 100 01:54 03.01.2020
1486 Clouds 0 1029 100 0 2.46 289 01:36 03.01.2020
1487 Mist 0 1029 92 0 0.5 0 00:46 03.01.2020
1488 Mist 0 1029 92 0 0.5 0 00:26 03.01.2020
1489 Mist 0 1029 92 0 1 0 23:39 02.01.2020
1490 Mist 0 1030 100 0 1 110 23:21 02.01.2020
1491 Mist 0 1030 100 0 1 110 22:59 02.01.2020
1492 Mist 0 1030 100 0 1 0 22:41 02.01.2020
1493 Mist 0 1030 100 0 1.87 241 22:20 02.01.2020
1494 Mist 0 1029 100 0 1.5 110 21:57 02.01.2020
1495 Mist 0 1029 100 0 1.5 110 21:38 02.01.2020
1496 Mist 0 1030 100 0 1 0 21:19 02.01.2020
1497 Mist 0 1030 92 0 1.5 110 20:56 02.01.2020
1498 Mist 0 1030 92 0 1.5 110 20:37 02.01.2020
1499 Mist 0 1030 92 0 2.1 100 20:19 02.01.2020
1500 Clouds 0 1030 92 0 2.1 90 19:54 02.01.2020
1501 Clouds 0 1030 92 0 2.1 90 19:54 02.01.2020
1502 Clouds 0 1030 92 0 2.1 90 19:36 02.01.2020
1503 Clouds 0 1030 92 0 1 0 19:18 02.01.2020
1504 Clouds 0 1030 92 0 1 0 19:18 02.01.2020
1505 Mist 0 1029 100 0 1 0 18:43 02.01.2020
1506 Mist 0 1029 92 0 1.5 90 18:25 02.01.2020
1507 Mist 0 1029 92 0 1.5 90 17:59 02.01.2020
1508 Mist 0 1029 92 0 1 0 17:39 02.01.2020
1509 Fog 0 1029 100 0 2.6 240 17:21 02.01.2020
1510 Fog 0 1029 100 0 2.6 240 16:59 02.01.2020
1511 Fog 0 1028 100 0 1.9 186 16:41 02.01.2020
1512 Fog 1 1029 100 0 1.9 186 16:20 02.01.2020
1513 Fog 1 1029 100 0 1.9 186 15:58 02.01.2020
1514 Fog 0 1029 100 0 1.9 186 15:40 02.01.2020
1515 Mist 0 1029 92 0 1 0 15:22 02.01.2020
1516 Clouds 1 1029 100 0 1.5 110 14:57 02.01.2020
1517 Clouds 0 1029 100 0 1.5 110 14:36 02.01.2020
1518 Clouds 2 1030 100 0 1.5 110 14:18 02.01.2020
1519 Clouds 1 1030 100 0 2.95 168 13:50 02.01.2020
1520 Clouds 1 1030 100 0 2.86 168 13:31 02.01.2020
1521 Mist 3 1030 100 0 1.5 90 12:46 02.01.2020
1522 Clear 2 1033 69 0 1 0 12:26 02.01.2020
1523 Mist 2 1031 100 0 1.5 100 11:59 02.01.2020
1524 Mist 1 1031 100 0 1.5 100 11:40 02.01.2020
1525 Fog 0 1031 100 0 1 230 11:20 02.01.2020
1526 Fog 0 1030 100 0 1.5 260 10:45 02.01.2020
1527 Fog -1 1030 100 0 1.5 260 10:26 02.01.2020
1528 Fog 0 1030 100 0 1.5 100 09:52 02.01.2020
1529 Fog 0 1030 100 0 1.5 100 09:33 02.01.2020
1530 Fog -1 1031 92 0 1.5 110 08:48 02.01.2020
1531 Fog -1 1031 92 0 1.5 110 08:27 02.01.2020
1532 Fog -1 1030 92 0 2.6 110 07:54 02.01.2020
1533 Fog -1 1030 92 0 2.6 110 07:30 02.01.2020
1534 Mist -1 1030 92 4500 2.6 230 06:55 02.01.2020
1535 Fog -1 1030 100 0 1.77 191 06:36 02.01.2020
1536 Fog -1 1030 100 0 1.77 191 06:36 02.01.2020
1537 Fog -1 1030 92 0 1.77 191 05:36 02.01.2020
1538 Mist -1 1031 92 0 1.5 100 04:33 02.01.2020
1539 Fog -1 1030 100 0 1 0 02:54 02.01.2020
1540 Mist 0 1031 48 2900 1.5 230 02:20 02.01.2020
1541 Fog -1 1031 100 0 1 80 01:46 02.01.2020
1542 Fog 0 1031 100 0 1 0 01:19 02.01.2020
1543 Fog 0 1031 100 0 2.1 100 00:34 02.01.2020
1544 Fog 0 1031 100 0 2.6 110 23:58 01.01.2020
1545 Fog 0 1031 100 0 2.1 110 23:40 01.01.2020
1546 Mist 0 1031 38 3600 2.1 220 23:19 01.01.2020
1547 Fog 0 1031 100 0 1.18 194 22:38 01.01.2020
1548 Fog 0 1031 100 0 1.5 110 22:20 01.01.2020
1549 Fog 0 1031 100 0 1.5 110 21:56 01.01.2020
1550 Fog 0 1031 100 0 2.1 100 21:38 01.01.2020
1551 Clouds 0 1032 38 6000 2.1 230 21:19 01.01.2020
1552 Clouds 0 1032 38 6000 2.1 230 20:55 01.01.2020
1553 Clouds 0 1032 38 7000 2.6 200 20:37 01.01.2020
1554 Fog 0 1032 100 0 1.2 242 20:19 01.01.2020
1555 Fog 0 1032 100 0 1.2 242 20:19 01.01.2020
1556 Clouds 0 1032 34 8000 1.5 220 19:55 01.01.2020
1557 Clouds 0 1032 34 8000 1.5 220 19:55 01.01.2020
1558 Clouds 0 1032 34 5000 1.5 260 19:37 01.01.2020
1559 Clouds 1 1032 34 7000 2.6 230 19:19 01.01.2020
1560 Clouds 1 1032 34 7000 2.6 230 18:55 01.01.2020
1561 Clouds 1 1032 34 6000 2.1 250 18:36 01.01.2020
1562 Clouds 1 1032 34 6000 2.1 250 18:36 01.01.2020
1563 Fog 0 1031 92 0 1.2 242 18:18 01.01.2020
1564 Fog 0 1031 92 0 1.2 242 17:56 01.01.2020
1565 Fog 0 1031 92 0 1.2 242 17:56 01.01.2020
1566 Clouds 1 1032 34 9000 2.1 250 17:37 01.01.2020
1567 Fog 1 1031 100 0 1 0 17:18 01.01.2020
1568 Fog 2 1031 100 0 0.62 260 16:40 01.01.2020
1569 Fog 2 1031 100 0 0.62 260 16:40 01.01.2020
1570 Fog 2 1031 92 0 0.62 260 16:21 01.01.2020
1571 Fog 1 1031 92 0 0.62 260 15:57 01.01.2020
1572 Fog 1 1031 92 0 0.62 260 15:57 01.01.2020
1573 Fog 1 1031 100 0 1.5 130 15:39 01.01.2020
1574 Fog 1 1031 100 0 1 0 15:20 01.01.2020
1575 Fog 1 1031 100 0 1 0 14:58 01.01.2020
1576 Mist 1 1031 100 0 1 0 14:40 01.01.2020
1577 Mist 2 1032 65 0 1 0 14:21 01.01.2020
1578 Mist 2 1032 65 0 1 0 14:21 01.01.2020
1579 Mist 2 1032 65 0 1.5 90 13:56 01.01.2020
1580 Mist 2 1032 65 0 1.5 90 13:37 01.01.2020
1581 Mist 2 1032 65 0 1.5 90 13:37 01.01.2020
1582 Mist 2 1032 65 0 1.5 90 13:37 01.01.2020
1583 Mist 2 1032 65 0 1.5 90 13:37 01.01.2020
1584 Fog 2 1032 73 0 2.1 90 13:18 01.01.2020
1585 Fog 2 1032 73 0 2.1 90 12:55 01.01.2020
1586 Fog 3 1032 100 0 2.1 100 12:37 01.01.2020
1587 Fog 3 1032 100 0 1 0 12:18 01.01.2020
1588 Fog 3 1032 100 0 1.49 202 11:43 01.01.2020
1589 Fog 1 1032 100 0 1.5 250 11:22 01.01.2020
1590 Fog 1 1032 100 0 1.5 250 10:59 01.01.2020
1591 Fog 1 1032 92 0 0.5 130 10:40 01.01.2020
1592 Fog 0 1032 92 0 2.1 80 10:20 01.01.2020
1593 Fog 0 1032 100 0 2.1 90 09:56 01.01.2020
1594 Fog 0 1032 100 0 2.1 90 09:37 01.01.2020
1595 Fog -1 1032 92 0 2.6 100 09:18 01.01.2020
1596 Fog -1 1032 92 0 2.6 100 08:55 01.01.2020
1597 Fog -1 1032 92 0 2.1 100 08:36 01.01.2020
1598 Fog -1 1032 92 0 2.1 100 08:36 01.01.2020
1599 Fog -1 1032 92 0 2.1 100 08:36 01.01.2020
1600 Fog -1 1031 100 0 1 100 08:18 01.01.2020
1601 Fog -1 1031 100 0 1.73 317 07:48 01.01.2020
1602 Fog -1 1031 100 0 1.73 317 07:30 01.01.2020
1603 Fog 0 1031 100 0 1 0 06:44 01.01.2020
1604 Fog 0 1031 100 0 1.73 317 06:20 01.01.2020
1605 Fog -1 1031 92 0 1 0 04:44 01.01.2020
1606 Fog 0 1032 46 250 2.1 230 03:43 01.01.2020
1607 Fog 0 1032 46 500 1.5 250 03:22 01.01.2020
1608 Fog 0 1032 46 350 2.1 210 02:55 01.01.2020
1609 Fog 0 1032 46 350 2.1 210 02:32 01.01.2020
1610 Fog 0 1033 46 400 1.5 230 01:45 01.01.2020
1611 Fog 0 1033 45 250 2.1 220 01:24 01.01.2020
1612 Fog 0 1033 45 250 2.1 220 00:57 01.01.2020
1613 Fog 0 1033 45 200 2.1 210 00:37 01.01.2020
1614 Fog 0 1033 45 250 2.1 220 00:19 01.01.2020
1615 Fog 0 1033 45 250 2.1 210 23:40 31.12.2019
1616 Fog 0 1033 42 250 2.1 210 23:21 31.12.2019
1617 Fog 0 1033 42 250 2.1 210 22:57 31.12.2019
1618 Fog 0 1033 100 200 2.1 230 22:38 31.12.2019
1619 Mist 0 1032 92 0 3.33 356 22:18 31.12.2019
1620 Mist 0 1032 92 0 3.33 356 21:54 31.12.2019
1621 Fog 0 1033 42 300 2.1 210 21:36 31.12.2019
1622 Fog 1 1033 42 400 1.5 240 21:18 31.12.2019
1623 Fog 1 1033 42 1000 2.1 220 20:40 31.12.2019
1624 Fog 1 1033 100 400 1.5 220 20:21 31.12.2019
1625 Fog 1 1033 100 400 1.5 220 19:59 31.12.2019
1626 Fog 1 1033 100 300 0.5 0 19:40 31.12.2019
1627 Fog 1 1033 45 650 1 0 19:22 31.12.2019
1628 Fog 1 1033 45 650 1 0 18:57 31.12.2019
1629 Mist 1 1033 100 2100 0.5 0 18:39 31.12.2019
1630 Clouds 1 1032 100 0 0.5 0 18:19 31.12.2019
1631 Mist 1 1033 100 2100 1 0 17:56 31.12.2019
1632 Clouds 1 1032 100 0 4.37 351 17:37 31.12.2019
1633 Clouds 2 1032 56 0 1.5 130 17:19 31.12.2019
1634 Clouds 2 1032 56 0 1.5 130 16:56 31.12.2019
1635 Clouds 2 1032 56 0 2.1 100 16:37 31.12.2019
1636 Clouds 3 1032 56 0 4.21 344 16:19 31.12.2019
1637 Clouds 3 1032 56 0 4.21 344 15:56 31.12.2019
1638 Fog 2 1032 56 0 0.5 0 15:38 31.12.2019
1639 Fog 2 1032 56 0 1 0 15:20 31.12.2019
1640 Fog 3 1032 56 0 1 0 14:56 31.12.2019
1641 Fog 3 1032 56 0 4.21 344 14:37 31.12.2019
1642 Clouds 3 1033 75 0 1.5 90 14:19 31.12.2019
1643 Clouds 4 1033 75 0 1.5 90 13:56 31.12.2019
1644 Clouds 4 1033 100 0 3.91 344 13:38 31.12.2019
1645 Mist 4 1033 100 4500 2.1 230 13:20 31.12.2019
1646 Mist 4 1033 100 4500 2.1 230 12:56 31.12.2019
1647 Mist 4 1034 100 4800 2.1 200 12:38 31.12.2019
1648 Mist 4 1034 100 2300 1 0 12:19 31.12.2019
1649 Mist 3 1034 100 2300 1 0 11:55 31.12.2019
1650 Fog 3 1034 76 600 1.5 250 11:37 31.12.2019
1651 Fog 3 1034 76 600 1.5 250 11:37 31.12.2019
1652 Fog 2 1034 63 550 1.5 260 11:19 31.12.2019
1653 Clouds 1 1033 100 0 1 0 10:56 31.12.2019
1654 Fog 1 1033 63 650 2.6 200 10:37 31.12.2019
1655 Fog 1 1034 63 450 1 260 10:19 31.12.2019
1656 Fog 0 1034 63 450 1 260 09:57 31.12.2019
1657 Clouds 0 1033 92 0 0.5 0 09:38 31.12.2019
1658 Clouds 0 1033 92 0 1 0 09:19 31.12.2019
1659 Fog 0 1034 63 450 3.6 190 08:43 31.12.2019
1660 Clouds -1 1033 92 0 4.08 342 08:23 31.12.2019
1661 Fog 0 1034 56 300 1.5 210 07:58 31.12.2019
1662 Clouds 0 1033 100 0 4.5 337 07:40 31.12.2019
1663 Fog 0 1033 56 300 1.5 240 07:19 31.12.2019
1664 Clouds -1 1033 92 0 1.5 240 06:41 31.12.2019
1665 Mist 0 1033 56 3600 2.1 230 05:45 31.12.2019
1666 Mist 0 1034 92 0 0.5 110 04:27 31.12.2019
1667 Fog 0 1034 92 0 0.5 0 03:24 31.12.2019
1668 Fog 0 1033 100 0 3.74 332 02:36 31.12.2019
1669 Fog 0 1033 92 0 0.5 0 01:53 31.12.2019
1670 Fog -1 1033 92 0 0.5 0 01:32 31.12.2019
1671 Clouds 0 1033 50 5000 2.1 200 00:56 31.12.2019
1672 Clouds 0 1033 50 5000 2.1 200 00:37 31.12.2019
1673 Fog 0 1034 92 0 2.1 80 00:18 31.12.2019
1674 Fog 0 1034 92 0 2.1 80 00:18 31.12.2019
1675 Fog 0 1034 92 0 2.1 80 23:55 30.12.2019
1676 Fog 0 1034 100 0 2.1 90 23:36 30.12.2019
1677 Fog 0 1033 100 0 3.1 100 23:18 30.12.2019
1678 Fog 0 1033 100 0 1 0 22:54 30.12.2019
1679 Fog 0 1033 100 0 1 0 22:54 30.12.2019
1680 Fog 0 1033 100 0 1 0 22:36 30.12.2019
1681 Fog 0 1033 100 0 1 0 22:18 30.12.2019
1682 Fog 0 1032 92 0 1 0 21:55 30.12.2019
1683 Fog 0 1033 100 0 1 0 21:55 30.12.2019
1684 Fog 0 1032 92 0 1 0 21:55 30.12.2019
1685 Fog 1 1032 92 0 1 0 21:37 30.12.2019
1686 Fog 0 1032 100 0 1.25 265 21:18 30.12.2019
1687 Clouds 0 1032 52 5000 2.1 260 20:54 30.12.2019
1688 Clouds 0 1032 52 5000 2.1 260 20:36 30.12.2019
1689 Fog 1 1032 100 0 1 130 20:18 30.12.2019
1690 Fog 1 1032 100 0 1 130 19:55 30.12.2019
1691 Fog 1 1033 100 0 1 0 19:36 30.12.2019
1692 Fog 1 1033 100 0 1 0 19:18 30.12.2019
1693 Mist 1 1033 100 0 1 220 18:41 30.12.2019
1694 Mist 1 1033 100 0 0.5 0 18:21 30.12.2019
1695 Mist 1 1033 100 0 0.5 0 17:59 30.12.2019
1696 Mist 1 1033 55 0 2.6 130 17:40 30.12.2019
1697 Clouds 1 1033 58 0 2.1 110 17:19 30.12.2019
1698 Clouds 1 1033 58 0 2.1 110 16:59 30.12.2019
1699 Clouds 1 1033 58 0 1.5 110 16:39 30.12.2019
1700 Clouds 1 1033 58 0 1.5 110 16:20 30.12.2019
1701 Clouds 1 1033 58 0 1.5 110 15:56 30.12.2019
1702 Clouds 2 1033 80 10000 0.5 0 15:38 30.12.2019
1703 Clouds 2 1033 80 10000 0.5 0 15:19 30.12.2019
1704 Clouds 2 1033 80 10000 1 0 14:43 30.12.2019
1705 Clouds 1 1033 86 9000 1.5 260 14:21 30.12.2019
1706 Clouds 2 1033 86 9000 1.5 260 13:59 30.12.2019
1707 Mist 2 1033 100 0 0.42 24 13:41 30.12.2019
1708 Clouds 2 1034 86 9000 1 0 13:22 30.12.2019
1709 Clouds 2 1034 86 9000 1 0 12:57 30.12.2019
1710 Mist 3 1034 100 0 1.5 110 12:38 30.12.2019
1711 Fog 3 1034 100 0 0.43 4 12:18 30.12.2019
1712 Fog 3 1034 100 0 0.43 4 12:18 30.12.2019
1713 Fog 3 1034 100 0 0.43 4 11:46 30.12.2019
1714 Fog 1 1034 100 0 1.5 110 11:22 30.12.2019
1715 Fog 1 1034 100 0 1.5 110 10:59 30.12.2019
1716 Fog 1 1034 100 0 1.92 335 10:40 30.12.2019
1717 Clouds 0 1034 92 0 1.92 335 10:19 30.12.2019
1718 Clouds 1 1034 92 0 1 0 09:43 30.12.2019
1719 Clouds 0 1034 100 0 1 0 09:21 30.12.2019
1720 Clouds 0 1034 100 0 1 0 08:57 30.12.2019
1721 Clouds 0 1034 92 0 1 0 08:38 30.12.2019
1722 Clouds -1 1034 100 0 2.73 339 08:19 30.12.2019
1723 Clouds -1 1034 100 0 1 100 07:46 30.12.2019
1724 Clouds -1 1034 92 0 2.73 339 07:23 30.12.2019
1725 Clouds -1 1034 100 0 2.73 339 06:30 30.12.2019
1726 Clouds -1 1034 38 10000 1.5 220 04:31 30.12.2019
1727 Clear -1 1034 100 0 2.8 343 03:47 30.12.2019
1728 Clouds -1 1035 38 10000 2.1 220 02:45 30.12.2019
1729 Clouds -1 1035 38 10000 2.1 220 02:25 30.12.2019
1730 Clear -1 1034 92 0 1.5 100 01:27 30.12.2019
1731 Clear 0 1034 92 0 2.42 352 00:56 30.12.2019
1732 Clear -1 1034 92 0 2.42 352 00:36 30.12.2019
1733 Clear -1 1034 92 0 1.5 90 23:42 29.12.2019
1734 Clear -1 1034 92 0 0.5 0 23:24 29.12.2019
1735 Clear -1 1034 92 0 0.5 0 22:58 29.12.2019
1736 Clear -1 1034 92 0 1 0 22:38 29.12.2019
1737 Clear -1 1034 92 0 1 0 22:38 29.12.2019
1738 Clear 0 1034 92 0 1.5 90 22:20 29.12.2019
1739 Clear 0 1034 100 0 2.1 80 21:56 29.12.2019
1740 Clear 0 1034 100 0 2.1 80 21:38 29.12.2019
1741 Clear 0 1034 92 0 1 110 21:19 29.12.2019
1742 Clear 0 1034 92 0 1 110 20:55 29.12.2019
1743 Clear 0 1034 92 0 0.5 0 20:37 29.12.2019
1744 Clear 0 1034 92 0 4.46 352 20:18 29.12.2019
1745 Clear 0 1034 92 0 4.38 352 19:55 29.12.2019
1746 Clouds 0 1035 80 10000 1.5 280 19:37 29.12.2019
1747 Clear 0 1034 92 0 3.1 120 19:18 29.12.2019
1748 Clear 0 1035 92 0 3.1 100 18:54 29.12.2019
1749 Clear 0 1035 92 0 3.1 100 18:36 29.12.2019
1750 Clouds 0 1036 80 10000 1.5 260 18:18 29.12.2019
1751 Clear 0 1035 92 0 4.38 352 17:55 29.12.2019
1752 Clear 1 1035 92 0 4.38 352 17:36 29.12.2019
1753 Clear 1 1034 92 0 4.51 352 17:18 29.12.2019
1754 Clear 1 1034 92 0 1.5 90 16:55 29.12.2019
1755 Clear 1 1034 92 0 1.5 90 16:36 29.12.2019
1756 Clear 1 1034 86 0 4.51 352 16:18 29.12.2019
1757 Clear 1 1034 86 0 4.51 352 15:55 29.12.2019
1758 Clear 1 1034 92 0 4.51 352 15:37 29.12.2019
1759 Clear 1 1034 92 0 4.51 352 15:18 29.12.2019
1760 Clear 1 1033 92 0 0.5 0 14:47 29.12.2019
1761 Clouds 2 1034 92 0 3.96 356 14:19 29.12.2019
1762 Clouds 2 1034 92 0 3.96 356 13:59 29.12.2019
1763 Clouds 2 1034 92 0 0.5 0 13:40 29.12.2019
1764 Clouds 3 1035 74 10000 1.5 0 13:22 29.12.2019
1765 Clear 2 1034 92 0 1 0 12:58 29.12.2019
1766 Clouds 4 1035 80 10000 1.5 230 12:40 29.12.2019
1767 Clear 3 1036 92 0 0.5 0 12:22 29.12.2019
1768 Clear 3 1036 92 0 0.5 0 12:22 29.12.2019
1769 Clouds 3 1037 80 10000 3.1 240 11:43 29.12.2019
1770 Clear 1 1036 92 0 3.96 356 11:23 29.12.2019
1771 Clear 1 1036 92 0 4.49 347 10:59 29.12.2019
1772 Clear 1 1036 92 0 4.49 347 10:41 29.12.2019
1773 Clouds 2 1036 34 10000 2.6 230 10:19 29.12.2019
1774 Clear 1 1035 92 0 0.5 0 09:47 29.12.2019
1775 Clear 0 1035 92 0 0.5 0 09:28 29.12.2019
1776 Clouds 0 1036 80 10000 2.6 220 08:59 29.12.2019
1777 Clear 0 1035 92 0 4.49 347 08:41 29.12.2019
1778 Clear 0 1035 92 0 1.5 70 08:23 29.12.2019
1779 Clouds 0 1035 92 0 3.1 100 07:49 29.12.2019
1780 Clouds 0 1035 92 0 3.1 100 07:27 29.12.2019
1781 Clouds 0 1035 92 0 0.5 0 06:52 29.12.2019
1782 Clouds 0 1035 92 0 4.69 342 06:22 29.12.2019
1783 Clouds 0 1034 92 0 0.5 0 05:45 29.12.2019
1784 Clouds -1 1035 19 7000 2.6 230 04:33 29.12.2019
1785 Clouds 0 1035 92 0 1.5 110 03:39 29.12.2019
1786 Clouds 0 1035 19 0 4.1 110 02:36 29.12.2019
1787 Clouds 0 1035 74 0 5.7 60 02:18 29.12.2019
1788 Clouds 0 1036 18 10000 1 0 01:29 29.12.2019
1789 Clouds 0 1036 18 10000 1 0 00:47 29.12.2019
1790 Clouds 0 1036 18 10000 1 0 00:25 29.12.2019
1791 Clouds 0 1035 86 0 4.1 0 23:56 28.12.2019
1792 Clouds 0 1035 80 0 4.1 0 23:37 28.12.2019
1793 Clear 0 1035 80 0 3.6 80 23:18 28.12.2019
1794 Clear 0 1035 80 0 3.6 80 23:18 28.12.2019
1795 Clear 0 1035 80 0 3.6 80 23:18 28.12.2019
1796 Clear 0 1035 80 0 3.6 80 23:18 28.12.2019
1797 Clear 0 1035 80 0 3.6 80 23:18 28.12.2019
1798 Clear 0 1035 17 0 4.1 120 22:38 28.12.2019
1799 Clouds 0 1035 17 0 3.6 110 22:19 28.12.2019
1800 Clouds 1 1035 17 0 3.6 110 21:57 28.12.2019
1801 Clouds 1 1035 86 0 3.6 110 21:37 28.12.2019
1802 Clouds 1 1036 86 10000 2.1 210 21:19 28.12.2019
1803 Clear 1 1035 17 0 5.7 50 20:54 28.12.2019
1804 Clear 1 1035 17 0 5.7 50 20:54 28.12.2019
1805 Clear 1 1035 17 0 5.7 50 20:36 28.12.2019
1806 Clear 1 1035 80 0 2.6 80 20:18 28.12.2019
1807 Clear 1 1035 86 0 3.1 100 19:43 28.12.2019
1808 Clouds 1 1035 21 0 4.1 0 19:24 28.12.2019
1809 Clouds 1 1035 21 0 4.1 0 18:59 28.12.2019
1810 Clouds 1 1035 21 0 5.7 40 18:41 28.12.2019
1811 Clouds 2 1035 80 0 8.2 30 18:20 28.12.2019
1812 Clouds 1 1035 80 0 8.2 30 17:59 28.12.2019
1813 Clouds 2 1035 80 0 8.7 40 17:39 28.12.2019
1814 Clouds 2 1035 80 0 6.2 50 17:20 28.12.2019
1815 Clouds 2 1035 75 0 7.2 50 16:49 28.12.2019
1816 Clouds 2 1035 75 0 7.2 50 16:27 28.12.2019
1817 Clouds 2 1035 75 0 6.2 60 15:57 28.12.2019
1818 Clouds 2 1035 75 0 6.2 60 15:57 28.12.2019
1819 Clouds 2 1034 75 0 6.7 30 15:39 28.12.2019
1820 Clouds 3 1035 80 10000 7.2 330 15:21 28.12.2019
1821 Clouds 3 1033 75 0 5.1 80 14:46 28.12.2019
1822 Clouds 3 1034 81 10000 3.1 350 14:24 28.12.2019
1823 Clouds 3 1034 81 10000 3.1 350 13:58 28.12.2019
1824 Clear 4 1033 48 0 2.6 0 13:39 28.12.2019
1825 Clear 4 1033 47 0 3.6 100 13:19 28.12.2019
1826 Clouds 3 1034 47 0 2.6 80 12:44 28.12.2019
1827 Clouds 3 1034 47 0 2.1 100 12:25 28.12.2019
1828 Clouds 3 1034 47 0 2.1 100 11:59 28.12.2019
1829 Clouds 3 1035 47 0 3.1 90 11:39 28.12.2019
1830 Clouds 3 1036 86 10000 1.5 210 11:20 28.12.2019
1831 Clouds 3 1035 80 0 2.6 90 10:46 28.12.2019
1832 Clouds 2 1036 93 10000 0.5 0 10:23 28.12.2019
1833 Clouds 2 1036 93 10000 0.5 0 09:59 28.12.2019
1834 Clouds 1 1034 80 0 2.6 90 09:41 28.12.2019
1835 Clouds 1 1034 93 0 3.1 100 09:23 28.12.2019
1836 Clouds 1 1034 86 0 3.6 90 08:45 28.12.2019
1837 Clouds 1 1034 86 0 3.6 90 08:27 28.12.2019
1838 Rain 1 1034 93 0 3.1 100 07:59 28.12.2019
1839 Drizzle 1 1034 100 0 2.1 100 07:39 28.12.2019
1840 Rain 1 1033 93 0 1 0 06:50 28.12.2019
1841 Rain 1 1033 100 0 5.64 341 05:31 28.12.2019
1842 Clouds 2 1033 93 0 1 0 03:47 28.12.2019
1843 Clouds 2 1032 100 0 1.5 140 02:49 28.12.2019
1844 Clouds 3 1032 100 0 5.26 348 02:19 28.12.2019
1845 Clouds 2 1032 100 0 1.5 0 01:50 28.12.2019
1846 Clouds 3 1032 93 0 3.1 90 01:20 28.12.2019
1847 Clouds 3 1032 100 0 2.6 110 00:41 28.12.2019
1848 Clouds 3 1032 100 0 2.1 120 00:23 28.12.2019
1849 Clouds 3 1032 100 0 2.1 90 23:45 27.12.2019
1850 Clouds 3 1032 100 0 2.1 120 23:20 27.12.2019
1851 Clouds 3 1032 100 0 2.1 120 22:58 27.12.2019
1852 Clouds 3 1032 100 5000 0.5 0 22:39 27.12.2019
1853 Clouds 4 1032 100 0 1 140 22:21 27.12.2019
1854 Clouds 3 1032 100 0 1 140 21:59 27.12.2019
1855 Clouds 3 1032 100 0 0.5 0 21:40 27.12.2019
1856 Clouds 3 1031 100 0 0.5 0 21:22 27.12.2019
1857 Clouds 3 1031 100 0 5.77 340 20:42 27.12.2019
1858 Clouds 3 1031 100 0 1.5 80 20:23 27.12.2019
1859 Rain 3 1031 100 0 1.5 80 19:55 27.12.2019
1860 Rain 3 1030 100 0 5.57 334 19:36 27.12.2019
1861 Rain 3 1030 100 0 1.5 230 19:18 27.12.2019
1862 Rain 3 1030 100 0 1.5 230 19:18 27.12.2019
1863 Clouds 3 1029 93 0 1 0 18:41 27.12.2019
1864 Clouds 3 1028 93 0 1 0 18:23 27.12.2019
1865 Clouds 3 1028 93 0 1 0 17:59 27.12.2019
1866 Clouds 3 1028 93 0 1 130 17:41 27.12.2019
1867 Clouds 4 1028 93 0 2.1 80 17:19 27.12.2019
1868 Clouds 4 1028 93 0 2.1 80 16:59 27.12.2019
1869 Clouds 4 1028 93 0 2.1 80 16:59 27.12.2019
1870 Clouds 4 1028 93 0 0.5 0 16:39 27.12.2019
1871 Rain 4 1028 93 0 5.03 333 16:21 27.12.2019
1872 Rain 4 1028 93 0 1.5 90 15:46 27.12.2019
1873 Rain 4 1027 93 0 1 0 15:24 27.12.2019
1874 Rain 4 1027 93 0 1 0 14:59 27.12.2019
1875 Rain 4 1027 93 0 0.5 0 14:40 27.12.2019
1876 Rain 4 1026 93 0 1.5 70 14:22 27.12.2019
1877 Rain 4 1026 93 0 1.5 70 13:58 27.12.2019
1878 Rain 4 1025 93 0 2.1 120 13:40 27.12.2019
1879 Clouds 4 1026 93 0 3.84 331 13:21 27.12.2019
1880 Rain 4 1025 93 0 1 0 12:44 27.12.2019
1881 Rain 4 1025 93 0 1 0 12:26 27.12.2019
1882 Rain 4 1025 93 0 1 0 12:26 27.12.2019
1883 Rain 3 1026 93 0 1.5 90 11:56 27.12.2019
1884 Rain 4 1026 93 0 1 100 11:38 27.12.2019
1885 Rain 3 1025 93 10000 3.1 50 11:19 27.12.2019
1886 Rain 3 1025 100 0 1.5 70 10:45 27.12.2019
1887 Rain 3 1024 100 0 1 0 10:23 27.12.2019
1888 Rain 3 1024 100 0 2.88 317 09:50 27.12.2019
1889 Rain 2 1024 100 0 2.88 317 09:22 27.12.2019
1890 Rain 2 1024 100 0 2.88 317 08:59 27.12.2019
1891 Rain 2 1023 93 0 0.5 0 08:41 27.12.2019
1892 Rain 2 1023 100 0 3.19 306 08:22 27.12.2019
1893 Rain 2 1023 100 0 0.5 100 07:38 27.12.2019
1894 Rain 2 1023 93 0 1.5 90 07:19 27.12.2019
1895 Rain 2 1023 100 0 3.19 306 06:25 27.12.2019
1896 Rain 2 1024 100 0 1.5 90 04:39 27.12.2019
1897 Rain 2 1025 93 0 3.9 319 02:28 27.12.2019
1898 Rain 2 1026 93 0 1 0 01:44 27.12.2019
1899 Rain 2 1026 93 0 1.5 120 01:21 27.12.2019
1900 Rain 2 1027 93 0 1 0 00:47 27.12.2019
1901 Rain 2 1027 93 0 1.5 90 00:25 27.12.2019
1902 Rain 2 1027 93 0 1.5 90 23:56 26.12.2019
1903 Rain 2 1027 100 0 2.1 70 23:37 26.12.2019
1904 Rain 2 1027 93 0 1 0 23:19 26.12.2019
1905 Rain 2 1027 93 0 1 0 22:40 26.12.2019
1906 Rain 2 1027 93 0 1.5 70 22:18 26.12.2019
1907 Clouds 2 1027 93 0 1 0 21:40 26.12.2019
1908 Rain 2 1027 93 0 1 0 21:21 26.12.2019
1909 Rain 2 1027 93 0 1 0 20:58 26.12.2019
1910 Rain 2 1027 93 10000 1.5 230 20:38 26.12.2019
1911 Rain 2 1027 93 10000 1.5 230 20:38 26.12.2019
1912 Rain 2 1027 86 0 2.6 60 20:20 26.12.2019
1913 Rain 2 1027 86 0 2.6 60 19:55 26.12.2019
1914 Rain 3 1026 80 0 3.1 130 19:37 26.12.2019
1915 Rain 3 1026 75 10000 1 0 19:19 26.12.2019
1916 Rain 3 1026 75 10000 1 0 18:56 26.12.2019
1917 Rain 3 1026 80 0 5.1 80 18:36 26.12.2019
1918 Rain 3 1025 80 0 3.1 100 18:18 26.12.2019
1919 Clouds 3 1025 80 0 3.1 280 17:41 26.12.2019
1920 Clouds 3 1025 80 0 3.1 280 17:41 26.12.2019
1921 Clouds 3 1024 80 0 4.1 270 17:21 26.12.2019
1922 Clouds 3 1023 45 0 3.64 330 16:50 26.12.2019
1923 Clouds 3 1023 45 0 3.64 330 16:27 26.12.2019
1924 Clouds 3 1023 75 10000 1 50 15:57 26.12.2019
1925 Clouds 4 1023 75 10000 1 50 15:38 26.12.2019
1926 Clouds 4 1024 75 10000 1 60 15:19 26.12.2019
1927 Clouds 4 1024 45 0 2.1 260 14:41 26.12.2019
1928 Clouds 4 1024 45 0 2.6 240 14:23 26.12.2019
1929 Clouds 4 1024 64 0 2.6 240 13:55 26.12.2019
1930 Clouds 4 1024 64 0 2.6 260 13:36 26.12.2019
1931 Clouds 4 1024 75 10000 1 0 13:18 26.12.2019
1932 Clouds 4 1024 63 0 1 0 12:44 26.12.2019
1933 Clouds 4 1024 80 0 1.04 306 12:24 26.12.2019
1934 Clouds 4 1024 80 0 1.04 306 11:59 26.12.2019
1935 Clouds 4 1025 63 0 1 70 11:40 26.12.2019
1936 Clear 3 1025 34 0 2.15 326 11:21 26.12.2019
1937 Clear 2 1024 92 0 0.5 0 10:50 26.12.2019
1938 Clear 1 1024 92 0 0.5 0 10:26 26.12.2019
1939 Clouds 1 1024 92 0 2.15 326 09:55 26.12.2019
1940 Clouds 0 1024 92 0 2.15 326 09:33 26.12.2019
1941 Clouds 0 1024 92 0 1 0 08:59 26.12.2019
1942 Clouds 0 1024 92 0 2.15 326 08:39 26.12.2019
1943 Clouds 0 1024 92 0 3.16 330 08:20 26.12.2019
1944 Clouds 0 1024 92 0 1 0 07:38 26.12.2019
1945 Clouds 0 1024 86 10000 1.5 250 07:19 26.12.2019
1946 Clear 0 1024 92 0 2.1 100 06:37 26.12.2019
1947 Clear 0 1024 92 0 1.5 90 06:19 26.12.2019
1948 Clear 0 1024 100 0 1 110 05:41 26.12.2019
1949 Clear 0 1024 92 0 1 120 04:33 26.12.2019
1950 Clear 1 1024 24 0 1.5 90 03:31 26.12.2019
1951 Clouds 1 1024 24 0 2.6 100 02:46 26.12.2019
1952 Clouds 1 1024 24 0 2.6 100 02:27 26.12.2019
1953 Clouds 1 1024 86 0 2.6 100 01:44 26.12.2019
1954 Clouds 2 1025 93 0 2.1 180 01:24 26.12.2019
1955 Clouds 1 1024 75 0 4.6 60 00:44 26.12.2019
1956 Clouds 2 1024 70 0 4.6 60 00:23 26.12.2019
1957 Clouds 2 1024 70 0 4.6 60 00:23 26.12.2019
1958 Clouds 2 1024 70 0 4.6 60 23:57 25.12.2019
1959 Clouds 2 1024 70 0 4.1 50 23:37 25.12.2019
1960 Clouds 2 1024 70 0 4.1 30 23:18 25.12.2019
1961 Clouds 3 1024 70 0 4.1 30 22:56 25.12.2019
1962 Clouds 2 1024 75 0 5.1 50 22:37 25.12.2019
1963 Clouds 3 1024 75 0 4.6 50 22:18 25.12.2019
1964 Clouds 3 1024 75 0 4.6 50 21:55 25.12.2019
1965 Clouds 3 1025 70 0 2.1 60 21:37 25.12.2019
1966 Clouds 2 1025 75 0 2.1 260 21:18 25.12.2019
1967 Clouds 3 1025 75 0 1 0 20:40 25.12.2019
1968 Clouds 3 1025 75 0 2.6 240 20:20 25.12.2019
1969 Clouds 3 1025 75 0 2.6 240 19:57 25.12.2019
1970 Clouds 3 1024 70 0 4.6 280 19:39 25.12.2019
1971 Clouds 3 1024 65 0 6.7 300 19:21 25.12.2019
1972 Clouds 4 1024 61 0 6.7 310 18:39 25.12.2019
1973 Clouds 4 1024 95 0 3.6 260 18:20 25.12.2019
1974 Clouds 4 1024 95 0 3.6 260 17:57 25.12.2019
1975 Clouds 5 1023 45 0 4.6 300 17:36 25.12.2019
1976 Clouds 5 1023 46 0 3.1 290 17:18 25.12.2019
1977 Clouds 6 1022 46 0 5.1 300 16:39 25.12.2019
1978 Clouds 6 1022 46 0 6.2 300 16:19 25.12.2019
1979 Clouds 6 1022 46 0 6.2 300 15:58 25.12.2019
1980 Clouds 7 1022 46 0 6.7 300 15:40 25.12.2019
1981 Clouds 7 1022 43 0 5.7 280 15:21 25.12.2019
1982 Clouds 7 1022 43 0 5.7 280 14:59 25.12.2019
1983 Clouds 7 1021 43 0 7.2 260 14:40 25.12.2019
1984 Clouds 7 1021 43 0 7.2 260 14:40 25.12.2019
1985 Clouds 7 1021 46 0 6.7 270 14:21 25.12.2019
1986 Clouds 7 1021 46 0 6.7 270 13:57 25.12.2019
1987 Clouds 7 1021 46 0 5.7 270 13:38 25.12.2019
1988 Clouds 7 1021 46 0 5.7 280 13:19 25.12.2019
1989 Clouds 7 1021 49 0 4.6 280 12:42 25.12.2019
1990 Clouds 7 1021 49 0 5.1 280 12:21 25.12.2019
1991 Clouds 7 1021 49 0 5.1 280 11:57 25.12.2019
1992 Clouds 7 1021 43 10000 4.6 240 11:38 25.12.2019
1993 Clouds 5 1021 45 0 8.2 300 11:18 25.12.2019
1994 Clouds 5 1021 56 0 3.1 250 10:38 25.12.2019
1995 Clouds 5 1020 45 0 7.7 300 10:20 25.12.2019
1996 Clouds 5 1020 49 0 6.7 290 09:51 25.12.2019
1997 Clouds 6 1020 49 0 6.7 290 09:32 25.12.2019
1998 Clouds 4 1020 45 0 7.7 300 08:51 25.12.2019
1999 Clouds 4 1020 45 0 7.7 300 08:31 25.12.2019
2000 Clouds 4 1020 45 0 7.7 300 08:31 25.12.2019
2001 Clouds 4 1020 89 10000 5.1 240 07:53 25.12.2019
2002 Clouds 4 1020 89 10000 5.1 240 07:34 25.12.2019
2003 Clouds 4 1020 46 0 8.7 300 06:58 25.12.2019
2004 Clouds 4 1020 49 0 7.7 290 06:23 25.12.2019
2005 Clouds 4 1020 89 10000 6.2 240 05:31 25.12.2019
2006 Clouds 4 1019 49 0 7.7 280 04:39 25.12.2019
2007 Clouds 4 1019 49 0 6.7 280 04:20 25.12.2019
2008 Clouds 4 1019 46 0 8.7 280 03:43 25.12.2019
2009 Clouds 4 1019 46 0 7.2 280 02:56 25.12.2019
2010 Clouds 4 1019 46 0 7.2 280 02:27 25.12.2019
2011 Rain 5 1019 46 0 6.7 290 01:26 25.12.2019
2012 Clouds 5 1019 46 0 7.2 300 00:56 25.12.2019
2013 Clouds 5 1019 46 0 6.7 290 00:33 25.12.2019
2014 Clouds 4 1019 49 0 4.1 270 23:58 24.12.2019
2015 Clouds 4 1019 49 0 4.1 270 23:39 24.12.2019
2016 Clouds 5 1018 91 0 5.7 290 23:20 24.12.2019
2017 Fog 4 1019 91 0 1.5 0 22:41 24.12.2019
2018 Clouds 3 1019 43 10000 4.6 260 22:23 24.12.2019
2019 Fog 4 1019 100 0 0.5 0 21:45 24.12.2019
2020 Fog 4 1019 91 0 1 0 21:24 24.12.2019
2021 Fog 4 1019 91 0 1 0 20:59 24.12.2019
2022 Fog 4 1019 91 0 4.07 320 20:41 24.12.2019
2023 Fog 4 1018 92 0 1 0 20:19 24.12.2019
2024 Fog 4 1018 100 0 0.5 0 19:45 24.12.2019
2025 Mist 4 1019 100 0 1 0 19:22 24.12.2019
2026 Mist 4 1019 100 0 1 0 18:58 24.12.2019
2027 Clouds 5 1019 100 0 1 0 18:40 24.12.2019
2028 Clouds 4 1019 100 0 3.59 318 18:18 24.12.2019
2029 Rain 4 1019 93 0 0.5 0 17:42 24.12.2019
2030 Rain 5 1019 100 0 1 0 17:21 24.12.2019
2031 Rain 5 1019 100 0 1 0 16:57 24.12.2019
2032 Rain 4 1018 100 6000 1 0 16:38 24.12.2019
2033 Rain 4 1018 100 0 2.92 314 16:20 24.12.2019
2034 Rain 4 1018 100 0 2.92 314 15:56 24.12.2019
2035 Rain 4 1018 93 0 1 0 15:36 24.12.2019
2036 Rain 4 1018 93 0 1 0 15:36 24.12.2019
2037 Rain 4 1018 93 0 1 0 15:18 24.12.2019
2038 Rain 4 1018 93 0 1 0 14:56 24.12.2019
2039 Rain 4 1018 93 0 1.5 190 14:38 24.12.2019
2040 Rain 3 1018 100 0 1.5 240 14:20 24.12.2019
2041 Rain 3 1018 100 0 1.5 240 13:55 24.12.2019
2042 Rain 3 1018 100 0 1.5 240 13:55 24.12.2019
2043 Rain 3 1018 100 0 3.1 80 13:37 24.12.2019
2044 Rain 3 1019 100 0 2.6 110 13:19 24.12.2019
2045 Rain 3 1019 100 0 2.6 110 12:55 24.12.2019
2046 Rain 3 1020 93 0 1 0 12:36 24.12.2019
2047 Rain 3 1020 93 0 1 0 12:18 24.12.2019
2048 Rain 3 1020 93 0 2.6 110 11:55 24.12.2019
2049 Rain 3 1020 93 0 2.6 110 11:36 24.12.2019
2050 Rain 3 1020 93 0 1.5 100 11:18 24.12.2019
2051 Rain 3 1020 93 0 1.5 100 10:55 24.12.2019
2052 Rain 3 1020 93 0 1.5 100 10:55 24.12.2019
2053 Rain 3 1020 93 0 2.1 50 10:37 24.12.2019
2054 Rain 3 1021 93 0 2.65 296 10:19 24.12.2019
2055 Rain 3 1021 93 0 2.65 296 09:54 24.12.2019
2056 Rain 3 1021 93 0 2.65 296 09:36 24.12.2019
2057 Rain 3 1021 93 0 2.65 296 09:18 24.12.2019
2058 Rain 2 1021 93 0 1.5 250 08:43 24.12.2019
2059 Rain 2 1021 93 0 1 0 08:20 24.12.2019
2060 Rain 2 1021 93 0 1.5 100 07:45 24.12.2019
2061 Rain 2 1021 93 0 1.5 100 07:25 24.12.2019
2062 Clouds 2 1021 100 0 1 0 06:57 24.12.2019
2063 Clouds 2 1020 100 0 3.84 309 06:38 24.12.2019
2064 Clouds 1 1020 100 0 3.84 309 06:18 24.12.2019
2065 Clouds 1 1021 100 0 0.5 0 05:20 24.12.2019
2066 Clouds 1 1021 100 0 4.32 321 04:37 24.12.2019
2067 Clouds 2 1022 93 0 1 130 03:50 24.12.2019
2068 Clouds 1 1022 93 0 1 0 02:59 24.12.2019
2069 Clouds 2 1022 93 0 2.1 70 02:21 24.12.2019
2070 Clouds 2 1022 86 0 1 0 01:42 24.12.2019
2071 Clouds 2 1022 93 0 1.5 70 01:20 24.12.2019
2072 Clouds 2 1022 93 0 1.5 70 00:43 24.12.2019
2073 Clouds 3 1022 80 0 1.5 280 00:23 24.12.2019
2074 Clouds 2 1022 80 0 1.5 280 23:55 23.12.2019
2075 Clouds 3 1022 86 0 1.5 270 23:37 23.12.2019
2076 Rain 3 1021 80 0 2.6 310 23:19 23.12.2019
2077 Rain 3 1021 81 10000 1 0 22:54 23.12.2019
2078 Rain 3 1021 81 10000 1 0 22:54 23.12.2019
2079 Rain 3 1021 81 10000 1 0 22:36 23.12.2019
2080 Rain 3 1020 80 0 2.6 250 22:18 23.12.2019
2081 Rain 3 1020 80 0 2.6 250 21:55 23.12.2019
2082 Rain 3 1020 81 10000 2.6 190 21:36 23.12.2019
2083 Rain 3 1020 86 0 4.02 325 21:18 23.12.2019
2084 Rain 3 1020 86 0 4.02 325 20:56 23.12.2019
2085 Rain 3 1019 81 0 1.5 240 20:38 23.12.2019
2086 Rain 3 1019 75 0 3.1 0 20:18 23.12.2019
2087 Rain 4 1019 70 0 3.6 0 19:54 23.12.2019
2088 Rain 4 1019 70 0 3.6 0 19:36 23.12.2019
2089 Rain 4 1018 70 0 3.1 230 19:18 23.12.2019
2090 Rain 4 1018 65 0 3.1 0 18:54 23.12.2019
2091 Rain 3 1018 65 0 3.1 0 18:36 23.12.2019
2092 Rain 3 1017 65 0 6.2 300 18:18 23.12.2019
2093 Rain 3 1017 65 0 6.7 300 17:55 23.12.2019
2094 Rain 3 1017 65 0 6.7 300 17:37 23.12.2019
2095 Rain 3 1017 65 0 6.7 300 17:37 23.12.2019
2096 Rain 3 1016 70 0 4.6 300 17:18 23.12.2019
2097 Rain 4 1016 75 0 5.7 290 16:42 23.12.2019
2098 Rain 4 1016 70 0 3.6 280 16:19 23.12.2019
2099 Rain 4 1016 70 0 3.6 280 16:19 23.12.2019
2100 Rain 4 1016 70 0 3.6 280 15:58 23.12.2019
2101 Rain 4 1015 70 10000 5.1 230 15:38 23.12.2019
2102 Rain 4 1015 80 0 6.7 310 15:19 23.12.2019
2103 Rain 4 1015 80 0 6.7 310 14:58 23.12.2019
2104 Rain 3 1014 70 0 6.2 300 14:39 23.12.2019
2105 Rain 3 1014 70 10000 3.1 270 14:21 23.12.2019
2106 Rain 3 1014 70 10000 3.1 270 13:58 23.12.2019
2107 Rain 3 1013 70 0 8.2 300 13:40 23.12.2019
2108 Rain 3 1013 70 0 9.3 310 13:21 23.12.2019
2109 Rain 4 1013 70 0 9.3 310 12:55 23.12.2019
2110 Rain 4 1013 75 0 6.2 270 12:37 23.12.2019
2111 Rain 4 1013 70 0 7.7 290 12:18 23.12.2019
2112 Rain 4 1012 70 0 6.7 280 11:43 23.12.2019
2113 Rain 3 1013 75 0 4.6 260 11:25 23.12.2019
2114 Rain 4 1013 75 0 4.6 260 10:56 23.12.2019
2115 Rain 4 1012 80 0 4.1 240 10:38 23.12.2019
2116 Rain 4 1012 65 10000 3.6 170 10:20 23.12.2019
2117 Rain 3 1012 65 10000 3.6 170 09:59 23.12.2019
2118 Rain 3 1012 70 0 6.2 290 09:39 23.12.2019
2119 Rain 3 1011 65 10000 1.5 0 09:20 23.12.2019
2120 Rain 3 1011 65 10000 1.5 0 08:55 23.12.2019
2121 Rain 3 1011 70 0 5.7 280 08:37 23.12.2019
2122 Rain 3 1010 70 0 6.7 300 08:18 23.12.2019
2123 Rain 3 1009 75 0 4.6 0 07:43 23.12.2019
2124 Rain 3 1009 80 0 5.7 260 07:20 23.12.2019
2125 Rain 3 1008 80 0 4.6 230 06:51 23.12.2019
2126 Rain 3 1008 80 0 4.1 230 06:24 23.12.2019
2127 Rain 3 1008 86 0 4.73 316 05:49 23.12.2019
2128 Rain 3 1008 80 0 2.1 0 05:22 23.12.2019
2129 Rain 3 1007 75 0 5.7 290 04:20 23.12.2019
2130 Rain 3 1006 75 0 4.6 280 02:55 23.12.2019
2131 Rain 3 1005 75 0 7.2 290 02:25 23.12.2019
2132 Rain 3 1004 75 0 5.7 280 01:55 23.12.2019
2133 Rain 3 1003 80 0 5.1 280 01:36 23.12.2019
2134 Rain 3 1003 86 0 4.1 260 01:18 23.12.2019
2135 Drizzle 3 1003 75 10000 2.1 270 00:35 23.12.2019
2136 Rain 3 1002 86 0 4.1 270 23:57 22.12.2019
2137 Rain 3 1002 86 0 5.7 300 23:39 22.12.2019
2138 Rain 3 1001 75 10000 2.6 60 23:20 22.12.2019
2139 Rain 3 1001 75 10000 2.6 60 22:57 22.12.2019
2140 Rain 3 1000 70 0 3.38 329 22:38 22.12.2019
2141 Rain 3 1000 61 10000 3.1 330 22:19 22.12.2019
2142 Rain 4 1000 61 10000 3.1 330 21:56 22.12.2019
2143 Rain 4 1000 61 10000 3.1 330 21:56 22.12.2019
2144 Clouds 4 1000 70 0 1 0 21:38 22.12.2019
2145 Drizzle 3 999 95 10000 3.6 260 21:20 22.12.2019
2146 Drizzle 3 999 95 10000 3.6 260 20:56 22.12.2019
2147 Rain 3 999 65 0 5.7 300 20:38 22.12.2019
2148 Rain 4 999 91 10000 3.1 260 20:18 22.12.2019
2149 Clouds 4 998 65 0 9.3 310 19:41 22.12.2019
2150 Rain 4 997 70 0 10.3 310 19:21 22.12.2019
2151 Rain 4 997 70 0 10.3 310 18:58 22.12.2019
2152 Rain 3 996 70 0 10.3 300 18:38 22.12.2019
2153 Clouds 4 997 57 10000 5.1 270 18:19 22.12.2019
2154 Clouds 3 996 75 0 9.8 300 17:55 22.12.2019
2155 Rain 4 996 75 0 9.8 300 17:37 22.12.2019
2156 Rain 4 997 81 0 7.2 270 17:18 22.12.2019
2157 Rain 4 997 81 0 7.2 270 16:56 22.12.2019
2158 Rain 4 997 81 0 7.2 270 16:56 22.12.2019
2159 Rain 4 997 81 0 7.2 270 16:37 22.12.2019
2160 Rain 4 997 81 0 7.2 310 16:19 22.12.2019
2161 Rain 5 996 81 0 4.1 210 15:54 22.12.2019
2162 Rain 5 996 75 0 4.1 280 15:36 22.12.2019
2163 Rain 5 996 70 0 6.7 310 15:18 22.12.2019
2164 Rain 6 995 75 0 8.2 280 14:39 22.12.2019
2165 Rain 6 995 81 0 6.7 280 14:19 22.12.2019
2166 Rain 6 995 81 0 6.7 280 13:56 22.12.2019
2167 Rain 5 994 81 0 7.2 310 13:38 22.12.2019
2168 Rain 5 994 93 0 3.1 240 13:20 22.12.2019
2169 Rain 5 994 93 0 3.1 240 12:57 22.12.2019
2170 Rain 5 993 93 0 1.5 0 12:39 22.12.2019
2171 Rain 5 993 93 0 1 0 12:20 22.12.2019
2172 Rain 5 993 93 0 1 0 12:20 22.12.2019
2173 Rain 5 993 93 0 1 0 11:59 22.12.2019
2174 Rain 5 992 100 0 1 0 11:39 22.12.2019
2175 Rain 4 992 100 0 1 0 11:20 22.12.2019
2176 Rain 4 992 100 0 1 0 10:58 22.12.2019
2177 Rain 4 992 93 0 3.47 331 10:40 22.12.2019
2178 Rain 4 992 93 0 3.47 331 10:40 22.12.2019
2179 Rain 4 991 93 0 2.1 220 10:20 22.12.2019
2180 Rain 4 991 93 0 2.1 220 09:58 22.12.2019
2181 Rain 3 991 93 0 1.5 270 09:40 22.12.2019
2182 Rain 3 990 93 0 3.1 80 09:21 22.12.2019
2183 Clouds 3 990 100 0 3.47 331 08:45 22.12.2019
2184 Drizzle 3 989 100 0 0.5 0 08:23 22.12.2019
2185 Clouds 3 989 100 0 3.1 260 07:52 22.12.2019
2186 Clouds 3 989 100 0 3.1 80 07:22 22.12.2019
2187 Clouds 3 989 100 0 3.1 80 06:57 22.12.2019
2188 Clouds 3 989 93 0 3.66 339 06:30 22.12.2019
2189 Clouds 3 989 93 0 3.1 70 05:43 22.12.2019
2190 Clouds 3 989 93 0 1.5 70 05:21 22.12.2019
2191 Clouds 3 989 93 10000 1.5 180 04:27 22.12.2019
2192 Rain 3 990 93 0 3.39 359 03:28 22.12.2019
2193 Rain 3 990 93 0 3.1 260 02:35 22.12.2019
2194 Rain 3 991 100 0 4.1 80 01:33 22.12.2019
2195 Rain 3 991 93 0 1 0 00:59 22.12.2019
2196 Rain 3 992 93 0 1.5 80 00:41 22.12.2019
2197 Rain 3 992 93 0 0.5 0 00:21 22.12.2019
2198 Rain 3 992 86 0 2.1 190 23:42 21.12.2019
2199 Rain 3 991 100 0 5.1 260 23:24 21.12.2019
2200 Clouds 2 991 100 0 5.1 260 22:58 21.12.2019
2201 Clouds 2 990 100 0 2.1 260 22:39 21.12.2019
2202 Clouds 3 989 100 0 1 0 22:19 21.12.2019
2203 Clouds 2 989 100 0 1 0 21:56 21.12.2019
2204 Clouds 2 989 100 0 1 0 21:56 21.12.2019
2205 Clouds 2 990 93 10000 1 0 21:37 21.12.2019
2206 Clouds 2 990 93 0 1.5 0 21:19 21.12.2019
2207 Clouds 2 990 93 0 1.5 0 20:57 21.12.2019
2208 Clouds 3 990 100 0 2.6 90 20:38 21.12.2019
2209 Clouds 3 991 93 0 0.5 0 20:20 21.12.2019
2210 Clouds 3 991 93 0 0.5 0 19:57 21.12.2019
2211 Clouds 3 991 93 0 1.5 280 19:39 21.12.2019
2212 Clouds 3 992 93 10000 1 0 19:19 21.12.2019
2213 Clouds 3 992 93 0 2.6 110 18:42 21.12.2019
2214 Clouds 3 993 93 10000 1 0 18:23 21.12.2019
2215 Clouds 3 993 93 10000 1 0 17:57 21.12.2019
2216 Clouds 2 994 100 0 2.1 110 17:39 21.12.2019
2217 Clouds 4 995 100 0 2.25 329 17:20 21.12.2019
2218 Clouds 4 995 100 0 2.25 329 16:57 21.12.2019
2219 Clouds 4 995 100 0 2.25 329 16:57 21.12.2019
2220 Clouds 5 994 93 0 0.5 0 16:39 21.12.2019
2221 Clouds 5 994 93 10000 0.5 0 16:18 21.12.2019
2222 Clouds 5 995 87 0 3.1 90 15:56 21.12.2019
2223 Clouds 4 995 87 0 3.1 90 15:37 21.12.2019
2224 Clouds 5 996 87 0 2.6 80 15:18 21.12.2019
2225 Clouds 5 996 87 0 1 0 14:44 21.12.2019
2226 Clouds 5 996 87 0 1 0 14:25 21.12.2019
2227 Clouds 5 996 81 0 4.11 341 13:59 21.12.2019
2228 Clouds 5 996 81 0 0.5 0 13:40 21.12.2019
2229 Clouds 5 997 87 0 1.5 290 13:20 21.12.2019
2230 Clouds 5 997 87 0 1.5 290 12:57 21.12.2019
2231 Rain 5 997 87 0 2.1 280 12:39 21.12.2019
2232 Rain 5 997 87 0 4.6 290 12:21 21.12.2019
2233 Rain 5 997 87 0 4.6 290 11:57 21.12.2019
2234 Rain 5 997 87 0 5.1 290 11:39 21.12.2019
2235 Rain 4 997 93 0 3.6 290 11:21 21.12.2019
2236 Rain 4 997 93 0 2.1 270 10:41 21.12.2019
2237 Rain 4 997 93 10000 0.5 0 10:23 21.12.2019
2238 Rain 4 997 93 10000 0.5 0 09:59 21.12.2019
2239 Drizzle 4 996 100 0 2.6 260 09:41 21.12.2019
2240 Rain 4 996 93 10000 0.5 0 09:20 21.12.2019
2241 Rain 4 996 93 0 1 110 08:53 21.12.2019
2242 Rain 4 996 93 0 1 110 08:27 21.12.2019
2243 Rain 4 996 100 0 1.3 334 07:59 21.12.2019
2244 Rain 4 996 93 0 0.5 0 07:41 21.12.2019
2245 Clouds 4 996 87 10000 2.6 210 07:21 21.12.2019
2246 Clouds 4 996 87 10000 3.1 230 06:42 21.12.2019
2247 Drizzle 4 996 87 10000 3.6 240 06:24 21.12.2019
2248 Drizzle 4 996 87 10000 1 280 05:43 21.12.2019
2249 Clouds 4 995 87 0 2.1 270 04:56 21.12.2019
2250 Clouds 4 996 81 0 1.5 0 03:56 21.12.2019
2251 Clouds 4 997 87 0 2.1 0 02:39 21.12.2019
2252 Clouds 4 997 81 0 5.7 40 01:53 21.12.2019
2253 Clouds 4 997 81 0 5.7 40 01:27 21.12.2019
2254 Clouds 4 997 93 0 2.1 70 00:50 21.12.2019
2255 Clouds 4 998 81 10000 4.6 20 00:28 21.12.2019
2256 Clouds 4 998 81 10000 4.6 20 23:55 20.12.2019
2257 Rain 5 997 93 0 1.5 100 23:36 20.12.2019
2258 Rain 5 997 93 0 2.15 132 23:18 20.12.2019
2259 Rain 5 997 87 0 2.6 60 22:40 20.12.2019
2260 Rain 4 997 87 0 3.1 70 22:20 20.12.2019
2261 Rain 4 997 87 0 3.1 70 21:57 20.12.2019
2262 Rain 4 997 87 0 3.6 90 21:39 20.12.2019
2263 Rain 5 997 93 0 1 0 21:18 20.12.2019
2264 Rain 5 997 100 0 1 0 20:39 20.12.2019
2265 Rain 5 997 93 0 1.5 220 20:19 20.12.2019
2266 Rain 5 997 93 0 1.5 220 19:57 20.12.2019
2267 Rain 5 996 93 0 1.5 280 19:39 20.12.2019
2268 Rain 5 995 81 0 1 0 19:19 20.12.2019
2269 Rain 6 995 76 0 1 0 18:42 20.12.2019
2270 Rain 6 995 76 0 1 0 18:42 20.12.2019
2271 Rain 6 995 75 0 1.5 280 18:23 20.12.2019
2272 Rain 7 995 75 0 1.5 280 17:58 20.12.2019
2273 Rain 7 1000 100 0 1.5 0 17:40 20.12.2019
2274 Clouds 8 993 70 0 1.5 260 17:21 20.12.2019
2275 Clouds 7 992 75 0 2.1 0 16:59 20.12.2019
2276 Rain 7 1001 100 0 5.77 164 16:38 20.12.2019
2277 Clouds 7 992 66 0 2.1 0 16:20 20.12.2019
2278 Clouds 7 991 66 0 4.1 250 15:56 20.12.2019
2279 Rain 7 1002 100 0 1 0 15:38 20.12.2019
2280 Clouds 8 991 66 0 3.1 0 15:19 20.12.2019
2281 Snow 7 990 43 0 6.2 0 14:43 20.12.2019
2282 Snow 7 989 29 0 15.4 90 14:25 20.12.2019
2283 Clouds 7 989 98 0 14.4 90 13:59 20.12.2019
2284 Clouds 7 989 98 0 14.4 90 13:41 20.12.2019
2285 Clouds 7 990 98 0 16.5 100 13:20 20.12.2019
2286 Clouds 7 990 98 0 16.5 100 12:57 20.12.2019
2287 Rain 7 992 38 0 17.5 100 12:37 20.12.2019
2288 Rain 7 992 38 0 17.5 100 12:19 20.12.2019
2289 Rain 7 992 38 0 15.4 90 11:58 20.12.2019
2290 Rain 7 992 38 0 15.4 90 11:39 20.12.2019
2291 Rain 8 993 98 0 15.4 100 11:18 20.12.2019
2292 Clouds 8 993 98 0 14.4 90 10:57 20.12.2019
2293 Rain 7 1008 100 0 1 0 10:38 20.12.2019
2294 Clouds 7 993 36 0 15.4 100 10:20 20.12.2019
2295 Clouds 7 994 38 0 15.9 100 09:44 20.12.2019
2296 Clouds 8 993 98 0 17.5 100 09:22 20.12.2019
2297 Clouds 8 993 98 0 17.5 100 09:22 20.12.2019
2298 Clouds 7 993 98 0 19 100 08:59 20.12.2019
2299 Clouds 8 993 98 0 19 100 08:41 20.12.2019
2300 Snow 5 993 53 10000 3.1 0 08:21 20.12.2019
2301 Snow 4 994 57 10000 2.1 0 07:57 20.12.2019
2302 Rain 4 1010 100 0 0.5 0 07:38 20.12.2019
2303 Snow 4 995 61 10000 2.1 0 07:18 20.12.2019
2304 Snow 4 996 75 10000 2.1 0 06:48 20.12.2019
2305 Snow 4 997 80 10000 2.6 250 06:29 20.12.2019
2306 Snow 4 997 80 10000 2.6 200 05:49 20.12.2019
2307 Snow 4 997 80 10000 2.6 200 05:49 20.12.2019
2308 Snow 4 997 80 10000 2.1 230 05:21 20.12.2019
2309 Snow 4 1000 86 10000 2.6 240 03:50 20.12.2019
2310 Snow 4 1002 86 10000 3.1 240 03:28 20.12.2019
2311 Rain 4 1014 100 0 4.47 167 02:33 20.12.2019
2312 Rain 4 1015 100 0 0.5 0 01:36 20.12.2019
2313 Snow 4 1006 70 0 7.2 260 00:58 20.12.2019
2314 Snow 4 1006 70 0 7.2 260 00:39 20.12.2019
2315 Snow 4 1004 93 10000 3.6 230 23:59 19.12.2019
2316 Snow 4 1004 93 10000 3.6 230 23:40 19.12.2019
2317 Snow 4 1004 93 10000 2.6 0 23:21 19.12.2019
2318 Snow 4 1004 93 10000 2.6 250 22:40 19.12.2019
2319 Snow 4 1004 93 10000 2.6 250 22:40 19.12.2019
2320 Snow 4 1005 93 10000 2.6 230 22:22 19.12.2019
2321 Snow 4 1007 93 10000 2.6 240 21:59 19.12.2019
2322 Snow 4 1007 93 10000 2.6 240 21:41 19.12.2019
2323 Snow 4 1008 86 0 2.6 280 21:20 19.12.2019
2324 Snow 4 1009 86 0 2.6 0 20:58 19.12.2019
2325 Rain 5 1018 100 0 0.5 120 20:38 19.12.2019
2326 Snow 5 1009 81 0 4.1 260 20:20 19.12.2019
2327 Snow 5 1009 81 0 4.1 260 20:20 19.12.2019
2328 Snow 5 1009 86 0 2.1 300 19:59 19.12.2019
2329 Snow 5 1009 86 0 2.1 300 19:40 19.12.2019
2330 Snow 5 1010 86 0 2.1 290 19:20 19.12.2019
2331 Snow 5 1011 81 0 4.1 240 18:59 19.12.2019
2332 Snow 5 1011 81 0 4.1 240 18:40 19.12.2019
2333 Clouds 5 1011 81 0 4.1 250 18:20 19.12.2019
2334 Clouds 6 1011 75 0 5.1 240 17:56 19.12.2019
2335 Rain 6 1019 100 0 1 0 17:38 19.12.2019
2336 Snow 6 1010 81 0 2.6 270 17:18 19.12.2019
2337 Clouds 6 1010 81 0 2.1 270 16:56 19.12.2019
2338 Clouds 6 1010 81 0 2.1 270 16:56 19.12.2019
2339 Rain 6 1019 100 0 3.79 163 16:38 19.12.2019
2340 Rain 6 1019 100 0 3.79 163 16:38 19.12.2019
2341 Clouds 6 1010 75 0 3.1 260 16:19 19.12.2019
2342 Clouds 6 1010 75 0 3.1 260 16:19 19.12.2019
2343 Snow 6 1010 75 0 4.1 260 15:58 19.12.2019
2344 Rain 7 1019 100 0 1.5 150 15:38 19.12.2019
2345 Rain 7 1019 100 0 1.5 150 15:38 19.12.2019
2346 Clouds 6 1010 75 0 4.6 260 15:19 19.12.2019
2347 Clouds 6 1010 75 0 4.6 260 14:57 19.12.2019
2348 Rain 6 1020 100 0 1.5 0 14:39 19.12.2019
2349 Clouds 6 1011 75 0 7.2 260 14:18 19.12.2019
2350 Clouds 7 1011 75 0 4.6 280 13:39 19.12.2019
2351 Snow 7 1012 81 0 5.1 260 13:20 19.12.2019
2352 Snow 7 1013 87 0 5.1 260 12:59 19.12.2019
2353 Snow 7 1013 87 0 5.1 260 12:40 19.12.2019
2354 Snow 5 1013 81 0 4.1 270 12:19 19.12.2019
2355 Snow 5 1013 81 0 4.1 270 12:19 19.12.2019
2356 Snow 5 1013 81 0 4.1 270 12:19 19.12.2019
2357 Snow 5 1013 81 0 4.1 270 12:19 19.12.2019
2358 Clouds 6 1013 93 0 2.6 0 11:59 19.12.2019
2359 Clouds 6 1013 93 0 2.6 0 11:41 19.12.2019
2360 Snow 5 1014 86 0 5.7 250 11:20 19.12.2019
2361 Snow 5 1014 86 0 5.7 250 11:20 19.12.2019
2362 Snow 5 1014 86 0 5.7 250 11:20 19.12.2019
2363 Clouds 4 1014 93 0 3.1 250 10:59 19.12.2019
2364 Rain 4 1022 100 0 0.5 0 10:38 19.12.2019
2365 Clouds 4 1015 93 0 4.1 250 10:20 19.12.2019
2366 Clouds 4 1015 86 0 2.6 270 09:57 19.12.2019
2367 Rain 5 1022 100 0 0.5 0 09:38 19.12.2019
2368 Clouds 5 1015 93 0 3.6 250 09:19 19.12.2019
2369 Clouds 5 1015 93 0 3.6 250 09:19 19.12.2019
2370 Clouds 4 1015 93 0 3.6 260 08:55 19.12.2019
2371 Clouds 4 1015 93 0 3.6 260 08:55 19.12.2019
2372 Rain 4 1022 100 0 4.1 163 08:37 19.12.2019
2373 Clouds 4 1015 93 0 4.1 240 08:18 19.12.2019
2374 Clouds 3 1015 93 0 2.6 270 07:54 19.12.2019
2375 Clouds 3 1015 93 0 1.5 300 07:36 19.12.2019
2376 Clouds 3 1015 93 0 1.5 300 07:18 19.12.2019
2377 Clouds 3 1016 100 0 2.6 260 06:42 19.12.2019
2378 Clouds 3 1016 93 0 3.1 250 06:23 19.12.2019
2379 Clouds 3 1016 93 0 3.6 250 05:45 19.12.2019
2380 Clouds 4 1017 93 0 2.1 300 05:20 19.12.2019
2381 Snow 3 1018 86 0 3.1 250 03:58 19.12.2019
2382 Snow 3 1017 100 0 3.6 240 02:30 19.12.2019
2383 Snow 3 1017 93 0 2.6 270 01:27 19.12.2019
2384 Snow 3 1017 93 0 1.5 280 00:59 19.12.2019
2385 Snow 3 1018 100 0 1.5 290 00:39 19.12.2019
2386 Snow 3 1018 100 0 1.5 290 00:19 19.12.2019
2387 Snow 3 1018 100 0 1.5 290 00:19 19.12.2019
2388 Snow 3 1018 93 0 1 0 23:45 18.12.2019
2389 Snow 4 1018 93 0 3.45 169 23:19 18.12.2019
2390 Snow 4 1018 93 0 1.5 310 22:58 18.12.2019
2391 Snow 4 1018 93 0 2.1 290 22:40 18.12.2019
2392 Snow 4 1018 93 0 2.1 290 22:22 18.12.2019
2393 Snow 4 1018 86 0 0.5 0 21:59 18.12.2019
2394 Snow 4 1018 86 0 0.5 0 21:41 18.12.2019
2395 Snow 4 1018 86 0 0.5 0 21:21 18.12.2019
2396 Snow 5 1018 93 0 2.1 110 20:57 18.12.2019
2397 Rain 5 1025 100 0 1.5 60 20:39 18.12.2019
2398 Snow 5 1018 93 0 1.5 70 20:20 18.12.2019
2399 Snow 5 1018 86 0 1 0 19:57 18.12.2019
2400 Drizzle 6 1025 100 0 1 0 19:39 18.12.2019
2401 Snow 6 1018 80 0 1 0 19:19 18.12.2019
2402 Snow 6 1018 93 0 1 0 18:56 18.12.2019
2403 Drizzle 6 1024 100 0 1 90 18:38 18.12.2019
2404 Snow 6 1018 86 0 3 170 18:20 18.12.2019
2405 Snow 6 1018 93 0 1.5 90 17:55 18.12.2019
2406 Snow 6 1018 93 0 1.5 90 17:55 18.12.2019
2407 Rain 7 1024 100 0 0.5 0 17:37 18.12.2019
2408 Snow 7 1018 86 0 1.5 90 17:19 18.12.2019
2409 Snow 7 1018 87 0 2.1 250 16:42 18.12.2019
2410 Clouds 7 1018 87 0 1.5 320 16:24 18.12.2019
2411 Clouds 8 1018 87 0 1.5 320 15:59 18.12.2019
2412 Clouds 8 1017 81 10000 2.7 169 15:39 18.12.2019
2413 Clouds 8 1017 87 10000 1 0 15:21 18.12.2019
2414 Clouds 8 1017 87 10000 1 0 14:57 18.12.2019
2415 Clouds 9 1017 81 10000 1 0 14:39 18.12.2019
2416 Clouds 9 1018 81 10000 1 0 14:19 18.12.2019
2417 Clouds 9 1018 81 10000 1 0 13:55 18.12.2019
2418 Clouds 9 1018 81 10000 1 0 13:37 18.12.2019
2419 Clouds 9 1018 76 0 2.75 163 13:19 18.12.2019
2420 Clouds 9 1018 81 0 2.6 290 12:54 18.12.2019
2421 Clouds 9 1018 81 0 2.6 290 12:36 18.12.2019
2422 Clouds 9 1019 81 0 1 0 12:18 18.12.2019
2423 Clouds 8 1019 81 0 1 0 11:54 18.12.2019
2424 Clouds 7 1019 81 0 1 0 11:36 18.12.2019
2425 Clouds 7 1019 75 0 1 0 11:18 18.12.2019
2426 Clouds 7 1019 81 10000 2.6 100 10:54 18.12.2019
2427 Clouds 6 1019 81 10000 2.6 100 10:36 18.12.2019
2428 Clouds 5 1019 87 10000 1.5 250 10:18 18.12.2019
2429 Clouds 5 1018 93 0 1.5 90 09:21 18.12.2019
2430 Clouds 5 1018 93 0 1.5 90 08:57 18.12.2019
2431 Clouds 5 1018 93 0 1.5 90 08:57 18.12.2019
2432 Clouds 5 1018 87 0 2.65 172 08:39 18.12.2019
2433 Clouds 5 1017 87 0 1 0 08:20 18.12.2019
2434 Clouds 5 1017 86 0 2.1 280 07:42 18.12.2019
2435 Clouds 6 1016 93 0 1 0 07:21 18.12.2019
2436 Clouds 5 1016 86 0 1 0 06:53 18.12.2019
2437 Clouds 5 1016 86 0 1.5 290 06:26 18.12.2019
2438 Clouds 5 1016 80 10000 2.6 250 05:39 18.12.2019
2439 Clouds 5 1015 93 0 1 0 04:37 18.12.2019
2440 Clouds 5 1014 81 0 4.1 240 02:50 18.12.2019
2441 Clouds 5 1014 81 0 4.1 240 02:30 18.12.2019
2442 Clouds 5 1013 93 0 1 0 01:47 18.12.2019
2443 Clouds 5 1013 93 0 1 0 01:29 18.12.2019
2444 Clouds 5 1013 86 0 1.5 280 00:59 18.12.2019
2445 Clouds 5 1013 87 0 2.1 290 00:40 18.12.2019
2446 Clouds 5 1013 87 0 3.1 270 00:21 18.12.2019
2447 Clouds 5 1013 81 0 2.1 270 23:54 17.12.2019
2448 Clouds 5 1013 81 0 2.1 270 23:36 17.12.2019
2449 Clouds 5 1012 87 0 2.1 290 23:18 17.12.2019
2450 Clouds 5 1012 81 0 2.6 280 22:54 17.12.2019
2451 Clouds 6 1012 81 0 2.6 280 22:36 17.12.2019
2452 Clouds 6 1011 70 0 3.1 280 22:18 17.12.2019
2453 Clouds 6 1010 75 0 1.5 0 21:55 17.12.2019
2454 Clouds 6 1010 75 0 1.5 0 21:36 17.12.2019
2455 Snow 6 1010 75 0 1 0 21:18 17.12.2019
2456 Snow 6 1010 75 0 2.6 280 20:40 17.12.2019
2457 Clouds 6 1009 57 0 3.6 0 20:19 17.12.2019
2458 Clouds 6 1009 57 0 3.6 0 19:59 17.12.2019
2459 Clouds 6 1009 61 0 2.6 0 19:41 17.12.2019
2460 Snow 5 1009 70 10000 3.1 230 19:20 17.12.2019
2461 Snow 5 1009 70 10000 3.1 230 18:58 17.12.2019
2462 Clouds 6 1009 75 0 2.1 260 18:39 17.12.2019
2463 Clouds 6 1009 75 0 2.1 280 18:21 17.12.2019
2464 Clouds 6 1009 70 0 2.1 280 17:56 17.12.2019
2465 Clouds 6 1009 70 0 2.1 280 17:38 17.12.2019
2466 Clouds 6 1009 70 0 3.1 250 17:18 17.12.2019
2467 Clouds 7 1009 66 0 3.1 0 16:55 17.12.2019
2468 Clouds 7 1009 66 0 3.1 0 16:37 17.12.2019
2469 Clouds 7 1009 70 0 3.1 270 16:18 17.12.2019
2470 Clouds 7 1008 76 10000 2.1 0 15:54 17.12.2019
2471 Clouds 7 1008 76 10000 2.1 0 15:36 17.12.2019
2472 Clouds 7 1008 66 0 3.6 260 15:18 17.12.2019
2473 Clouds 7 1007 66 0 4.1 250 14:54 17.12.2019
2474 Clouds 7 1007 66 0 4.1 250 14:36 17.12.2019
2475 Snow 7 1007 66 0 3.1 0 14:18 17.12.2019
2476 Snow 7 1007 66 0 2.6 0 13:41 17.12.2019
2477 Snow 8 1007 66 10000 1 0 13:19 17.12.2019
2478 Snow 8 1007 66 10000 1 0 12:59 17.12.2019
2479 Snow 8 1007 66 10000 1 0 12:59 17.12.2019
2480 Snow 10 1007 36 0 5.7 0 12:39 17.12.2019
2481 Snow 10 1007 38 0 10.3 120 12:18 17.12.2019
2482 Snow 10 1007 38 0 11.3 110 11:58 17.12.2019
2483 Snow 9 1007 38 0 11.3 110 11:37 17.12.2019
2484 Snow 8 1007 38 0 12.3 100 11:18 17.12.2019
2485 Clouds 7 1008 76 10000 2.6 230 10:58 17.12.2019
2486 Clouds 6 1008 76 10000 2.6 230 10:39 17.12.2019
2487 Clouds 6 1008 81 10000 2.1 0 10:20 17.12.2019
2488 Clouds 6 1008 87 10000 2.6 230 09:58 17.12.2019
2489 Clouds 6 1008 87 10000 2.6 230 09:40 17.12.2019
2490 Snow 5 1007 81 10000 2.1 0 09:19 17.12.2019
2491 Snow 5 1008 75 10000 2.6 210 08:55 17.12.2019
2492 Snow 5 1008 75 10000 2.6 210 08:55 17.12.2019
2493 Snow 5 1008 75 10000 2.6 210 08:37 17.12.2019
2494 Snow 5 1008 81 10000 2.1 250 08:19 17.12.2019
2495 Snow 5 1007 75 10000 2.1 200 07:45 17.12.2019
2496 Snow 5 1007 81 10000 3.1 0 07:24 17.12.2019
2497 Snow 5 1007 75 10000 1.5 0 06:55 17.12.2019
2498 Snow 5 1007 75 10000 1.5 0 06:32 17.12.2019
2499 Snow 5 1006 75 10000 2.1 250 05:52 17.12.2019
2500 Snow 5 1006 75 10000 2.1 250 05:32 17.12.2019
2501 Snow 6 1006 87 10000 3.1 0 04:25 17.12.2019
2502 Clouds 6 1005 53 0 5.1 0 02:33 17.12.2019
2503 Clouds 6 1005 61 0 4.6 220 01:50 17.12.2019
2504 Snow 5 1006 93 10000 2.1 240 00:56 17.12.2019
2505 Snow 5 1006 93 10000 2.1 240 00:36 17.12.2019
2506 Snow 5 1006 93 10000 2.1 250 00:18 17.12.2019
2507 Snow 5 1006 87 10000 1.5 0 23:40 16.12.2019
2508 Snow 5 1006 93 10000 3.1 220 23:19 16.12.2019
2509 Snow 4 1006 86 10000 2.6 220 22:55 16.12.2019
2510 Snow 5 1006 86 10000 2.6 220 22:37 16.12.2019
2511 Snow 5 1006 87 10000 4.1 210 22:19 16.12.2019
2512 Snow 5 1007 87 10000 5.1 210 21:54 16.12.2019
2513 Snow 5 1007 87 10000 5.1 210 21:36 16.12.2019
2514 Snow 5 1007 86 10000 3.1 240 21:18 16.12.2019
2515 Snow 5 1007 87 10000 0.5 0 20:56 16.12.2019
2516 Snow 5 1007 87 10000 0.5 0 20:37 16.12.2019
2517 Snow 5 1007 87 10000 3.1 190 20:18 16.12.2019
2518 Snow 5 1007 86 10000 3.1 260 19:55 16.12.2019
2519 Snow 5 1007 86 10000 3.1 260 19:36 16.12.2019
2520 Clouds 5 1008 93 10000 1.5 250 19:18 16.12.2019
2521 Clouds 5 1008 75 0 2.6 0 18:54 16.12.2019
2522 Clouds 5 1008 75 0 2.6 0 18:36 16.12.2019
2523 Clouds 5 1009 81 0 3.1 270 18:18 16.12.2019
2524 Snow 6 1008 81 0 3.1 280 17:55 16.12.2019
2525 Snow 6 1008 81 0 3.1 280 17:37 16.12.2019
2526 Snow 6 1009 75 0 2.6 280 17:18 16.12.2019
2527 Snow 7 1008 70 0 4.1 260 16:54 16.12.2019
2528 Snow 7 1008 70 0 4.1 260 16:36 16.12.2019
2529 Snow 7 1009 81 0 3.1 280 16:18 16.12.2019
2530 Snow 8 1008 81 0 2.6 270 15:54 16.12.2019
2531 Snow 8 1008 81 0 2.6 270 15:36 16.12.2019
2532 Snow 8 1008 75 0 2.6 260 15:18 16.12.2019
2533 Snow 8 1009 81 0 5.1 260 14:54 16.12.2019
2534 Snow 8 1009 81 0 5.1 260 14:54 16.12.2019
2535 Snow 8 1009 81 0 5.1 260 14:36 16.12.2019
2536 Snow 8 1009 81 0 3.6 270 14:18 16.12.2019
2537 Snow 8 1009 75 0 4.1 260 13:38 16.12.2019
2538 Snow 7 1009 75 0 3.6 260 13:20 16.12.2019
2539 Snow 8 1009 75 0 3.6 260 12:58 16.12.2019
2540 Snow 8 1009 75 0 3.6 260 12:58 16.12.2019
2541 Snow 7 1009 81 0 2.1 280 12:40 16.12.2019
2542 Snow 7 1009 86 0 3.1 290 12:20 16.12.2019
2543 Snow 7 1010 86 0 2.6 0 11:59 16.12.2019
2544 Snow 7 1010 86 0 2.6 0 11:41 16.12.2019
2545 Snow 6 1010 86 0 3.1 280 11:21 16.12.2019
2546 Snow 4 1011 86 10000 2.6 220 10:58 16.12.2019
2547 Snow 5 1011 86 10000 2.6 220 10:40 16.12.2019
2548 Snow 5 1011 93 0 3.1 270 10:20 16.12.2019
2549 Snow 4 1011 93 0 3.1 260 09:46 16.12.2019
2550 Snow 4 1011 93 0 3.1 260 09:28 16.12.2019
2551 Snow 4 1011 86 0 3.6 250 08:58 16.12.2019
2552 Snow 3 1011 86 10000 2.6 260 08:58 16.12.2019
2553 Snow 3 1011 86 10000 2.6 260 08:38 16.12.2019
2554 Snow 3 1011 86 0 4.6 230 08:18 16.12.2019
2555 Snow 3 1011 86 0 4.6 250 07:47 16.12.2019
2556 Snow 3 1011 86 0 4.6 250 07:29 16.12.2019
2557 Snow 3 1011 86 0 3.1 280 06:46 16.12.2019
2558 Snow 3 1011 93 0 4.6 250 06:26 16.12.2019
2559 Snow 3 1011 93 0 2.6 270 05:54 16.12.2019
2560 Snow 3 1011 93 0 2.6 270 05:35 16.12.2019
2561 Snow 3 1011 86 0 4.1 230 04:27 16.12.2019
2562 Snow 3 1011 98 0 2.1 290 02:36 16.12.2019
2563 Clouds 3 1012 98 0 1 0 01:45 16.12.2019
2564 Clouds 3 1012 98 0 2.1 100 00:54 16.12.2019
2565 Clouds 3 1012 98 0 2.1 100 00:36 16.12.2019
2566 Clouds 3 1012 86 0 2.1 0 00:18 16.12.2019
2567 Clouds 3 1012 98 0 0.5 0 23:40 15.12.2019
2568 Clouds 3 1011 86 0 1.5 270 23:21 15.12.2019
2569 Clouds 3 1011 98 0 2.91 183 22:56 15.12.2019
2570 Clouds 4 1011 98 0 2.91 183 22:38 15.12.2019
2571 Clouds 4 1012 98 0 1 0 22:18 15.12.2019
2572 Clouds 3 1012 98 0 1 0 21:57 15.12.2019
2573 Clouds 4 1012 98 0 1 0 21:38 15.12.2019
2574 Clouds 4 1012 98 0 3.1 110 21:19 15.12.2019
2575 Clouds 4 1012 98 0 1.5 110 20:56 15.12.2019
2576 Clouds 4 1012 98 0 1.5 110 20:56 15.12.2019
2577 Clouds 3 1012 98 0 1.5 110 20:37 15.12.2019
2578 Clouds 4 1012 98 0 0.5 0 20:19 15.12.2019
2579 Clouds 4 1012 98 0 0.5 0 19:57 15.12.2019
2580 Clouds 5 1011 93 0 2.44 183 19:39 15.12.2019
2581 Clouds 5 1011 86 0 2.36 186 19:18 15.12.2019
2582 Clouds 5 1011 98 0 1 0 18:56 15.12.2019
2583 Clouds 5 1011 98 0 1 0 18:56 15.12.2019
2584 Clouds 5 1011 98 0 1 0 18:38 15.12.2019
2585 Clouds 5 1011 98 0 2.1 90 18:18 15.12.2019
2586 Clouds 6 1011 86 0 1 0 17:56 15.12.2019
2587 Clouds 6 1011 86 0 1 0 17:37 15.12.2019
2588 Clouds 7 1010 86 0 1.5 320 17:18 15.12.2019
2589 Clouds 7 1010 93 0 0.5 0 16:55 15.12.2019
2590 Clouds 7 1010 93 0 0.5 0 16:55 15.12.2019
2591 Clouds 7 1010 93 0 0.5 0 16:37 15.12.2019
2592 Clouds 7 1010 86 0 1.5 50 16:19 15.12.2019
2593 Clouds 8 1009 81 0 2.94 180 15:54 15.12.2019
2594 Clouds 9 1009 81 0 2.84 180 15:36 15.12.2019
2595 Clouds 11 1009 81 0 0.5 0 15:18 15.12.2019
2596 Clouds 10 1009 86 0 1 0 14:55 15.12.2019
2597 Clouds 10 1009 86 0 1 0 14:36 15.12.2019
2598 Clear 9 1009 80 0 1 0 14:18 15.12.2019
2599 Clear 9 1009 86 0 1.5 80 13:54 15.12.2019
2600 Clear 9 1009 86 0 1.5 80 13:36 15.12.2019
2601 Clouds 9 1009 61 10000 2.1 80 13:18 15.12.2019
2602 Clear 8 1009 96 0 1 0 12:55 15.12.2019
2603 Clear 8 1009 96 0 1 0 12:37 15.12.2019
2604 Clear 7 1009 96 0 1.5 230 12:19 15.12.2019
2605 Clouds 6 1010 96 0 1 0 11:38 15.12.2019
2606 Clouds 5 1010 85 0 1 0 11:19 15.12.2019
2607 Clouds 5 1010 85 0 1 0 11:19 15.12.2019
2608 Clear 5 1010 85 0 1 0 10:56 15.12.2019
2609 Clear 5 1010 85 0 1 0 10:38 15.12.2019
2610 Clear 4 1009 86 0 1 0 10:19 15.12.2019
2611 Clear 4 1009 86 0 1 0 09:58 15.12.2019
2612 Clear 3 1009 86 0 2 203 09:37 15.12.2019
2613 Clouds 2 1009 85 0 2.1 90 09:19 15.12.2019
2614 Clear 2 1009 85 0 1 0 08:54 15.12.2019
2615 Clear 2 1009 85 0 1 0 08:36 15.12.2019
2616 Clouds 2 1009 74 0 0.5 0 08:18 15.12.2019
2617 Clouds 2 1009 92 0 2.6 80 07:43 15.12.2019
2618 Clouds 2 1008 65 0 2.1 290 07:25 15.12.2019
2619 Clouds 2 1008 65 0 1 0 06:26 15.12.2019
2620 Clouds 2 1008 65 0 2.6 110 05:42 15.12.2019
2621 Clouds 2 1007 80 10000 2.1 290 05:21 15.12.2019
2622 Clouds 3 1007 80 10000 0.5 0 04:21 15.12.2019
2623 Clouds 2 1008 86 0 1.5 90 02:55 15.12.2019
2624 Clouds 2 1008 86 0 1.5 90 02:32 15.12.2019
2625 Clear 3 1007 66 0 1 0 01:41 15.12.2019
2626 Clear 3 1008 93 0 1.5 120 01:19 15.12.2019
2627 Clear 3 1007 86 0 2.1 70 00:49 15.12.2019
2628 Clear 3 1007 86 0 2.1 70 00:31 15.12.2019
2629 Clouds 4 1008 80 0 2.1 120 23:54 14.12.2019
2630 Clouds 5 1008 80 0 2.1 120 23:36 14.12.2019
2631 Clouds 5 1009 86 0 3.6 100 23:18 14.12.2019
2632 Clouds 5 1010 86 0 3.1 90 22:41 14.12.2019
2633 Clouds 5 1010 86 0 0.5 0 22:22 14.12.2019
2634 Clouds 5 1010 86 0 2.6 90 21:58 14.12.2019
2635 Clouds 5 1010 86 0 2.6 90 21:40 14.12.2019
2636 Clouds 5 1009 75 10000 2.1 240 21:20 14.12.2019
2637 Clouds 5 1009 75 10000 2.1 240 20:59 14.12.2019
2638 Clouds 6 1008 70 0 1 0 20:41 14.12.2019
2639 Clouds 6 1009 86 0 1.5 110 20:20 14.12.2019
2640 Clouds 6 1009 86 0 1.5 110 19:57 14.12.2019
2641 Clouds 6 1009 87 0 1 0 19:39 14.12.2019
2642 Rain 7 1009 87 0 2.6 90 19:20 14.12.2019
2643 Rain 7 1009 81 0 1.5 70 18:56 14.12.2019
2644 Rain 7 1009 81 0 1.5 70 18:38 14.12.2019
2645 Rain 7 1009 75 0 1.5 350 18:19 14.12.2019
2646 Rain 7 1008 66 0 2.1 230 17:44 14.12.2019
2647 Rain 7 1008 61 0 3.1 250 17:24 14.12.2019
2648 Clouds 7 1006 46 10000 7.7 250 16:59 14.12.2019
2649 Clouds 7 1006 46 10000 7.7 250 16:40 14.12.2019
2650 Rain 7 1006 92 0 7.2 290 16:19 14.12.2019
2651 Clouds 8 1006 40 0 8.7 300 15:54 14.12.2019
2652 Clouds 8 1006 40 0 8.7 300 15:36 14.12.2019
2653 Clouds 8 1006 40 0 8.7 300 15:36 14.12.2019
2654 Clouds 8 1006 43 0 8.2 280 15:18 14.12.2019
2655 Clouds 8 1005 40 0 10.3 280 14:40 14.12.2019
2656 Clouds 8 1005 40 0 10.8 270 14:21 14.12.2019
2657 Clouds 8 1005 40 0 10.8 270 13:59 14.12.2019
2658 Clouds 8 1004 86 0 7.2 280 13:41 14.12.2019
2659 Clouds 8 1004 40 0 9.3 280 13:19 14.12.2019
2660 Clouds 8 1003 50 0 7.2 280 12:56 14.12.2019
2661 Clouds 8 1003 50 0 7.2 280 12:37 14.12.2019
2662 Clouds 8 1002 91 0 7.7 280 12:19 14.12.2019
2663 Clouds 7 1001 35 10000 8.2 250 11:56 14.12.2019
2664 Clouds 7 1001 35 10000 8.2 250 11:37 14.12.2019
2665 Snow 6 1002 43 0 7.7 280 11:18 14.12.2019
2666 Clouds 6 1001 93 0 7.2 280 10:56 14.12.2019
2667 Clouds 6 1001 93 0 7.2 280 10:38 14.12.2019
2668 Drizzle 5 1000 54 10000 8.2 300 10:19 14.12.2019
2669 Rain 5 999 93 0 1.5 0 09:43 14.12.2019
2670 Rain 5 999 93 0 2.48 275 09:21 14.12.2019
2671 Rain 5 999 93 0 2.12 276 08:56 14.12.2019
2672 Rain 4 998 100 0 1 0 08:38 14.12.2019
2673 Rain 5 998 93 0 2.6 0 08:19 14.12.2019
2674 Rain 4 997 93 0 1.5 0 07:40 14.12.2019
2675 Rain 3 997 96 0 1 0 07:20 14.12.2019
2676 Rain 2 997 93 0 1.5 80 06:45 14.12.2019
2677 Rain 2 997 93 0 1 0 06:22 14.12.2019
2678 Rain 3 997 96 0 1 0 05:43 14.12.2019
2679 Clouds 2 997 80 0 2.1 80 03:44 14.12.2019
2680 Clouds 2 995 60 10000 2.6 50 02:23 14.12.2019
2681 Clouds 1 997 80 0 0.5 0 01:44 14.12.2019
2682 Clouds 1 998 80 0 2.1 0 01:20 14.12.2019
2683 Clouds 2 998 74 0 2.6 250 00:41 14.12.2019
2684 Clouds 1 999 74 0 4.1 240 00:20 14.12.2019
2685 Clouds 1 998 80 0 5.1 270 23:41 13.12.2019
2686 Rain 2 998 74 0 6.2 270 23:19 13.12.2019
2687 Rain 2 998 69 0 7.2 290 22:57 13.12.2019
2688 Rain 2 998 69 0 7.2 290 22:37 13.12.2019
2689 Clouds 2 998 69 0 4.1 230 22:18 13.12.2019
2690 Rain 3 997 69 0 5.1 290 21:44 13.12.2019
2691 Clouds 2 997 69 0 5.1 260 21:22 13.12.2019
2692 Clouds 2 997 69 0 5.1 260 20:59 13.12.2019
2693 Clouds 2 997 52 10000 4.1 260 20:40 13.12.2019
2694 Snow 3 992 100 0 1.5 70 20:20 13.12.2019
2695 Clouds 3 995 64 0 8.7 300 19:56 13.12.2019
2696 Snow 3 992 100 0 1.5 80 19:38 13.12.2019
2697 Rain 3 995 48 0 9.8 260 19:19 13.12.2019
2698 Rain 2 994 60 0 6.7 300 18:54 13.12.2019
2699 Clouds 2 991 93 0 2.1 60 18:36 13.12.2019
2700 Clouds 2 993 52 0 9.8 270 18:18 13.12.2019
2701 Clouds 2 993 52 0 9.8 270 18:18 13.12.2019
2702 Rain 2 992 64 0 5.1 300 17:40 13.12.2019
2703 Rain 2 992 64 0 5.1 300 17:18 13.12.2019
2704 Clouds 2 991 74 0 2.6 250 16:56 13.12.2019
2705 Snow 3 989 100 0 1 0 16:38 13.12.2019
2706 Rain 3 990 74 0 4.6 270 16:20 13.12.2019
2707 Rain 3 990 93 0 1 0 15:43 13.12.2019
2708 Rain 3 989 93 0 0.5 0 15:22 13.12.2019
2709 Rain 4 989 93 0 4.1 220 14:57 13.12.2019
2710 Snow 3 988 100 0 2.6 60 14:38 13.12.2019
2711 Rain 3 989 80 0 11.8 270 14:19 13.12.2019
2712 Rain 3 988 100 0 1 0 13:44 13.12.2019
2713 Rain 3 988 91 0 1 0 13:26 13.12.2019
2714 Snow 2 988 91 0 0.5 0 12:58 13.12.2019
2715 Snow 3 991 91 0 1.5 90 12:40 13.12.2019
2716 Snow 3 987 91 2500 1 0 12:18 13.12.2019
2717 Rain 2 987 86 10000 3.6 50 11:45 13.12.2019
2718 Clouds 2 986 91 10000 1 0 11:26 13.12.2019
2719 Snow 1 985 95 8000 2.97 192 10:57 13.12.2019
2720 Snow 1 992 95 800 1 100 10:39 13.12.2019
2721 Snow 1 985 95 1500 0.5 0 10:21 13.12.2019
2722 Rain 2 984 93 5000 2.6 0 09:42 13.12.2019
2723 Rain 2 982 95 10000 4.1 240 09:21 13.12.2019
2724 Clouds 1 981 95 10000 1 0 08:55 13.12.2019
2725 Snow 1 993 95 2000 1 110 08:36 13.12.2019
2726 Rain 1 982 97 10000 1 0 08:18 13.12.2019
2727 Clouds 0 983 97 0 2.1 0 07:42 13.12.2019
2728 Clouds 0 984 86 10000 1 0 07:19 13.12.2019
2729 Clouds 0 995 97 0 3.52 178 06:39 13.12.2019
2730 Clouds 0 984 97 0 2.1 290 06:20 13.12.2019
2731 Rain 0 995 100 0 1 0 05:37 13.12.2019
2732 Clouds 0 987 100 0 1.5 270 05:19 13.12.2019
2733 Clouds 0 991 94 0 2.6 260 03:55 13.12.2019
2734 Clouds 0 991 86 0 3.6 240 02:48 13.12.2019
2735 Clouds 0 991 86 0 3.1 240 02:30 13.12.2019
2736 Clouds -1 992 92 0 3.1 250 01:34 13.12.2019
2737 Clouds -1 992 86 0 2.1 120 00:50 13.12.2019
2738 Clouds -2 993 86 0 1.5 60 00:28 13.12.2019
2739 Clouds -2 994 92 0 1 320 23:43 12.12.2019
2740 Clouds -2 994 92 0 2.6 90 23:25 12.12.2019
2741 Clouds -2 995 92 0 3.1 110 22:56 12.12.2019
2742 Clouds -2 996 92 0 3.1 90 22:38 12.12.2019
2743 Clouds -2 996 92 0 3.1 90 22:38 12.12.2019
2744 Clouds -1 996 92 0 3.1 90 22:20 12.12.2019
2745 Clouds -2 997 92 0 1 0 21:56 12.12.2019
2746 Clouds -2 1002 100 0 1.5 90 21:37 12.12.2019
2747 Clouds -2 997 86 0 1 0 21:19 12.12.2019
2748 Clouds -2 997 92 0 1 0 20:58 12.12.2019
2749 Clouds -1 1003 100 0 2.6 110 20:40 12.12.2019
2750 Clouds -2 998 86 0 1.81 245 20:21 12.12.2019
2751 Clouds -2 999 92 0 2.1 120 19:56 12.12.2019
2752 Clouds -2 1004 93 0 2.1 100 19:37 12.12.2019
2753 Clouds -1 1000 86 0 2.1 100 19:18 12.12.2019
2754 Clouds -2 1001 92 0 2.6 110 18:55 12.12.2019
2755 Clouds -1 1004 93 0 1.5 100 18:37 12.12.2019
2756 Clear -1 1002 92 0 3.1 80 18:19 12.12.2019
2757 Clear -1 1002 92 0 2.6 90 17:56 12.12.2019
2758 Clouds 0 1004 86 0 1.81 245 17:38 12.12.2019
2759 Clear 0 1003 74 10000 1 0 17:19 12.12.2019
2760 Clear 0 1003 69 10000 1.5 0 16:54 12.12.2019
2761 Clouds 1 1004 80 6000 2.09 318 16:36 12.12.2019
2762 Clouds 1 1004 69 10000 2.1 180 16:18 12.12.2019
2763 Clouds 0 1004 92 10000 1.5 90 15:42 12.12.2019
2764 Clouds 1 1004 92 10000 1.5 100 15:20 12.12.2019
2765 Clouds 2 1005 60 10000 4.1 90 14:57 12.12.2019
2766 Clouds 2 1005 60 10000 4.1 90 14:57 12.12.2019
2767 Clouds 2 1005 86 7000 2.09 318 14:37 12.12.2019
2768 Clouds 3 1005 76 10000 1.5 120 14:19 12.12.2019
2769 Clouds 3 1006 76 10000 2.6 100 13:55 12.12.2019
2770 Clouds 3 1005 93 7000 1.5 80 13:37 12.12.2019
2771 Clouds 3 1006 60 10000 3.6 60 13:18 12.12.2019
2772 Clouds 3 1006 77 0 2.1 90 12:55 12.12.2019
2773 Clouds 3 1006 93 0 1 90 12:36 12.12.2019
2774 Clouds 3 1007 77 10000 2.1 70 12:18 12.12.2019
2775 Clouds 3 1007 77 10000 1.5 0 11:40 12.12.2019
2776 Clouds 2 1007 90 10000 1 0 11:22 12.12.2019
2777 Clouds 2 1008 90 10000 3.6 240 10:59 12.12.2019
2778 Clouds 2 1008 90 10000 3.6 240 10:59 12.12.2019
2779 Clouds 2 1008 90 10000 3.6 240 10:41 12.12.2019
2780 Clouds 2 1007 90 10000 3.6 250 10:22 12.12.2019
2781 Clouds 1 1008 90 10000 3.1 260 09:57 12.12.2019
2782 Clouds 1 1006 100 8000 3.92 341 09:39 12.12.2019
2783 Rain 1 1008 90 10000 3.6 240 09:20 12.12.2019
2784 Rain 1 1007 90 10000 2.6 280 08:50 12.12.2019
2785 Rain 1 1007 90 0 2.1 0 08:29 12.12.2019
2786 Rain 1 1007 100 5000 4.1 240 07:59 12.12.2019
2787 Rain 1 1007 100 5000 4.1 240 07:39 12.12.2019
2788 Clouds 1 1007 100 4000 2.1 270 07:20 12.12.2019
2789 Mist 1 1007 89 0 4.36 338 06:42 12.12.2019
2790 Mist 0 1007 89 0 4.36 338 06:23 12.12.2019
2791 Clouds 1 1005 100 0 2.6 90 05:34 12.12.2019
2792 Mist 0 1007 92 0 4 334 04:48 12.12.2019
2793 Clouds 1 1007 92 0 1 130 02:44 12.12.2019
2794 Clouds 1 1008 92 0 1.5 70 02:25 12.12.2019
2795 Rain 1 1008 94 0 1.5 90 01:59 12.12.2019
2796 Clouds 1 1008 86 0 3.1 100 01:36 12.12.2019
2797 Snow 1 1009 94 0 0.5 0 00:50 12.12.2019
2798 Snow 1 1009 94 0 0.5 0 00:22 12.12.2019
2799 Mist 1 1009 94 0 3.02 342 23:58 11.12.2019
2800 Clouds 1 1008 74 0 2.6 70 23:39 11.12.2019
2801 Rain 1 1010 83 0 3.45 349 23:19 11.12.2019
2802 Mist 1 1010 83 0 2.1 110 22:56 11.12.2019
2803 Clouds 1 1009 74 0 1 0 22:38 11.12.2019
2804 Clouds 2 1011 83 0 3.45 349 22:19 11.12.2019
2805 Snow 2 1011 83 0 1 0 21:55 11.12.2019
2806 Clouds 2 1010 74 0 3.45 349 21:36 11.12.2019
2807 Clouds 2 1011 83 0 0.5 0 21:18 11.12.2019
2808 Clouds 2 1011 83 0 0.5 0 21:18 11.12.2019
2809 Clouds 2 1012 83 0 2.1 90 20:55 11.12.2019
2810 Clouds 2 1010 74 0 1 0 20:36 11.12.2019
2811 Rain 2 1012 65 0 0.5 0 20:18 11.12.2019
2812 Clouds 2 1012 86 0 1 0 19:42 11.12.2019
2813 Clouds 2 1012 86 0 1 0 19:23 11.12.2019
2814 Clouds 2 1012 86 0 1.5 90 18:59 11.12.2019
2815 Clouds 2 1012 86 0 1.5 90 18:40 11.12.2019
2816 Clouds 2 1011 80 0 2.1 50 18:20 11.12.2019
2817 Clouds 2 1010 86 0 0.5 0 17:56 11.12.2019
2818 Clouds 2 1012 64 0 0.5 0 17:38 11.12.2019
2819 Clouds 2 1010 86 10000 2.1 70 17:18 11.12.2019
2820 Clouds 2 1009 80 10000 1 0 16:56 11.12.2019
2821 Clouds 2 1009 80 10000 4.1 240 16:37 11.12.2019
2822 Clouds 2 1009 80 10000 4.1 240 16:18 11.12.2019
2823 Clouds 2 1010 74 10000 0.5 0 15:56 11.12.2019
2824 Clouds 2 1009 80 10000 1.26 179 15:37 11.12.2019
2825 Clouds 2 1009 80 10000 1.26 179 15:19 11.12.2019
2826 Clouds 2 1010 86 10000 2.6 80 14:55 11.12.2019
2827 Clouds 2 1011 80 10000 1 0 14:36 11.12.2019
2828 Clouds 3 1011 80 10000 1 0 14:18 11.12.2019
2829 Clouds 3 1011 80 10000 2.1 270 13:43 11.12.2019
2830 -273 0 0 0 0 0 13:23 11.12.2019
2831 Clouds 2 1013 80 0 1 0 12:58 11.12.2019
2832 Clouds 2 1017 64 0 1.5 100 12:39 11.12.2019
2833 Clouds 2 1014 80 10000 1.5 0 12:21 11.12.2019
2834 Clouds 2 1014 58 10000 1.56 186 11:58 11.12.2019
2835 Clouds 1 1018 64 10000 1 0 11:39 11.12.2019
2836 Clouds 1 1018 64 10000 1 0 11:39 11.12.2019
2837 Clouds 1 1015 92 10000 0.5 0 11:19 11.12.2019
2838 Clouds 0 1015 92 10000 1 0 10:59 11.12.2019
2839 Clouds 0 1019 80 10000 0.81 283 10:39 11.12.2019
2840 Clouds 0 1015 92 10000 0.81 283 10:21 11.12.2019
2841 Clouds 0 1016 86 10000 1.5 200 09:56 11.12.2019
2842 Clouds -1 1019 46 10000 0.81 283 09:38 11.12.2019
2843 Clouds -1 1016 92 10000 0.81 283 09:19 11.12.2019
2844 Clouds -1 1016 80 10000 2.1 260 08:55 11.12.2019
2845 Clouds -2 1019 86 10000 0.5 0 08:36 11.12.2019
2846 Clouds -2 1016 92 10000 2.08 324 08:18 11.12.2019
2847 Clouds -2 1017 92 10000 2.08 324 07:42 11.12.2019
2848 Clouds -2 1017 92 10000 1 0 07:22 11.12.2019
2849 Clouds -3 1017 92 0 3.1 120 06:46 11.12.2019
2850 Clouds -3 1018 92 0 2.6 110 06:24 11.12.2019
2851 Clouds -3 1018 92 0 1 0 05:54 11.12.2019
2852 Clouds -3 1021 74 0 2.08 324 05:33 11.12.2019
2853 Clouds -3 1018 86 10000 1.5 220 04:49 11.12.2019
2854 Clouds -3 1020 92 0 2.6 100 03:19 11.12.2019
2855 Clouds -2 1021 92 0 1.98 317 02:31 11.12.2019
2856 Clear -3 1022 92 0 1.5 80 01:21 11.12.2019
2857 Clear -2 1023 92 0 0.5 0 00:37 11.12.2019
2858 Clear -2 1023 92 0 0.5 0 00:18 11.12.2019
2859 Clear -2 1023 92 0 1.16 296 23:43 10.12.2019
2860 Clear -2 1023 86 0 2.1 110 23:23 10.12.2019
2861 Clear -2 1023 92 0 2.6 110 22:56 10.12.2019
2862 Clear -2 1022 68 0 0.5 0 22:38 10.12.2019
2863 Clear -2 1024 86 10000 2.6 90 22:20 10.12.2019
2864 Clear -2 1024 92 10000 2.6 110 21:54 10.12.2019
2865 Clear -2 1022 55 0 2.3 321 21:36 10.12.2019
2866 Clear -2 1024 86 10000 2.1 100 21:18 10.12.2019
2867 Clear -2 1024 92 10000 2.3 321 20:55 10.12.2019
2868 Clear -2 1021 55 0 1 0 20:36 10.12.2019
2869 Clear -2 1024 86 10000 4.93 330 20:18 10.12.2019
2870 Clear -1 1024 86 10000 2.6 90 19:42 10.12.2019
2871 Clear -2 1024 86 10000 2.1 110 19:24 10.12.2019
2872 Clear -1 1025 86 0 2.1 70 18:57 10.12.2019
2873 Clear -1 1020 38 0 1 0 18:38 10.12.2019
2874 Clear -1 1025 80 0 2.6 90 18:19 10.12.2019
2875 Clear -1 1026 86 0 3.1 90 17:54 10.12.2019
2876 Clouds -1 1026 18 10000 3.6 90 17:36 10.12.2019
2877 Clouds -1 1026 34 10000 3.6 90 17:18 10.12.2019
2878 Clouds 0 1026 86 10000 4.1 110 16:41 10.12.2019
2879 Clear 1 1026 34 10000 4.1 100 16:20 10.12.2019
2880 Clear 2 1026 34 10000 3.6 100 15:40 10.12.2019
2881 Clear 3 1026 34 10000 4.1 110 15:19 10.12.2019
2882 Clouds 4 1026 34 10000 1.5 110 14:59 10.12.2019
2883 Clouds 4 1026 34 10000 1.5 110 14:41 10.12.2019
2884 Clouds 2 1027 34 10000 2.1 100 14:23 10.12.2019
2885 Clouds 3 1027 56 10000 1 70 13:59 10.12.2019
2886 Clouds 2 1027 56 10000 1 70 13:40 10.12.2019
2887 Clouds 2 1028 55 0 0.5 0 13:20 10.12.2019
2888 Clouds 5 1027 80 0 5.49 338 12:55 10.12.2019
2889 Snow 4 1028 65 8000 2.1 90 12:36 10.12.2019
2890 Snow 4 1028 65 8000 2.1 90 12:18 10.12.2019
2891 Clouds 3 1028 80 10000 0.5 0 11:40 10.12.2019
2892 Clouds 2 1028 86 10000 2.6 70 11:22 10.12.2019
2893 Snow 1 1029 74 8000 2.1 220 10:55 10.12.2019
2894 Clouds 1 1029 90 10000 5.65 332 10:36 10.12.2019
2895 Clouds 1 1029 90 10000 5.65 332 10:18 10.12.2019
2896 Clouds 1 1028 90 10000 1 0 09:54 10.12.2019
2897 Clouds 1 1028 90 10000 0.5 0 09:36 10.12.2019
2898 Clouds 1 1028 90 10000 0.5 0 09:18 10.12.2019
2899 Snow 1 1028 80 8000 2.1 90 08:41 10.12.2019
2900 Clouds 2 1027 89 10000 1.5 320 08:22 10.12.2019
2901 Clouds 2 1026 89 0 5.75 327 07:57 10.12.2019
2902 Clouds 2 1018 48 10000 1 0 07:39 10.12.2019
2903 Rain 2 1026 93 10000 1 0 07:20 10.12.2019
2904 Rain 1 1025 89 0 1.5 0 06:46 10.12.2019
2905 Rain 2 1024 89 0 2.1 0 06:19 10.12.2019
2906 Rain 2 1024 89 0 2.1 0 06:19 10.12.2019
2907 Rain 2 1024 93 0 0.5 0 05:52 10.12.2019
2908 Rain 2 1023 86 0 2.1 280 04:50 10.12.2019
2909 Rain 2 1021 86 0 6.2 300 03:31 10.12.2019
2910 Clouds 3 1013 86 0 0.5 0 02:36 10.12.2019
2911 Rain 3 1020 86 0 7.2 300 01:42 10.12.2019
2912 Rain 3 1019 86 0 7.7 300 01:19 10.12.2019
2913 Snow 3 1012 75 0 2.6 40 00:38 10.12.2019
2914 Rain 3 1018 86 0 9.3 310 00:18 10.12.2019
2915 Rain 3 1018 80 0 8.7 310 23:40 09.12.2019
2916 Rain 3 1017 80 0 6.7 320 23:22 09.12.2019
2917 Rain 3 1016 75 0 7.7 310 22:57 09.12.2019
2918 Snow 4 1011 80 0 2.1 80 22:39 09.12.2019
2919 Rain 4 1016 75 0 7.7 310 22:19 09.12.2019
2920 Rain 4 1015 80 0 6.2 320 21:56 09.12.2019
2921 Snow 4 1010 93 0 1 0 21:38 09.12.2019
2922 Rain 4 1015 75 0 5.7 320 21:18 09.12.2019
2923 Rain 4 1014 80 0 5.7 330 20:56 09.12.2019
2924 Snow 4 1009 80 0 1.5 100 20:38 09.12.2019
2925 Rain 4 1013 80 0 3.1 0 20:19 09.12.2019
2926 Rain 4 1012 80 0 1.5 0 19:55 09.12.2019
2927 Clouds 4 1008 80 0 0.5 0 19:37 09.12.2019
2928 Rain 4 1011 93 0 1.5 70 19:19 09.12.2019
2929 Rain 4 1011 93 0 0.5 0 18:56 09.12.2019
2930 Clouds 4 1008 80 0 2.1 90 18:37 09.12.2019
2931 Rain 4 1010 93 0 3.1 80 18:19 09.12.2019
2932 Rain 5 1009 86 0 3.6 220 17:57 09.12.2019
2933 Clouds 5 1007 70 0 1 310 17:38 09.12.2019
2934 Rain 5 1009 86 10000 5.1 270 17:19 09.12.2019
2935 Rain 5 1009 86 10000 6.7 290 16:55 09.12.2019
2936 Rain 5 1008 86 9000 3.1 240 16:36 09.12.2019
2937 Rain 5 1008 86 9000 3.1 240 16:18 09.12.2019
2938 Rain 6 1008 70 10000 3.1 190 15:55 09.12.2019
2939 Clouds 6 1006 66 10000 1 0 15:36 09.12.2019
2940 Clouds 6 1006 66 10000 1 0 15:36 09.12.2019
2941 Rain 6 1008 80 10000 2.6 240 15:18 09.12.2019
2942 Rain 6 1008 80 10000 0.5 0 14:42 09.12.2019
2943 Rain 6 1008 86 10000 2.6 0 14:19 09.12.2019
2944 Rain 6 1008 86 10000 2.6 90 13:57 09.12.2019
2945 Clouds 7 1006 61 10000 1.5 220 13:38 09.12.2019
2946 Drizzle 7 1008 86 0 1 0 13:19 09.12.2019
2947 Clouds 7 1007 86 0 1.5 70 12:56 09.12.2019
2948 Clouds 8 1007 65 0 0.5 0 12:38 09.12.2019
2949 Clouds 8 1008 86 10000 1.5 80 12:19 09.12.2019
2950 Clouds 7 1008 93 10000 1.5 100 11:57 09.12.2019
2951 Clouds 6 1008 75 10000 1.5 110 11:37 09.12.2019
2952 Clouds 6 1008 81 10000 4.1 40 11:18 09.12.2019
2953 Clouds 6 1009 93 10000 2.1 100 10:41 09.12.2019
2954 Rain 5 1008 75 10000 3.1 50 10:20 09.12.2019
2955 Clouds 5 1009 93 10000 3.07 280 09:59 09.12.2019
2956 Clouds 5 1009 93 10000 3.07 280 09:41 09.12.2019
2957 Clouds 4 1009 93 10000 2.1 40 09:21 09.12.2019
2958 Clouds 4 1008 86 10000 1.5 90 08:44 09.12.2019
2959 Clouds 4 1009 93 0 3.1 100 08:26 09.12.2019
2960 Rain 4 1010 93 10000 1.5 280 07:57 09.12.2019
2961 Clouds 4 1010 93 0 3.52 307 07:38 09.12.2019
2962 Rain 4 1009 93 10000 1.5 110 07:20 09.12.2019
2963 Clouds 6 1009 86 0 1.5 30 06:47 09.12.2019
2964 Clouds 5 1009 93 0 1 0 06:24 09.12.2019
2965 Rain 6 1010 75 0 5.7 0 05:27 09.12.2019
2966 Rain 5 1010 81 0 4.6 270 04:46 09.12.2019
2967 Clouds 4 1010 86 0 1.5 0 03:21 09.12.2019
2968 Clouds 4 1009 95 0 1 0 02:24 09.12.2019
2969 Clouds 4 1010 89 0 1 0 01:42 09.12.2019
2970 Clouds 5 1010 93 0 2.1 100 00:46 09.12.2019
2971 Clouds 5 1010 93 0 2.1 100 00:46 09.12.2019
2972 Clouds 5 1010 93 0 1.5 20 00:27 09.12.2019
2973 Clouds 5 1010 93 0 1 0 23:43 08.12.2019
2974 Clouds 5 1011 93 0 1.5 0 23:24 08.12.2019
2975 Rain 5 1011 82 0 2.6 90 22:57 08.12.2019
2976 Clouds 5 1016 93 0 1 40 22:39 08.12.2019
2977 Clouds 5 1016 93 0 1 40 22:39 08.12.2019
2978 Clouds 5 1011 82 0 2.1 0 22:20 08.12.2019
2979 Clouds 5 1011 82 0 4.6 110 21:58 08.12.2019
2980 Clouds 5 1011 82 0 4.6 110 21:40 08.12.2019
2981 Clouds 4 1012 82 0 2.1 70 21:21 08.12.2019
2982 Clouds 5 1013 82 0 1 0 20:57 08.12.2019
2983 Clouds 5 1017 93 0 1.57 216 20:38 08.12.2019
2984 Clouds 4 1013 82 0 2.41 193 20:20 08.12.2019
2985 Clouds 4 1013 70 0 2.24 206 20:20 08.12.2019
2986 Clouds 4 1013 86 0 2.24 206 19:59 08.12.2019
2987 Clouds 3 1013 86 0 2.24 206 19:41 08.12.2019
2988 Clouds 3 1013 70 0 1 0 19:23 08.12.2019
2989 Clouds 4 1014 70 0 0.5 0 18:55 08.12.2019
2990 Clouds 4 1018 86 0 0.5 0 18:37 08.12.2019
2991 Clouds 4 1014 70 0 1 0 18:19 08.12.2019
2992 Clouds 4 1014 70 0 2.24 206 17:57 08.12.2019
2993 Clouds 5 1018 80 0 2.24 206 17:38 08.12.2019
2994 Clouds 5 1014 77 0 0.5 0 17:20 08.12.2019
2995 Clouds 5 1014 77 0 0.5 0 17:20 08.12.2019
2996 Clouds 5 1014 77 0 0.5 0 17:20 08.12.2019
2997 Clouds 6 1014 77 0 1.58 208 16:57 08.12.2019
2998 Clouds 6 1018 77 0 0.5 0 16:39 08.12.2019
2999 Clouds 6 1015 77 0 2.1 100 16:20 08.12.2019
3000 Clouds 7 1015 77 0 1.5 120 15:55 08.12.2019
3001 Clouds 7 1018 61 0 0.5 0 15:36 08.12.2019
3002 Clouds 7 1018 61 0 0.5 0 15:36 08.12.2019
3003 Clouds 8 1015 77 0 1 0 15:18 08.12.2019
3004 Clouds 8 1016 77 0 1 0 14:43 08.12.2019
3005 Clouds 8 1015 65 10000 1.5 220 14:24 08.12.2019
3006 Clouds 8 1016 61 10000 1.5 0 13:58 08.12.2019
3007 Clouds 8 1016 61 10000 1.5 0 13:40 08.12.2019
3008 Clouds 8 1016 70 10000 2.1 260 13:21 08.12.2019
3009 Clouds 8 1017 65 10000 1 0 12:56 08.12.2019
3010 Clouds 7 1021 75 0 1 0 12:38 08.12.2019
3011 Clouds 6 1017 70 10000 2.6 90 12:18 08.12.2019
3012 Clouds 6 1017 70 10000 1 110 11:55 08.12.2019
3013 Clouds 5 1022 69 0 1.5 100 11:37 08.12.2019
3014 Clouds 4 1018 75 10000 1 0 11:19 08.12.2019
3015 Clouds 4 1018 75 10000 1 0 11:19 08.12.2019
3016 Clouds 4 1018 75 10000 1 0 11:19 08.12.2019
3017 Clouds 3 1018 80 10000 2.1 240 10:39 08.12.2019
3018 Clouds 2 1018 93 10000 1 270 10:21 08.12.2019
3019 Clouds 1 1018 46 10000 1.5 250 09:58 08.12.2019
3020 Clouds 1 1022 46 0 0.5 0 09:39 08.12.2019
3021 Clouds 1 1019 92 0 0.5 0 09:20 08.12.2019
3022 Clouds 0 1019 100 0 2 222 08:58 08.12.2019
3023 Clouds 0 1019 100 0 2 222 08:39 08.12.2019
3024 Clear 0 1018 86 10000 2.6 230 08:21 08.12.2019
3025 Clear 0 1019 100 0 0.5 0 07:44 08.12.2019
3026 Clear 0 1018 92 0 1.5 80 07:20 08.12.2019
3027 Clear 0 1018 92 0 1.5 100 06:51 08.12.2019
3028 Fog 0 1019 100 0 1 0 06:23 08.12.2019
3029 Mist 0 1019 100 0 1 70 05:51 08.12.2019
3030 Clear 0 1019 100 0 1.92 299 05:18 08.12.2019
3031 Clear 1 1020 100 0 1.92 299 03:54 08.12.2019
3032 Clear 1 1022 100 0 1.92 299 03:36 08.12.2019
3033 Clear 1 1021 100 0 3.1 100 02:40 08.12.2019
3034 Clear 2 1021 100 0 1 150 01:56 08.12.2019
3035 Clear 1 1021 100 0 1 0 01:33 08.12.2019
3036 Clear 2 1021 92 0 1 0 00:42 08.12.2019
3037 Clouds 2 1021 42 0 2.3 306 00:21 08.12.2019
3038 Clouds 2 1021 100 0 1.5 120 23:55 07.12.2019
3039 Clouds 2 1021 42 0 1 0 23:36 07.12.2019
3040 Clouds 3 1021 79 0 1 0 23:18 07.12.2019
3041 Clouds 3 1021 79 0 1 80 22:54 07.12.2019
3042 Clouds 3 1021 79 0 1 80 22:54 07.12.2019
3043 Clear 3 1020 79 0 3.55 326 22:36 07.12.2019
3044 Clear 3 1020 79 0 3.55 326 22:36 07.12.2019
3045 Clouds 3 1021 79 0 1.5 100 22:18 07.12.2019
3046 Clouds 4 1021 79 0 3.55 326 21:54 07.12.2019
3047 Clear 4 1020 79 0 0.5 0 21:36 07.12.2019
3048 Clouds 4 1021 93 0 3.55 326 21:18 07.12.2019
3049 Clear 4 1020 79 0 3.55 326 20:37 07.12.2019
3050 Clouds 4 1021 86 0 0.5 0 20:19 07.12.2019
3051 Clouds 4 1020 86 0 3.6 329 19:57 07.12.2019
3052 Clouds 4 1020 86 0 2.6 90 19:38 07.12.2019
3053 Clouds 5 1020 80 0 1.5 20 19:20 07.12.2019
3054 Clouds 5 1020 86 0 1.5 0 18:55 07.12.2019
3055 Clouds 5 1019 86 0 3.6 329 18:36 07.12.2019
3056 Clouds 5 1020 81 10000 1.5 240 18:18 07.12.2019
3057 Clouds 6 1020 81 10000 1 0 17:42 07.12.2019
3058 Clouds 6 1019 86 0 2.1 90 17:24 07.12.2019
3059 Clouds 6 1019 81 0 2.6 120 16:58 07.12.2019
3060 Clouds 6 1019 81 0 2.6 120 16:39 07.12.2019
3061 Clouds 7 1019 75 0 0.5 0 16:21 07.12.2019
3062 Clouds 9 1019 66 10000 2.6 40 15:57 07.12.2019
3063 Clouds 8 1019 81 0 3.57 336 15:38 07.12.2019
3064 Clouds 8 1019 81 0 3.57 336 15:20 07.12.2019
3065 Clouds 8 1019 86 0 1.5 70 14:42 07.12.2019
3066 Clouds 7 1019 93 0 1 0 14:19 07.12.2019
3067 Clouds 7 1019 92 0 0.5 0 13:58 07.12.2019
3068 Clouds 7 1019 92 0 0.5 0 13:58 07.12.2019
3069 Clouds 7 1018 92 0 1 0 13:39 07.12.2019
3070 Clouds 7 1019 93 0 0.5 0 13:19 07.12.2019
3071 Clouds 8 1019 65 0 1 170 12:41 07.12.2019
3072 Clouds 6 1019 90 0 1.5 110 12:23 07.12.2019
3073 Clouds 7 1019 93 0 0.5 0 11:59 07.12.2019
3074 Clouds 6 1019 93 0 0.5 0 11:41 07.12.2019
3075 Clouds 5 1020 87 0 1.5 310 11:22 07.12.2019
3076 Clouds 4 1019 87 0 1 0 10:39 07.12.2019
3077 Clouds 4 1019 93 0 1 0 10:20 07.12.2019
3078 Clouds 3 1019 87 0 3.87 326 09:59 07.12.2019
3079 Clouds 3 1019 87 0 3.87 326 09:38 07.12.2019
3080 Clouds 3 1019 87 0 3.87 326 09:38 07.12.2019
3081 Clouds 3 1019 87 0 1 0 09:20 07.12.2019
3082 Clouds 2 1019 87 0 1 0 08:45 07.12.2019
3083 Clouds 2 1019 88 0 1.5 0 08:21 07.12.2019
3084 Clouds 2 1018 88 0 1 0 07:47 07.12.2019
3085 Clouds 2 1018 88 0 3.53 325 07:28 07.12.2019
3086 Clouds 2 1018 88 0 0.5 0 06:52 07.12.2019
3087 Clouds 2 1018 88 0 3.53 325 06:25 07.12.2019
3088 Clouds 2 1018 86 0 0.5 0 05:44 07.12.2019
3089 Clouds 2 1018 86 0 1.5 330 04:41 07.12.2019
3090 Clouds 3 1018 86 0 3.1 110 03:49 07.12.2019
3091 Clouds 3 1018 74 0 1.5 100 02:22 07.12.2019
3092 Clouds 2 1021 48 0 2.46 309 01:37 07.12.2019
3093 Rain 2 1019 44 0 1 0 01:18 07.12.2019
3094 Clouds 1 1019 44 0 2.36 310 00:21 07.12.2019
3095 Clouds 1 1018 44 10000 1.5 260 23:57 06.12.2019
3096 Clouds 1 1022 44 0 2.36 310 23:38 06.12.2019
3097 Clouds 1 1019 92 0 1 0 23:19 06.12.2019
3098 Clouds 0 1022 100 0 1.91 298 22:39 06.12.2019
3099 Clouds 0 1019 31 10000 1 0 22:21 06.12.2019
3100 Clouds 0 1019 31 10000 1 0 21:58 06.12.2019
3101 Clouds 0 1022 100 0 1.91 298 21:39 06.12.2019
3102 Clouds 0 1019 100 10000 1.5 0 21:20 06.12.2019
3103 Clouds 0 1019 100 9000 1 0 20:45 06.12.2019
3104 Fog 0 1019 92 450 1.5 270 20:25 06.12.2019
3105 Fog 0 1019 100 200 1 260 19:59 06.12.2019
3106 Fog 0 1019 100 200 1 260 19:40 06.12.2019
3107 Fog 0 1019 100 150 1 260 19:22 06.12.2019
3108 Fog 0 1019 100 150 1 260 19:22 06.12.2019
3109 Fog 1 1019 41 100 1 0 18:57 06.12.2019
3110 Fog 0 1019 41 100 1 0 18:57 06.12.2019
3111 Fog 0 1019 41 100 1 0 18:39 06.12.2019
3112 Fog 0 1019 41 150 0.5 0 18:20 06.12.2019
3113 Mist 0 1019 41 1700 1.5 0 17:56 06.12.2019
3114 Mist 0 1019 41 1700 1.5 0 17:56 06.12.2019
3115 Clear 1 1022 86 0 1 60 17:38 06.12.2019
3116 Clouds 1 1020 64 5000 1 260 17:19 06.12.2019
3117 Clouds 1 1020 64 5000 1 260 17:19 06.12.2019
3118 Clouds 2 1020 64 2000 1.5 0 16:43 06.12.2019
3119 Mist 2 1020 64 1800 1.5 0 16:25 06.12.2019
3120 Mist 2 1020 64 3000 1 0 15:59 06.12.2019
3121 Mist 2 1020 64 3000 1 0 15:40 06.12.2019
3122 Mist 2 1020 64 3000 1 0 15:40 06.12.2019
3123 Clouds 3 1020 64 3500 1 0 15:19 06.12.2019
3124 Mist 3 1020 64 3500 0.5 0 14:56 06.12.2019
3125 Clouds 2 1020 64 6000 1 0 14:38 06.12.2019
3126 Clouds 3 1020 63 6000 1 0 14:18 06.12.2019
3127 Clouds 4 1021 63 8000 1 0 13:43 06.12.2019
3128 Clouds 4 1021 71 6000 1 0 13:25 06.12.2019
3129 Mist 4 1022 71 3000 2.1 190 12:43 06.12.2019
3130 Mist 3 1022 71 2800 1.5 0 12:23 06.12.2019
3131 Mist 1 1023 71 3500 1.5 230 11:58 06.12.2019
3132 Clear 1 1026 71 10000 1 0 11:39 06.12.2019
3133 Mist 1 1023 47 2000 2.1 240 11:20 06.12.2019
3134 Mist 1 1023 100 1400 2.6 210 10:43 06.12.2019
3135 Mist 0 1023 100 1600 2.1 220 10:21 06.12.2019
3136 Mist 0 1023 100 1400 2.1 250 09:58 06.12.2019
3137 Clear -1 1026 100 10000 1.21 249 09:37 06.12.2019
3138 Clear -1 1026 100 10000 1.21 249 09:37 06.12.2019
3139 Fog -1 1023 92 10000 1.21 249 09:19 06.12.2019
3140 Fog -1 1023 100 550 2.1 250 08:45 06.12.2019
3141 Fog -1 1023 92 10000 1.5 100 08:27 06.12.2019
3142 Clear -2 1023 92 10000 1.48 294 07:56 06.12.2019
3143 Clear -1 1026 100 10000 0.5 0 07:36 06.12.2019
3144 Clear -2 1023 92 10000 0.5 0 07:18 06.12.2019
3145 Mist -1 1023 30 1100 2.1 220 06:29 06.12.2019
3146 Clear -1 1023 92 0 1.48 294 05:53 06.12.2019
3147 Clear -1 1026 100 0 1.48 294 05:33 06.12.2019
3148 Mist -1 1023 34 1900 2.6 200 02:19 06.12.2019
3149 Mist -1 1023 36 1400 1.5 210 01:30 06.12.2019
3150 Mist -1 1023 100 3200 2.1 210 00:41 06.12.2019
3151 Fog -1 1023 36 600 2.6 210 00:20 06.12.2019
3152 Mist 0 1024 36 1200 2.1 230 23:45 05.12.2019
3153 Mist 0 1024 35 2300 2.6 250 23:19 05.12.2019
3154 Clouds 0 1024 35 5000 2.1 250 22:57 05.12.2019
3155 Clear 0 1027 35 0 1 40 22:37 05.12.2019
3156 Clear 0 1027 35 0 1 40 22:37 05.12.2019
3157 Mist 0 1024 35 4700 1.5 250 22:18 05.12.2019
3158 Mist 0 1024 35 4700 1.5 250 22:18 05.12.2019
3159 Clouds 0 1024 35 5000 2.6 200 21:44 05.12.2019
3160 Clouds 0 1024 35 5000 2.6 200 21:25 05.12.2019
3161 Mist 0 1024 35 4600 2.6 190 20:59 05.12.2019
3162 Mist 0 1024 35 4600 2.6 190 20:40 05.12.2019
3163 Clouds 1 1024 36 5000 1.5 200 20:20 05.12.2019
3164 Clouds 1 1024 36 5000 1.5 200 19:57 05.12.2019
3165 Clouds 1 1024 36 5000 1.5 200 19:57 05.12.2019
3166 Clouds 1 1024 36 5000 1.5 210 19:39 05.12.2019
3167 Clouds 1 1024 36 5000 2.1 200 19:20 05.12.2019
3168 Clouds 1 1024 36 5000 2.1 200 18:57 05.12.2019
3169 Clouds 0 1024 36 5000 2.1 210 18:37 05.12.2019
3170 Clouds 1 1023 36 5000 2.1 230 18:19 05.12.2019
3171 Clouds 1 1023 36 5000 2.1 230 18:19 05.12.2019
3172 Clouds 1 1023 36 5000 1.5 240 17:39 05.12.2019
3173 Mist 1 1023 43 2500 0.5 0 17:19 05.12.2019
3174 Mist 1 1023 43 2500 0.5 0 16:57 05.12.2019
3175 Clouds 1 1022 92 10000 1.5 100 16:38 05.12.2019
3176 Clouds 1 1022 92 10000 1.5 100 16:38 05.12.2019
3177 Mist 1 1023 43 3500 1.5 250 16:20 05.12.2019
3178 Fog 1 1022 92 10000 1 90 15:56 05.12.2019
3179 Fog 1 1022 92 10000 1 90 15:37 05.12.2019
3180 Fog 1 1022 92 10000 1.5 80 15:19 05.12.2019
3181 Clouds 1 1023 93 6000 1.5 0 14:55 05.12.2019
3182 Clouds 1 1023 93 6000 1.5 0 14:36 05.12.2019
3183 Fog 3 1022 100 10000 1 0 14:18 05.12.2019
3184 Fog 3 1022 100 10000 1 0 13:56 05.12.2019
3185 Fog 3 1022 100 10000 1 0 13:56 05.12.2019
3186 Fog 3 1022 100 9000 1.89 194 13:37 05.12.2019
3187 Clouds 3 1022 92 0 1.68 198 13:18 05.12.2019
3188 Clouds 4 1022 100 0 0.5 0 12:43 05.12.2019
3189 Clouds 3 1022 92 8000 1.68 198 12:24 05.12.2019
3190 Clouds 3 1022 92 8000 1.68 198 11:59 05.12.2019
3191 Clouds 2 1022 92 8000 1.68 198 11:38 05.12.2019
3192 Clouds 2 1022 92 8000 1.68 198 11:38 05.12.2019
3193 Clouds 1 1022 100 8000 1.19 243 11:20 05.12.2019
3194 Clouds 1 1022 100 8000 1.19 243 10:57 05.12.2019
3195 Clouds 1 1022 92 10000 1.19 243 10:38 05.12.2019
3196 Mist 1 1023 45 3600 2.1 220 10:18 05.12.2019
3197 Mist 1 1023 45 3500 2.6 200 09:46 05.12.2019
3198 Fog 0 1022 92 6000 1 90 09:24 05.12.2019
3199 Fog 0 1022 92 6000 1 90 08:59 05.12.2019
3200 Mist 1 1023 45 3500 2.1 210 08:39 05.12.2019
3201 Mist 0 1022 31 4000 2.1 210 08:20 05.12.2019
3202 Mist 0 1022 31 4600 2.6 210 07:54 05.12.2019
3203 Mist 0 1022 31 4600 2.6 210 07:36 05.12.2019
3204 Mist 0 1022 31 3900 2.1 210 07:18 05.12.2019
3205 Fog -1 1021 100 0 1 0 06:41 05.12.2019
3206 Fog -1 1021 100 0 1.81 241 06:20 05.12.2019
3207 Fog -1 1022 100 0 1.81 241 05:47 05.12.2019
3208 Fog -1 1022 100 0 1.81 241 05:23 05.12.2019
3209 Clouds 0 1022 100 0 0.5 0 04:20 05.12.2019
3210 Clouds 0 1022 29 5000 2.1 210 02:44 05.12.2019
3211 Clouds 0 1022 100 0 1.95 217 02:24 05.12.2019
3212 Clouds 0 1021 100 0 0.5 0 01:53 05.12.2019
3213 Clouds 0 1021 100 0 0.5 0 01:27 05.12.2019
3214 Clouds 0 1021 92 0 2.1 100 00:52 05.12.2019
3215 Clouds 1 1021 92 0 2.1 100 00:33 05.12.2019
3216 Clouds 1 1020 92 0 2.1 250 23:58 04.12.2019
3217 Clouds 1 1020 92 0 2.1 250 23:39 04.12.2019
3218 Clouds 0 1020 92 0 1.6 220 23:21 04.12.2019
3219 Clouds 1 1020 92 0 2.1 110 22:55 04.12.2019
3220 Clouds 1 1020 92 0 2.1 110 22:36 04.12.2019
3221 Clouds 1 1020 27 0 2.6 90 22:18 04.12.2019
3222 Clouds 1 1021 27 0 1.6 220 21:54 04.12.2019
3223 Clouds 1 1021 27 0 1.6 220 21:36 04.12.2019
3224 Clouds 1 1021 27 0 2.1 110 21:18 04.12.2019
3225 Clouds 1 1021 27 0 2.1 110 20:56 04.12.2019
3226 Clouds 1 1020 27 0 1 110 20:37 04.12.2019
3227 Clouds 0 1020 92 0 1.5 100 20:19 04.12.2019
3228 Clouds 0 1020 92 0 0.5 0 19:40 04.12.2019
3229 Clouds 0 1020 100 0 1.71 212 19:21 04.12.2019
3230 Clouds 0 1020 100 0 1.71 212 18:58 04.12.2019
3231 Clouds 0 1020 100 0 1.71 212 18:58 04.12.2019
3232 Clouds 0 1019 92 0 2.1 100 18:40 04.12.2019
3233 Clouds 0 1019 92 0 1.71 212 18:21 04.12.2019
3234 Clouds 0 1019 92 0 1.71 212 17:56 04.12.2019
3235 Clear 0 1019 92 0 1.5 90 17:37 04.12.2019
3236 Clouds 1 1019 92 10000 0.5 0 17:18 04.12.2019
3237 Clouds 1 1018 92 10000 1 0 16:40 04.12.2019
3238 Clouds 1 1018 92 10000 2.17 192 16:20 04.12.2019
3239 Clouds 1 1018 92 10000 2.17 192 15:57 04.12.2019
3240 Clouds 2 1018 92 10000 0.5 0 15:39 04.12.2019
3241 Clear 1 1018 92 10000 1.5 100 15:20 04.12.2019
3242 Clear 1 1018 92 10000 1.5 100 14:57 04.12.2019
3243 Clouds 1 1019 39 10000 1.5 0 14:39 04.12.2019
3244 Clear 2 1018 92 10000 1 0 14:20 04.12.2019
3245 Clear 2 1018 92 10000 0.5 0 13:39 04.12.2019
3246 Clear 2 1019 92 0 1 0 13:21 04.12.2019
3247 Clouds 3 1019 74 10000 0.5 0 12:59 04.12.2019
3248 Clouds 4 1020 80 10000 1.5 250 12:41 04.12.2019
3249 Clear 3 1019 92 10000 1 0 12:23 04.12.2019
3250 Clear 3 1020 86 10000 1 0 11:43 04.12.2019
3251 Clouds 2 1021 80 9000 2.1 210 11:24 04.12.2019
3252 Clear 0 1020 100 9000 1 0 10:57 04.12.2019
3253 Clear 0 1021 100 10000 2.03 187 10:39 04.12.2019
3254 Clear 0 1021 92 10000 2.03 187 10:21 04.12.2019
3255 Clouds 2 1022 44 10000 2.1 210 09:42 04.12.2019
3256 Clouds 2 1021 74 10000 1.5 230 09:23 04.12.2019
3257 Clouds 1 1022 44 10000 2.6 200 08:43 04.12.2019
3258 Clouds 1 1022 74 10000 1.5 250 08:25 04.12.2019
3259 Clouds -1 1021 92 0 1.5 100 07:51 04.12.2019
3260 Clouds -1 1021 92 0 1.5 100 07:31 04.12.2019
3261 Clouds 0 1021 86 10000 2.1 100 06:57 04.12.2019
3262 Clouds -1 1021 80 10000 2.6 190 06:31 04.12.2019
3263 Clouds 0 1021 86 0 1.54 190 05:46 04.12.2019
3264 Clouds 0 1021 86 0 0.5 0 04:34 04.12.2019
3265 Clouds -1 1022 92 0 1.5 90 03:47 04.12.2019
3266 Clouds -1 1023 80 10000 2.1 210 01:34 04.12.2019
3267 Clouds -1 1023 92 0 0.5 110 00:47 04.12.2019
3268 Clouds -1 1023 74 10000 3.1 190 00:21 04.12.2019
3269 Clear -1 1023 92 0 1 0 23:43 03.12.2019
3270 Clouds 0 1024 69 10000 3.1 190 23:20 03.12.2019
3271 Clouds -1 1024 69 10000 3.1 190 22:59 03.12.2019
3272 Clear -1 1023 92 0 3.6 120 22:38 03.12.2019
3273 Clouds -1 1024 74 10000 2.1 210 22:18 03.12.2019
3274 Clouds 0 1024 74 10000 1.5 0 21:57 03.12.2019
3275 Clouds 0 1024 74 10000 1.5 0 21:37 03.12.2019
3276 Clouds 1 1024 74 10000 1.5 200 21:18 03.12.2019
3277 Clouds 0 1025 74 10000 1 0 20:41 03.12.2019
3278 Clouds 1 1025 74 10000 1.5 210 20:20 03.12.2019
3279 Clouds 1 1025 74 10000 1.5 210 20:20 03.12.2019
3280 Clouds 0 1025 74 10000 1.5 210 19:57 03.12.2019
3281 Clear 0 1024 92 0 2.6 90 19:38 03.12.2019
3282 Clear 0 1024 86 0 3.1 100 19:20 03.12.2019
3283 Clear 0 1024 86 0 3.1 100 18:59 03.12.2019
3284 Clear 1 1024 31 0 2.6 100 18:41 03.12.2019
3285 Clear 1 1024 31 0 3.1 100 18:21 03.12.2019
3286 Clear 1 1024 31 0 3.1 100 17:58 03.12.2019
3287 Clear 1 1024 31 0 3.1 100 17:58 03.12.2019
3288 Clear 2 1024 74 0 5.7 60 17:39 03.12.2019
3289 Clouds 2 1024 74 10000 6.2 50 17:18 03.12.2019
3290 Clouds 2 1024 74 10000 6.2 50 17:18 03.12.2019
3291 Clouds 2 1024 74 10000 6.2 50 16:58 03.12.2019
3292 Clouds 2 1024 74 10000 6.2 50 16:58 03.12.2019
3293 Clouds 2 1024 74 10000 6.2 50 16:58 03.12.2019
3294 Clouds 2 1024 69 10000 6.7 60 16:39 03.12.2019
3295 Clouds 2 1023 74 10000 8.2 50 16:20 03.12.2019
3296 Clouds 2 1023 74 10000 8.2 50 16:20 03.12.2019
3297 Clouds 2 1023 74 10000 8.2 50 15:57 03.12.2019
3298 Clouds 2 1023 74 10000 8.2 60 15:38 03.12.2019
3299 Clouds 2 1023 74 10000 8.2 60 15:19 03.12.2019
3300 Clouds 2 1023 74 10000 8.7 70 14:43 03.12.2019
3301 Clouds 2 1023 74 10000 8.2 80 14:20 03.12.2019
3302 Clouds 2 1023 74 10000 8.2 80 13:57 03.12.2019
3303 Clouds 2 1024 69 10000 5.7 50 13:37 03.12.2019
3304 Clouds 1 1024 69 0 6.7 40 13:19 03.12.2019
3305 Clouds 2 1025 69 0 5.1 50 12:41 03.12.2019
3306 Clouds 2 1025 69 10000 2.6 70 12:19 03.12.2019
3307 Clouds 2 1025 69 10000 2.6 70 12:19 03.12.2019
3308 Clouds 2 1025 69 10000 2.6 70 11:59 03.12.2019
3309 Clouds 2 1026 69 10000 5.7 30 11:39 03.12.2019
3310 Clouds 2 1026 69 10000 5.1 30 11:21 03.12.2019
3311 Clouds 2 1026 69 10000 5.1 30 10:59 03.12.2019
3312 Clouds 1 1026 64 10000 2.6 0 10:41 03.12.2019
3313 Clouds 1 1026 74 10000 5.7 50 10:21 03.12.2019
3314 Clouds 1 1026 74 10000 5.1 40 09:56 03.12.2019
3315 Clouds 1 1026 74 10000 5.1 40 09:38 03.12.2019
3316 Clouds 1 1026 74 10000 5.1 30 09:19 03.12.2019
3317 Clouds 1 1026 74 10000 5.1 60 08:41 03.12.2019
3318 Clouds 0 1025 80 10000 5.7 20 08:22 03.12.2019
3319 Clouds 0 1025 80 0 5.7 20 07:54 03.12.2019
3320 Clouds 0 1025 80 0 5.7 20 07:31 03.12.2019
3321 Clouds 0 1025 80 10000 6.2 30 06:59 03.12.2019
3322 Clouds 0 1024 80 0 6.2 40 06:22 03.12.2019
3323 Clouds 0 1024 80 0 5.7 70 05:58 03.12.2019
3324 Clouds 0 1024 80 0 6.7 40 04:49 03.12.2019
3325 Clouds 0 1024 80 0 6.7 50 03:38 03.12.2019
3326 Clouds 1 1024 80 0 6.2 50 03:18 03.12.2019
3327 Clouds 1 1025 74 10000 1 0 02:45 03.12.2019
3328 Clouds 0 1025 74 10000 1 0 02:25 03.12.2019
3329 Clouds 0 1025 80 0 6.7 50 01:42 03.12.2019
3330 Clouds 1 1025 80 0 7.7 40 01:23 03.12.2019
3331 Clouds 0 1024 80 0 4.1 0 00:54 03.12.2019
3332 Clouds 0 1024 80 0 4.1 0 00:36 03.12.2019
3333 Clouds 0 1024 80 0 7.2 50 00:18 03.12.2019
3334 Clouds 1 1023 86 0 7.2 50 23:41 02.12.2019
3335 Clouds 0 1023 86 0 8.2 50 23:19 02.12.2019
3336 Clouds 1 1024 86 0 7.7 50 22:41 02.12.2019
3337 Clouds 0 1025 74 10000 3.1 330 22:22 02.12.2019
3338 Clouds 1 1025 74 10000 3.1 330 21:58 02.12.2019
3339 Clouds 1 1024 86 0 7.7 60 21:37 02.12.2019
3340 Clouds 1 1024 86 0 7.7 60 21:37 02.12.2019
3341 Clouds 1 1024 80 0 7.2 70 21:18 02.12.2019
3342 Clouds 2 1024 80 0 7.2 70 20:56 02.12.2019
3343 Clouds 2 1025 80 10000 4.6 320 20:38 02.12.2019
3344 Clouds 1 1023 80 0 6.2 70 20:19 02.12.2019
3345 Clouds 1 1023 80 10000 8.2 50 19:43 02.12.2019
3346 Clouds 1 1023 92 9000 7.2 50 19:23 02.12.2019
3347 Clouds 1 1023 92 9000 7.2 50 18:59 02.12.2019
3348 Clouds 1 1025 92 10000 2.6 0 18:41 02.12.2019
3349 Clouds 1 1023 92 10000 7.7 60 18:19 02.12.2019
3350 Rain 1 1022 92 10000 8.7 60 17:58 02.12.2019
3351 Rain 1 1022 92 10000 8.7 60 17:39 02.12.2019
3352 Clouds 1 1022 89 10000 7.7 60 17:19 02.12.2019
3353 Rain 1 1022 89 10000 8.2 60 16:42 02.12.2019
3354 Rain 1 1021 89 10000 9.3 50 16:19 02.12.2019
3355 Rain 2 1021 89 10000 9.3 50 15:59 02.12.2019
3356 Rain 2 1021 89 10000 8.7 50 15:40 02.12.2019
3357 Drizzle 2 1021 86 10000 7.2 60 15:22 02.12.2019
3358 Drizzle 2 1021 86 10000 7.2 60 14:59 02.12.2019
3359 Clouds 2 1021 86 10000 7.7 40 14:38 02.12.2019
3360 Rain 2 1021 86 10000 8.2 30 14:20 02.12.2019
3361 Rain 2 1021 86 10000 8.2 30 13:57 02.12.2019
3362 Drizzle 2 1023 86 8000 4.6 330 13:39 02.12.2019
3363 Clouds 2 1021 80 10000 8.2 60 13:19 02.12.2019
3364 Clouds 3 1023 80 10000 5.7 340 12:56 02.12.2019
3365 Clouds 3 1023 80 10000 5.7 340 12:37 02.12.2019
3366 Clouds 3 1021 80 10000 7.2 40 12:19 02.12.2019
3367 Drizzle 3 1022 86 8000 3.1 330 11:38 02.12.2019
3368 Clouds 4 1020 86 10000 7.2 50 11:20 02.12.2019
3369 Clouds 4 1020 86 10000 7.2 50 10:58 02.12.2019
3370 Rain 3 1022 86 8000 5.1 340 10:40 02.12.2019
3371 Rain 3 1020 86 10000 5.7 40 10:22 02.12.2019
3372 Rain 3 1020 86 10000 5.7 40 10:22 02.12.2019
3373 Rain 3 1020 86 10000 5.7 40 09:57 02.12.2019
3374 Rain 3 1020 86 10000 6.2 40 09:39 02.12.2019
3375 Drizzle 2 1020 80 10000 3.1 60 09:18 02.12.2019
3376 Drizzle 2 1020 80 10000 3.1 60 09:18 02.12.2019
3377 Drizzle 3 1020 80 10000 3.1 60 08:55 02.12.2019
3378 Clouds 3 1019 86 7000 2.6 0 08:37 02.12.2019
3379 Clouds 3 1019 86 7000 3.1 70 08:18 02.12.2019
3380 Clouds 3 1018 80 6000 3.1 70 07:40 02.12.2019
3381 Drizzle 3 1018 80 7000 4.1 70 07:20 02.12.2019
3382 Drizzle 3 1018 80 0 3.6 90 06:45 02.12.2019
3383 Drizzle 3 1018 80 0 3.6 90 06:27 02.12.2019
3384 Clouds 3 1017 86 0 4.6 70 05:19 02.12.2019
3385 Clouds 3 1017 86 0 4.6 70 05:19 02.12.2019
3386 Rain 2 1017 100 0 1 0 04:19 02.12.2019
3387 Rain 2 1017 93 0 0.5 110 02:51 02.12.2019
3388 Rain 2 1017 93 0 0.5 110 02:51 02.12.2019
3389 Rain 3 1017 93 0 1.73 303 01:50 02.12.2019
3390 Rain 3 1017 86 5000 1.5 60 01:21 02.12.2019
3391 Drizzle 3 1016 93 0 1.5 220 00:41 02.12.2019
3392 Clouds 3 1016 93 0 1.5 260 00:22 02.12.2019
3393 Clouds 3 1016 93 8000 1.5 200 23:43 01.12.2019
3394 Clouds 3 1015 93 0 2.6 260 23:22 01.12.2019
3395 Clouds 4 1015 93 0 2.6 260 22:57 01.12.2019
3396 Clouds 4 1015 93 0 2.6 260 22:57 01.12.2019
3397 Clouds 3 1015 93 0 1 0 22:38 01.12.2019
3398 Clouds 3 1015 93 0 1 0 22:38 01.12.2019
3399 Rain 3 1016 93 0 0.5 0 22:20 01.12.2019
3400 Rain 3 1016 93 0 0.5 0 21:57 01.12.2019
3401 Rain 3 1015 93 0 1 0 21:39 01.12.2019
3402 Rain 3 1015 80 0 5.1 70 21:20 01.12.2019
3403 Rain 4 1015 80 0 5.1 70 20:58 01.12.2019
3404 Rain 4 1015 86 0 1.35 240 20:39 01.12.2019
3405 Clouds 3 1015 86 0 2.27 186 20:21 01.12.2019
3406 Clouds 3 1015 86 0 2.27 186 19:58 01.12.2019
3407 Clouds 3 1015 86 0 0.5 0 19:39 01.12.2019
3408 Rain 3 1015 86 0 2.6 310 19:20 01.12.2019
3409 Rain 4 1015 86 0 2.6 310 18:57 01.12.2019
3410 Clouds 3 1014 93 0 3.1 270 18:38 01.12.2019
3411 Clouds 4 1014 86 0 3.6 250 18:19 01.12.2019
3412 Clouds 4 1014 86 0 3.6 250 17:57 01.12.2019
3413 Drizzle 4 1014 86 0 1.5 260 17:39 01.12.2019
3414 Clouds 4 1014 80 0 1 0 17:20 01.12.2019
3415 Clouds 4 1014 80 0 1 0 17:20 01.12.2019
3416 Clouds 4 1014 80 0 1 0 17:20 01.12.2019
3417 Clouds 4 1014 86 0 1.5 260 16:55 01.12.2019
3418 Clouds 4 1014 86 0 1.5 260 16:36 01.12.2019
3419 Clouds 4 1015 80 10000 1.5 160 16:18 01.12.2019
3420 Clouds 4 1013 86 0 2.6 280 15:44 01.12.2019
3421 Clouds 4 1013 86 0 2.6 280 15:44 01.12.2019
3422 Clouds 4 1013 86 0 2.6 280 15:26 01.12.2019
3423 Clouds 4 1013 86 0 2.6 280 15:26 01.12.2019
3424 Clouds 4 1013 86 0 2.6 280 15:26 01.12.2019
3425 Clouds 4 1013 86 0 2.6 280 15:26 01.12.2019
3426 Clouds 4 1013 86 0 2.6 280 15:26 01.12.2019
3427 Clouds 5 1013 80 0 1.5 250 14:39 01.12.2019
3428 Clouds 5 1014 86 0 0.5 0 14:19 01.12.2019
3429 Clouds 5 1014 80 0 1 210 13:43 01.12.2019
3430 Clouds 5 1014 80 0 1 210 13:25 01.12.2019
3431 Clouds 5 1014 80 0 1 210 13:25 01.12.2019
3432 Clouds 5 1014 80 0 1 210 13:25 01.12.2019
3433 Clouds 5 1014 80 0 1 210 13:25 01.12.2019
3434 Clouds 5 1014 75 10000 2.1 250 12:59 01.12.2019
3435 Clouds 5 1015 80 0 3.1 250 12:40 01.12.2019
3436 Clouds 4 1015 80 0 4.1 270 11:55 01.12.2019
3437 Clouds 4 1015 80 0 4.1 270 11:37 01.12.2019
3438 Clouds 3 1016 96 10000 0.5 0 11:18 01.12.2019
3439 Clouds 4 1015 80 0 7.7 270 10:43 01.12.2019
3440 Clouds 4 1014 86 0 6.2 270 10:20 01.12.2019
3441 Clouds 3 1013 86 0 6.2 270 09:42 01.12.2019
3442 Clouds 3 1012 86 0 5.7 260 09:23 01.12.2019
3443 Clouds 3 1012 86 0 5.7 260 08:57 01.12.2019
3444 Clouds 2 1012 93 7000 2.1 50 08:37 01.12.2019
3445 Clouds 1 1011 93 0 3.1 240 08:19 01.12.2019
3446 Clouds 1 1011 93 0 3.1 240 08:19 01.12.2019
3447 Clouds 2 1011 86 0 3.1 240 07:48 01.12.2019
3448 Clouds 2 1011 86 0 3.1 240 07:28 01.12.2019
3449 Clouds 1 1012 93 0 4.1 250 06:52 01.12.2019
3450 Clouds 1 1013 93 10000 1 200 05:58 01.12.2019
3451 Clouds 1 1012 97 0 3.1 260 05:34 01.12.2019
3452 Clouds 2 1015 93 10000 0.5 0 04:29 01.12.2019
3453 Clouds 2 1016 99 0 0.5 0 02:46 01.12.2019
3454 Clouds 1 1016 99 0 0.5 0 02:27 01.12.2019
3455 Clouds 1 1016 98 0 1.5 90 01:54 01.12.2019
3456 Clouds 2 1016 99 0 1.5 90 01:32 01.12.2019
3457 Clouds 2 1017 99 0 2.1 110 00:50 01.12.2019
3458 Clouds 2 1017 99 0 2.1 110 00:27 01.12.2019
3459 Clouds 2 1018 86 10000 1 290 23:57 30.11.2019
3460 Clouds 2 1017 99 0 2.8 179 23:39 30.11.2019
3461 Clouds 2 1017 78 0 0.5 0 23:20 30.11.2019
3462 Clouds 2 1017 78 0 1.5 110 22:46 30.11.2019
3463 Clouds 2 1017 78 0 1.5 110 22:28 30.11.2019
3464 Clouds 2 1018 78 10000 1.5 270 21:54 30.11.2019
3465 Clouds 1 1018 78 10000 1.5 270 21:36 30.11.2019
3466 Clouds 2 1018 78 0 4.1 110 21:18 30.11.2019
3467 Clouds 2 1018 80 10000 2.6 220 20:54 30.11.2019
3468 Clouds 2 1018 80 10000 2.6 220 20:36 30.11.2019
3469 Clouds 2 1018 80 10000 2.6 200 20:18 30.11.2019
3470 Clouds 3 1019 80 10000 1 0 19:54 30.11.2019
3471 Clouds 3 1019 80 10000 1 0 19:36 30.11.2019
3472 Clear 3 1018 93 0 3.6 90 19:18 30.11.2019
3473 Clouds 3 1018 93 0 4.1 90 18:39 30.11.2019
3474 Clear 3 1018 93 0 4.1 80 18:21 30.11.2019
3475 Clear 3 1018 93 0 4.1 80 17:59 30.11.2019
3476 Clear 2 1018 80 0 7.2 60 17:41 30.11.2019
3477 Clouds 3 1019 80 10000 0.5 0 17:23 30.11.2019
3478 Clouds 3 1019 80 10000 0.5 0 16:59 30.11.2019
3479 Clear 4 1018 75 0 7.7 50 16:41 30.11.2019
3480 Clear 4 1018 75 0 7.2 60 16:22 30.11.2019
3481 Clouds 3 1020 75 10000 2.1 240 15:54 30.11.2019
3482 Clouds 4 1020 75 10000 2.1 240 15:36 30.11.2019
3483 Clouds 5 1020 80 10000 2.6 230 15:18 30.11.2019
3484 Clear 4 1019 75 0 8.2 50 14:55 30.11.2019
3485 Clear 4 1019 75 0 8.2 50 14:36 30.11.2019
3486 Clouds 4 1019 80 0 9.8 60 14:18 30.11.2019
3487 Clouds 4 1019 80 0 9.8 60 14:18 30.11.2019
3488 Clouds 4 1021 75 10000 1 0 13:42 30.11.2019
3489 Clear 4 1020 93 0 2.1 110 13:24 30.11.2019
3490 Clear 4 1020 93 0 2.1 110 12:57 30.11.2019
3491 Clear 4 1020 93 0 2.6 110 12:39 30.11.2019
3492 Clouds 4 1022 75 10000 1 0 12:21 30.11.2019
3493 Clouds 4 1021 80 0 6.2 80 11:42 30.11.2019
3494 Clouds 4 1021 80 0 7.2 90 11:19 30.11.2019
3495 Clouds 3 1021 80 0 7.2 90 10:55 30.11.2019
3496 Clouds 3 1021 80 0 7.2 90 10:55 30.11.2019
3497 Rain 3 1021 80 0 8.7 60 10:37 30.11.2019
3498 Rain 3 1021 80 0 8.7 50 10:18 30.11.2019
3499 Clouds 3 1023 86 10000 0.5 0 09:45 30.11.2019
3500 Rain 3 1021 86 0 8.7 50 09:23 30.11.2019
3501 Drizzle 2 1021 86 0 9.3 60 08:44 30.11.2019
3502 Clouds 2 1020 80 0 7.7 60 08:20 30.11.2019
3503 Clouds 2 1020 80 0 7.7 60 07:56 30.11.2019
3504 Clouds 2 1020 80 0 8.2 50 07:37 30.11.2019
3505 Drizzle 2 1022 93 10000 2.1 250 06:55 30.11.2019
3506 Drizzle 2 1022 93 10000 2.1 250 06:29 30.11.2019
3507 Rain 3 1020 100 0 4.04 334 05:40 30.11.2019
3508 Clouds 3 1020 93 0 0.5 0 03:44 30.11.2019
3509 Rain 4 1020 93 0 3.99 336 02:39 30.11.2019
3510 Rain 4 1020 93 0 2.1 230 02:20 30.11.2019
3511 Rain 4 1019 93 0 1.5 310 01:25 30.11.2019
3512 Rain 4 1019 93 0 4.1 240 00:49 30.11.2019
3513 Rain 4 1019 93 0 4.1 240 00:30 30.11.2019
3514 Rain 4 1020 93 10000 3.51 326 23:59 29.11.2019
3515 Rain 4 1019 87 0 3.6 270 23:40 29.11.2019
3516 Rain 4 1019 93 7000 2.6 60 23:20 29.11.2019
3517 Rain 4 1018 93 0 3.6 250 22:42 29.11.2019
3518 Rain 4 1018 87 0 3.1 240 22:23 29.11.2019
3519 Rain 4 1017 87 0 3.1 260 21:44 29.11.2019
3520 Drizzle 5 1017 93 10000 1 0 21:23 29.11.2019
3521 Rain 5 1017 100 10000 2.1 270 20:57 29.11.2019
3522 Rain 5 1017 100 10000 2.1 270 20:38 29.11.2019
3523 Rain 5 1016 75 0 3.6 300 20:19 29.11.2019
3524 Rain 5 1016 75 0 3.6 300 19:57 29.11.2019
3525 Rain 5 1017 100 3300 1 120 19:38 29.11.2019
3526 Rain 5 1016 93 0 0.5 0 19:19 29.11.2019
3527 Drizzle 5 1015 93 0 1.5 120 18:55 29.11.2019
3528 Drizzle 5 1015 93 0 1.5 120 18:37 29.11.2019
3529 Rain 5 1015 93 10000 1 0 18:19 29.11.2019
3530 Rain 5 1015 87 10000 2.6 40 17:43 29.11.2019
3531 Rain 5 1015 100 8000 1.5 70 17:23 29.11.2019
3532 Rain 6 1015 100 8000 1.5 70 16:56 29.11.2019
3533 Rain 6 1014 93 8000 1 0 16:37 29.11.2019
3534 Rain 6 1014 86 10000 1.5 70 16:18 29.11.2019
3535 Rain 6 1014 93 10000 2.1 90 15:40 29.11.2019
3536 Rain 6 1013 93 10000 1.5 200 15:21 29.11.2019
3537 Rain 6 1013 93 8000 2.6 100 14:42 29.11.2019
3538 Drizzle 6 1013 93 10000 2.1 80 14:22 29.11.2019
3539 Drizzle 6 1013 93 10000 2.1 80 13:59 29.11.2019
3540 Rain 6 1013 93 9000 2.8 319 13:39 29.11.2019
3541 Rain 6 1013 93 10000 1.5 60 13:20 29.11.2019
3542 Rain 6 1012 93 0 3.3 320 12:45 29.11.2019
3543 Rain 6 1012 93 0 3.3 320 12:25 29.11.2019
3544 Rain 6 1012 93 10000 1.5 0 11:59 29.11.2019
3545 Rain 6 1012 93 8000 3.3 320 11:41 29.11.2019
3546 Rain 6 1012 93 8000 2.1 50 11:19 29.11.2019
3547 Rain 6 1012 93 8000 2.1 50 11:19 29.11.2019
3548 Rain 5 1012 93 8000 2.1 50 10:59 29.11.2019
3549 Rain 5 1012 93 8000 2.1 50 10:59 29.11.2019
3550 Rain 5 1011 93 9000 1.5 10 10:39 29.11.2019
3551 Rain 5 1011 100 8000 1 0 10:21 29.11.2019
3552 Rain 5 1011 100 8000 1 0 09:59 29.11.2019
3553 Rain 5 1011 93 8000 1 220 09:40 29.11.2019
3554 Rain 5 1011 100 8000 2.93 297 09:22 29.11.2019
3555 Rain 5 1011 100 8000 2.93 297 08:58 29.11.2019
3556 Rain 5 1010 93 8000 1 0 08:38 29.11.2019
3557 Rain 5 1009 93 10000 0.5 0 08:20 29.11.2019
3558 Rain 5 1009 93 10000 0.5 0 08:20 29.11.2019
3559 Rain 5 1009 93 9000 1 0 07:47 29.11.2019
3560 Rain 4 1009 100 10000 3.6 80 07:24 29.11.2019
3561 Rain 4 1009 100 10000 3.6 80 06:58 29.11.2019
3562 Rain 5 1008 100 0 2.6 90 06:37 29.11.2019
3563 Rain 5 1009 93 0 3.1 70 05:47 29.11.2019
3564 Rain 5 1008 93 0 2.6 90 05:23 29.11.2019
3565 Clouds 5 1008 100 0 1 0 03:58 29.11.2019
3566 Clouds 5 1008 100 0 1 0 03:58 29.11.2019
3567 Clouds 5 1008 93 0 1.5 110 03:19 29.11.2019
3568 Clouds 5 1008 93 0 1 0 02:28 29.11.2019
3569 Clouds 6 1008 93 0 2.6 70 01:51 29.11.2019
3570 Clouds 6 1008 93 0 1.5 40 01:25 29.11.2019
3571 Rain 6 1008 93 0 1 0 00:42 29.11.2019
3572 Rain 6 1008 93 0 0.5 0 00:20 29.11.2019
3573 Rain 5 1008 93 0 3.23 304 23:44 28.11.2019
3574 Rain 5 1008 93 0 3.23 304 23:44 28.11.2019
3575 Rain 6 1008 93 0 0.5 0 23:21 28.11.2019
3576 Rain 5 1008 93 0 0.5 0 22:58 28.11.2019
3577 Rain 5 1007 93 10000 1.5 0 22:38 28.11.2019
3578 Rain 5 1007 93 10000 1.5 0 22:38 28.11.2019
3579 Rain 5 1008 93 0 1.5 80 22:20 28.11.2019
3580 Rain 5 1008 93 0 1.5 80 21:56 28.11.2019
3581 Rain 5 1008 93 0 0.5 0 21:38 28.11.2019
3582 Rain 6 1007 100 0 1.5 0 21:19 28.11.2019
3583 Rain 5 1007 100 0 1 0 20:54 28.11.2019
3584 Rain 6 1007 100 0 1 0 20:36 28.11.2019
3585 Rain 6 1007 93 0 1.5 150 20:18 28.11.2019
3586 Rain 6 1006 100 0 1 0 19:41 28.11.2019
3587 Rain 6 1006 100 0 0.5 0 19:22 28.11.2019
3588 Rain 6 1006 100 0 0.5 0 18:59 28.11.2019
3589 Rain 6 1006 93 0 3.11 306 18:39 28.11.2019
3590 Rain 6 1006 93 0 2.6 80 18:18 28.11.2019
3591 Rain 7 1006 93 0 2.6 80 17:59 28.11.2019
3592 Rain 7 1006 93 0 1 0 17:41 28.11.2019
3593 Clouds 7 1006 87 10000 0.5 0 17:22 28.11.2019
3594 Clouds 7 1006 87 10000 0.5 0 16:57 28.11.2019
3595 Clouds 7 1005 81 10000 1.5 0 16:38 28.11.2019
3596 Clouds 7 1005 81 10000 4.6 260 16:18 28.11.2019
3597 Clouds 8 1005 87 10000 4.1 230 15:42 28.11.2019
3598 Rain 7 1005 93 10000 3.1 260 15:20 28.11.2019
3599 Rain 7 1005 93 10000 3.1 260 14:59 28.11.2019
3600 Rain 7 1005 93 10000 3.6 240 14:41 28.11.2019
3601 Rain 8 1004 93 10000 2.1 240 14:21 28.11.2019
3602 Rain 8 1004 93 10000 2.1 240 13:56 28.11.2019
3603 Drizzle 8 1004 87 10000 1 0 13:38 28.11.2019
3604 Clouds 8 1004 87 0 1 0 13:20 28.11.2019
3605 Clouds 9 1003 76 10000 1 0 12:43 28.11.2019
3606 Clouds 8 1004 93 10000 0.5 0 12:24 28.11.2019
3607 Clouds 8 1004 93 10000 0.5 0 11:58 28.11.2019
3608 Clouds 8 1004 93 10000 0.5 0 11:58 28.11.2019
3609 Rain 7 1004 93 10000 1.5 0 11:39 28.11.2019
3610 Rain 7 1004 100 8000 0.54 279 11:20 28.11.2019
3611 Rain 7 1004 100 8000 0.54 279 10:56 28.11.2019
3612 Rain 7 1004 93 8000 0.54 279 10:38 28.11.2019
3613 Rain 7 1004 93 10000 1 0 10:18 28.11.2019
3614 Rain 6 1003 93 10000 0.54 279 09:41 28.11.2019
3615 Clouds 6 1003 93 10000 1.5 0 09:22 28.11.2019
3616 Clouds 6 1003 93 10000 1.5 0 08:57 28.11.2019
3617 Clouds 6 1003 93 10000 3.1 70 08:38 28.11.2019
3618 Rain 6 1003 100 10000 2.6 70 08:19 28.11.2019
3619 Rain 6 1003 93 10000 2.6 90 07:42 28.11.2019
3620 Rain 6 1003 93 8000 1.09 311 07:24 28.11.2019
3621 Rain 6 1003 93 8000 1.09 311 07:23 28.11.2019
3622 Rain 6 1003 93 8000 1.09 311 07:23 28.11.2019
3623 Clouds 6 1003 93 10000 1 0 06:44 28.11.2019
3624 Rain 6 1003 100 0 1.5 90 06:23 28.11.2019
3625 Rain 5 1003 100 0 0.5 0 05:49 28.11.2019
3626 Drizzle 5 1003 100 0 1 0 05:18 28.11.2019
3627 Clouds 5 1002 93 0 0.5 0 02:37 28.11.2019
3628 Clouds 5 1002 93 0 0.5 0 01:47 28.11.2019
3629 Clouds 5 1002 93 0 1 0 00:47 28.11.2019
3630 Clouds 5 1002 93 10000 1.5 0 00:22 28.11.2019
3631 Clouds 5 1003 100 0 2.37 307 23:55 27.11.2019
3632 Clouds 5 1003 100 0 2.37 307 23:37 27.11.2019
3633 Clouds 6 1003 100 0 0.5 0 23:19 27.11.2019
3634 Clouds 6 1003 93 0 1 0 22:39 27.11.2019
3635 Clouds 6 1002 93 10000 2.6 250 22:20 27.11.2019
3636 Clouds 6 1002 93 10000 2.6 250 21:56 27.11.2019
3637 Clouds 5 1002 93 0 1.5 0 21:38 27.11.2019
3638 Clouds 6 1002 100 0 3.6 100 21:19 27.11.2019
3639 Clouds 5 1002 100 0 3.6 100 20:59 27.11.2019
3640 Mist 6 1003 100 0 1 0 20:39 27.11.2019
3641 Clouds 7 1002 87 10000 0.5 0 20:21 27.11.2019
3642 Clouds 7 1002 87 10000 0.5 0 19:58 27.11.2019
3643 Clouds 7 1002 93 0 1 0 19:39 27.11.2019
3644 Clouds 7 1002 93 0 2.1 60 19:21 27.11.2019
3645 Clouds 7 1002 93 0 2.1 60 18:59 27.11.2019
3646 Clouds 7 1002 100 0 1 0 18:37 27.11.2019
3647 Clouds 7 1002 93 0 1 0 18:19 27.11.2019
3648 Clouds 7 1002 93 0 1 0 17:57 27.11.2019
3649 Clouds 8 1001 93 0 1 0 17:39 27.11.2019
3650 Clouds 8 1001 93 10000 1 0 17:20 27.11.2019
3651 Clouds 8 1001 93 10000 1 0 16:56 27.11.2019
3652 Clouds 8 1001 87 10000 0.5 0 16:38 27.11.2019
3653 Clouds 9 1001 81 10000 0.5 0 16:19 27.11.2019
3654 Clouds 9 1001 81 10000 0.5 0 15:57 27.11.2019
3655 Clouds 9 1001 81 10000 0.5 0 15:57 27.11.2019
3656 Clouds 9 1001 81 10000 1 0 15:38 27.11.2019
3657 Clouds 9 1001 93 10000 1 0 15:20 27.11.2019
3658 Clouds 10 1001 76 10000 2.1 250 14:56 27.11.2019
3659 Clouds 10 1001 76 10000 2.1 250 14:38 27.11.2019
3660 Clouds 10 1001 76 10000 0.5 0 14:20 27.11.2019
3661 Clouds 9 1001 87 10000 1.65 190 13:55 27.11.2019
3662 Clouds 9 1001 87 10000 1.65 190 13:37 27.11.2019
3663 Clouds 9 1001 87 0 3.6 250 13:18 27.11.2019
3664 Clouds 9 1001 87 0 3.6 250 13:18 27.11.2019
3665 Clouds 10 1001 87 0 2.6 240 12:41 27.11.2019
3666 Clouds 9 1001 87 10000 1.5 240 12:22 27.11.2019
3667 Clouds 9 1001 87 10000 1.5 240 12:22 27.11.2019
3668 Clouds 9 1002 87 10000 2.1 110 11:57 27.11.2019
3669 Clouds 9 1002 87 10000 2.1 110 11:57 27.11.2019
3670 Clouds 8 1002 87 10000 2.1 110 11:37 27.11.2019
3671 Rain 7 1003 100 10000 1.5 50 11:18 27.11.2019
3672 Rain 7 1003 100 6000 2.1 90 10:46 27.11.2019
3673 Rain 7 1004 93 7000 1 0 10:24 27.11.2019
3674 Rain 7 1004 93 4000 3.6 220 09:58 27.11.2019
3675 Rain 7 1004 93 4000 3.6 220 09:40 27.11.2019
3676 Rain 7 1003 93 6000 0.5 0 09:22 27.11.2019
3677 Rain 7 1003 87 10000 3.6 240 08:43 27.11.2019
3678 Rain 6 1001 87 10000 1 0 08:23 27.11.2019
3679 Drizzle 6 1001 87 10000 3.6 260 07:57 27.11.2019
3680 Drizzle 6 1001 87 10000 3.6 260 07:39 27.11.2019
3681 Clouds 6 1001 87 10000 6.2 250 07:20 27.11.2019
3682 Clouds 6 1000 87 0 4.6 250 06:40 27.11.2019
3683 Clouds 6 1000 87 0 6.2 260 06:20 27.11.2019
3684 Clouds 5 998 93 0 3.6 240 05:26 27.11.2019
3685 Clouds 5 998 100 0 4.1 250 04:56 27.11.2019
3686 Clouds 5 998 100 0 4.1 250 04:36 27.11.2019
3687 Clouds 6 1000 100 0 1.5 280 03:48 27.11.2019
3688 Clouds 5 1000 93 0 1 0 03:21 27.11.2019
3689 Clouds 6 1001 100 0 2.6 230 02:48 27.11.2019
3690 Clouds 5 1001 93 0 1 0 01:26 27.11.2019
3691 Clouds 5 1002 93 0 2.1 100 00:42 27.11.2019
3692 Clouds 5 1002 93 0 1 0 00:23 27.11.2019
3693 Clouds 5 1003 100 0 3.1 90 23:42 26.11.2019
3694 Clouds 5 1004 93 0 2.63 188 23:24 26.11.2019
3695 Clouds 5 1004 93 0 1 0 22:55 26.11.2019
3696 Clouds 5 1004 93 0 1 0 22:37 26.11.2019
3697 Clouds 4 1004 100 0 1 0 22:18 26.11.2019
3698 Clouds 5 1005 100 0 2.1 80 21:39 26.11.2019
3699 Clouds 5 1006 100 0 1 0 21:21 26.11.2019
3700 Mist 5 1006 100 0 1.5 70 20:58 26.11.2019
3701 Clouds 5 1006 100 0 1 0 20:58 26.11.2019
3702 Mist 5 1006 100 0 1.5 70 20:39 26.11.2019
3703 Clouds 5 1006 100 0 1.27 200 20:19 26.11.2019
3704 Clouds 5 1006 100 0 0.5 0 19:56 26.11.2019
3705 Clouds 5 1006 100 0 0.5 0 19:38 26.11.2019
3706 Clouds 5 1007 93 0 2.1 90 19:20 26.11.2019
3707 Clouds 5 1007 93 0 1.27 200 18:59 26.11.2019
3708 Clouds 6 1007 93 0 1.27 200 18:40 26.11.2019
3709 Clouds 6 1007 86 0 0.5 0 18:21 26.11.2019
3710 Clouds 6 1007 93 0 1 0 17:59 26.11.2019
3711 Clouds 6 1007 93 0 1 0 17:41 26.11.2019
3712 Clouds 7 1007 93 5000 1 0 17:22 26.11.2019
3713 Clouds 7 1007 93 10000 1 0 16:57 26.11.2019
3714 Clouds 7 1007 93 10000 1 0 16:38 26.11.2019
3715 Clouds 8 1008 87 10000 1 0 16:19 26.11.2019
3716 Clouds 9 1008 87 10000 1 0 15:59 26.11.2019
3717 Clouds 9 1008 87 9000 1 60 15:38 26.11.2019
3718 Clouds 10 1008 87 10000 1.5 90 15:20 26.11.2019
3719 Clouds 10 1008 87 10000 1.5 90 14:58 26.11.2019
3720 Clouds 10 1008 87 10000 0.5 0 14:40 26.11.2019
3721 Clouds 9 1008 100 10000 1.81 204 14:22 26.11.2019
3722 Clouds 9 1008 93 8000 1 0 13:41 26.11.2019
3723 Clouds 9 1009 100 0 1 0 13:23 26.11.2019
3724 Clouds 9 1009 100 0 1 0 13:23 26.11.2019
3725 Clouds 8 1009 100 0 2.1 260 12:40 26.11.2019
3726 Clouds 8 1009 87 8000 2.1 250 12:22 26.11.2019
3727 Fog 7 1010 100 500 1.69 210 11:59 26.11.2019
3728 Fog 7 1010 100 500 1.69 210 11:40 26.11.2019
3729 Clouds 7 1010 87 8000 0.5 0 11:20 26.11.2019
3730 Clouds 6 1010 93 8000 1 0 10:59 26.11.2019
3731 Clouds 6 1010 93 8000 1 0 10:41 26.11.2019
3732 Clouds 5 1010 100 7000 1 230 10:21 26.11.2019
3733 Clouds 5 1010 100 7000 1 230 09:58 26.11.2019
3734 Mist 5 1011 93 6000 2.6 220 09:40 26.11.2019
3735 Fog 5 1011 100 250 0.65 313 09:21 26.11.2019
3736 Fog 4 1011 100 250 0.65 313 08:46 26.11.2019
3737 Fog 5 1011 100 300 0.54 338 08:26 26.11.2019
3738 Fog 4 1011 100 650 1.5 90 07:57 26.11.2019
3739 Fog 4 1011 100 650 1.5 90 07:36 26.11.2019
3740 Fog 4 1011 93 600 1.71 344 07:18 26.11.2019
3741 Fog 4 1011 93 0 0.5 0 06:41 26.11.2019
3742 Mist 5 1011 100 0 1 0 05:58 26.11.2019
3743 Mist 5 1011 100 0 2.07 346 04:57 26.11.2019
3744 Clouds 5 1011 100 0 1.5 290 02:53 26.11.2019
3745 Rain 6 1011 93 0 2.6 120 01:36 26.11.2019
3746 Rain 6 1011 100 0 2.01 341 01:18 26.11.2019
3747 Rain 6 1012 93 0 2.1 110 00:40 26.11.2019
3748 Rain 6 1012 100 0 2.6 90 23:56 25.11.2019
3749 Rain 6 1012 100 0 2.6 90 23:37 25.11.2019
3750 Rain 6 1012 100 0 1.5 90 23:18 25.11.2019
3751 Rain 6 1012 100 0 0.5 0 22:39 25.11.2019
3752 Rain 6 1011 93 0 2.16 334 22:19 25.11.2019
3753 Rain 6 1011 93 0 2.16 334 21:59 25.11.2019
3754 Rain 6 1011 93 0 2.16 334 21:59 25.11.2019
3755 Clouds 6 1011 93 0 2.16 334 21:41 25.11.2019
3756 Drizzle 6 1011 93 0 1.5 90 21:22 25.11.2019
3757 Drizzle 6 1011 93 0 1.5 90 20:58 25.11.2019
3758 Rain 6 1011 87 0 1 0 20:40 25.11.2019
3759 Clouds 6 1011 93 0 1 0 20:20 25.11.2019
3760 Clouds 6 1011 87 0 1.5 110 19:57 25.11.2019
3761 Clouds 6 1011 87 0 1.5 110 19:38 25.11.2019
3762 Clouds 6 1011 87 0 2.1 90 19:20 25.11.2019
3763 Clouds 6 1011 86 0 2.1 100 18:58 25.11.2019
3764 Clouds 6 1011 86 0 2.1 100 18:58 25.11.2019
3765 Clouds 6 1011 86 0 2.1 100 18:40 25.11.2019
3766 Clouds 6 1011 87 7000 1 0 18:22 25.11.2019
3767 Clouds 7 1010 93 0 2.71 333 17:58 25.11.2019
3768 Clouds 7 1010 93 0 2.71 333 17:40 25.11.2019
3769 Clouds 7 1010 93 0 2.71 333 17:40 25.11.2019
3770 Clouds 6 1010 93 0 1 0 17:21 25.11.2019
3771 Clouds 7 1010 93 10000 1.5 130 16:59 25.11.2019
3772 Clouds 7 1010 93 10000 1.5 130 16:40 25.11.2019
3773 Clouds 7 1010 86 10000 1.5 90 16:22 25.11.2019
3774 Clouds 7 1010 86 10000 1.5 90 15:56 25.11.2019
3775 Clouds 7 1010 87 10000 2.11 291 15:37 25.11.2019
3776 Clouds 7 1010 81 6000 1.5 0 15:19 25.11.2019
3777 Clouds 7 1009 87 10000 2.1 280 14:43 25.11.2019
3778 Clouds 8 1009 87 10000 2.1 240 14:25 25.11.2019
3779 Clouds 8 1009 93 10000 0.5 0 13:57 25.11.2019
3780 Clouds 8 1009 93 10000 0.5 0 13:38 25.11.2019
3781 Clouds 8 1009 93 10000 0.5 0 13:38 25.11.2019
3782 Clouds 8 1009 93 0 0.5 0 13:20 25.11.2019
3783 Clouds 7 1009 93 0 0.5 0 12:58 25.11.2019
3784 Clouds 9 1009 87 0 0.5 0 12:39 25.11.2019
3785 Clouds 8 1009 87 10000 1 120 12:19 25.11.2019
3786 Clouds 8 1010 81 7000 1.5 0 11:40 25.11.2019
3787 Clouds 7 1010 81 8000 1 0 11:21 25.11.2019
3788 Clouds 6 1010 93 10000 1 0 10:59 25.11.2019
3789 Clouds 6 1010 93 10000 1 0 10:41 25.11.2019
3790 Clouds 6 1009 93 10000 1.5 80 10:20 25.11.2019
3791 Clouds 6 1009 93 10000 0.5 0 09:44 25.11.2019
3792 Clouds 6 1009 93 10000 1 0 09:26 25.11.2019
3793 Clouds 5 1009 93 10000 1 0 08:58 25.11.2019
3794 Clouds 5 1009 93 10000 2.1 70 08:38 25.11.2019
3795 Clouds 5 1009 93 10000 2.1 120 08:19 25.11.2019
3796 Clouds 4 1009 93 10000 2.6 110 07:40 25.11.2019
3797 Clouds 4 1009 100 10000 2.1 100 07:18 25.11.2019
3798 Clouds 4 1009 93 0 1 70 06:39 25.11.2019
3799 Clouds 4 1009 93 0 1.9 199 06:19 25.11.2019
3800 Clouds 4 1009 93 0 0.5 0 05:33 25.11.2019
3801 Clouds 4 1009 86 10000 0.5 0 04:50 25.11.2019
3802 Clouds 4 1008 100 0 1 0 02:48 25.11.2019
3803 Clouds 4 1008 93 0 1 0 01:57 25.11.2019
3804 Clouds 4 1009 93 0 4.1 110 01:38 25.11.2019
3805 Clouds 4 1009 93 10000 1.5 0 01:19 25.11.2019
3806 Clouds 4 1009 93 0 1.5 90 00:21 25.11.2019
3807 Clouds 5 1009 93 0 1.5 130 23:45 24.11.2019
3808 Clouds 4 1009 93 0 1 0 23:21 24.11.2019
3809 Clouds 5 1009 93 0 2.48 220 22:59 24.11.2019
3810 Clouds 5 1009 93 0 2.48 220 22:59 24.11.2019
3811 Clouds 5 1009 93 0 2.48 220 22:40 24.11.2019
3812 Clouds 5 1008 93 0 2.48 220 22:20 24.11.2019
3813 Clouds 5 1008 93 0 2.48 220 21:58 24.11.2019
3814 Clouds 5 1009 87 10000 1 0 21:40 24.11.2019
3815 Clouds 5 1009 86 10000 1 0 21:21 24.11.2019
3816 Clouds 5 1009 86 10000 1 0 20:58 24.11.2019
3817 Clouds 5 1008 87 0 0.5 0 20:38 24.11.2019
3818 Clouds 6 1008 87 0 0.5 0 20:19 24.11.2019
3819 Clouds 6 1009 93 10000 1.5 240 19:56 24.11.2019
3820 Clouds 6 1009 93 10000 1.5 240 19:56 24.11.2019
3821 Clouds 6 1009 93 10000 1.5 240 19:38 24.11.2019
3822 Clouds 6 1008 93 0 1.53 185 19:20 24.11.2019
3823 Clouds 7 1009 87 10000 1 260 18:58 24.11.2019
3824 Clouds 7 1009 87 10000 1 260 18:37 24.11.2019
3825 Clouds 7 1008 87 0 1.53 185 18:19 24.11.2019
3826 Clouds 7 1008 81 0 1.53 185 17:56 24.11.2019
3827 Clouds 7 1008 81 0 1.53 185 17:37 24.11.2019
3828 Clouds 7 1008 81 0 1 0 17:19 24.11.2019
3829 Clouds 8 1008 76 10000 1 90 16:57 24.11.2019
3830 Clouds 8 1008 76 10000 1 90 16:38 24.11.2019
3831 Clouds 8 1007 81 0 2.1 110 16:19 24.11.2019
3832 Clouds 9 1007 71 0 0.5 0 15:43 24.11.2019
3833 Clouds 9 1007 76 10000 1.5 70 15:25 24.11.2019
3834 Clouds 9 1007 76 10000 1.5 70 14:58 24.11.2019
3835 Clouds 9 1007 76 0 1.5 270 14:38 24.11.2019
3836 Clouds 9 1006 76 0 3.1 260 14:18 24.11.2019
3837 Clouds 9 1006 76 0 1.5 280 13:41 24.11.2019
3838 Clouds 9 1006 76 0 2.86 176 13:22 24.11.2019
3839 Clouds 8 1006 76 0 2.86 176 13:00 24.11.2019
3840 Clouds 8 1006 81 0 1 0 12:41 24.11.2019
3841 Clouds 8 1006 81 0 1.5 120 12:19 24.11.2019
3842 Clouds 7 1006 81 0 1.5 110 11:57 24.11.2019
3843 Clouds 7 1006 81 0 1.5 110 11:37 24.11.2019
3844 Clouds 7 1006 81 0 1.5 110 11:37 24.11.2019
3845 Clouds 7 1006 87 0 1 0 11:18 24.11.2019
3846 Clouds 6 1006 93 0 1 0 10:47 24.11.2019
3847 Clouds 6 1006 93 0 1 0 10:29 24.11.2019
3848 Clouds 5 1005 93 0 1.5 290 09:58 24.11.2019
3849 Clouds 5 1005 93 0 1.5 290 09:37 24.11.2019
3850 Clouds 4 1004 93 0 1 0 09:19 24.11.2019
3851 Clouds 4 1004 93 0 0.5 0 08:45 24.11.2019
3852 Clouds 4 1004 86 0 0.5 0 08:22 24.11.2019
3853 Clouds 4 1004 86 0 0.5 0 07:58 24.11.2019
3854 Clouds 4 1004 93 0 1.5 0 07:38 24.11.2019
3855 Clouds 4 1003 93 0 0.5 0 07:19 24.11.2019
3856 Clouds 4 1003 86 0 1.5 280 06:20 24.11.2019
3857 Clouds 4 1003 86 0 1.5 280 06:20 24.11.2019
3858 Clouds 4 1003 86 0 1.5 280 06:20 24.11.2019
3859 Clouds 4 1002 86 0 2.12 193 04:49 24.11.2019
3860 Clouds 5 1002 81 0 1.5 0 03:37 24.11.2019
3861 Clouds 5 1001 81 0 4.1 240 02:26 24.11.2019
3862 Clouds 5 1000 76 0 4.1 260 01:41 24.11.2019
3863 Snow 5 1000 70 10000 2.1 220 01:22 24.11.2019
3864 Clouds 6 1000 66 10000 2.6 70 00:47 24.11.2019
3865 Clouds 7 999 50 0 6.2 60 00:24 24.11.2019
3866 Clouds 7 998 50 0 5.7 70 23:46 23.11.2019
3867 Clouds 8 999 54 10000 5.7 40 23:23 23.11.2019
3868 Clouds 8 999 75 0 1.5 230 22:59 23.11.2019
3869 Clouds 8 998 50 0 5.7 70 22:40 23.11.2019
3870 Clouds 8 998 50 0 6.7 60 22:22 23.11.2019
3871 Clouds 8 998 50 0 6.7 60 22:22 23.11.2019
3872 Clouds 8 998 50 0 6.7 60 21:59 23.11.2019
3873 Clouds 8 998 50 0 7.7 70 21:41 23.11.2019
3874 Clouds 8 998 50 0 7.2 90 21:22 23.11.2019
3875 Clouds 7 998 50 0 7.2 90 20:58 23.11.2019
3876 Clouds 8 997 47 0 7.2 90 20:37 23.11.2019
3877 Clouds 8 997 47 0 7.2 90 20:37 23.11.2019
3878 Clouds 7 997 47 0 8.7 90 20:18 23.11.2019
3879 Clouds 8 997 47 0 9.3 90 19:55 23.11.2019
3880 Clouds 8 997 47 0 9.3 90 19:36 23.11.2019
3881 Clouds 8 997 47 0 9.3 90 19:36 23.11.2019
3882 Clouds 8 996 47 0 9.8 100 19:18 23.11.2019
3883 Clouds 8 996 47 0 11.3 100 18:40 23.11.2019
3884 Clouds 8 996 47 0 10.8 100 18:21 23.11.2019
3885 Clouds 8 995 47 0 11.8 100 17:55 23.11.2019
3886 Clouds 8 995 47 0 11.8 100 17:37 23.11.2019
3887 Clouds 8 995 44 0 11.3 100 17:19 23.11.2019
3888 Clouds 9 994 44 0 11.3 100 16:55 23.11.2019
3889 Clouds 9 994 44 0 11.3 100 16:37 23.11.2019
3890 Clouds 9 994 44 0 9.8 100 16:18 23.11.2019
3891 Clouds 9 994 44 0 9.8 100 15:56 23.11.2019
3892 Snow 9 995 54 10000 5.7 50 15:38 23.11.2019
3893 Clouds 9 994 47 0 11.3 100 15:18 23.11.2019
3894 Clouds 9 994 47 0 12.9 100 14:43 23.11.2019
3895 Clouds 9 993 47 0 13.4 100 14:21 23.11.2019
3896 Clouds 9 993 47 0 13.4 100 13:59 23.11.2019
3897 Clouds 9 993 41 0 13.4 100 13:40 23.11.2019
3898 Snow 8 993 41 10000 3.1 40 13:19 23.11.2019
3899 Snow 8 993 47 10000 4.1 20 12:44 23.11.2019
3900 Clouds 8 992 41 0 15.4 100 12:24 23.11.2019
3901 Clouds 7 992 41 0 16.5 110 11:56 23.11.2019
3902 Clouds 7 992 41 0 16.5 110 11:38 23.11.2019
3903 Clouds 7 992 38 0 17 100 11:18 23.11.2019
3904 Clouds 6 992 38 0 18 90 10:43 23.11.2019
3905 Snow 5 993 44 10000 2.6 0 10:20 23.11.2019
3906 Snow 4 992 50 10000 2.1 0 09:41 23.11.2019
3907 Snow 4 992 61 10000 3.1 0 09:19 23.11.2019
3908 Snow 4 993 61 10000 2.6 0 08:41 23.11.2019
3909 Snow 4 993 65 10000 2.6 240 08:19 23.11.2019
3910 Snow 4 993 50 10000 3.6 0 07:44 23.11.2019
3911 Snow 3 993 70 10000 3.1 0 07:26 23.11.2019
3912 Snow 4 994 61 10000 2.1 0 06:42 23.11.2019
3913 Snow 4 994 65 10000 2.6 0 06:19 23.11.2019
3914 Snow 4 995 65 10000 2.1 270 05:45 23.11.2019
3915 Snow 4 995 70 10000 2.6 0 05:27 23.11.2019
3916 Snow 4 996 70 10000 2.6 0 04:40 23.11.2019
3917 Snow 4 996 75 10000 2.6 230 04:21 23.11.2019
3918 Snow 3 997 80 10000 2.1 230 02:39 23.11.2019
3919 Clouds 3 997 80 10000 2.6 0 01:42 23.11.2019
3920 Clouds 3 998 86 8000 2.6 230 00:54 23.11.2019
3921 Clouds 3 998 86 8000 2.6 230 00:54 23.11.2019
3922 Clouds 3 998 86 8000 2.6 230 00:36 23.11.2019
3923 Snow 3 999 86 8000 2.1 210 00:18 23.11.2019
3924 Snow 3 999 86 8000 2.1 210 00:18 23.11.2019
3925 Snow 3 999 86 6000 1.5 230 23:38 22.11.2019
3926 Snow 3 1000 86 7000 3.6 260 23:20 22.11.2019
3927 Snow 3 1000 86 6000 2.1 220 22:57 22.11.2019
3928 Snow 3 1000 86 6000 2.1 220 22:38 22.11.2019
3929 Snow 2 1001 93 5000 2.1 240 22:19 22.11.2019
3930 Snow 3 1001 93 5000 2.1 240 21:57 22.11.2019
3931 Snow 2 1001 93 7000 1.5 0 21:38 22.11.2019
3932 Snow 3 1001 93 6000 2.1 250 21:18 22.11.2019
3933 Snow 3 1001 93 6000 2.1 250 20:42 22.11.2019
3934 Snow 3 1002 93 9000 1.5 270 20:22 22.11.2019
3935 Clouds 4 1001 70 0 3.1 0 19:55 22.11.2019
3936 Clouds 4 1001 70 0 3.1 0 19:36 22.11.2019
3937 Clouds 4 1001 86 0 3.1 0 19:18 22.11.2019
3938 Clouds 5 1001 86 0 3.1 0 18:39 22.11.2019
3939 Clouds 4 1001 86 0 4.6 0 18:21 22.11.2019
3940 Clouds 5 1001 75 0 3.1 0 17:43 22.11.2019
3941 Snow 5 1002 86 0 4.6 260 17:24 22.11.2019
3942 Snow 5 1002 86 0 4.6 260 16:59 22.11.2019
3943 Snow 5 1002 86 0 4.6 270 16:40 22.11.2019
3944 Clouds 5 1003 80 0 2.6 290 16:22 22.11.2019
3945 Clouds 5 1004 86 0 3.6 260 15:41 22.11.2019
3946 Clouds 5 1005 81 6000 2.6 200 15:23 22.11.2019
3947 Clouds 5 1005 81 6000 2.6 200 14:56 22.11.2019
3948 Snow 5 1004 80 0 3.6 240 14:37 22.11.2019
3949 Snow 5 1004 80 0 3.6 240 14:37 22.11.2019
3950 Snow 5 1005 93 0 4.1 270 14:19 22.11.2019
3951 Clouds 5 1005 86 0 4.1 250 13:55 22.11.2019
3952 Clouds 5 1005 86 0 4.1 250 13:36 22.11.2019
3953 Clouds 5 1006 81 10000 1.5 0 13:18 22.11.2019
3954 Snow 5 1006 86 0 3.1 240 12:40 22.11.2019
3955 Clouds 5 1007 86 0 3.1 250 12:20 22.11.2019
3956 Clouds 5 1007 86 0 3.1 250 11:59 22.11.2019
3957 Clouds 5 1007 86 0 3.1 240 11:38 22.11.2019
3958 Clouds 4 1008 86 7000 1.5 250 11:20 22.11.2019
3959 Clouds 4 1008 86 7000 1.5 250 10:58 22.11.2019
3960 Clouds 3 1009 86 7000 1.5 230 10:39 22.11.2019
3961 Clouds 3 1009 86 7000 2.1 220 10:21 22.11.2019
3962 Clouds 3 1009 93 7000 1.5 230 09:55 22.11.2019
3963 Clouds 3 1009 93 7000 1.5 230 09:37 22.11.2019
3964 Clouds 3 1009 93 7000 2.6 230 09:18 22.11.2019
3965 Clouds 3 1009 93 7000 3.1 230 08:44 22.11.2019
3966 Clouds 2 1009 100 0 1.5 110 08:24 22.11.2019
3967 Clouds 2 1009 93 0 1.5 100 07:44 22.11.2019
3968 Clouds 2 1009 93 0 1 0 07:22 22.11.2019
3969 Clouds 2 1009 100 0 3.36 164 06:49 22.11.2019
3970 Clouds 2 1009 100 0 3.36 164 06:29 22.11.2019
3971 Clouds 3 1008 93 0 0.5 0 05:45 22.11.2019
3972 Clouds 2 1008 93 0 0.5 0 04:19 22.11.2019
3973 Clouds 2 1008 93 0 2.1 250 02:52 22.11.2019
3974 Clouds 3 1008 93 0 2.1 250 02:29 22.11.2019
3975 Clouds 2 1008 93 0 2.1 260 01:45 22.11.2019
3976 Clouds 2 1008 93 0 1.5 120 01:19 22.11.2019
3977 Clouds 2 1008 93 0 1.5 240 00:50 22.11.2019
3978 Clouds 2 1008 93 0 3.6 260 00:23 22.11.2019
3979 Clouds 2 1009 86 10000 2.6 200 23:46 21.11.2019
3980 Clouds 2 1009 86 10000 2.6 200 23:28 21.11.2019
3981 Clouds 3 1008 93 0 4.6 260 22:58 21.11.2019
3982 Clouds 2 1008 93 0 3.6 250 22:39 21.11.2019
3983 Clouds 3 1008 100 0 2.6 270 22:21 21.11.2019
3984 Clouds 3 1008 100 0 2.6 270 21:56 21.11.2019
3985 Clouds 3 1008 100 0 2.09 178 21:37 21.11.2019
3986 Clouds 2 1008 93 0 3.1 250 21:19 21.11.2019
3987 Clouds 2 1008 93 0 3.1 250 20:58 21.11.2019
3988 Clouds 2 1008 93 0 0.5 0 20:38 21.11.2019
3989 Clouds 2 1009 93 0 2.1 90 20:19 21.11.2019
3990 Clouds 2 1009 93 0 2.1 90 20:19 21.11.2019
3991 Clouds 2 1009 93 0 2.1 90 19:59 21.11.2019
3992 Clouds 2 1009 86 10000 2.6 230 19:39 21.11.2019
3993 Clouds 3 1009 93 0 1.5 260 19:21 21.11.2019
3994 Clouds 3 1009 86 0 1.5 160 18:56 21.11.2019
3995 Clouds 3 1008 93 0 2.6 270 18:37 21.11.2019
3996 Clouds 3 1008 93 0 1 0 18:18 21.11.2019
3997 Clouds 3 1008 93 0 1 0 17:41 21.11.2019
3998 Clouds 3 1008 93 0 1 140 17:22 21.11.2019
3999 Clouds 3 1008 93 0 1 140 16:59 21.11.2019
4000 Clouds 3 1008 93 0 1 0 16:41 21.11.2019
4001 Clouds 3 1008 93 0 1.5 70 16:21 21.11.2019
4002 Clouds 4 1008 93 0 1.5 70 15:56 21.11.2019
4003 Clouds 3 1008 93 0 2.1 100 15:38 21.11.2019
4004 Clouds 4 1008 93 0 2.6 90 15:19 21.11.2019
4005 Clouds 4 1008 93 0 2.6 100 14:42 21.11.2019
4006 Clouds 3 1009 93 0 1.5 80 14:23 21.11.2019
4007 Clouds 4 1009 93 0 1.5 80 13:59 21.11.2019
4008 Clouds 4 1009 93 0 1.5 100 13:38 21.11.2019
4009 Clouds 3 1009 100 0 2.1 80 13:19 21.11.2019
4010 Clouds 4 1009 100 0 2.1 80 12:56 21.11.2019
4011 Clouds 4 1009 86 7000 1.5 240 12:37 21.11.2019
4012 Clouds 4 1010 86 7000 1.5 240 12:19 21.11.2019
4013 Clouds 4 1010 98 0 4.24 158 11:41 21.11.2019
4014 Clouds 3 1010 98 0 1 0 11:21 21.11.2019
4015 Clouds 3 1010 98 0 1 0 10:59 21.11.2019
4016 Clouds 3 1010 98 0 1 0 10:41 21.11.2019
4017 Clouds 3 1010 98 0 1 0 10:20 21.11.2019
4018 Clouds 3 1009 98 0 2.6 110 09:56 21.11.2019
4019 Clouds 2 1009 98 0 2.6 110 09:37 21.11.2019
4020 Clouds 2 1010 98 0 2.1 80 09:19 21.11.2019
4021 Clouds 2 1010 98 0 2.1 110 08:41 21.11.2019
4022 Clouds 2 1010 98 0 1 0 08:20 21.11.2019
4023 Clouds 2 1010 93 10000 2.6 200 07:42 21.11.2019
4024 Clouds 2 1010 98 0 2.1 240 07:18 21.11.2019
4025 Clouds 1 1010 98 0 2.1 240 06:57 21.11.2019
4026 Clouds 1 1010 100 0 2.6 260 06:33 21.11.2019
4027 Clouds 1 1010 100 0 1 0 05:36 21.11.2019
4028 Clouds 2 1010 98 0 2.1 100 03:34 21.11.2019
4029 Clouds 2 1011 98 0 1.5 80 02:42 21.11.2019
4030 Clouds 2 1011 86 10000 3.1 220 01:55 21.11.2019
4031 Clouds 2 1011 86 10000 3.1 220 01:55 21.11.2019
4032 Clouds 1 1011 86 10000 3.1 220 01:37 21.11.2019
4033 Clouds 1 1011 86 10000 2.1 230 00:55 21.11.2019
4034 Snow 1 1011 100 0 0.5 0 00:21 21.11.2019
4035 Snow 1 1011 100 0 0.5 0 23:58 20.11.2019
4036 Mist 1 1011 100 0 2.65 164 23:40 20.11.2019
4037 Snow 1 1011 100 0 2.51 162 23:20 20.11.2019
4038 Snow 1 1011 92 0 0.5 0 22:55 20.11.2019
4039 Snow 1 1011 92 0 0.5 0 22:37 20.11.2019
4040 Clouds 2 1012 86 10000 2.6 220 22:18 20.11.2019
4041 Clouds 1 1011 92 0 1.5 100 21:55 20.11.2019
4042 Clouds 2 1011 92 0 1.5 100 21:37 20.11.2019
4043 Clouds 1 1012 80 10000 2.6 220 21:18 20.11.2019
4044 Mist 1 1012 100 0 2.1 110 20:54 20.11.2019
4045 Mist 1 1012 100 0 2.1 110 20:36 20.11.2019
4046 Mist 2 1012 100 0 1 100 20:18 20.11.2019
4047 Clouds 2 1012 92 0 1.89 181 19:54 20.11.2019
4048 Clouds 2 1012 92 0 1.89 181 19:36 20.11.2019
4049 Clouds 2 1012 80 10000 3.1 250 19:18 20.11.2019
4050 Clouds 2 1012 100 0 2.6 110 18:55 20.11.2019
4051 Clouds 2 1012 100 0 2.6 110 18:36 20.11.2019
4052 Clouds 2 1012 100 0 3.1 100 18:18 20.11.2019
4053 Clouds 3 1012 95 0 2.1 100 17:55 20.11.2019
4054 Clouds 3 1012 95 0 2.1 100 17:36 20.11.2019
4055 Clouds 4 1012 94 0 2.1 100 17:18 20.11.2019
4056 Clouds 4 1012 94 0 2.6 100 16:41 20.11.2019
4057 Clouds 4 1013 75 10000 1 0 16:20 20.11.2019
4058 Clouds 4 1013 75 10000 1 0 15:57 20.11.2019
4059 Clouds 4 1012 94 0 1.64 178 15:39 20.11.2019
4060 Clouds 4 1013 75 10000 0.5 0 15:19 20.11.2019
4061 Clouds 4 1013 75 10000 0.5 0 14:56 20.11.2019
4062 Clouds 4 1013 75 10000 1 0 14:37 20.11.2019
4063 Clouds 4 1013 99 0 1 0 14:18 20.11.2019
4064 Clouds 4 1013 80 0 2.07 176 13:55 20.11.2019
4065 Clouds 4 1013 80 0 2.07 176 13:55 20.11.2019
4066 Clouds 4 1013 80 0 2.07 176 13:36 20.11.2019
4067 Clouds 4 1013 80 0 0.5 0 13:18 20.11.2019
4068 Clouds 5 1013 80 0 1.5 260 12:40 20.11.2019
4069 Clouds 5 1014 74 0 0.5 0 12:22 20.11.2019
4070 Clouds 6 1014 80 0 1.75 191 11:47 20.11.2019
4071 Clouds 4 1014 80 0 1.75 191 11:23 20.11.2019
4072 Clouds 3 1014 80 0 2.26 182 10:59 20.11.2019
4073 Clouds 3 1014 98 10000 1 90 10:39 20.11.2019
4074 Clouds 3 1014 80 0 2.26 182 10:20 20.11.2019
4075 Clouds 3 1014 80 0 2.26 182 09:59 20.11.2019
4076 Clouds 3 1014 80 10000 1.5 110 09:41 20.11.2019
4077 Clouds 4 1014 86 10000 1 0 09:20 20.11.2019
4078 Clouds 4 1014 86 0 1 0 08:46 20.11.2019
4079 Clouds 3 1014 86 0 1 0 08:28 20.11.2019
4080 Clouds 3 1014 99 0 1 0 07:56 20.11.2019
4081 Clouds 3 1014 99 0 1 0 07:36 20.11.2019
4082 Clouds 3 1014 99 0 1.82 190 07:18 20.11.2019
4083 Clouds 3 1014 99 0 1.82 190 06:43 20.11.2019
4084 Clouds 3 1015 99 0 1.5 90 06:18 20.11.2019
4085 Clouds 2 1015 99 0 2.31 185 04:43 20.11.2019
4086 Clouds 3 1016 99 0 1 0 02:29 20.11.2019
4087 Clouds 3 1016 80 10000 1 0 01:38 20.11.2019
4088 Clouds 3 1016 99 0 2.1 100 00:50 20.11.2019
4089 Clouds 3 1016 99 0 1.5 100 00:21 20.11.2019
4090 Clouds 3 1017 80 10000 1 0 23:41 19.11.2019
4091 Clouds 3 1017 80 10000 1 0 23:41 19.11.2019
4092 Clouds 3 1017 86 10000 1.5 220 23:22 19.11.2019
4093 Clouds 3 1017 98 0 1.5 120 22:56 19.11.2019
4094 Clouds 3 1017 98 0 1.5 120 22:37 19.11.2019
4095 Clouds 3 1017 98 0 1.5 110 22:18 19.11.2019
4096 Clouds 3 1016 98 0 1.5 90 21:54 19.11.2019
4097 Clouds 3 1016 98 0 1.5 90 21:36 19.11.2019
4098 Clouds 3 1017 80 10000 1 0 21:18 19.11.2019
4099 Clouds 3 1016 93 0 2.6 90 20:54 19.11.2019
4100 Clouds 3 1016 93 0 2.6 90 20:36 19.11.2019
4101 Clouds 3 1016 99 0 2.6 110 20:18 19.11.2019
4102 Clouds 3 1016 99 0 3.1 100 19:41 19.11.2019
4103 Clouds 3 1017 80 10000 1.5 0 19:20 19.11.2019
4104 Clouds 3 1017 80 10000 1.5 0 19:20 19.11.2019
4105 Clouds 3 1017 80 10000 1.5 0 18:58 19.11.2019
4106 Clouds 3 1017 80 10000 1.5 0 18:58 19.11.2019
4107 Clouds 3 1016 69 0 4.6 30 18:39 19.11.2019
4108 Clouds 3 1016 99 0 4.6 50 18:20 19.11.2019
4109 Clouds 3 1016 99 0 4.6 50 17:57 19.11.2019
4110 Clouds 3 1015 99 0 5.1 30 17:38 19.11.2019
4111 Clouds 3 1015 98 0 5.7 40 17:19 19.11.2019
4112 Clouds 4 1015 98 0 5.7 40 16:57 19.11.2019
4113 Snow 4 1015 98 0 5.1 60 16:38 19.11.2019
4114 Clouds 4 1016 98 0 2.6 110 16:18 19.11.2019
4115 Clouds 4 1016 98 0 4.1 60 15:44 19.11.2019
4116 -273 0 0 0 0 0 15:25 19.11.2019
4117 Clouds 4 1016 98 0 3.1 70 14:57 19.11.2019
4118 Clouds 4 1016 75 10000 2.1 210 14:39 19.11.2019
4119 Clouds 4 1015 100 0 6.2 20 14:20 19.11.2019
4120 Clouds 4 1015 100 0 5.7 40 13:42 19.11.2019
4121 Clouds 4 1015 100 0 5.7 40 13:42 19.11.2019
4122 Clouds 4 1015 99 0 6.2 60 13:20 19.11.2019
4123 Clouds 4 1016 80 10000 2.6 330 12:42 19.11.2019
4124 Clouds 3 1016 80 10000 0.5 0 12:23 19.11.2019
4125 Clouds 3 1016 80 10000 0.5 0 11:59 19.11.2019
4126 Clouds 3 1016 99 0 2.1 130 11:39 19.11.2019
4127 Clouds 3 1016 86 0 2.76 181 11:20 19.11.2019
4128 Clouds 2 1016 86 0 2.76 181 10:58 19.11.2019
4129 Clouds 2 1017 86 8000 1.5 230 10:40 19.11.2019
4130 Clouds 2 1016 98 0 2.1 100 10:20 19.11.2019
4131 Clouds 2 1016 98 0 2.1 100 10:20 19.11.2019
4132 Clouds 2 1016 86 10000 1 0 09:42 19.11.2019
4133 Clouds 2 1016 98 10000 1 0 09:20 19.11.2019
4134 Clouds 2 1016 98 10000 1 0 08:56 19.11.2019
4135 Clouds 2 1015 100 0 1 0 08:38 19.11.2019
4136 Clouds 1 1015 100 0 1 0 08:20 19.11.2019
4137 Clouds 1 1016 86 10000 1 0 07:42 19.11.2019
4138 Mist 1 1015 100 0 1 0 07:23 19.11.2019
4139 -273 0 0 0 0 0 06:54 19.11.2019
4140 Clouds 0 1016 97 10000 1.5 0 06:35 19.11.2019
4141 Clouds 1 1015 100 0 2.17 184 05:49 19.11.2019
4142 Clouds 0 1015 100 0 0.5 0 04:46 19.11.2019
4143 Clouds 0 1015 100 0 2.1 110 03:35 19.11.2019
4144 Mist 1 1015 100 0 3.1 110 02:59 19.11.2019
4145 Fog 0 1015 100 0 1.5 120 02:33 19.11.2019
4146 Fog 0 1015 100 0 1 0 01:46 19.11.2019
4147 Clouds 0 1016 86 10000 2.1 260 00:37 19.11.2019
4148 Fog 0 1015 92 0 0.5 0 00:18 19.11.2019
4149 Fog 1 1016 100 0 1.5 100 23:37 18.11.2019
4150 Mist 1 1016 100 0 0.5 0 23:19 18.11.2019
4151 Clouds 1 1016 100 0 0.5 0 22:46 18.11.2019
4152 Clouds 1 1015 100 0 2.6 90 22:24 18.11.2019
4153 Clouds 1 1015 100 0 2.6 90 21:57 18.11.2019
4154 Clouds 0 1016 86 10000 1.5 0 21:38 18.11.2019
4155 Clouds 1 1015 86 10000 2.1 260 21:20 18.11.2019
4156 Clouds 1 1015 86 10000 2.1 260 20:57 18.11.2019
4157 Clouds 1 1015 86 10000 2.1 270 20:39 18.11.2019
4158 Fog 1 1015 92 0 1 90 20:18 18.11.2019
4159 Fog 1 1015 92 0 1 90 19:56 18.11.2019
4160 Snow 2 1014 80 10000 1.5 220 19:37 18.11.2019
4161 Mist 2 1014 98 0 0.5 0 19:19 18.11.2019
4162 Clouds 2 1014 92 0 1.5 90 18:55 18.11.2019
4163 Clouds 2 1014 92 0 1.5 90 18:37 18.11.2019
4164 Clouds 2 1013 100 0 2.1 90 18:19 18.11.2019
4165 Clouds 3 1013 98 0 0.5 0 17:40 18.11.2019
4166 Clouds 4 1013 100 0 1.5 140 17:21 18.11.2019
4167 Clouds 4 1013 100 0 1.5 140 16:58 18.11.2019
4168 Clouds 4 1013 75 10000 2.1 240 16:40 18.11.2019
4169 Clouds 4 1012 97 7000 1 0 16:22 18.11.2019
4170 Clouds 4 1012 97 7000 1 0 15:56 18.11.2019
4171 Clouds 5 1012 70 10000 0.5 0 15:38 18.11.2019
4172 Fog 5 1012 97 6000 0.5 110 15:19 18.11.2019
4173 Clouds 4 1012 97 10000 1.5 100 14:43 18.11.2019
4174 Clouds 5 1011 70 10000 1 0 14:24 18.11.2019
4175 Clouds 5 1011 70 10000 1 0 13:57 18.11.2019
4176 Clouds 5 1012 93 10000 2.6 80 13:39 18.11.2019
4177 Clouds 6 1011 75 10000 0.5 0 13:21 18.11.2019
4178 Clouds 5 1011 75 10000 1.5 200 12:39 18.11.2019
4179 Clouds 4 1011 75 10000 1 0 12:20 18.11.2019
4180 Clouds 4 1011 75 10000 2.1 0 11:54 18.11.2019
4181 Clouds 4 1011 75 10000 2.1 0 11:36 18.11.2019
4182 Fog 4 1011 100 200 1 110 11:18 18.11.2019
4183 Clouds 4 1011 80 10000 1.5 200 10:42 18.11.2019
4184 Clouds 4 1011 80 10000 1.5 200 10:42 18.11.2019
4185 Fog 3 1011 92 300 1 0 10:23 18.11.2019
4186 Fog 3 1011 92 300 1 0 09:56 18.11.2019
4187 Clouds 2 1010 86 10000 1.5 260 09:38 18.11.2019
4188 Clouds 2 1010 95 10000 2.53 166 09:19 18.11.2019
4189 Rain 1 1010 95 10000 1.5 120 08:45 18.11.2019
4190 Drizzle 1 1010 97 10000 1 0 08:22 18.11.2019
4191 Drizzle 1 1010 97 10000 1 120 07:49 18.11.2019
4192 Drizzle 1 1010 97 10000 1 120 07:30 18.11.2019
4193 Clouds 1 1009 97 10000 1.5 290 06:57 18.11.2019
4194 Snow 1 1009 97 0 1.5 90 06:39 18.11.2019
4195 Rain 1 1008 97 0 1.5 110 06:20 18.11.2019
4196 Clouds 1 1007 100 0 2.4 194 05:25 18.11.2019
4197 Clouds 1 1006 98 10000 2.1 270 03:30 18.11.2019
4198 Rain 1 1006 100 0 2.1 70 01:37 18.11.2019
4199 Clouds 1 1006 99 0 1 0 00:46 18.11.2019
4200 Clouds 0 1006 99 0 2.1 90 23:59 17.11.2019
4201 Fog 1 1006 100 0 1.5 100 23:40 17.11.2019
4202 Fog 1 1006 92 0 1.5 110 23:21 17.11.2019
4203 Fog 1 1005 99 0 2.37 158 22:56 17.11.2019
4204 Fog 1 1005 99 0 2.37 158 22:38 17.11.2019
4205 Fog 1 1005 99 0 2.37 158 22:38 17.11.2019
4206 Fog 0 1005 99 0 2.37 158 22:19 17.11.2019
4207 Fog 1 1005 99 0 2.37 158 21:42 17.11.2019
4208 Mist 1 1005 99 0 2.37 158 21:20 17.11.2019
4209 Mist 1 1005 99 0 2.37 158 20:58 17.11.2019
4210 Mist 1 1005 99 0 2.37 158 20:39 17.11.2019
4211 Mist 1 1005 97 0 2.56 159 20:20 17.11.2019
4212 Mist 1 1005 97 0 2.56 159 19:57 17.11.2019
4213 Mist 1 1005 97 0 2.56 159 19:38 17.11.2019
4214 Mist 1 1005 97 0 2.56 159 19:20 17.11.2019
4215 Mist 1 1005 97 0 2.56 159 18:56 17.11.2019
4216 Mist 1 1005 97 0 2.56 159 18:56 17.11.2019
4217 Mist 1 1005 97 0 2.56 159 18:56 17.11.2019
4218 Snow 1 1005 97 0 2.56 159 18:38 17.11.2019
4219 Snow 1 1004 97 0 2.56 159 18:19 17.11.2019
4220 Snow 1 1004 97 0 2.56 159 17:58 17.11.2019
4221 Snow 1 1004 97 10000 1 230 17:39 17.11.2019
4222 Snow 2 1004 96 10000 1 0 17:20 17.11.2019
4223 Snow 2 1004 96 10000 1 0 16:59 17.11.2019
4224 Snow 2 1003 96 0 0.63 325 16:40 17.11.2019
4225 Snow 2 1003 96 0 0.63 325 16:21 17.11.2019
4226 Snow 1 1003 96 0 0.63 325 15:56 17.11.2019
4227 Snow 1 1003 96 0 0.63 325 15:38 17.11.2019
4228 Snow 1 1003 93 10000 3.1 220 15:18 17.11.2019
4229 Snow 1 1003 93 10000 3.1 220 14:56 17.11.2019
4230 Snow 1 1003 96 0 0.63 325 14:37 17.11.2019
4231 Snow 2 1003 95 0 2.74 327 14:19 17.11.2019
4232 Snow 2 1003 95 0 2.74 327 14:19 17.11.2019
4233 Snow 2 1003 95 0 2.74 327 13:56 17.11.2019
4234 Snow 2 1003 95 0 2.74 327 13:56 17.11.2019
4235 Drizzle 2 1003 93 9000 1.5 0 13:38 17.11.2019
4236 Snow 1 1003 94 0 2.52 300 13:19 17.11.2019
4237 Clouds 2 1004 93 10000 2.1 200 12:44 17.11.2019
4238 Clouds 2 1004 93 10000 1 0 12:22 17.11.2019
4239 Clouds 2 1004 93 10000 1 0 11:57 17.11.2019
4240 Snow 2 1003 94 0 2.1 250 11:39 17.11.2019
4241 Snow 2 1004 96 0 2.1 250 11:20 17.11.2019
4242 Rain 2 1003 93 0 1 0 10:44 17.11.2019
4243 Rain 2 1004 93 0 1 110 10:23 17.11.2019
4244 Rain 2 1004 93 0 1 110 09:57 17.11.2019
4245 Rain 2 1004 100 0 1 80 09:39 17.11.2019
4246 Rain 3 1005 86 9000 2.1 260 09:21 17.11.2019
4247 Rain 2 1004 93 0 2.6 110 08:40 17.11.2019
4248 Rain 2 1005 86 0 2.1 0 08:20 17.11.2019
4249 Rain 2 1006 93 8000 2.1 220 07:48 17.11.2019
4250 Rain 2 1006 93 8000 2.1 220 07:28 17.11.2019
4251 Rain 2 1006 93 0 2.1 0 06:59 17.11.2019
4252 Drizzle 2 1006 86 0 2.6 80 06:40 17.11.2019
4253 Drizzle 2 1006 93 0 3.1 80 06:21 17.11.2019
4254 Clouds 2 1008 93 0 3.25 4 04:24 17.11.2019
4255 Clouds 2 1008 93 0 0.5 0 03:51 17.11.2019
4256 Clouds 1 1008 93 0 0.5 0 03:32 17.11.2019
4257 Clouds 1 1009 93 0 1.5 80 02:28 17.11.2019
4258 Clouds 1 1009 86 0 1.05 334 01:41 17.11.2019
4259 Clouds 1 1010 87 10000 1.5 250 00:54 17.11.2019
4260 Clouds 1 1010 87 10000 0.5 0 00:22 17.11.2019
4261 Clouds 1 1010 87 0 1.11 302 23:47 16.11.2019
4262 Clouds 1 1010 93 0 1.5 110 23:20 16.11.2019
4263 Clouds 1 1010 93 0 1.5 110 22:59 16.11.2019
4264 Clouds 1 1010 93 0 1 0 22:40 16.11.2019
4265 Snow 1 1010 93 0 2.1 290 22:19 16.11.2019
4266 Snow 1 1010 93 0 2.1 290 21:56 16.11.2019
4267 Clouds 1 1010 93 0 1 0 21:37 16.11.2019
4268 Clouds 1 1010 93 0 1 0 21:19 16.11.2019
4269 Snow 1 1010 93 0 1 0 20:41 16.11.2019
4270 Snow 2 1010 99 0 1 0 20:21 16.11.2019
4271 Snow 2 1010 99 0 1 0 19:58 16.11.2019
4272 Snow 2 1010 99 0 1.5 320 19:39 16.11.2019
4273 Snow 2 1010 86 0 1 0 19:20 16.11.2019
4274 Snow 2 1010 99 0 1 0 18:46 16.11.2019
4275 Snow 2 1010 99 0 1 0 18:28 16.11.2019
4276 Snow 3 1010 70 0 3.1 0 17:56 16.11.2019
4277 Snow 4 1010 70 0 3.1 0 17:38 16.11.2019
4278 Snow 4 1010 75 10000 1.5 240 17:19 16.11.2019
4279 Snow 4 1009 75 0 2.1 120 16:48 16.11.2019
4280 Snow 4 1009 75 0 2.1 120 16:30 16.11.2019
4281 Snow 5 1010 81 10000 0.5 190 15:58 16.11.2019
4282 Snow 6 1010 75 10000 1 210 15:39 16.11.2019
4283 Clouds 6 1009 75 0 2.6 250 15:20 16.11.2019
4284 Clouds 5 1009 75 0 2.6 250 14:57 16.11.2019
4285 Snow 5 1009 70 10000 2.1 250 14:38 16.11.2019
4286 Clouds 6 1009 70 10000 2.1 230 14:19 16.11.2019
4287 Snow 6 1010 75 10000 2.6 230 13:54 16.11.2019
4288 Snow 6 1010 75 10000 2.6 230 13:54 16.11.2019
4289 Snow 5 1010 75 10000 2.6 230 13:36 16.11.2019
4290 Clouds 5 1009 70 0 1 0 13:18 16.11.2019
4291 Clouds 6 1009 75 0 1.5 230 12:42 16.11.2019
4292 Clouds 5 1010 75 10000 0.5 0 12:22 16.11.2019
4293 Clouds 5 1009 80 0 1.5 240 11:55 16.11.2019
4294 Clouds 5 1009 80 0 1.5 240 11:37 16.11.2019
4295 Clouds 3 1009 86 0 1.5 220 11:18 16.11.2019
4296 Clouds 3 1008 86 0 1 0 10:42 16.11.2019
4297 Clouds 2 1008 86 0 0.5 0 10:24 16.11.2019
4298 Clouds 2 1008 86 0 0.5 0 09:56 16.11.2019
4299 Clouds 1 1008 100 0 1 0 09:38 16.11.2019
4300 Clouds 1 1007 93 0 1 0 09:19 16.11.2019
4301 Clouds 0 1007 93 0 1 0 08:40 16.11.2019
4302 Clouds 0 1006 93 0 3.1 165 08:20 16.11.2019
4303 Clouds 0 1006 93 0 0.5 0 07:44 16.11.2019
4304 Snow 0 1006 86 10000 1 0 07:22 16.11.2019
4305 Snow 0 1006 86 10000 1 0 06:57 16.11.2019
4306 Snow 0 1006 97 8000 2.1 230 06:39 16.11.2019
4307 Clouds 0 1005 93 0 1 0 06:19 16.11.2019
4308 Clouds 1 1003 93 0 2.65 174 04:21 16.11.2019
4309 Clouds 1 1003 93 0 0.5 0 03:26 16.11.2019
4310 Clouds 1 1003 100 0 2.1 90 02:36 16.11.2019
4311 Clouds 2 1003 93 8000 1.5 260 01:38 16.11.2019
4312 Clouds 2 1003 100 0 1.5 120 00:48 16.11.2019
4313 Clouds 2 1003 100 0 1.5 120 00:28 16.11.2019
4314 Clouds 2 1003 86 10000 0.5 0 23:44 15.11.2019
4315 Clouds 2 1002 93 0 2.77 160 23:25 15.11.2019
4316 Clouds 2 1002 93 0 1.49 162 22:59 15.11.2019
4317 Clouds 3 1002 93 0 1.5 110 22:39 15.11.2019
4318 Clouds 3 1003 93 10000 0.5 0 22:19 15.11.2019
4319 Clouds 3 1002 93 0 1.49 162 21:55 15.11.2019
4320 Clouds 3 1002 93 0 1.49 162 21:37 15.11.2019
4321 Clouds 3 1002 93 0 1.5 100 21:19 15.11.2019
4322 Clouds 3 1002 93 0 1.5 100 20:56 15.11.2019
4323 Clouds 3 1002 93 0 1.5 100 20:56 15.11.2019
4324 Clouds 4 1002 86 10000 2.6 210 20:38 15.11.2019
4325 Clouds 4 1002 80 0 2.1 30 20:19 15.11.2019
4326 Clouds 3 1002 80 0 2.1 30 19:57 15.11.2019
4327 Clouds 4 1002 86 0 1 0 19:38 15.11.2019
4328 Clouds 4 1002 93 0 1.5 129 19:19 15.11.2019
4329 Clouds 3 1001 86 0 1.5 129 18:43 15.11.2019
4330 Clouds 4 1001 80 0 1.5 0 18:24 15.11.2019
4331 Clouds 4 1001 80 0 1.5 0 17:58 15.11.2019
4332 Clouds 4 1000 86 0 1.5 330 17:39 15.11.2019
4333 Clouds 4 1000 75 0 2.1 20 17:21 15.11.2019
4334 Clouds 5 1000 86 0 2.6 30 16:54 15.11.2019
4335 Clouds 4 1000 86 0 2.6 30 16:36 15.11.2019
4336 Clouds 5 1000 75 0 3.6 30 16:18 15.11.2019
4337 Clouds 5 1000 80 0 1.5 20 15:38 15.11.2019
4338 Clouds 5 1001 81 10000 1.5 200 15:19 15.11.2019
4339 Clouds 5 1001 81 10000 1.5 200 14:56 15.11.2019
4340 Clouds 5 1001 81 10000 2.6 360 14:38 15.11.2019
4341 Clouds 5 1001 81 10000 1 0 14:19 15.11.2019
4342 Clouds 5 1001 81 10000 1 0 13:56 15.11.2019
4343 Clouds 4 1000 81 0 2.6 40 13:38 15.11.2019
4344 Clouds 4 999 81 0 1 0 13:20 15.11.2019
4345 Clouds 4 999 81 0 1 0 12:57 15.11.2019
4346 Clouds 5 1001 81 10000 3.1 340 12:38 15.11.2019
4347 Clouds 5 1001 81 10000 2.1 230 12:18 15.11.2019
4348 Clouds 5 1001 81 10000 2.1 230 11:55 15.11.2019
4349 Clouds 5 1001 81 10000 2.1 230 11:55 15.11.2019
4350 Clouds 5 1001 81 10000 2.1 230 11:37 15.11.2019
4351 Clouds 4 1001 93 10000 3.1 230 11:19 15.11.2019
4352 Clouds 4 1000 86 0 1.5 210 10:39 15.11.2019
4353 Rain 3 1000 86 10000 1.5 50 10:21 15.11.2019
4354 Rain 3 1000 86 10000 1.5 50 09:58 15.11.2019
4355 Rain 3 1000 86 10000 1.5 50 09:58 15.11.2019
4356 Rain 3 1000 86 9000 2.6 70 09:39 15.11.2019
4357 Rain 3 999 86 7000 2.1 360 09:18 15.11.2019
4358 Rain 3 998 86 6000 4.1 70 08:42 15.11.2019
4359 Clouds 3 996 86 0 4.1 290 08:21 15.11.2019
4360 Clouds 3 996 86 0 4.1 290 08:21 15.11.2019
4361 Rain 2 996 86 6000 2.1 150 07:46 15.11.2019
4362 Rain 2 996 86 6000 2.1 150 07:26 15.11.2019
4363 Clouds 2 993 93 0 2.6 90 06:37 15.11.2019
4364 Snow 2 993 93 0 3.6 90 05:58 15.11.2019
4365 Snow 2 993 93 0 4.1 120 05:39 15.11.2019
4366 Snow 2 993 93 0 4.1 120 05:39 15.11.2019
4367 Snow 2 993 81 0 3.1 40 05:19 15.11.2019
4368 Rain 2 993 87 0 9.8 70 03:46 15.11.2019
4369 Clouds 2 992 97 10000 1 0 02:51 15.11.2019
4370 Snow 1 993 96 10000 2.1 0 02:18 15.11.2019
4371 Snow 1 993 96 10000 2.1 0 01:32 15.11.2019
4372 Snow 1 993 96 10000 2.1 0 01:32 15.11.2019
4373 Clouds 2 994 97 10000 2.1 240 00:48 15.11.2019
4374 Clouds 2 993 97 10000 2.1 0 00:29 15.11.2019
4375 Clouds 2 993 75 0 4.6 250 23:49 14.11.2019
4376 Snow 2 994 97 10000 2.1 0 23:27 14.11.2019
4377 Snow 2 994 80 10000 1.5 0 22:57 14.11.2019
4378 Snow 2 994 80 10000 1.5 0 22:39 14.11.2019
4379 Snow 2 995 80 10000 2.6 0 22:20 14.11.2019
4380 Snow 2 995 97 10000 2.6 0 21:55 14.11.2019
4381 Snow 2 995 97 10000 2.6 0 21:36 14.11.2019
4382 Snow 2 995 97 10000 2.6 230 21:18 14.11.2019
4383 Snow 3 995 97 10000 3.6 230 20:41 14.11.2019
4384 Snow 3 995 99 10000 2.6 0 20:22 14.11.2019
4385 Snow 2 995 99 10000 2.6 0 19:58 14.11.2019
4386 Snow 2 996 86 10000 2.6 0 19:40 14.11.2019
4387 Snow 3 996 80 10000 2.1 240 19:18 14.11.2019
4388 Snow 3 996 80 10000 3.1 230 18:54 14.11.2019
4389 Snow 2 996 80 10000 3.1 230 18:36 14.11.2019
4390 Rain 3 1008 93 0 1.5 100 18:18 14.11.2019
4391 Clouds 4 995 36 0 11.3 100 17:38 14.11.2019
4392 Clouds 4 996 42 0 4.1 0 17:20 14.11.2019
4393 Clouds 4 997 60 0 3.6 0 16:58 14.11.2019
4394 Clouds 4 997 60 0 3.6 0 16:58 14.11.2019
4395 Clouds 4 997 60 0 3.6 0 16:39 14.11.2019
4396 Clouds 4 997 97 0 3.6 0 16:20 14.11.2019
4397 Clouds 4 997 97 0 3.6 0 16:20 14.11.2019
4398 Clouds 4 997 97 0 3.6 0 15:58 14.11.2019
4399 Clouds 4 997 52 0 4.1 0 15:39 14.11.2019
4400 Clouds 4 997 60 0 5.1 0 15:20 14.11.2019
4401 Clouds 4 997 60 0 5.1 0 14:58 14.11.2019
4402 Clouds 4 998 97 0 3.6 0 14:39 14.11.2019
4403 Clouds 4 998 97 0 3.6 0 14:39 14.11.2019
4404 Clouds 4 999 96 0 6.2 260 14:21 14.11.2019
4405 Clouds 4 999 65 0 4.1 260 13:42 14.11.2019
4406 Clouds 4 999 65 0 4.1 260 13:42 14.11.2019
4407 Clouds 4 999 96 0 5.1 260 13:23 14.11.2019
4408 Clouds 4 999 96 0 5.1 260 12:59 14.11.2019
4409 Snow 4 1002 96 10000 1.5 0 12:40 14.11.2019
4410 Clouds 4 1001 70 0 6.7 260 12:21 14.11.2019
4411 Snow 4 1001 60 0 5.7 250 11:56 14.11.2019
4412 Snow 4 1001 60 0 5.7 250 11:37 14.11.2019
4413 Snow 4 1001 60 0 5.7 250 11:37 14.11.2019
4414 Clouds 3 1002 96 10000 3.1 210 11:19 14.11.2019
4415 Clouds 2 1002 96 10000 3.1 210 10:57 14.11.2019
4416 Snow 3 1001 65 0 3.6 250 10:37 14.11.2019
4417 Clouds 2 1001 69 0 2.1 0 10:19 14.11.2019
4418 Clouds 1 1000 74 0 1 0 09:42 14.11.2019
4419 Clouds 0 1010 80 10000 1.5 40 09:24 14.11.2019
4420 Clouds 0 1002 96 10000 1.5 30 08:58 14.11.2019
4421 Clouds 0 1002 96 10000 1.5 30 08:39 14.11.2019
4422 Clouds 0 1001 86 0 3.6 260 08:21 14.11.2019
4423 Clouds -1 1001 86 0 3.1 270 07:42 14.11.2019
4424 Clouds -1 1001 86 0 3.1 250 07:23 14.11.2019
4425 Clouds -1 1001 86 0 4.6 240 06:46 14.11.2019
4426 Clouds -1 1000 86 0 3.6 250 06:20 14.11.2019
4427 Clouds -1 1001 86 0 3.6 240 05:38 14.11.2019
4428 Clouds -1 1001 69 10000 1.5 0 04:38 14.11.2019
4429 Clouds -1 1002 92 0 0.5 0 03:26 14.11.2019
4430 Clouds -1 1003 92 0 2.1 110 02:35 14.11.2019
4431 Clouds 0 1003 92 0 2.31 185 01:40 14.11.2019
4432 Clouds 0 1004 86 0 1.5 100 00:57 14.11.2019
4433 Clouds 1 1004 92 0 1 0 00:37 14.11.2019
4434 Clear 0 1004 92 0 1 0 00:18 14.11.2019
4435 Clear 1 1004 92 0 1 0 23:38 13.11.2019
4436 Clear 2 1004 56 0 0.5 0 23:20 13.11.2019
4437 Clear 2 1005 56 0 2.1 110 22:55 13.11.2019
4438 Clear 2 1005 56 0 2.1 110 22:37 13.11.2019
4439 Clear 2 1005 56 0 2.1 110 22:37 13.11.2019
4440 Clear 0 1006 56 0 2.6 100 22:18 13.11.2019
4441 Clear 1 1007 56 10000 2.1 280 21:54 13.11.2019
4442 Clear 1 1007 56 10000 2.1 280 21:36 13.11.2019
4443 Clear 1 1007 56 10000 2.1 280 21:36 13.11.2019
4444 Clear 1 1006 56 0 0.5 0 21:18 13.11.2019
4445 Clear 2 1007 80 10000 2.1 230 20:54 13.11.2019
4446 Clear 1 1007 80 10000 2.1 230 20:36 13.11.2019
4447 Clear 2 1006 86 0 1.5 110 20:18 13.11.2019
4448 Clear 2 1006 86 0 0.5 0 19:42 13.11.2019
4449 Clouds 3 1006 73 0 1.5 70 19:19 13.11.2019
4450 Clouds 3 1006 80 0 2.1 100 18:56 13.11.2019
4451 Clouds 4 1006 80 0 2.1 100 18:37 13.11.2019
4452 Clouds 5 1006 80 0 1.5 90 18:19 13.11.2019
4453 Clouds 6 1005 80 0 1 0 17:57 13.11.2019
4454 Clouds 6 1005 80 0 1 0 17:38 13.11.2019
4455 Clouds 5 1005 75 0 1 110 17:19 13.11.2019
4456 Clouds 4 1005 85 0 1 0 16:57 13.11.2019
4457 Clouds 5 1005 85 0 1 0 16:38 13.11.2019
4458 Clouds 6 1005 85 0 1.5 120 16:20 13.11.2019
4459 Clouds 5 1005 87 0 1.5 90 15:57 13.11.2019
4460 Clouds 5 1005 85 0 1.5 90 15:38 13.11.2019
4461 Clouds 5 1005 60 0 0.5 0 15:18 13.11.2019
4462 Clouds 4 1005 56 0 1.5 220 14:41 13.11.2019
4463 Clouds 4 1005 56 0 1 0 14:21 13.11.2019
4464 Clouds 5 1005 56 0 0.5 0 13:54 13.11.2019
4465 Clouds 5 1005 56 0 0.5 0 13:36 13.11.2019
4466 Clouds 5 1005 60 0 1 0 13:18 13.11.2019
4467 Clouds 7 1005 70 10000 1.5 240 12:42 13.11.2019
4468 Clouds 7 1005 78 0 4.89 331 12:23 13.11.2019
4469 Clouds 7 1005 78 0 4.89 331 11:57 13.11.2019
4470 Clouds 6 1005 86 0 1 230 11:38 13.11.2019
4471 Clouds 6 1005 86 0 1 230 11:38 13.11.2019
4472 Clouds 4 1005 89 0 1.5 120 11:19 13.11.2019
4473 Clouds 3 1005 89 0 1.5 120 10:55 13.11.2019
4474 Clouds 3 1005 89 0 1.5 120 10:37 13.11.2019
4475 Clouds 2 1005 89 0 5 334 10:19 13.11.2019
4476 Clouds 3 1005 80 10000 1.5 0 09:43 13.11.2019
4477 Clouds 2 1004 89 0 5 334 09:21 13.11.2019
4478 Clouds 1 1004 89 10000 1 0 08:42 13.11.2019
4479 Clouds 1 1004 100 0 4.63 331 08:23 13.11.2019
4480 Clouds 1 1004 100 0 4.63 331 07:59 13.11.2019
4481 Clouds 1 1004 91 10000 2.1 260 07:39 13.11.2019
4482 Clouds 2 1004 91 10000 1.5 270 07:18 13.11.2019
4483 Clouds 1 1004 91 10000 2.1 280 06:42 13.11.2019
4484 Clouds 1 1003 100 0 4.63 331 06:19 13.11.2019
4485 Clouds 1 1003 92 0 1.5 90 05:48 13.11.2019
4486 Clouds 1 1003 91 0 4.88 336 05:22 13.11.2019
4487 Clouds 1 1003 86 10000 1.5 240 03:57 13.11.2019
4488 Clouds 3 1003 91 0 1 130 01:52 13.11.2019
4489 Clouds 2 1003 91 0 1 130 01:27 13.11.2019
4490 Clouds 2 1003 91 0 1 130 01:27 13.11.2019
4491 Clouds 2 1003 91 0 1 130 01:27 13.11.2019
4492 Clouds 2 1003 91 0 5.48 340 00:43 13.11.2019
4493 Clouds 2 1004 91 0 1 0 23:57 12.11.2019
4494 Clouds 3 1004 91 0 1 0 23:39 12.11.2019
4495 Clouds 3 1004 94 10000 1.5 0 23:19 12.11.2019
4496 Clouds 2 1004 94 10000 2.1 260 22:42 12.11.2019
4497 Clouds 2 1004 80 10000 2.1 210 22:19 12.11.2019
4498 Clouds 1 1004 80 10000 2.1 210 21:57 12.11.2019
4499 Clouds 2 1004 94 0 5.92 337 21:38 12.11.2019
4500 Clouds 2 1004 93 0 5.92 337 21:20 12.11.2019
4501 Clouds 2 1004 86 0 1.5 90 20:55 12.11.2019
4502 Clouds 2 1004 86 0 1.5 90 20:37 12.11.2019
4503 Clouds 2 1005 86 0 2.1 100 20:18 12.11.2019
4504 Clouds 2 1005 93 0 1.5 110 19:55 12.11.2019
4505 Clouds 2 1005 93 0 1.5 110 19:37 12.11.2019
4506 Clouds 2 1005 93 0 1.5 110 19:18 12.11.2019
4507 Clouds 3 1005 93 0 1 0 18:55 12.11.2019
4508 Clouds 4 1005 93 0 1 0 18:36 12.11.2019
4509 Clouds 4 1005 85 0 2.6 100 18:18 12.11.2019
4510 Clouds 4 1006 85 0 1.5 110 17:55 12.11.2019
4511 Clouds 4 1006 85 0 1.5 110 17:36 12.11.2019
4512 Clouds 4 1006 85 0 1.5 110 17:36 12.11.2019
4513 Clouds 4 1006 85 0 1.5 110 17:36 12.11.2019
4514 Clouds 4 1006 85 0 1.5 110 17:36 12.11.2019
4515 Clouds 4 1006 85 0 1.5 110 17:36 12.11.2019
4516 Clouds 4 1005 86 0 1.5 100 17:18 12.11.2019
4517 Clouds 4 1005 85 0 1 0 16:43 12.11.2019
4518 Clouds 5 1006 86 0 1.5 90 16:24 12.11.2019
4519 Clouds 5 1006 86 0 1.5 90 15:57 12.11.2019
4520 Clouds 5 1006 86 0 1.5 100 15:37 12.11.2019
4521 Clouds 5 1005 85 0 1 0 15:18 12.11.2019
4522 Clouds 5 1006 61 10000 1 0 14:42 12.11.2019
4523 Clouds 5 1007 61 10000 2.1 110 14:20 12.11.2019
4524 Clouds 5 1007 61 10000 2.1 110 13:58 12.11.2019
4525 Clouds 5 1007 61 10000 2.1 110 13:58 12.11.2019
4526 Snow 7 1006 75 0 2.1 240 13:39 12.11.2019
4527 Snow 7 1007 61 10000 1.5 0 13:19 12.11.2019
4528 Clouds 8 1007 61 10000 1.5 0 12:59 12.11.2019
4529 Clouds 7 1007 65 10000 0.5 0 12:39 12.11.2019
4530 Clouds 7 1008 75 0 1.5 90 12:18 12.11.2019
4531 Clouds 6 1008 81 0 2.1 80 11:43 12.11.2019
4532 Clouds 3 1009 86 0 1 0 11:24 12.11.2019
4533 Clouds 4 1009 93 0 1.5 90 10:58 12.11.2019
4534 Clouds 4 1009 93 0 1.5 90 10:40 12.11.2019
4535 Clouds 4 1009 93 0 1.5 110 10:22 12.11.2019
4536 Clouds 4 1009 93 0 1.5 110 09:59 12.11.2019
4537 Clouds 3 1009 93 0 0.5 0 09:39 12.11.2019
4538 Clouds 3 1009 100 0 0.5 0 09:18 12.11.2019
4539 Clouds 3 1009 100 0 3.58 350 08:48 12.11.2019
4540 Rain 3 1006 100 10000 4.1 90 08:28 12.11.2019
4541 Clouds 3 1009 100 0 1 0 07:42 12.11.2019
4542 Clouds 3 1010 100 10000 1 0 07:24 12.11.2019
4543 Mist 2 1009 93 0 3.36 344 06:51 12.11.2019
4544 Clouds 3 1009 93 0 3.36 344 06:26 12.11.2019
4545 Clouds 2 1009 93 0 3.36 344 05:52 12.11.2019
4546 Clouds 3 1009 93 0 1.5 80 04:51 12.11.2019
4547 Drizzle 3 1009 93 0 1.5 90 04:20 12.11.2019
4548 Rain 3 1010 100 0 1.5 60 01:58 12.11.2019
4549 Rain 3 1009 100 0 1 100 01:27 12.11.2019
4550 Drizzle 3 1009 93 0 1 110 00:53 12.11.2019
4551 Drizzle 3 1009 93 0 1 110 00:33 12.11.2019
4552 Rain 3 1009 93 0 1.4 240 23:55 11.11.2019
4553 Rain 3 1009 93 0 1.4 240 23:36 11.11.2019
4554 Rain 3 1009 93 0 2.04 189 23:18 11.11.2019
4555 Drizzle 3 1008 93 0 2.04 189 22:38 11.11.2019
4556 Rain 3 1009 86 10000 1.5 0 22:20 11.11.2019
4557 Rain 4 1009 86 10000 1.5 0 21:58 11.11.2019
4558 Rain 4 1008 93 0 1.5 100 21:39 11.11.2019
4559 Rain 4 1008 93 0 1 0 21:20 11.11.2019
4560 Rain 4 1008 100 0 1 0 20:55 11.11.2019
4561 Rain 4 1008 93 0 1 130 20:37 11.11.2019
4562 Rain 4 1008 86 0 1.5 90 20:19 11.11.2019
4563 Clouds 4 1008 86 0 1 140 19:42 11.11.2019
4564 Clouds 4 1008 70 10000 0.5 0 19:19 11.11.2019
4565 Clouds 4 1008 70 10000 0.5 0 18:58 11.11.2019
4566 Drizzle 5 1008 80 0 2.6 80 18:40 11.11.2019
4567 Clouds 5 1008 86 0 1 0 18:20 11.11.2019
4568 Clouds 5 1009 75 10000 1.5 270 17:45 11.11.2019
4569 Clouds 5 1008 75 10000 1 0 17:27 11.11.2019
4570 Clouds 5 1008 97 0 1.5 220 16:56 11.11.2019
4571 Clouds 5 1008 97 0 1.5 220 16:38 11.11.2019
4572 Clouds 5 1008 97 0 2.1 250 16:20 11.11.2019
4573 Clouds 5 1008 80 0 4.1 260 15:41 11.11.2019
4574 Snow 5 1008 97 0 3.6 260 15:20 11.11.2019
4575 Snow 5 1008 97 0 3.6 260 15:20 11.11.2019
4576 Snow 5 1008 97 0 3.6 260 14:55 11.11.2019
4577 Snow 5 1008 64 0 2.6 250 14:37 11.11.2019
4578 Clouds 6 1008 96 0 1.5 280 14:18 11.11.2019
4579 Clouds 6 1008 96 0 1.5 280 14:18 11.11.2019
4580 Clouds 6 1008 69 0 1.5 140 13:40 11.11.2019
4581 Snow 6 1009 60 0 1 0 13:21 11.11.2019
4582 Snow 6 1009 60 0 1 0 12:58 11.11.2019
4583 Snow 6 1009 60 0 1 0 12:58 11.11.2019
4584 Snow 5 1010 74 0 3.1 260 12:40 11.11.2019
4585 Snow 5 1010 74 0 3.1 260 12:40 11.11.2019
4586 Snow 5 1010 96 0 6.2 250 12:22 11.11.2019
4587 Snow 5 1010 96 0 6.2 250 11:58 11.11.2019
4588 Clouds 5 1010 80 0 1 0 11:40 11.11.2019
4589 Clouds 4 1010 88 0 1.5 240 11:21 11.11.2019
4590 Clouds 4 1010 88 0 1.5 240 11:21 11.11.2019
4591 Clouds 3 1011 80 0 2.6 130 10:43 11.11.2019
4592 Clouds 3 1012 80 0 2.6 90 10:19 11.11.2019
4593 Clouds 3 1012 80 0 2.6 90 09:58 11.11.2019
4594 Clouds 2 1013 92 0 1 110 09:39 11.11.2019
4595 Clouds 1 1013 92 0 1 0 09:19 11.11.2019
4596 Clouds 1 1013 92 0 1.5 110 08:41 11.11.2019
4597 Clouds -1 1013 100 0 1.5 80 08:22 11.11.2019
4598 Clouds -1 1013 100 0 1.5 80 08:22 11.11.2019
4599 Clouds -1 1013 100 0 1.5 80 07:57 11.11.2019
4600 Clouds 0 1013 100 0 2.6 100 07:37 11.11.2019
4601 Clouds 0 1013 100 0 2.6 100 07:37 11.11.2019
4602 Clouds -1 1014 100 0 0.5 0 07:19 11.11.2019
4603 Clouds -1 1014 100 0 1 0 06:48 11.11.2019
4604 Clouds -1 1013 92 0 1 0 06:23 11.11.2019
4605 Clouds -1 1013 92 0 0.5 0 05:51 11.11.2019
4606 Clouds -1 1013 92 0 1 70 04:43 11.11.2019
4607 Clouds 0 1014 100 0 0.5 0 03:25 11.11.2019
4608 Clouds 0 1015 86 10000 2.6 230 02:30 11.11.2019
4609 Clouds 0 1015 80 10000 1.5 260 01:57 11.11.2019
4610 Clouds -1 1015 86 10000 2.1 240 01:35 11.11.2019
4611 Clouds -1 1014 76 10000 1.5 260 00:50 11.11.2019
4612 Clouds -1 1014 76 10000 1.5 260 00:26 11.11.2019
4613 Clouds -1 1013 100 0 0.5 0 23:55 10.11.2019
4614 Clouds 0 1014 76 10000 2.6 270 23:36 10.11.2019
4615 Clouds 0 1014 86 0 1.32 213 23:18 10.11.2019
4616 Clouds 0 1015 65 10000 1.5 230 22:54 10.11.2019
4617 Clouds 0 1015 65 10000 1.5 230 22:36 10.11.2019
4618 Clouds 0 1014 65 0 2.6 90 22:18 10.11.2019
4619 Clouds 0 1014 86 0 1.5 90 21:40 10.11.2019
4620 Clouds 0 1014 65 0 2.6 90 21:21 10.11.2019
4621 Clouds 0 1014 65 0 2.6 90 20:59 10.11.2019
4622 Clouds 0 1014 65 0 2.6 90 20:39 10.11.2019
4623 Clouds 0 1015 87 10000 2.1 290 20:21 10.11.2019
4624 Clouds 0 1015 87 10000 2.1 290 19:55 10.11.2019
4625 Clouds 1 1014 86 0 3.1 100 19:37 10.11.2019
4626 Clouds 1 1014 87 0 3.1 110 19:18 10.11.2019
4627 Clouds 1 1014 87 0 3.1 110 18:56 10.11.2019
4628 Clouds 1 1014 87 0 3.1 110 18:56 10.11.2019
4629 Clouds 2 1013 86 0 3.6 110 18:38 10.11.2019
4630 Clouds 2 1013 80 0 2.6 100 18:19 10.11.2019
4631 Clouds 2 1013 80 0 2.6 100 17:55 10.11.2019
4632 Clouds 2 1013 80 0 2.6 100 17:55 10.11.2019
4633 Clouds 3 1013 69 0 4.1 60 17:37 10.11.2019
4634 Clouds 3 1012 65 0 3.6 60 17:19 10.11.2019
4635 Clouds 3 1012 89 0 2.1 30 16:56 10.11.2019
4636 Clouds 3 1012 89 0 2.1 30 16:37 10.11.2019
4637 Clouds 3 1012 89 0 2.1 30 16:37 10.11.2019
4638 Clouds 4 1012 69 0 0.86 104 16:19 10.11.2019
4639 Clouds 4 1012 69 0 0.86 104 15:54 10.11.2019
4640 Clouds 4 1011 89 0 0.5 0 15:36 10.11.2019
4641 Clouds 4 1012 70 10000 0.5 0 15:18 10.11.2019
4642 Clouds 4 1011 89 0 1.5 260 14:40 10.11.2019
4643 Clouds 4 1010 60 0 2.1 270 14:22 10.11.2019
4644 Clouds 4 1010 60 0 2.1 270 13:56 10.11.2019
4645 Clouds 4 1011 70 10000 2.1 80 13:38 10.11.2019
4646 Clouds 4 1011 75 10000 0.5 0 13:19 10.11.2019
4647 Clouds 4 1010 64 0 1 0 12:42 10.11.2019
4648 Clouds 4 1011 69 0 1.5 260 12:20 10.11.2019
4649 Clouds 4 1011 69 0 1.5 260 12:20 10.11.2019
4650 Clouds 4 1011 69 0 1.5 260 11:57 10.11.2019
4651 Clouds 4 1010 69 0 2.1 130 11:38 10.11.2019
4652 Clear 2 1010 74 0 2.6 120 11:20 10.11.2019
4653 Clear 3 1010 74 0 2.6 120 10:55 10.11.2019
4654 Clear 3 1010 74 0 2.6 120 10:55 10.11.2019
4655 Clear 2 1010 80 0 2.1 120 10:37 10.11.2019
4656 Clouds 2 1011 77 10000 1.5 210 10:18 10.11.2019
4657 Clear 1 1010 77 0 2.1 110 09:41 10.11.2019
4658 Clouds 0 1010 77 10000 1 0 09:22 10.11.2019
4659 Clouds 0 1010 77 10000 1 0 08:40 10.11.2019
4660 Clouds -1 1009 100 0 1.03 285 08:21 10.11.2019
4661 Clouds -1 1009 100 0 1.03 285 07:56 10.11.2019
4662 Clouds -1 1009 100 0 0.5 0 07:37 10.11.2019
4663 Clouds -1 1008 92 0 2.6 110 07:18 10.11.2019
4664 Clouds -1 1008 92 0 2.6 100 06:22 10.11.2019
4665 Clouds -1 1007 97 10000 1.5 240 04:45 10.11.2019
4666 Clouds -1 1008 80 10000 1.5 250 02:59 10.11.2019
4667 Clouds -1 1008 100 0 1.5 80 01:43 10.11.2019
4668 Clouds 0 1008 100 0 1.48 215 01:19 10.11.2019
4669 Clouds 0 1008 80 10000 1.5 0 00:39 10.11.2019
4670 Clouds 0 1008 92 0 1.48 215 23:43 09.11.2019
4671 Clear 0 1008 92 0 1.89 202 23:20 09.11.2019
4672 Clear 1 1008 92 0 1.89 202 22:55 09.11.2019
4673 Clear 0 1008 92 0 2.1 100 22:37 09.11.2019
4674 Clear 0 1008 92 0 1 0 22:18 09.11.2019
4675 Clear 0 1008 92 0 1 0 21:55 09.11.2019
4676 Clear 0 1008 98 0 2.1 100 21:37 09.11.2019
4677 Clear 0 1008 98 0 2.6 110 21:19 09.11.2019
4678 Clear 1 1009 98 0 2.1 100 20:41 09.11.2019
4679 Clouds 1 1009 80 0 2.6 110 20:22 09.11.2019
4680 Clouds 1 1009 80 0 2.6 110 19:57 09.11.2019
4681 Clouds 1 1009 86 0 3.1 110 19:36 09.11.2019
4682 Clouds 2 1010 75 10000 2.1 270 19:18 09.11.2019
4683 Clouds 3 1010 75 10000 1.5 0 18:40 09.11.2019
4684 Clouds 3 1010 75 10000 1.5 250 18:19 09.11.2019
4685 Clouds 3 1010 75 10000 1.5 250 17:58 09.11.2019
4686 Clouds 3 1010 86 0 2.6 110 17:40 09.11.2019
4687 Clouds 5 1010 80 0 2.6 90 17:21 09.11.2019
4688 Clouds 6 1010 65 10000 1 90 16:42 09.11.2019
4689 Clouds 7 1010 86 0 1 0 16:21 09.11.2019
4690 Clouds 7 1010 86 0 1 0 15:55 09.11.2019
4691 Clouds 7 1010 86 0 1 0 15:55 09.11.2019
4692 Clouds 7 1010 75 0 0.6 99 15:37 09.11.2019
4693 Clouds 7 1010 70 0 0.6 99 15:19 09.11.2019
4694 Clouds 6 1010 70 0 1 0 14:41 09.11.2019
4695 Clouds 7 1011 65 10000 2.6 70 14:21 09.11.2019
4696 Clouds 7 1011 65 10000 2.6 70 13:57 09.11.2019
4697 Clouds 6 1011 75 10000 1.5 0 13:37 09.11.2019
4698 Clouds 6 1011 75 0 0.5 0 13:19 09.11.2019
4699 Clouds 7 1011 65 0 1.71 8 12:50 09.11.2019
4700 Clouds 7 1011 65 0 1.71 8 12:29 09.11.2019
4701 Clouds 6 1012 81 10000 0.5 0 11:57 09.11.2019
4702 Clouds 6 1012 80 0 1.71 8 11:39 09.11.2019
4703 Clouds 4 1012 81 10000 0.5 0 11:19 09.11.2019
4704 Clouds 4 1012 86 0 3.53 336 10:42 09.11.2019
4705 Clouds 4 1012 86 0 3.53 336 10:20 09.11.2019
4706 Clouds 3 1012 86 0 3.53 336 09:59 09.11.2019
4707 Clouds 3 1012 93 0 1 0 09:41 09.11.2019
4708 Clouds 3 1012 93 0 2.1 100 09:20 09.11.2019
4709 Clouds 2 1012 100 0 1.5 110 08:43 09.11.2019
4710 Clouds 2 1012 93 0 1.5 90 08:24 09.11.2019
4711 Clouds 1 1011 100 0 1 0 07:55 09.11.2019
4712 Clouds 1 1011 100 0 1 0 07:37 09.11.2019
4713 Clouds 1 1011 86 10000 1 270 07:18 09.11.2019
4714 Clouds 1 1011 100 0 4.13 330 06:42 09.11.2019
4715 Clouds 1 1011 100 0 4.13 330 06:24 09.11.2019
4716 Clouds 1 1011 100 0 1 90 05:39 09.11.2019
4717 Clouds 1 1010 93 0 2.1 110 04:29 09.11.2019
4718 Clouds 2 1009 93 10000 1.5 270 02:49 09.11.2019
4719 Clouds 2 1009 93 10000 1.5 270 02:26 09.11.2019
4720 Clouds 3 1009 86 10000 2.6 210 01:18 09.11.2019
4721 Clouds 2 1009 93 0 2.1 90 00:40 09.11.2019
4722 Clouds 2 1009 93 10000 2.6 200 00:22 09.11.2019
4723 Clouds 2 1009 93 10000 1 0 23:40 08.11.2019
4724 Clouds 3 1009 100 0 0.5 0 23:22 08.11.2019
4725 Clouds 3 1009 100 0 0.5 0 22:58 08.11.2019
4726 Clouds 2 1008 93 0 2.1 90 22:38 08.11.2019
4727 Clouds 2 1008 93 0 2.1 110 22:20 08.11.2019
4728 Clouds 3 1008 93 0 1.5 110 21:42 08.11.2019
4729 Clouds 2 1008 93 0 2.1 90 21:23 08.11.2019
4730 Clouds 2 1008 93 0 2.1 90 21:23 08.11.2019
4731 Clouds 2 1008 93 0 2.1 90 20:58 08.11.2019
4732 Clouds 3 1007 93 0 2.93 334 20:40 08.11.2019
4733 Clouds 3 1007 93 0 1.5 90 20:19 08.11.2019
4734 Rain 2 1007 93 10000 1.5 240 19:54 08.11.2019
4735 Rain 3 1007 93 10000 1.5 240 19:36 08.11.2019
4736 Clouds 3 1006 100 0 1.5 90 19:18 08.11.2019
4737 Clouds 3 1006 100 0 2.41 337 18:54 08.11.2019
4738 Clouds 3 1006 100 0 2.41 337 18:36 08.11.2019
4739 Clouds 3 1006 93 0 2.41 337 18:18 08.11.2019
4740 Clouds 3 1005 93 0 3.1 80 17:54 08.11.2019
4741 Clouds 3 1005 93 0 3.1 80 17:36 08.11.2019
4742 Rain 3 1006 93 10000 0.5 260 17:18 08.11.2019
4743 Rain 3 1006 93 10000 0.5 260 17:18 08.11.2019
4744 Rain 3 1005 93 0 2.1 0 16:55 08.11.2019
4745 Rain 3 1005 93 0 2.1 0 16:37 08.11.2019
4746 Clouds 3 1004 93 0 3.1 260 16:18 08.11.2019
4747 Clouds 3 1003 93 10000 3.6 80 15:41 08.11.2019
4748 Rain 3 1005 93 10000 1 0 15:22 08.11.2019
4749 Rain 3 1005 93 10000 1 0 15:22 08.11.2019
4750 Rain 3 1005 93 10000 1 0 14:57 08.11.2019
4751 Rain 2 1005 86 10000 0.5 0 14:38 08.11.2019
4752 Clouds 2 1005 93 10000 1 0 14:20 08.11.2019
4753 Clouds 2 1005 93 10000 1 0 13:58 08.11.2019
4754 Clouds 2 1005 93 9000 0.5 0 13:39 08.11.2019
4755 Clouds 2 1004 97 0 1 120 13:21 08.11.2019
4756 Snow 2 1005 97 0 1.5 120 12:45 08.11.2019
4757 Snow 2 1005 97 0 1.5 120 12:27 08.11.2019
4758 Snow 2 1004 97 2300 1.5 100 11:58 08.11.2019
4759 Snow 2 1004 97 1400 1 110 11:40 08.11.2019
4760 Rain 2 1005 93 9000 3.1 240 11:21 08.11.2019
4761 Rain 2 1005 93 9000 3.1 240 10:58 08.11.2019
4762 Snow 2 1004 97 1500 1 90 10:40 08.11.2019
4763 Snow 2 1004 97 2600 0.5 0 10:21 08.11.2019
4764 Rain 3 1005 93 6000 1.5 190 09:56 08.11.2019
4765 Snow 3 1004 97 2100 0.5 100 09:37 08.11.2019
4766 Snow 3 1004 97 2200 0.5 100 09:18 08.11.2019
4767 Snow 3 1004 97 2200 0.5 100 09:18 08.11.2019
4768 Clouds 3 1004 97 6000 1 110 08:44 08.11.2019
4769 Rain 4 1003 93 6000 1.5 110 08:20 08.11.2019
4770 Rain 4 1003 93 0 1 0 07:44 08.11.2019
4771 Rain 4 1003 93 10000 2.1 100 07:23 08.11.2019
4772 Rain 4 1003 93 10000 2.1 100 06:56 08.11.2019
4773 Rain 4 1003 93 0 2.1 90 06:37 08.11.2019
4774 Rain 4 1003 93 0 1.61 5 06:19 08.11.2019
4775 Rain 5 1004 86 10000 1 0 05:25 08.11.2019
4776 Rain 5 1003 93 0 2.1 240 04:28 08.11.2019
4777 Drizzle 5 1003 86 0 4.1 70 03:42 08.11.2019
4778 Drizzle 5 1003 86 0 4.1 70 03:42 08.11.2019
4779 Rain 5 1004 93 0 2.6 90 02:55 08.11.2019
4780 Rain 6 1006 93 10000 1 0 01:53 08.11.2019
4781 Rain 6 1006 93 10000 1 0 01:33 08.11.2019
4782 Rain 4 1005 93 0 1 230 00:40 08.11.2019
4783 Rain 5 1006 87 10000 1 160 00:20 08.11.2019
4784 Rain 5 1005 93 0 2.1 260 23:46 07.11.2019
4785 Rain 5 1005 93 0 2.1 260 23:27 07.11.2019
4786 Rain 5 1005 93 0 1.5 260 22:57 07.11.2019
4787 Rain 5 1006 93 0 2.1 280 22:37 07.11.2019
4788 Rain 5 1005 93 0 1.5 280 22:19 07.11.2019
4789 Rain 5 1005 87 0 1 0 21:39 07.11.2019
4790 Rain 5 1005 93 0 1 0 21:21 07.11.2019
4791 Rain 5 1005 93 0 1 0 20:59 07.11.2019
4792 Rain 6 1005 93 0 1.5 250 20:40 07.11.2019
4793 Clouds 6 1005 93 0 1 0 20:21 07.11.2019
4794 Clouds 6 1005 93 0 1 0 20:21 07.11.2019
4795 Clouds 6 1005 93 0 1 0 19:57 07.11.2019
4796 Clouds 6 1005 87 0 1.5 260 19:39 07.11.2019
4797 Clouds 6 1005 81 0 1.5 230 19:20 07.11.2019
4798 Clouds 6 1005 81 0 1.5 230 18:57 07.11.2019
4799 Clouds 7 1005 81 0 1.5 250 18:38 07.11.2019
4800 Clouds 7 1004 93 0 1 0 18:19 07.11.2019
4801 Clouds 7 1004 87 10000 2.52 144 17:55 07.11.2019
4802 Clouds 8 1004 87 10000 2.52 144 17:37 07.11.2019
4803 Clouds 7 1004 87 10000 2.89 136 17:19 07.11.2019
4804 Clouds 7 1004 75 10000 2.6 250 16:54 07.11.2019
4805 Clouds 7 1008 81 10000 2.89 136 16:36 07.11.2019
4806 Clouds 8 1004 75 10000 2.6 260 16:18 07.11.2019
4807 Clouds 8 1007 70 10000 2.89 136 15:40 07.11.2019
4808 Clouds 8 1004 65 10000 2.6 250 15:20 07.11.2019
4809 Clouds 8 1004 70 10000 3.1 270 14:56 07.11.2019
4810 Clouds 8 1007 70 10000 2.89 136 14:37 07.11.2019
4811 Clouds 8 1003 70 10000 2.1 260 14:19 07.11.2019
4812 Clouds 8 1003 70 10000 4.1 250 13:54 07.11.2019
4813 Clouds 8 1008 70 10000 3.37 162 13:36 07.11.2019
4814 Clouds 7 1003 65 0 0.5 0 13:18 07.11.2019
4815 Clouds 7 1004 65 0 0.5 0 12:55 07.11.2019
4816 Clouds 7 1005 75 10000 0.5 0 12:37 07.11.2019
4817 Clouds 7 1005 75 10000 0.5 0 12:18 07.11.2019
4818 Clouds 7 1005 75 10000 0.5 0 12:18 07.11.2019
4819 Clouds 7 1004 81 10000 1 0 11:41 07.11.2019
4820 Clouds 6 1004 81 10000 1 0 11:22 07.11.2019
4821 Clouds 5 1004 81 10000 1 0 10:42 07.11.2019
4822 Clouds 5 1003 86 10000 2.1 270 10:19 07.11.2019
4823 Clouds 4 1003 86 10000 0.5 0 09:55 07.11.2019
4824 Clouds 3 1003 93 10000 2.1 270 09:36 07.11.2019
4825 Clouds 3 1003 93 10000 2.1 270 09:18 07.11.2019
4826 Clouds 2 1003 100 10000 1 0 08:41 07.11.2019
4827 Clouds 2 1003 93 10000 1 0 08:22 07.11.2019
4828 Clouds 2 1003 84 10000 2.1 110 07:56 07.11.2019
4829 Clouds 2 1004 100 10000 2.6 70 07:38 07.11.2019
4830 Clouds 1 1004 100 10000 2.6 70 07:20 07.11.2019
4831 Clouds 2 1004 93 0 3.1 90 06:45 07.11.2019
4832 Clouds 2 1004 84 0 2.56 181 06:24 07.11.2019
4833 Clouds 2 1004 84 0 1 0 05:49 07.11.2019
4834 Clouds 2 1004 84 0 1 0 05:30 07.11.2019
4835 Clouds 2 1004 72 0 1 0 04:51 07.11.2019
4836 Clear 2 1004 72 0 2.3 175 04:29 07.11.2019
4837 Clear 2 1004 72 0 2.3 175 04:29 07.11.2019
4838 Clear 3 1006 93 0 0.5 0 01:28 07.11.2019
4839 Clear 3 1007 93 0 3.1 80 00:30 07.11.2019
4840 Clear 4 1007 100 0 2.1 110 23:56 06.11.2019
4841 Clear 4 1006 100 0 1 0 23:38 06.11.2019
4842 Mist 4 1008 100 0 2.1 90 23:18 06.11.2019
4843 Clear 4 1006 100 0 0.5 90 22:39 06.11.2019
4844 Mist 4 1008 100 0 2.29 327 22:20 06.11.2019
4845 Mist 4 1008 93 0 2.29 327 21:57 06.11.2019
4846 Mist 4 1008 93 0 2.29 327 21:57 06.11.2019
4847 Mist 4 1008 93 0 2.29 327 21:57 06.11.2019
4848 Mist 4 1006 100 0 2.29 327 21:39 06.11.2019
4849 Clouds 4 1007 100 0 1 0 21:19 06.11.2019
4850 Clouds 5 1007 100 0 1 70 20:56 06.11.2019
4851 Clouds 6 1005 100 0 2.29 327 20:38 06.11.2019
4852 Clouds 5 1007 93 0 1 0 20:20 06.11.2019
4853 Clouds 5 1007 100 0 1 100 19:56 06.11.2019
4854 Clouds 5 1007 93 0 1 70 19:36 06.11.2019
4855 Clouds 5 1007 93 0 1 70 19:18 06.11.2019
4856 Clouds 6 1007 93 0 1 70 18:54 06.11.2019
4857 Clouds 5 1007 100 0 3.07 332 18:36 06.11.2019
4858 Clouds 6 1007 93 0 3.07 332 18:18 06.11.2019
4859 Clouds 7 1007 93 0 3.07 332 17:41 06.11.2019
4860 Rain 7 1006 93 10000 3.44 339 17:23 06.11.2019
4861 Rain 7 1006 93 10000 3.44 339 16:57 06.11.2019
4862 Rain 7 1007 87 9000 2.1 130 16:39 06.11.2019
4863 Rain 8 1006 93 10000 1.5 230 16:20 06.11.2019
4864 Rain 8 1006 93 10000 1.5 230 15:57 06.11.2019
4865 Drizzle 8 1006 76 10000 3.6 340 15:37 06.11.2019
4866 Rain 8 1006 87 10000 2.1 230 15:19 06.11.2019
4867 Rain 8 1006 76 10000 1 0 14:57 06.11.2019
4868 Rain 8 1006 76 10000 1 0 14:39 06.11.2019
4869 Clouds 8 1006 81 10000 1.5 120 14:20 06.11.2019
4870 Clouds 9 1006 81 10000 1.5 120 13:58 06.11.2019
4871 Clouds 8 1006 81 10000 3.52 340 13:37 06.11.2019
4872 Rain 8 1006 81 0 1.5 210 13:18 06.11.2019
4873 Clouds 8 1006 81 0 0.5 0 12:55 06.11.2019
4874 Clouds 8 1006 81 0 0.5 0 12:37 06.11.2019
4875 Clouds 8 1006 76 10000 0.5 0 12:18 06.11.2019
4876 Clouds 8 1006 76 10000 0.5 0 11:54 06.11.2019
4877 Clouds 8 1006 76 10000 0.5 0 11:36 06.11.2019
4878 Clouds 7 1006 87 10000 2.1 100 11:18 06.11.2019
4879 Clouds 7 1006 81 10000 0.5 0 10:42 06.11.2019
4880 Clouds 7 1006 87 10000 0.5 0 10:24 06.11.2019
4881 Clouds 6 1006 87 10000 0.5 0 09:58 06.11.2019
4882 Rain 6 1006 87 10000 1 0 09:39 06.11.2019
4883 Rain 6 1005 93 10000 1.5 90 09:20 06.11.2019
4884 Rain 6 1005 87 8000 1.5 80 08:55 06.11.2019
4885 Rain 6 1005 87 8000 1.5 80 08:37 06.11.2019
4886 Drizzle 6 1004 93 10000 1.5 80 08:18 06.11.2019
4887 Rain 6 1004 93 0 1 0 07:44 06.11.2019
4888 Rain 6 1004 93 0 1 0 07:26 06.11.2019
4889 Rain 5 1003 100 0 1.5 230 06:48 06.11.2019
4890 Rain 6 1003 100 0 1.5 230 06:30 06.11.2019
4891 Rain 6 1003 93 0 0.5 0 05:37 06.11.2019
4892 Rain 6 1002 100 0 1 80 03:22 06.11.2019
4893 Drizzle 6 1002 93 0 1 0 01:41 06.11.2019
4894 Clouds 6 1001 93 0 2.74 339 00:46 06.11.2019
4895 Clouds 6 1001 87 10000 1.5 230 23:59 05.11.2019
4896 Clouds 6 1001 100 0 0.5 0 23:40 05.11.2019
4897 Clouds 6 1000 100 0 2.1 120 23:22 05.11.2019
4898 Clouds 6 1000 100 0 2.1 120 22:57 05.11.2019
4899 Clouds 6 1000 93 0 3.1 80 22:38 05.11.2019
4900 Clouds 6 1001 81 10000 1 0 22:18 05.11.2019
4901 Rain 6 1000 93 0 2.6 100 21:43 05.11.2019
4902 Rain 6 1000 93 0 0.5 0 21:22 05.11.2019
4903 Rain 6 1000 93 0 0.5 0 20:59 05.11.2019
4904 Rain 6 1000 93 0 0.5 0 20:59 05.11.2019
4905 Rain 6 1000 93 0 2.6 110 20:39 05.11.2019
4906 Clouds 6 1000 93 0 3.1 70 20:21 05.11.2019
4907 Clouds 6 1000 93 0 3.1 70 19:59 05.11.2019
4908 Rain 6 1000 81 0 3.6 70 19:40 05.11.2019
4909 Rain 6 1001 81 7000 1.5 60 19:22 05.11.2019
4910 Rain 6 1001 81 7000 1.5 60 18:58 05.11.2019
4911 Rain 6 999 76 0 4.6 40 18:39 05.11.2019
4912 Clouds 6 998 76 0 4.1 60 18:20 05.11.2019
4913 Clouds 6 998 76 0 4.1 60 17:58 05.11.2019
4914 Clouds 6 998 76 0 5.7 60 17:39 05.11.2019
4915 Clouds 8 998 76 10000 5.7 60 17:19 05.11.2019
4916 Clouds 8 998 76 10000 5.7 60 16:56 05.11.2019
4917 Rain 8 999 81 10000 2.6 170 16:38 05.11.2019
4918 Rain 8 999 87 10000 2.1 20 16:19 05.11.2019
4919 Rain 8 998 71 10000 5.1 50 15:39 05.11.2019
4920 Clouds 8 998 71 10000 4.6 60 15:20 05.11.2019
4921 Clouds 9 998 71 10000 4.6 60 14:58 05.11.2019
4922 Clouds 9 998 66 10000 1.5 210 14:40 05.11.2019
4923 Clouds 9 998 76 10000 2.1 230 14:21 05.11.2019
4924 Clouds 9 997 76 10000 1.5 270 13:55 05.11.2019
4925 Clouds 9 997 76 10000 1.5 270 13:37 05.11.2019
4926 Clouds 10 998 71 10000 4.1 70 13:18 05.11.2019
4927 Snow 10 998 66 0 3.1 0 12:39 05.11.2019
4928 Clouds 9 999 71 10000 4.1 60 12:21 05.11.2019
4929 Clouds 10 998 81 10000 0.5 0 11:56 05.11.2019
4930 Clouds 10 998 81 10000 0.5 0 11:37 05.11.2019
4931 Clouds 9 998 87 10000 1.4 352 11:19 05.11.2019
4932 Clouds 9 998 87 10000 1.4 352 11:19 05.11.2019
4933 Clouds 9 999 87 10000 0.5 0 10:43 05.11.2019
4934 Clouds 8 999 93 10000 1 0 10:24 05.11.2019
4935 Clouds 8 999 93 10000 1 0 09:58 05.11.2019
4936 Clouds 8 999 100 10000 1 0 09:40 05.11.2019
4937 Clouds 7 999 93 10000 0.5 250 09:19 05.11.2019
4938 Clouds 7 999 93 10000 0.5 250 09:19 05.11.2019
4939 Clouds 7 999 93 10000 1.4 352 08:55 05.11.2019
4940 Clouds 7 999 93 10000 1.4 352 08:55 05.11.2019
4941 Clouds 7 999 93 10000 1.4 352 08:37 05.11.2019
4942 Clouds 7 998 100 10000 1 0 08:18 05.11.2019
4943 Clouds 7 998 100 10000 1 0 07:43 05.11.2019
4944 Clouds 7 998 93 10000 1.78 8 07:24 05.11.2019
4945 Clouds 7 999 93 10000 1 250 06:51 05.11.2019
4946 Clouds 7 998 100 0 1 0 06:26 05.11.2019
4947 Clouds 7 998 100 0 1.78 8 05:39 05.11.2019
4948 Clouds 7 998 93 0 2.6 70 05:19 05.11.2019
4949 Clouds 8 999 93 0 0.5 0 04:20 05.11.2019
4950 Clouds 8 999 87 10000 2.1 230 03:24 05.11.2019
4951 Clouds 8 999 93 0 1.5 0 02:41 05.11.2019
4952 Rain 8 999 100 0 1.86 274 01:52 05.11.2019
4953 Rain 8 999 100 0 1.86 274 01:52 05.11.2019
4954 Rain 8 999 100 0 1.86 274 01:52 05.11.2019
4955 Clouds 8 999 87 10000 1.5 0 00:43 05.11.2019
4956 Rain 8 999 93 0 2.6 80 00:23 05.11.2019
4957 Rain 8 1000 93 0 3.1 240 23:41 04.11.2019
4958 Rain 9 999 93 0 2.6 70 23:19 04.11.2019
4959 Rain 9 999 93 0 2.6 70 23:19 04.11.2019
4960 Rain 9 1000 93 0 2.6 100 22:55 04.11.2019
4961 Rain 9 1000 93 0 2.6 100 22:37 04.11.2019
4962 Rain 9 1000 100 8000 1.5 90 22:19 04.11.2019
4963 Rain 9 999 100 10000 0.5 0 21:54 04.11.2019
4964 Rain 9 999 100 10000 0.5 0 21:36 04.11.2019
4965 Rain 9 998 100 10000 1 0 21:18 04.11.2019
4966 Clouds 9 998 93 10000 1 0 20:55 04.11.2019
4967 Clouds 9 998 93 10000 1 0 20:36 04.11.2019
4968 Clouds 9 998 93 10000 1 0 20:36 04.11.2019
4969 Rain 9 998 87 10000 1.5 90 20:18 04.11.2019
4970 Clouds 9 997 93 10000 0.5 0 19:42 04.11.2019
4971 Clouds 9 997 87 10000 1 0 19:23 04.11.2019
4972 Clouds 9 997 87 10000 1 0 18:59 04.11.2019
4973 Clouds 9 997 87 10000 2.6 110 18:40 04.11.2019
4974 Rain 9 997 93 0 1.57 170 18:21 04.11.2019
4975 Rain 9 997 93 0 1.57 170 17:58 04.11.2019
4976 Clouds 9 997 93 0 1.5 0 17:36 04.11.2019
4977 Clouds 10 996 81 10000 2.1 60 17:18 04.11.2019
4978 Clouds 10 996 87 10000 1 0 16:43 04.11.2019
4979 Clouds 11 996 76 10000 0.5 0 16:24 04.11.2019
4980 Clouds 11 996 76 10000 0.5 0 15:59 04.11.2019
4981 Clouds 11 996 81 10000 2.6 80 15:41 04.11.2019
4982 Clouds 11 997 87 10000 2.1 0 15:21 04.11.2019
4983 Clouds 11 997 87 10000 2.1 0 14:58 04.11.2019
4984 Clouds 11 997 81 10000 1 0 14:39 04.11.2019
4985 Clouds 11 996 81 10000 1 0 14:20 04.11.2019
4986 Clouds 11 996 81 10000 1 0 13:57 04.11.2019
4987 Clouds 10 996 81 10000 0.5 0 13:39 04.11.2019
4988 Rain 10 997 87 0 1 0 13:20 04.11.2019
4989 Rain 10 997 81 0 3.54 157 12:55 04.11.2019
4990 Rain 10 997 81 0 3.54 157 12:37 04.11.2019
4991 Rain 11 996 81 10000 1 0 12:18 04.11.2019
4992 Clouds 10 996 81 10000 3.1 270 11:42 04.11.2019
4993 Clouds 9 995 76 10000 2.1 100 11:23 04.11.2019
4994 Rain 9 996 81 10000 1 0 10:56 04.11.2019
4995 Rain 9 996 81 10000 1 0 10:38 04.11.2019
4996 Clouds 9 996 76 10000 1 0 10:18 04.11.2019
4997 Rain 8 997 87 10000 3.6 80 09:44 04.11.2019
4998 Rain 7 997 87 10000 3.6 80 09:26 04.11.2019
4999 Clouds 5 996 93 10000 1 0 08:55 04.11.2019
5000 Clouds 5 996 93 10000 1 0 08:37 04.11.2019
5001 Clouds 4 997 87 10000 2.1 90 08:18 04.11.2019
5002 Clouds 5 997 93 10000 2.6 70 07:42 04.11.2019
5003 Clouds 5 997 93 10000 2.6 120 07:20 04.11.2019
5004 Clouds 5 997 93 10000 2.1 250 06:49 04.11.2019
5005 Clouds 5 997 100 0 3.6 240 06:18 04.11.2019
5006 Clouds 5 997 93 0 2.1 110 05:37 04.11.2019
5007 Clouds 7 997 87 10000 1.5 260 04:37 04.11.2019
5008 Clouds 7 997 87 10000 1.5 0 03:42 04.11.2019
5009 Clouds 7 998 93 0 0.5 0 01:38 04.11.2019
5010 Clouds 7 998 87 0 1 0 01:18 04.11.2019
5011 Rain 8 997 87 0 4.19 334 00:22 04.11.2019
5012 Rain 8 997 81 0 1 0 23:59 03.11.2019
5013 Rain 8 997 81 0 1 0 23:39 03.11.2019
5014 Rain 8 997 81 0 4.6 230 23:20 03.11.2019
5015 Rain 8 997 81 0 4.6 230 22:56 03.11.2019
5016 Rain 8 997 71 0 8.2 310 22:38 03.11.2019
5017 Rain 8 996 76 0 9.8 300 22:19 03.11.2019
5018 Rain 9 995 76 0 9.3 300 21:43 03.11.2019
5019 Clouds 8 994 87 0 4.1 230 21:22 03.11.2019
5020 Clouds 8 994 87 0 4.1 230 21:22 03.11.2019
5021 Clouds 8 994 87 0 4.1 230 20:59 03.11.2019
5022 Clouds 8 994 93 0 3.6 250 20:38 03.11.2019
5023 Drizzle 8 994 93 0 2.6 240 20:19 03.11.2019
5024 Drizzle 8 994 93 0 2.6 240 19:57 03.11.2019
5025 Clouds 8 993 100 0 0.5 0 19:39 03.11.2019
5026 Clouds 8 992 93 0 0.37 288 19:20 03.11.2019
5027 Clouds 8 992 93 0 0.37 288 18:58 03.11.2019
5028 Clouds 9 992 93 0 0.5 0 18:37 03.11.2019
5029 Clouds 9 991 100 0 1 0 18:18 03.11.2019
5030 Rain 9 990 100 0 2.1 90 17:43 03.11.2019
5031 Rain 9 990 87 0 1 0 17:22 03.11.2019
5032 Rain 9 990 87 0 1 0 16:59 03.11.2019
5033 Rain 9 990 93 0 1 0 16:41 03.11.2019
5034 Rain 9 990 93 0 4.1 250 16:22 03.11.2019
5035 Rain 10 990 93 0 4.1 250 15:58 03.11.2019
5036 Rain 10 989 87 0 5.1 290 15:40 03.11.2019
5037 Rain 10 989 87 0 7.2 300 15:22 03.11.2019
5038 Clouds 11 988 81 0 2.6 250 14:54 03.11.2019
5039 Clouds 11 988 81 0 2.6 250 14:36 03.11.2019
5040 Clouds 12 987 81 0 3.1 260 14:18 03.11.2019
5041 Clouds 12 987 81 0 2.6 260 13:41 03.11.2019
5042 Clouds 12 988 81 0 2.6 250 13:19 03.11.2019
5043 Clouds 11 988 81 0 2.6 250 12:57 03.11.2019
5044 Clouds 11 988 81 0 2.1 260 12:36 03.11.2019
5045 Clouds 11 988 87 0 3.6 270 12:18 03.11.2019
5046 Clouds 10 989 87 0 4.1 270 11:42 03.11.2019
5047 Clouds 10 989 87 0 2.6 280 11:22 03.11.2019
5048 Clouds 9 989 93 0 4.6 270 10:56 03.11.2019
5049 Clouds 9 989 93 0 4.6 270 10:37 03.11.2019
5050 Clouds 9 989 93 0 2.6 270 10:19 03.11.2019
5051 Clouds 9 989 93 0 2.6 270 10:19 03.11.2019
5052 Clouds 9 989 93 0 1.5 340 09:43 03.11.2019
5053 Clouds 9 989 93 0 1.5 340 09:43 03.11.2019
5054 Clouds 9 990 100 0 3.1 230 09:25 03.11.2019
5055 Clouds 9 990 100 0 3.1 230 08:56 03.11.2019
5056 Clouds 9 990 93 10000 1 0 08:38 03.11.2019
5057 Clouds 9 990 93 0 1 0 08:19 03.11.2019
5058 Clouds 9 990 93 0 2.6 100 07:45 03.11.2019
5059 Clouds 8 991 93 0 3.1 250 07:22 03.11.2019
5060 Clouds 8 991 100 0 3.99 169 06:39 03.11.2019
5061 Clouds 8 991 93 0 2.1 280 05:57 03.11.2019
5062 Clouds 9 991 93 0 1 0 05:38 03.11.2019
5063 Clouds 9 992 93 0 2.1 230 04:55 03.11.2019
5064 Clouds 9 992 93 0 2.1 230 04:26 03.11.2019
5065 Clouds 9 994 93 10000 1.5 240 03:27 03.11.2019
5066 Rain 9 996 100 0 1.5 70 02:30 03.11.2019
5067 Rain 9 997 87 0 2.6 260 01:57 03.11.2019
5068 Rain 9 996 87 0 4.1 230 01:36 03.11.2019
5069 Rain 10 996 93 0 3.1 240 01:18 03.11.2019
5070 Clouds 10 996 93 10000 1 0 00:40 03.11.2019
5071 Clouds 10 996 87 0 4.6 240 00:21 03.11.2019
5072 Clouds 10 996 87 0 4.6 240 23:57 02.11.2019
5073 Clouds 10 996 93 0 3.1 240 23:37 02.11.2019
5074 Clouds 10 996 93 0 2.1 0 23:18 02.11.2019
5075 Clouds 10 997 93 0 2.1 100 22:55 02.11.2019
5076 Clouds 10 997 93 0 2.1 100 22:37 02.11.2019
5077 Clouds 10 997 93 0 2.1 100 22:37 02.11.2019
5078 Clouds 11 997 93 0 1 0 22:18 02.11.2019
5079 Clouds 10 998 93 0 0.5 0 21:55 02.11.2019
5080 Clouds 10 998 93 0 0.5 0 21:37 02.11.2019
5081 Clouds 11 998 93 0 2.6 110 21:18 02.11.2019
5082 Clouds 10 998 93 0 2.6 110 20:56 02.11.2019
5083 Clouds 10 998 93 0 2.6 110 20:56 02.11.2019
5084 Clouds 11 998 93 0 2.1 120 20:38 02.11.2019
5085 Clouds 11 998 93 0 2.1 70 20:19 02.11.2019
5086 Clouds 11 999 87 0 1.5 320 19:40 02.11.2019
5087 Clouds 10 999 93 0 1 0 19:21 02.11.2019
5088 Clouds 11 999 93 0 1 0 18:56 02.11.2019
5089 Clouds 12 998 93 0 2.1 270 18:37 02.11.2019
5090 Clouds 13 999 87 10000 1 210 18:19 02.11.2019
5091 Clouds 13 998 82 0 4.6 70 17:56 02.11.2019
5092 Clouds 13 998 82 0 4.6 70 17:56 02.11.2019
5093 Clouds 13 998 82 0 4.6 70 17:37 02.11.2019
5094 Clouds 13 998 76 0 1 0 17:18 02.11.2019
5095 Clouds 13 999 82 0 0.5 0 16:40 02.11.2019
5096 Clouds 13 999 82 0 0.5 0 16:40 02.11.2019
5097 Clouds 13 999 82 0 3.1 169 16:21 02.11.2019
5098 Clouds 13 999 82 0 3.1 169 15:56 02.11.2019
5099 Clouds 14 999 77 0 3.1 169 15:37 02.11.2019
5100 Clouds 13 999 77 0 3.1 169 15:19 02.11.2019
5101 Clouds 14 1000 77 0 0.5 0 14:42 02.11.2019
5102 Clouds 14 1000 87 0 2.79 165 14:23 02.11.2019
5103 Clouds 14 1000 87 0 2.79 165 13:56 02.11.2019
5104 Clouds 14 1000 82 0 2.79 165 13:37 02.11.2019
5105 Clouds 14 1001 82 0 2.1 260 13:18 02.11.2019
5106 Clouds 14 1001 72 10000 1 0 12:40 02.11.2019
5107 Clouds 14 1001 82 0 0.5 0 12:22 02.11.2019
5108 Clouds 14 1001 82 0 0.5 0 11:57 02.11.2019
5109 Clouds 13 1002 87 0 2.6 250 11:38 02.11.2019
5110 Clouds 13 1002 87 0 1.5 250 11:19 02.11.2019
5111 Clouds 12 1002 87 0 2.1 230 10:44 02.11.2019
5112 Clouds 12 1002 93 0 3.1 120 10:25 02.11.2019
5113 Clouds 11 1002 93 0 3.1 120 09:56 02.11.2019
5114 Rain 11 1003 93 0 0.5 0 09:38 02.11.2019
5115 Rain 11 1003 93 0 0.5 0 09:38 02.11.2019
5116 Clouds 10 1003 93 0 3.6 70 09:18 02.11.2019
5117 Rain 10 1003 100 0 3.1 60 08:42 02.11.2019
5118 Rain 9 1003 100 0 1.5 240 08:21 02.11.2019
5119 Clouds 10 1003 100 0 1 0 07:47 02.11.2019
5120 Clouds 10 1003 100 0 1 0 07:27 02.11.2019
5121 Clouds 10 1003 100 0 1 0 06:54 02.11.2019
5122 Clouds 10 1003 100 0 1 0 06:29 02.11.2019
5123 Clouds 10 1003 93 0 1.5 290 05:56 02.11.2019
5124 Rain 10 1005 93 0 2.1 100 04:53 02.11.2019
5125 Rain 10 1005 93 0 1.5 70 04:20 02.11.2019
5126 Rain 10 1005 93 0 0.5 0 03:46 02.11.2019
5127 Rain 10 1004 93 10000 1 0 02:40 02.11.2019
5128 Rain 10 1005 93 0 3.08 174 01:42 02.11.2019
5129 Rain 10 1006 93 0 2.1 270 01:21 02.11.2019
5130 Rain 10 1006 100 0 3.6 70 00:43 02.11.2019
5131 Rain 10 1007 93 0 0.5 0 00:25 02.11.2019
5132 Rain 9 1007 100 0 1 0 23:46 01.11.2019
5133 Rain 9 1008 100 0 3.05 174 23:20 01.11.2019
5134 Rain 9 1008 100 0 3.05 174 22:57 01.11.2019
5135 Clouds 9 1007 100 0 1.5 60 22:39 01.11.2019
5136 Clouds 10 1007 93 0 0.5 0 22:20 01.11.2019
5137 Clouds 10 1008 93 0 1 0 21:41 01.11.2019
5138 Clouds 10 1008 100 0 1 0 21:23 01.11.2019
5139 Clouds 10 1008 100 0 1 0 20:56 01.11.2019
5140 Clouds 10 1008 100 0 3.6 80 20:38 01.11.2019
5141 Clouds 10 1008 100 0 2.1 0 20:19 01.11.2019
5142 Clouds 10 1009 100 0 1 0 19:55 01.11.2019
5143 Clouds 10 1009 100 0 1 0 19:36 01.11.2019
5144 Clouds 10 1009 100 0 1 0 19:18 01.11.2019
5145 Drizzle 10 1010 93 0 1 0 18:39 01.11.2019
5146 Rain 10 1010 93 0 1 0 18:20 01.11.2019
5147 Rain 10 1010 93 0 2.82 189 17:55 01.11.2019
5148 Rain 10 1010 93 0 2.82 189 17:36 01.11.2019
5149 Rain 11 1010 93 0 2.82 182 17:18 01.11.2019
5150 Clouds 11 1010 93 10000 1.5 60 16:37 01.11.2019
5151 Clouds 11 1011 93 0 1 0 16:18 01.11.2019
5152 Rain 11 1010 87 10000 2.1 70 15:41 01.11.2019
5153 Rain 11 1011 87 10000 1.5 90 15:22 01.11.2019
5154 Rain 12 1011 87 10000 1.5 90 14:58 01.11.2019
5155 Clouds 12 1012 87 10000 2.1 70 14:40 01.11.2019
5156 Clouds 13 1012 87 10000 1 60 14:22 01.11.2019
5157 Clouds 13 1012 87 10000 1 60 13:56 01.11.2019
5158 Clouds 13 1013 67 0 1.5 70 13:37 01.11.2019
5159 Clouds 13 1013 71 0 1 0 13:19 01.11.2019
5160 Clouds 13 1014 76 0 2.1 250 12:43 01.11.2019
5161 Clouds 12 1014 76 0 1 0 12:25 01.11.2019
5162 Clouds 11 1015 81 0 3.02 178 11:44 01.11.2019
5163 Clouds 11 1015 87 0 3.02 178 11:25 01.11.2019
5164 Clouds 10 1015 87 0 2.81 177 10:59 01.11.2019
5165 Clouds 10 1015 87 0 2.81 177 10:40 01.11.2019
5166 Clouds 9 1015 87 0 2.81 177 10:21 01.11.2019
5167 Clouds 10 1015 87 0 2.81 177 09:56 01.11.2019
5168 Clouds 10 1015 87 0 2.81 177 09:56 01.11.2019
5169 Clouds 9 1016 93 0 2.81 177 09:36 01.11.2019
5170 Clouds 9 1016 93 0 2.81 177 09:36 01.11.2019
5171 Clouds 8 1016 93 0 0.5 0 09:18 01.11.2019
5172 Clouds 8 1016 93 0 2.1 260 08:42 01.11.2019
5173 Clouds 8 1016 93 0 2.11 185 08:21 01.11.2019
5174 Clouds 8 1015 93 0 2.11 185 07:53 01.11.2019
5175 Clouds 7 1015 93 0 2.11 185 07:26 01.11.2019
5176 Clouds 7 1015 93 0 2.11 185 06:57 01.11.2019
5177 Clouds 7 1016 93 0 2.11 185 06:39 01.11.2019
5178 Clouds 8 1016 93 0 0.5 0 06:21 01.11.2019
5179 Clouds 7 1017 93 0 2.11 185 05:43 01.11.2019
5180 Clouds 7 1018 93 0 1.57 179 03:34 01.11.2019
5181 Clouds 8 1018 93 0 1.43 180 01:52 01.11.2019
5182 Clouds 8 1018 93 0 1.18 175 01:28 01.11.2019
5183 Clouds 8 1018 100 0 1.18 175 00:21 01.11.2019
5184 Clouds 8 1018 100 0 1.18 175 23:56 31.10.2019
5185 Clouds 8 1019 100 0 1.18 175 23:38 31.10.2019
5186 Clouds 8 1019 100 0 1.28 156 23:19 31.10.2019
5187 Clouds 8 1019 93 6000 1 220 22:42 31.10.2019
5188 Drizzle 8 1019 93 9000 0.5 0 22:24 31.10.2019
5189 Drizzle 8 1019 93 9000 0.5 0 21:58 31.10.2019
5190 Clouds 8 1019 93 0 1 220 21:40 31.10.2019
5191 Mist 8 1019 93 4800 1 230 21:19 31.10.2019
5192 Clouds 8 1019 93 0 1.28 156 20:41 31.10.2019
5193 Clouds 8 1019 93 0 0.44 47 20:23 31.10.2019
5194 Clouds 8 1019 93 0 0.25 85 19:59 31.10.2019
5195 Clouds 8 1019 87 0 0.5 0 19:39 31.10.2019
5196 Clouds 8 1019 87 0 1 0 19:21 31.10.2019
5197 Clouds 8 1019 87 0 1 0 18:55 31.10.2019
5198 Clouds 8 1019 87 0 1 0 18:36 31.10.2019
5199 Clouds 8 1018 93 0 1 0 18:18 31.10.2019
5200 Clouds 8 1019 87 10000 1 230 17:41 31.10.2019
5201 Clouds 9 1018 87 0 1.04 114 17:21 31.10.2019
5202 Clouds 9 1018 87 0 1 0 16:56 31.10.2019
5203 Clouds 10 1018 87 0 1 0 16:37 31.10.2019
5204 Clouds 9 1018 87 10000 1 0 16:18 31.10.2019
5205 Rain 10 1018 93 10000 1.5 270 15:41 31.10.2019
5206 Rain 10 1018 87 10000 1.5 40 15:23 31.10.2019
5207 Rain 10 1018 87 10000 1.5 40 14:59 31.10.2019
5208 Clouds 10 1018 87 10000 1 0 14:41 31.10.2019
5209 Clouds 10 1018 93 10000 2.6 270 14:23 31.10.2019
5210 Clouds 10 1018 93 10000 2.6 270 13:59 31.10.2019
5211 Clouds 10 1018 87 10000 1 0 13:39 31.10.2019
5212 Clouds 9 1018 87 0 0.5 0 13:19 31.10.2019
5213 Clouds 9 1018 87 0 0.5 0 12:57 31.10.2019
5214 Clouds 9 1018 87 0 1.5 260 12:38 31.10.2019
5215 Clouds 10 1019 87 10000 2.1 260 12:20 31.10.2019
5216 Clouds 10 1019 87 10000 2.6 250 11:45 31.10.2019
5217 Clouds 9 1019 81 10000 2.6 250 11:21 31.10.2019
5218 Clouds 9 1019 81 10000 2.6 250 11:21 31.10.2019
5219 Clouds 9 1019 81 10000 2.6 250 10:58 31.10.2019
5220 Clouds 9 1019 81 10000 2.6 250 10:58 31.10.2019
5221 Clouds 9 1019 87 10000 0.5 0 10:39 31.10.2019
5222 Clouds 9 1019 87 0 0.88 49 10:21 31.10.2019
5223 Clouds 8 1020 93 6000 2.1 230 09:54 31.10.2019
5224 Clouds 7 1020 93 6000 2.1 230 09:36 31.10.2019
5225 Clouds 7 1019 87 0 5.1 40 09:18 31.10.2019
5226 Clouds 7 1019 100 8000 1.5 100 08:43 31.10.2019
5227 Rain 7 1019 93 7000 1.5 90 08:24 31.10.2019
5228 Rain 7 1019 93 6000 1.5 240 07:48 31.10.2019
5229 Rain 7 1019 93 6000 1.5 240 07:26 31.10.2019
5230 Rain 7 1019 93 0 1.21 308 06:53 31.10.2019
5231 Rain 7 1019 93 0 1.21 308 06:32 31.10.2019
5232 Rain 7 1019 93 0 1.5 100 05:20 31.10.2019
5233 Clouds 7 1020 93 0 1 0 02:50 31.10.2019
5234 Clouds 7 1020 93 0 1 0 02:27 31.10.2019
5235 Clouds 7 1021 93 10000 1 0 01:21 31.10.2019
5236 Clouds 7 1021 93 10000 1 210 00:26 31.10.2019
5237 Clouds 7 1021 93 10000 0.5 0 23:49 30.10.2019
5238 Rain 7 1021 93 0 1.42 207 23:25 30.10.2019
5239 Clouds 7 1021 93 0 0.5 0 22:42 30.10.2019
5240 Rain 7 1021 93 10000 1 160 22:20 30.10.2019
5241 Rain 7 1022 93 10000 1 0 21:55 30.10.2019
5242 Rain 7 1022 93 10000 1 0 21:37 30.10.2019
5243 Clouds 7 1021 87 0 0.5 0 21:18 30.10.2019
5244 Clouds 8 1021 93 0 0.91 211 20:58 30.10.2019
5245 Clouds 8 1021 93 0 0.91 211 20:39 30.10.2019
5246 Drizzle 8 1021 93 0 2.1 80 20:21 30.10.2019
5247 Clouds 8 1021 87 0 1.07 319 19:54 30.10.2019
5248 Clouds 8 1021 87 0 1.07 319 19:36 30.10.2019
5249 Clouds 8 1021 87 0 1.5 50 19:18 30.10.2019
5250 Clouds 8 1021 93 0 1 0 18:39 30.10.2019
5251 Clouds 8 1020 93 0 0.5 0 18:19 30.10.2019
5252 Clouds 8 1020 93 0 0.5 0 17:56 30.10.2019
5253 Clouds 8 1020 93 0 2.6 260 17:38 30.10.2019
5254 Clouds 8 1020 93 0 1.46 346 17:18 30.10.2019
5255 Rain 8 1020 93 0 2.1 60 16:54 30.10.2019
5256 Rain 8 1020 93 0 2.1 60 16:36 30.10.2019
5257 Rain 8 1021 93 9000 1 0 16:18 30.10.2019
5258 Rain 8 1021 87 0 0.5 0 15:41 30.10.2019
5259 Clouds 9 1021 87 10000 1.5 220 15:21 30.10.2019
5260 Clouds 9 1021 87 10000 1.5 220 14:59 30.10.2019
5261 Clouds 9 1021 87 10000 1 0 14:41 30.10.2019
5262 Clouds 9 1021 87 10000 2.1 330 14:22 30.10.2019
5263 Clouds 9 1021 87 10000 2.1 330 13:57 30.10.2019
5264 Clouds 9 1020 87 10000 2.1 0 13:39 30.10.2019
5265 Clouds 8 1020 93 0 1.5 230 13:19 30.10.2019
5266 Clouds 8 1021 87 0 1.84 354 12:54 30.10.2019
5267 Clouds 9 1021 87 0 1.84 354 12:36 30.10.2019
5268 Clouds 9 1021 87 0 1.84 354 12:36 30.10.2019
5269 Clouds 9 1021 93 10000 1.5 90 12:18 30.10.2019
5270 Clouds 8 1022 93 10000 1.84 354 11:41 30.10.2019
5271 Rain 7 1022 93 8000 1.33 345 11:21 30.10.2019
5272 Rain 7 1022 100 7000 0.5 0 10:44 30.10.2019
5273 Rain 7 1022 100 7000 2.1 80 10:23 30.10.2019
5274 Rain 7 1022 100 0 1.5 100 09:43 30.10.2019
5275 Rain 7 1022 93 2200 1 70 09:25 30.10.2019
5276 Rain 8 1022 100 2000 0.5 0 08:58 30.10.2019
5277 Rain 8 1022 100 2000 0.5 0 08:40 30.10.2019
5278 Rain 7 1021 100 2000 2.01 325 08:21 30.10.2019
5279 Drizzle 7 1021 93 2000 0.5 0 07:46 30.10.2019
5280 Drizzle 7 1021 93 2000 0.5 0 07:28 30.10.2019
5281 Clouds 7 1021 93 0 1 0 06:42 30.10.2019
5282 Clouds 7 1021 93 0 2.1 70 06:21 30.10.2019
5283 Clouds 7 1021 87 0 2.6 50 05:42 30.10.2019
5284 Rain 7 1021 87 0 3.6 50 05:19 30.10.2019
5285 Clouds 7 1021 87 0 6.7 50 03:45 30.10.2019
5286 Clouds 7 1021 87 0 2.1 80 03:18 30.10.2019
5287 Rain 7 1021 87 0 2.6 30 02:19 30.10.2019
5288 Clouds 7 1021 100 0 2.43 333 01:32 30.10.2019
5289 Clouds 7 1021 100 0 1.5 90 00:31 30.10.2019
5290 Clouds 7 1021 93 0 3.1 80 23:46 29.10.2019
5291 Drizzle 8 1021 93 0 5.1 50 23:25 29.10.2019
5292 Drizzle 8 1021 100 0 2.6 50 22:55 29.10.2019
5293 Drizzle 8 1021 100 0 2.6 50 22:37 29.10.2019
5294 Drizzle 8 1021 93 0 4.6 50 22:18 29.10.2019
5295 Clouds 8 1021 93 0 7.2 50 21:42 29.10.2019
5296 Clouds 8 1020 87 0 8.7 50 21:21 29.10.2019
5297 Clouds 8 1020 87 0 8.7 50 20:59 29.10.2019
5298 Rain 8 1020 93 0 8.2 50 20:40 29.10.2019
5299 Clouds 8 1020 87 0 8.2 50 20:21 29.10.2019
5300 Clouds 8 1020 87 0 8.2 50 19:57 29.10.2019
5301 Rain 8 1020 87 0 4.6 50 19:38 29.10.2019
5302 Rain 8 1020 87 0 3.1 40 19:20 29.10.2019
5303 Rain 8 1019 87 0 5.1 50 18:56 29.10.2019
5304 Rain 8 1019 87 0 5.1 50 18:56 29.10.2019
5305 Rain 8 1019 87 0 5.1 50 18:37 29.10.2019
5306 Rain 8 1019 87 0 6.2 50 18:19 29.10.2019
5307 Clouds 8 1019 87 0 6.2 50 17:55 29.10.2019
5308 Clouds 8 1019 87 0 6.2 50 17:36 29.10.2019
5309 Rain 8 1019 87 0 8.2 50 17:18 29.10.2019
5310 Clouds 9 1018 81 0 5.7 50 16:40 29.10.2019
5311 Clouds 9 1018 87 0 5.7 70 16:21 29.10.2019
5312 Clouds 9 1018 87 0 5.7 70 15:57 29.10.2019
5313 Clouds 9 1018 93 0 3.1 90 15:39 29.10.2019
5314 Drizzle 9 1018 93 0 2.91 334 15:20 29.10.2019
5315 Drizzle 9 1018 93 0 2.91 334 15:20 29.10.2019
5316 Rain 9 1018 93 0 2.91 334 14:55 29.10.2019
5317 Rain 9 1018 93 0 2.91 334 14:37 29.10.2019
5318 Rain 9 1018 93 0 2.92 340 14:19 29.10.2019
5319 Rain 9 1018 87 0 2.6 50 13:40 29.10.2019
5320 Drizzle 9 1018 87 0 1.5 30 13:22 29.10.2019
5321 Rain 9 1018 93 0 2.92 337 12:55 29.10.2019
5322 Rain 9 1018 93 0 2.92 337 12:36 29.10.2019
5323 Rain 9 1018 93 0 2.92 337 12:18 29.10.2019
5324 Rain 8 1018 87 0 3.1 50 11:42 29.10.2019
5325 Rain 9 1018 87 0 4.1 50 11:20 29.10.2019
5326 Rain 8 1018 87 0 4.1 50 10:58 29.10.2019
5327 Rain 8 1018 87 0 3.1 50 10:39 29.10.2019
5328 Clouds 8 1018 93 0 2.6 0 10:20 29.10.2019
5329 Clouds 8 1018 93 0 2.6 0 09:57 29.10.2019
5330 Rain 8 1017 93 0 0.5 0 09:39 29.10.2019
5331 Rain 8 1017 100 0 2.57 325 09:21 29.10.2019
5332 Rain 8 1017 100 0 2.57 325 08:44 29.10.2019
5333 Rain 8 1016 100 0 2.69 325 08:25 29.10.2019
5334 Rain 8 1016 100 0 1.86 312 07:55 29.10.2019
5335 Rain 8 1016 100 0 1.86 312 07:36 29.10.2019
5336 Rain 8 1016 100 0 1.86 312 07:18 29.10.2019
5337 Rain 8 1016 100 0 1.86 312 06:44 29.10.2019
5338 Rain 8 1016 100 0 1 0 06:21 29.10.2019
5339 Rain 8 1016 100 0 0.5 0 05:50 29.10.2019
5340 Rain 8 1016 100 0 1.5 90 05:25 29.10.2019
5341 Rain 8 1016 100 0 0.5 0 04:30 29.10.2019
5342 Rain 9 1016 93 0 2.01 324 02:32 29.10.2019
5343 Rain 9 1016 93 0 1 130 01:46 29.10.2019
5344 Rain 9 1016 93 0 1.28 298 01:18 29.10.2019
5345 Rain 9 1017 93 0 1.28 298 00:31 29.10.2019
5346 Rain 10 1017 93 0 1.28 298 23:43 28.10.2019
5347 Rain 9 1017 100 0 0.28 292 23:20 28.10.2019
5348 Rain 10 1017 100 0 0.28 292 22:58 28.10.2019
5349 Rain 10 1017 100 0 0.28 292 22:37 28.10.2019
5350 Rain 10 1017 100 0 0.28 292 22:18 28.10.2019
5351 Rain 10 1017 100 0 0.5 0 21:55 28.10.2019
5352 Rain 10 1017 100 0 0.5 0 21:37 28.10.2019
5353 Rain 10 1017 100 0 0.28 292 21:18 28.10.2019
5354 Rain 10 1017 100 0 0.28 292 21:18 28.10.2019
5355 Rain 10 1017 100 0 0.28 292 20:44 28.10.2019
5356 Rain 10 1017 100 0 0.28 292 20:44 28.10.2019
5357 Rain 11 1017 100 0 0.28 292 20:24 28.10.2019
5358 Rain 11 1017 100 0 1.52 327 19:58 28.10.2019
5359 Rain 11 1018 100 7000 1.5 210 19:39 28.10.2019
5360 Rain 11 1018 100 0 1 0 19:20 28.10.2019
5361 Rain 11 1018 100 0 1 0 19:20 28.10.2019
5362 Rain 11 1018 100 0 1 0 18:58 28.10.2019
5363 Rain 11 1017 100 0 1.52 327 18:39 28.10.2019
5364 Rain 11 1017 100 0 1.52 327 18:21 28.10.2019
5365 Rain 11 1017 100 0 1.52 327 18:21 28.10.2019
5366 Rain 11 1017 100 0 1.52 327 17:56 28.10.2019
5367 Rain 12 1017 100 0 1.52 327 17:38 28.10.2019
5368 Rain 12 1017 100 0 0.57 82 17:19 28.10.2019
5369 Rain 11 1018 93 0 1 0 16:56 28.10.2019
5370 Rain 12 1018 93 0 1 0 16:38 28.10.2019
5371 Rain 13 1018 93 0 1.5 250 16:19 28.10.2019
5372 Rain 12 1018 93 0 1.5 250 15:56 28.10.2019
5373 Rain 12 1018 100 0 1 0 15:38 28.10.2019
5374 Rain 12 1018 100 4100 1 0 15:18 28.10.2019
5375 Rain 13 1018 93 10000 2.1 100 14:55 28.10.2019
5376 Rain 13 1018 93 10000 2.1 100 14:37 28.10.2019
5377 Rain 12 1018 93 6000 0.7 348 14:18 28.10.2019
5378 Rain 12 1018 93 6000 0.7 348 14:18 28.10.2019
5379 Rain 13 1018 93 10000 2.1 100 13:54 28.10.2019
5380 Rain 13 1018 93 10000 2.1 100 13:36 28.10.2019
5381 Rain 13 1018 93 10000 2.1 100 13:36 28.10.2019
5382 Rain 12 1018 93 0 0.5 0 13:18 28.10.2019
5383 Clouds 13 1019 87 10000 1 0 12:40 28.10.2019
5384 Rain 13 1019 87 0 0.5 0 12:20 28.10.2019
5385 Clouds 13 1019 87 0 1.5 70 11:39 28.10.2019
5386 Clouds 13 1019 93 0 3.1 110 11:20 28.10.2019
5387 Clouds 13 1019 93 0 3.1 110 10:56 28.10.2019
5388 Clouds 13 1019 93 0 3.1 110 10:56 28.10.2019
5389 Rain 12 1019 93 0 4.1 120 10:38 28.10.2019
5390 Clouds 12 1020 93 0 3.6 90 10:19 28.10.2019
5391 Clouds 12 1020 93 0 3.6 90 09:54 28.10.2019
5392 Clouds 12 1020 93 0 3.6 90 09:36 28.10.2019
5393 Rain 12 1020 100 0 3.6 80 09:18 28.10.2019
5394 Rain 12 1020 93 0 3.1 120 08:56 28.10.2019
5395 Rain 11 1020 93 0 3.1 120 08:37 28.10.2019
5396 Rain 11 1020 93 0 2.01 335 08:18 28.10.2019
5397 Rain 11 1019 93 0 2.01 335 07:43 28.10.2019
5398 Rain 11 1019 93 0 2.01 335 07:21 28.10.2019
5399 Rain 11 1019 93 0 2.01 335 06:56 28.10.2019
5400 Rain 11 1019 93 0 2.01 335 06:34 28.10.2019
5401 Rain 11 1020 93 0 0.5 0 04:49 28.10.2019
5402 Rain 11 1020 93 0 1 0 03:44 28.10.2019
5403 Clouds 12 1020 87 0 0.5 0 02:45 28.10.2019
5404 Clouds 12 1021 93 0 2.1 90 01:36 28.10.2019
5405 Clouds 12 1021 93 0 1.65 334 00:46 28.10.2019
5406 Clouds 12 1021 87 0 1.65 334 00:23 28.10.2019
5407 Clouds 12 1021 93 0 0.5 0 23:44 27.10.2019
5408 Clouds 12 1021 87 0 1.5 110 23:21 27.10.2019
5409 Clouds 12 1021 87 0 1.5 110 22:56 27.10.2019
5410 Clouds 12 1021 87 0 1.5 110 22:56 27.10.2019
5411 Clouds 12 1021 87 0 3.1 90 22:37 27.10.2019
5412 Clouds 12 1022 81 0 1.5 0 22:18 27.10.2019
5413 Clouds 12 1022 93 0 1 0 21:40 27.10.2019
5414 Clouds 12 1021 87 0 0.5 0 21:22 27.10.2019
5415 Clouds 12 1021 87 0 0.5 0 20:59 27.10.2019
5416 Clouds 12 1021 82 10000 0.5 0 20:40 27.10.2019
5417 Clouds 13 1021 82 10000 0.5 0 20:22 27.10.2019
5418 Clouds 13 1021 82 10000 0.5 0 19:57 27.10.2019
5419 Clouds 13 1022 87 0 1.5 120 19:37 27.10.2019
5420 Clouds 13 1022 87 0 0.34 335 19:19 27.10.2019
5421 Clouds 13 1022 87 0 0.34 335 18:56 27.10.2019
5422 Clouds 12 1021 87 0 2.1 100 18:38 27.10.2019
5423 Clouds 14 1021 87 0 2.1 110 18:19 27.10.2019
5424 Clouds 14 1021 87 0 2.1 100 17:54 27.10.2019
5425 Clouds 15 1021 82 10000 1.5 240 17:36 27.10.2019
5426 Clouds 15 1021 81 0 1.43 159 17:18 27.10.2019
5427 Clouds 16 1021 82 0 1.43 159 16:55 27.10.2019
5428 Clouds 16 1021 82 0 1.43 159 16:55 27.10.2019
5429 Clouds 16 1021 82 0 1.43 159 16:37 27.10.2019
5430 Clouds 16 1021 71 0 1.43 159 16:18 27.10.2019
5431 Clouds 17 1021 72 0 1.43 159 15:54 27.10.2019
5432 Clouds 17 1021 72 0 1.43 159 15:36 27.10.2019
5433 Clouds 18 1021 59 0 1 0 15:18 27.10.2019
5434 Clouds 18 1021 55 0 0.5 0 14:41 27.10.2019
5435 Clouds 17 1021 62 0 2.6 260 14:19 27.10.2019
5436 Clouds 17 1021 67 0 1.5 280 13:55 27.10.2019
5437 Clouds 17 1021 67 0 1.5 280 13:36 27.10.2019
5438 Clear 18 1022 67 0 1.5 240 13:18 27.10.2019
5439 Clear 18 1022 62 0 0.5 0 12:42 27.10.2019
5440 Clear 18 1023 62 0 1 0 12:23 27.10.2019
5441 Clear 17 1023 62 0 1.5 260 11:44 27.10.2019
5442 Clear 16 1023 71 0 0.5 0 11:25 27.10.2019
5443 Clear 16 1023 71 0 0.5 0 11:25 27.10.2019
5444 Clear 15 1023 71 0 0.5 0 10:59 27.10.2019
5445 Clear 15 1023 71 0 1 0 10:41 27.10.2019
5446 Clear 14 1023 76 10000 1.5 220 10:22 27.10.2019
5447 Clear 12 1023 93 0 2.07 169 09:44 27.10.2019
5448 Clear 10 1023 93 10000 2.1 220 09:19 27.10.2019
5449 Clear 9 1023 87 10000 2.6 240 08:57 27.10.2019
5450 Clear 8 1023 87 10000 2.6 240 08:38 27.10.2019
5451 Clear 8 1022 87 10000 2.1 260 08:19 27.10.2019
5452 Clear 8 1023 100 0 0.5 0 07:48 27.10.2019
5453 Clear 8 1022 87 10000 2.1 230 07:28 27.10.2019
5454 Clear 8 1023 93 0 0.5 0 06:55 27.10.2019
5455 Clear 8 1022 87 10000 1 0 06:29 27.10.2019
5456 Clear 8 1023 87 10000 1 0 05:58 27.10.2019
5457 Clear 8 1024 93 0 3.1 120 05:36 27.10.2019
5458 Clear 8 1023 93 10000 1.5 230 04:25 27.10.2019
5459 Clear 9 1023 93 10000 1 250 02:41 27.10.2019
5460 Clear 9 1023 93 10000 1.5 250 01:28 27.10.2019
5461 Clear 10 1023 81 10000 1.5 230 00:55 27.10.2019
5462 Clear 10 1023 81 10000 1.5 230 00:36 27.10.2019
5463 Clear 10 1023 87 10000 1.5 0 23:58 26.10.2019
5464 Clear 10 1023 87 10000 1.5 0 23:40 26.10.2019
5465 Clear 10 1022 87 10000 2.1 250 23:21 26.10.2019
5466 Clear 11 1022 87 10000 2.1 250 22:58 26.10.2019
5467 Clear 11 1022 87 10000 2.1 250 22:58 26.10.2019
5468 Clear 11 1022 87 10000 2.1 230 22:39 26.10.2019
5469 Clear 11 1022 87 10000 1.5 230 22:19 26.10.2019
5470 Clear 11 1022 87 10000 1.5 230 21:56 26.10.2019
5471 Clear 11 1022 81 10000 1.5 0 21:38 26.10.2019
5472 Clear 11 1023 81 0 0.5 0 21:19 26.10.2019
5473 Clear 11 1023 81 0 0.5 0 20:43 26.10.2019
5474 Clear 12 1022 81 10000 1.5 250 20:20 26.10.2019
5475 Clear 12 1022 81 10000 1.5 250 20:20 26.10.2019
5476 Clear 13 1023 87 0 3.1 100 19:44 26.10.2019
5477 Clear 13 1022 76 10000 1 0 19:21 26.10.2019
5478 Clear 14 1022 76 10000 1 0 18:59 26.10.2019
5479 Clear 15 1022 76 10000 2.1 280 18:40 26.10.2019
5480 Clear 15 1022 72 10000 1 0 18:20 26.10.2019
5481 Clear 16 1022 72 10000 1 0 17:59 26.10.2019
5482 Clear 16 1022 76 0 0.5 0 17:39 26.10.2019
5483 Clear 16 1022 76 0 0.5 0 17:20 26.10.2019
5484 Clear 17 1022 66 0 2.66 171 16:57 26.10.2019
5485 Clear 17 1022 66 0 2.66 171 16:38 26.10.2019
5486 Clear 17 1022 58 0 1.5 250 16:20 26.10.2019
5487 Clear 17 1022 58 0 1.5 280 15:40 26.10.2019
5488 Clear 17 1022 58 0 1.5 280 15:40 26.10.2019
5489 Clear 17 1022 58 0 2.6 250 15:18 26.10.2019
5490 Clear 17 1022 63 0 1.5 250 14:40 26.10.2019
5491 Clear 17 1022 63 0 1.5 250 14:40 26.10.2019
5492 Clear 17 1023 62 0 1 0 14:20 26.10.2019
5493 Clear 17 1023 62 0 1 0 13:59 26.10.2019
5494 Clear 10 1022 55 0 3.26 168 13:39 26.10.2019
5495 Clear 10 1022 55 0 3.26 168 13:20 26.10.2019
5496 Clear 13 1024 69 0 0.45 228 12:46 26.10.2019
5497 Clear 12 1023 93 0 0.5 0 12:23 26.10.2019
5498 Clear 13 1023 93 0 0.5 0 11:48 26.10.2019
5499 Clear 12 1023 93 0 0.5 0 11:48 26.10.2019
5500 Clear 12 1023 93 0 0.5 0 11:28 26.10.2019
5501 Clear 12 1023 93 0 0.5 0 11:28 26.10.2019
5502 Clear 12 1023 93 0 0.5 0 11:28 26.10.2019
5503 Clear 9 1024 100 0 0.5 0 10:47 26.10.2019
5504 Clear 9 1024 100 0 0.5 0 10:27 26.10.2019
5505 Clear 8 1024 100 0 2.6 180 09:59 26.10.2019
5506 Fog 7 1024 100 0 1 70 09:41 26.10.2019
5507 Fog 6 1024 100 0 1 0 09:23 26.10.2019
5508 Fog 6 1024 100 0 2 189 08:43 26.10.2019
5509 Fog 6 1023 100 0 2 189 08:25 26.10.2019
5510 Fog 6 1023 100 0 1.5 80 07:44 26.10.2019
5511 Fog 6 1023 100 0 1.5 80 07:44 26.10.2019
5512 Fog 6 1023 100 0 2 189 07:25 26.10.2019
5513 Fog 7 1023 100 0 2 189 06:42 26.10.2019
5514 Clear 7 1023 93 9000 1.5 240 06:23 26.10.2019
5515 Fog 7 1023 100 0 1.91 195 05:19 26.10.2019
5516 Fog 7 1024 100 0 0.5 0 04:23 26.10.2019
5517 Clear 9 1023 93 10000 2.1 240 02:45 26.10.2019
5518 Clear 9 1023 87 10000 2.1 240 01:51 26.10.2019
5519 Clear 9 1023 93 10000 1.5 230 01:22 26.10.2019
5520 Clear 10 1024 93 10000 1 260 00:23 26.10.2019
5521 Clouds 10 1025 93 0 2.38 186 23:43 25.10.2019
5522 Clouds 10 1025 100 0 1.5 110 23:20 25.10.2019
5523 Clouds 10 1024 93 0 0.5 0 22:40 25.10.2019
5524 Clouds 11 1024 93 0 1 0 22:22 25.10.2019
5525 Clouds 11 1024 93 0 1 0 21:57 25.10.2019
5526 Clouds 11 1024 93 0 2.38 186 21:39 25.10.2019
5527 Clouds 11 1024 93 0 2.38 186 21:39 25.10.2019
5528 Clouds 11 1024 93 0 1.5 60 21:19 25.10.2019
5529 Clear 11 1023 87 0 1.5 70 20:45 25.10.2019
5530 Clear 12 1023 87 0 1.98 181 20:20 25.10.2019
5531 Clear 12 1023 87 0 1.98 181 19:59 25.10.2019
5532 Clear 12 1023 87 0 1.98 181 19:59 25.10.2019
5533 Clouds 12 1023 82 0 1.98 181 19:40 25.10.2019
5534 Clouds 13 1023 76 0 3.6 70 19:22 25.10.2019
5535 Clouds 13 1023 82 0 0.5 0 18:43 25.10.2019
5536 Clear 15 1023 82 0 1 0 18:21 25.10.2019
5537 Clouds 15 1023 76 0 0.5 0 17:41 25.10.2019
5538 Clear 15 1022 76 0 2.75 169 17:21 25.10.2019
5539 Clouds 15 1023 63 10000 2.1 0 16:54 25.10.2019
5540 Clouds 16 1023 63 10000 2.1 0 16:36 25.10.2019
5541 Clouds 16 1023 67 10000 2.1 50 16:18 25.10.2019
5542 Clouds 16 1023 67 10000 0.5 0 15:40 25.10.2019
5543 Clouds 17 1023 77 10000 1 0 15:21 25.10.2019
5544 Clouds 17 1023 77 10000 1 0 14:57 25.10.2019
5545 Clouds 17 1024 77 10000 1.5 270 14:38 25.10.2019
5546 Clouds 16 1024 82 10000 2.6 250 14:20 25.10.2019
5547 Clouds 16 1024 82 0 3.1 250 13:41 25.10.2019
5548 Clouds 15 1025 82 0 3.1 260 13:23 25.10.2019
5549 Clouds 15 1024 82 0 2.1 250 12:55 25.10.2019
5550 Clouds 15 1024 82 0 2.1 250 12:37 25.10.2019
5551 Clouds 14 1025 77 10000 1 0 12:18 25.10.2019
5552 Clouds 14 1025 87 10000 3.1 260 11:40 25.10.2019
5553 Clouds 13 1024 93 10000 3.1 270 11:22 25.10.2019
5554 Clouds 13 1024 93 10000 3.1 270 10:57 25.10.2019
5555 Clouds 12 1024 93 10000 2.1 270 10:36 25.10.2019
5556 Clouds 12 1024 93 10000 2.1 270 10:36 25.10.2019
5557 Clouds 12 1024 93 10000 2.1 240 10:18 25.10.2019
5558 Clouds 12 1023 93 10000 1 0 09:42 25.10.2019
5559 Clouds 11 1023 100 10000 3.15 351 09:21 25.10.2019
5560 Clouds 11 1023 100 10000 3.15 351 08:57 25.10.2019
5561 Clouds 11 1023 87 10000 1 0 08:39 25.10.2019
5562 Clouds 11 1023 87 10000 1 0 08:39 25.10.2019
5563 Clouds 11 1022 93 10000 1.5 110 08:20 25.10.2019
5564 Clouds 11 1022 93 10000 3.15 351 07:45 25.10.2019
5565 Clouds 11 1022 93 8000 2.1 250 07:26 25.10.2019
5566 Clouds 11 1022 93 10000 1 300 06:37 25.10.2019
5567 Clouds 11 1021 93 0 2.01 1 05:49 25.10.2019
5568 Clouds 11 1021 93 0 2.01 1 05:28 25.10.2019
5569 Clouds 11 1021 93 0 2.01 1 04:30 25.10.2019
5570 Clouds 12 1020 93 0 0.5 0 02:35 25.10.2019
5571 Rain 12 1020 100 0 1.5 250 01:52 25.10.2019
5572 Clouds 12 1019 93 0 1.05 349 00:36 25.10.2019
5573 Rain 13 1019 100 0 0.65 198 23:44 24.10.2019
5574 Rain 13 1018 93 0 2.1 270 23:25 24.10.2019
5575 Rain 13 1018 93 0 2.1 270 22:59 24.10.2019
5576 Rain 13 1018 87 0 3.1 240 22:39 24.10.2019
5577 Clouds 13 1018 87 0 1.5 270 22:19 24.10.2019
5578 Clouds 13 1018 87 0 1.5 270 22:19 24.10.2019
5579 Clouds 13 1018 87 0 1.5 270 21:57 24.10.2019
5580 Clouds 13 1018 87 0 1.5 270 21:57 24.10.2019
5581 Clouds 13 1017 82 0 2.1 240 21:38 24.10.2019
5582 Clouds 13 1017 82 0 3.1 240 21:20 24.10.2019
5583 Clouds 13 1017 82 0 3.1 240 20:59 24.10.2019
5584 Clouds 13 1016 82 0 3.6 240 20:39 24.10.2019
5585 Clouds 14 1016 82 0 0.5 0 20:21 24.10.2019
5586 Clouds 15 1016 87 0 1 0 19:56 24.10.2019
5587 Clouds 15 1016 87 0 1 0 19:37 24.10.2019
5588 Clouds 14 1015 77 0 1.25 210 19:18 24.10.2019
5589 Clouds 15 1014 77 0 1.5 40 18:55 24.10.2019
5590 Clouds 15 1014 77 0 1.5 40 18:37 24.10.2019
5591 Clouds 14 1014 77 0 2.39 139 18:18 24.10.2019
5592 Clouds 15 1014 72 10000 0.5 0 17:41 24.10.2019
5593 Clouds 15 1014 72 10000 2.1 330 17:20 24.10.2019
5594 Clouds 15 1014 72 10000 2.1 330 16:56 24.10.2019
5595 Clouds 15 1014 72 10000 2.1 330 16:56 24.10.2019
5596 Clouds 15 1014 67 10000 1.5 240 16:38 24.10.2019
5597 Clouds 15 1014 67 10000 3.1 240 16:19 24.10.2019
5598 Clouds 15 1014 67 10000 3.1 240 15:58 24.10.2019
5599 Clouds 15 1013 72 10000 4.1 350 15:39 24.10.2019
5600 Clouds 16 1013 67 10000 3.6 250 15:21 24.10.2019
5601 Clouds 16 1013 67 10000 2.6 250 14:55 24.10.2019
5602 Clouds 16 1013 67 10000 2.6 250 14:37 24.10.2019
5603 Clouds 17 1013 67 10000 2.6 250 14:18 24.10.2019
5604 Clouds 16 1013 67 0 3.1 220 13:40 24.10.2019
5605 Clouds 16 1013 72 0 4.6 250 13:19 24.10.2019
5606 Clouds 16 1013 72 0 4.6 250 13:19 24.10.2019
5607 Clouds 16 1013 72 0 4.6 250 12:57 24.10.2019
5608 Clouds 16 1014 76 0 5.7 240 12:38 24.10.2019
5609 Clouds 15 1013 77 10000 3.1 60 12:19 24.10.2019
5610 Clouds 15 1013 72 10000 0.5 0 11:56 24.10.2019
5611 Clouds 15 1013 72 10000 0.5 0 11:56 24.10.2019
5612 Clouds 14 1013 72 10000 0.5 0 11:37 24.10.2019
5613 Clouds 14 1013 72 10000 0.5 0 11:37 24.10.2019
5614 Clouds 14 1013 76 10000 5.7 250 11:19 24.10.2019
5615 Rain 13 1011 82 10000 4.1 250 10:55 24.10.2019
5616 Rain 13 1011 82 10000 4.1 250 10:36 24.10.2019
5617 Rain 13 1012 82 10000 4.1 260 10:18 24.10.2019
5618 Clouds 12 1011 93 7000 1.5 270 09:37 24.10.2019
5619 Clouds 11 1010 87 10000 3.1 250 09:18 24.10.2019
5620 Clouds 11 1012 87 6000 1 0 08:44 24.10.2019
5621 Clouds 11 1012 87 10000 4.6 250 08:20 24.10.2019
5622 Clouds 11 1012 87 10000 4.6 250 08:20 24.10.2019
5623 Clouds 11 1011 76 10000 8.2 30 07:49 24.10.2019
5624 Clouds 11 1012 87 10000 1 0 07:24 24.10.2019
5625 Clouds 11 1012 87 10000 1 0 06:59 24.10.2019
5626 Clouds 11 1012 81 0 2.6 260 06:37 24.10.2019
5627 Clouds 11 1012 82 0 4.1 250 05:56 24.10.2019
5628 Clouds 11 1012 82 0 4.1 250 05:36 24.10.2019
5629 Clouds 12 1012 82 0 6.2 260 04:34 24.10.2019
5630 Rain 14 1011 67 10000 5.7 350 03:36 24.10.2019
5631 Rain 13 1010 76 10000 2.6 0 02:44 24.10.2019
5632 Rain 14 1010 63 10000 1.5 0 02:20 24.10.2019
5633 Clouds 13 1010 37 0 11.8 90 01:32 24.10.2019
5634 Clouds 14 1010 32 0 11.8 90 00:57 24.10.2019
5635 Clouds 14 1010 35 0 12.9 90 00:30 24.10.2019
5636 Clouds 14 1010 37 0 13.4 90 23:58 23.10.2019
5637 Clouds 14 1010 35 0 11.3 90 23:38 23.10.2019
5638 Clouds 14 1010 35 0 11.3 90 23:20 23.10.2019
5639 Clouds 13 1010 59 10000 2.1 0 22:57 23.10.2019
5640 Clouds 14 1010 32 0 11.8 100 22:37 23.10.2019
5641 Clouds 16 1011 37 10000 1 0 22:18 23.10.2019
5642 Clouds 16 1011 37 10000 1 0 21:57 23.10.2019
5643 Clouds 16 1011 37 10000 1 0 21:57 23.10.2019
5644 Clouds 15 1011 32 0 10.8 90 21:37 23.10.2019
5645 Clouds 15 1011 32 0 9.8 90 21:19 23.10.2019
5646 Clouds 14 1011 32 0 10.3 90 20:54 23.10.2019
5647 Clouds 13 1011 52 10000 2.1 110 20:36 23.10.2019
5648 Clouds 14 1011 52 10000 2.1 0 20:18 23.10.2019
5649 Clouds 13 1011 67 10000 2.6 270 19:43 23.10.2019
5650 Clouds 14 1011 77 10000 3.1 260 19:19 23.10.2019
5651 Clouds 14 1011 77 10000 3.1 260 18:58 23.10.2019
5652 Clouds 14 1012 82 10000 2.6 230 18:39 23.10.2019
5653 Clouds 14 1012 82 10000 2.1 230 18:19 23.10.2019
5654 -273 0 0 0 0 0 17:55 23.10.2019
5655 Clouds 15 1012 82 10000 1.5 250 17:55 23.10.2019
5656 Clouds 15 1012 82 10000 1.5 250 17:36 23.10.2019
5657 Clouds 15 1012 82 10000 1.5 250 17:36 23.10.2019
5658 Clouds 16 1012 82 10000 3.6 220 17:18 23.10.2019
5659 Clouds 17 1012 82 7000 3.1 230 16:40 23.10.2019
5660 Clouds 17 1012 82 7000 3.6 230 16:21 23.10.2019
5661 Clouds 17 1012 82 7000 3.6 230 15:57 23.10.2019
5662 Clouds 17 1013 82 7000 3.6 230 15:38 23.10.2019
5663 Clouds 17 1013 82 7000 3.6 230 15:20 23.10.2019
5664 Clouds 17 1013 30 10000 10.3 100 14:56 23.10.2019
5665 Clouds 17 1013 30 10000 10.3 100 14:37 23.10.2019
5666 Clouds 16 1014 82 7000 4.1 230 14:18 23.10.2019
5667 Clouds 16 1014 72 0 4.1 0 13:42 23.10.2019
5668 Clouds 16 1015 82 8000 3.1 220 13:24 23.10.2019
5669 Clouds 15 1015 82 8000 3.1 220 12:57 23.10.2019
5670 Clouds 15 1015 76 0 4.6 270 12:38 23.10.2019
5671 Clouds 13 1015 82 10000 5.1 250 12:19 23.10.2019
5672 Clouds 14 1015 82 10000 5.1 250 11:58 23.10.2019
5673 Clouds 14 1015 87 10000 6.7 260 11:39 23.10.2019
5674 Clouds 13 1016 100 10000 5.1 250 11:20 23.10.2019
5675 Clouds 13 1016 93 6000 4.6 270 10:46 23.10.2019
5676 Clouds 13 1016 93 6000 4.6 270 10:26 23.10.2019
5677 Fog 12 1016 100 550 6.2 260 09:58 23.10.2019
5678 Fog 11 1015 100 300 3.6 270 09:40 23.10.2019
5679 Fog 11 1016 100 250 1.5 280 09:21 23.10.2019
5680 Fog 11 1016 100 650 1 0 08:43 23.10.2019
5681 Mist 10 1016 100 1500 2.6 280 08:25 23.10.2019
5682 Mist 10 1016 100 1500 2.6 280 07:58 23.10.2019
5683 Mist 10 1017 100 2000 2.1 290 07:39 23.10.2019
5684 Mist 11 1017 100 4000 3.6 260 07:18 23.10.2019
5685 Clouds 11 1017 100 0 3.1 240 06:41 23.10.2019
5686 Mist 10 1018 100 0 3.6 270 06:18 23.10.2019
5687 Fog 10 1018 100 0 4.6 260 05:19 23.10.2019
5688 Fog 11 1018 100 0 3.1 270 03:46 23.10.2019
5689 Fog 11 1018 100 0 1.5 320 02:43 23.10.2019
5690 Clouds 11 1020 93 10000 2.1 210 01:40 23.10.2019
5691 Clouds 11 1020 93 10000 2.6 230 01:18 23.10.2019
5692 Fog 11 1020 100 0 2.22 173 00:34 23.10.2019
5693 Fog 12 1021 93 0 1 0 23:55 22.10.2019
5694 Fog 12 1021 93 0 1 0 23:37 22.10.2019
5695 Clouds 12 1021 93 10000 1 0 23:18 22.10.2019
5696 Clouds 12 1021 93 10000 1 0 23:18 22.10.2019
5697 Mist 12 1021 100 0 2.59 179 22:40 22.10.2019
5698 Clouds 12 1021 93 9000 1 0 22:22 22.10.2019
5699 Clouds 12 1021 93 9000 1 0 21:57 22.10.2019
5700 Clouds 12 1021 100 10000 2.35 178 21:38 22.10.2019
5701 Clouds 12 1021 100 10000 2.34 173 21:19 22.10.2019
5702 Clouds 12 1021 100 10000 2.34 173 20:58 22.10.2019
5703 Clouds 12 1022 93 10000 2.34 173 20:40 22.10.2019
5704 Clouds 12 1022 93 10000 1 0 20:22 22.10.2019
5705 Clouds 13 1022 93 10000 1 0 19:57 22.10.2019
5706 Clouds 13 1022 93 10000 1.5 310 19:39 22.10.2019
5707 Clouds 13 1022 93 10000 1.5 310 19:39 22.10.2019
5708 Clouds 13 1022 87 10000 2.34 173 19:21 22.10.2019
5709 Clouds 13 1021 93 10000 2.34 173 18:56 22.10.2019
5710 Clouds 13 1021 93 10000 2.34 173 18:37 22.10.2019
5711 Clouds 14 1022 87 10000 0.5 0 18:19 22.10.2019
5712 Clouds 14 1022 87 10000 3.76 161 17:55 22.10.2019
5713 Clouds 14 1022 87 10000 3.76 161 17:36 22.10.2019
5714 Clouds 14 1022 87 10000 2.6 250 17:18 22.10.2019
5715 Clouds 14 1022 87 10000 1.5 270 16:39 22.10.2019
5716 Clouds 14 1022 93 9000 1.5 70 16:20 22.10.2019
5717 Clouds 14 1022 93 9000 1.5 70 15:59 22.10.2019
5718 Clouds 14 1022 87 10000 2.1 260 15:41 22.10.2019
5719 Clouds 14 1022 87 10000 1.5 280 15:19 22.10.2019
5720 Clouds 14 1023 87 10000 2.6 270 14:46 22.10.2019
5721 Clouds 14 1023 93 10000 2.1 270 14:22 22.10.2019
5722 Clouds 15 1023 87 10000 2.1 290 13:55 22.10.2019
5723 Clouds 15 1023 87 10000 2.1 290 13:55 22.10.2019
5724 Clouds 15 1023 87 10000 2.1 290 13:37 22.10.2019
5725 Clouds 14 1023 87 0 0.5 0 13:18 22.10.2019
5726 Clouds 14 1023 93 0 1 0 12:41 22.10.2019
5727 Clouds 13 1023 87 10000 3.64 163 12:22 22.10.2019
5728 Clouds 13 1023 87 10000 3.64 163 11:59 22.10.2019
5729 Clouds 13 1024 87 10000 2.6 240 11:40 22.10.2019
5730 Clouds 13 1024 93 7000 0.5 0 11:22 22.10.2019
5731 Clouds 13 1024 93 7000 0.5 0 10:58 22.10.2019
5732 Clouds 14 1023 93 10000 1 0 10:37 22.10.2019
5733 Clouds 13 1023 100 10000 1.5 270 10:19 22.10.2019
5734 Clouds 13 1023 100 10000 1.5 270 09:57 22.10.2019
5735 Clouds 12 1023 93 10000 3.36 159 09:38 22.10.2019
5736 Clouds 12 1023 93 10000 1.5 240 09:20 22.10.2019
5737 Clouds 12 1023 93 10000 1 0 08:43 22.10.2019
5738 Clouds 12 1022 93 10000 0.5 0 08:22 22.10.2019
5739 Clouds 12 1022 93 10000 2.32 167 07:55 22.10.2019
5740 Clouds 12 1022 93 10000 2.32 167 07:37 22.10.2019
5741 Clouds 12 1022 93 10000 2.32 167 07:18 22.10.2019
5742 Clouds 11 1023 100 0 1.5 270 06:36 22.10.2019
5743 Clouds 11 1023 93 0 2.15 173 06:18 22.10.2019
5744 Clouds 11 1023 93 0 1.5 270 05:27 22.10.2019
5745 Clouds 12 1023 93 0 2.6 110 03:38 22.10.2019
5746 Clouds 12 1023 100 0 3.6 110 02:29 22.10.2019
5747 Clouds 12 1023 100 0 2.63 161 01:32 22.10.2019
5748 Clouds 12 1023 100 0 1.5 230 00:59 22.10.2019
5749 Drizzle 12 1023 93 0 3.1 240 00:40 22.10.2019
5750 Drizzle 13 1024 93 0 3.6 260 00:21 22.10.2019
5751 Drizzle 13 1023 93 0 2.1 230 23:57 21.10.2019
5752 Drizzle 13 1023 93 0 2.1 230 23:37 21.10.2019
5753 Drizzle 13 1023 100 0 2.1 250 23:19 21.10.2019
5754 Drizzle 13 1023 100 0 2.1 250 22:57 21.10.2019
5755 Clouds 13 1023 100 0 2.6 260 22:38 21.10.2019
5756 Clouds 13 1022 93 0 2.48 163 22:19 21.10.2019
5757 Rain 13 1022 87 0 3.1 70 21:55 21.10.2019
5758 Rain 13 1022 87 0 3.1 70 21:55 21.10.2019
5759 Rain 13 1022 87 0 3.1 70 21:37 21.10.2019
5760 Rain 13 1022 100 0 1 0 21:19 21.10.2019
5761 Rain 13 1023 93 2800 1 100 20:56 21.10.2019
5762 Rain 13 1023 93 2800 1 100 20:37 21.10.2019
5763 Rain 13 1022 93 6000 0.5 0 20:19 21.10.2019
5764 Rain 13 1022 100 0 2.1 230 19:41 21.10.2019
5765 Rain 13 1022 100 0 1 0 19:22 21.10.2019
5766 Rain 13 1022 100 0 1 0 18:57 21.10.2019
5767 Rain 13 1021 93 0 0.5 0 18:39 21.10.2019
5768 Rain 13 1021 93 0 0.5 0 18:39 21.10.2019
5769 Rain 14 1021 93 0 2.1 250 18:19 21.10.2019
5770 Rain 14 1021 93 0 2.1 250 18:19 21.10.2019
5771 Rain 14 1021 93 0 2.1 250 17:59 21.10.2019
5772 Rain 14 1021 87 0 2.1 230 17:38 21.10.2019
5773 Clouds 14 1021 93 10000 2.1 260 17:19 21.10.2019
5774 Clouds 14 1021 93 10000 2.1 260 16:57 21.10.2019
5775 Rain 14 1020 87 10000 2.1 220 16:39 21.10.2019
5776 Clouds 14 1020 87 10000 1.5 90 16:20 21.10.2019
5777 Clouds 14 1020 87 10000 0.5 0 15:47 21.10.2019
5778 Clouds 14 1020 87 10000 0.5 0 15:27 21.10.2019
5779 Clouds 14 1020 77 10000 4.6 80 14:59 21.10.2019
5780 Clouds 14 1020 87 10000 2.6 60 14:40 21.10.2019
5781 Clouds 14 1020 82 10000 1 0 14:21 21.10.2019
5782 Clouds 14 1020 82 10000 1 0 13:57 21.10.2019
5783 Clouds 14 1020 82 10000 2.1 240 13:39 21.10.2019
5784 Clouds 14 1021 82 0 3.6 260 13:20 21.10.2019
5785 Clouds 14 1020 82 0 3.1 260 12:42 21.10.2019
5786 Rain 14 1020 82 0 1.5 280 12:23 21.10.2019
5787 Rain 14 1020 82 0 1.5 280 11:58 21.10.2019
5788 Rain 13 1019 87 0 1.5 220 11:39 21.10.2019
5789 Rain 14 1019 87 0 1.42 340.457 11:21 21.10.2019
5790 Rain 13 1019 87 0 1.42 340.457 10:57 21.10.2019
5791 Rain 13 1018 87 0 1.42 340.457 10:38 21.10.2019
5792 Rain 13 1018 93 0 2.1 0 10:19 21.10.2019
5793 Clouds 13 1018 87 0 4.1 240 09:54 21.10.2019
5794 Clouds 12 1018 87 0 4.1 240 09:36 21.10.2019
5795 Clouds 12 1018 93 0 5.1 270 09:18 21.10.2019
5796 Clouds 11 1017 93 0 1.5 90 08:40 21.10.2019
5797 Clouds 12 1016 93 0 3.6 70 08:22 21.10.2019
5798 Clouds 12 1016 93 0 3.6 90 07:44 21.10.2019
5799 Clouds 11 1017 100 0 2.1 120 07:22 21.10.2019
5800 Clouds 11 1017 100 0 2.1 120 06:58 21.10.2019
5801 Rain 12 1017 93 0 2.4 128.04 06:40 21.10.2019
5802 Fog 12 1016 93 0 1.1 20.117 05:57 21.10.2019
5803 Fog 12 1016 93 0 1.1 20.117 05:57 21.10.2019
5804 Rain 11 1016 100 0 3.1 100 04:50 21.10.2019
5805 Rain 12 1015 87 0 2.1 300 03:38 21.10.2019
5806 Fog 12 1013 87 0 1.5 0 02:37 21.10.2019
5807 Fog 12 1012 87 0 1.5 0 02:19 21.10.2019
5808 Fog 12 1012 87 0 4.6 240 01:43 21.10.2019
5809 Clouds 12 1012 93 8000 0.5 0 00:51 21.10.2019
5810 Clouds 12 1012 93 8000 0.5 0 00:28 21.10.2019
5811 Fog 12 1012 93 6000 1.5 0 23:57 20.10.2019
5812 Fog 11 1011 82 0 2.6 260 23:38 20.10.2019
5813 Clouds 11 1010 93 8000 2.6 0 23:20 20.10.2019
5814 Mist 11 1009 87 10000 1.5 0 22:41 20.10.2019
5815 Mist 12 1009 93 0 1.5 270 22:23 20.10.2019
5816 Mist 12 1009 93 0 1.5 270 21:59 20.10.2019
5817 Mist 12 1009 87 0 1.5 0 21:39 20.10.2019
5818 Rain 12 1009 93 0 4.6 250 21:21 20.10.2019
5819 Rain 12 1008 87 0 2.1 280 20:55 20.10.2019
5820 Rain 12 1008 87 0 2.1 280 20:37 20.10.2019
5821 Rain 13 1008 72 0 4.6 0 20:18 20.10.2019
5822 Rain 13 1008 93 0 2.6 260 19:55 20.10.2019
5823 Rain 13 1008 93 0 2.6 260 19:36 20.10.2019
5824 Rain 13 1008 87 0 3.1 250 19:18 20.10.2019
5825 Rain 14 1008 93 0 5.1 260 18:40 20.10.2019
5826 Rain 15 1008 82 0 2.6 0 18:20 20.10.2019
5827 Rain 15 1008 82 0 3.1 0 17:56 20.10.2019
5828 Rain 15 1008 82 0 3.1 0 17:38 20.10.2019
5829 Rain 16 1007 49 0 5.1 0 17:19 20.10.2019
5830 Rain 16 1007 72 0 3.6 0 16:43 20.10.2019
5831 Rain 16 1007 63 0 4.6 0 16:24 20.10.2019
5832 Rain 16 1007 63 0 4.6 0 15:59 20.10.2019
5833 Rain 16 1007 77 0 3.6 0 15:38 20.10.2019
5834 Rain 15 1007 82 0 2.6 0 15:20 20.10.2019
5835 Rain 15 1007 82 0 2.6 0 14:58 20.10.2019
5836 Rain 14 1007 82 0 3.6 230 14:38 20.10.2019
5837 Rain 14 1007 87 0 3.1 280 14:19 20.10.2019
5838 Clouds 14 1008 87 0 3.6 270 13:56 20.10.2019
5839 Clouds 14 1008 87 0 3.6 270 13:37 20.10.2019
5840 Rain 13 1008 82 0 4.1 260 13:18 20.10.2019
5841 Rain 13 1008 82 0 4.1 260 13:18 20.10.2019
5842 Rain 13 1008 82 0 4.6 250 12:56 20.10.2019
5843 Rain 13 1008 82 0 4.6 250 12:37 20.10.2019
5844 Rain 13 1008 87 0 4.6 260 12:19 20.10.2019
5845 Rain 12 1009 87 0 4.6 260 11:55 20.10.2019
5846 Rain 12 1009 87 0 4.6 260 11:37 20.10.2019
5847 Mist 12 1009 93 0 6.2 260 11:18 20.10.2019
5848 Clouds 12 1009 93 0 5.7 260 10:41 20.10.2019
5849 Clouds 11 1009 93 0 4.6 250 10:22 20.10.2019
5850 Clouds 11 1009 93 0 4.6 250 09:57 20.10.2019
5851 Clouds 11 1009 93 0 4.6 250 09:39 20.10.2019
5852 Clouds 10 1009 93 0 4.6 260 09:21 20.10.2019
5853 Clouds 10 1009 93 0 4.6 250 08:48 20.10.2019
5854 Clouds 10 1009 93 0 4.6 250 08:48 20.10.2019
5855 Clouds 10 1009 93 0 5.7 260 08:23 20.10.2019
5856 Clouds 10 1009 93 0 5.1 260 07:50 20.10.2019
5857 Clouds 10 1009 93 0 5.1 260 07:30 20.10.2019
5858 Clouds 10 1009 93 0 4.1 250 06:35 20.10.2019
5859 Clouds 10 1009 93 0 5.1 250 05:59 20.10.2019
5860 Fog 10 1008 93 0 5.1 250 04:27 20.10.2019
5861 Mist 10 1008 100 0 4.1 240 03:43 20.10.2019
5862 Fog 10 1008 100 0 3.6 260 03:20 20.10.2019
5863 Fog 10 1009 93 0 4.6 260 02:38 20.10.2019
5864 Mist 10 1009 100 0 1 0 01:58 20.10.2019
5865 Clouds 10 1009 93 0 1.5 270 01:23 20.10.2019
5866 Clouds 10 1009 93 0 2.51 144.25 00:55 20.10.2019
5867 Clouds 10 1010 93 0 1 0 00:22 20.10.2019
5868 Clouds 11 1010 93 0 1 0 23:59 19.10.2019
5869 Clouds 10 1010 100 0 1.5 320 23:41 19.10.2019
5870 Rain 11 1010 100 0 2.06 140.23 23:22 19.10.2019
5871 Rain 11 1010 93 0 2.06 140.23 22:56 19.10.2019
5872 Rain 11 1010 93 0 2.06 140.23 22:37 19.10.2019
5873 Rain 11 1010 93 0 1 0 22:18 19.10.2019
5874 Rain 11 1009 93 0 1.5 280 21:45 19.10.2019
5875 Rain 11 1009 93 0 1.5 280 21:45 19.10.2019
5876 Rain 12 1009 93 0 3.1 250 21:22 19.10.2019
5877 Rain 12 1009 93 0 2.1 270 20:45 19.10.2019
5878 Rain 12 1009 93 0 2.1 270 20:45 19.10.2019
5879 Clouds 12 1009 87 0 4.6 250 20:22 19.10.2019
5880 Rain 12 1009 87 0 4.6 250 19:57 19.10.2019
5881 Rain 12 1009 87 0 1.5 290 19:39 19.10.2019
5882 Rain 13 1009 87 0 1.5 0 19:21 19.10.2019
5883 Rain 13 1008 82 0 1 0 18:42 19.10.2019
5884 Rain 13 1009 82 0 2.1 250 18:24 19.10.2019
5885 Rain 14 1008 82 0 0.5 0 17:55 19.10.2019
5886 Rain 14 1008 82 0 0.5 0 17:36 19.10.2019
5887 Rain 14 1009 77 0 1 0 17:18 19.10.2019
5888 Rain 14 1008 77 0 2.1 0 16:39 19.10.2019
5889 Rain 14 1009 72 0 2.6 260 16:20 19.10.2019
5890 Rain 14 1009 67 0 2.1 350 15:44 19.10.2019
5891 Rain 14 1009 67 0 2.1 350 15:44 19.10.2019
5892 Rain 14 1009 72 0 2.1 330 15:26 19.10.2019
5893 Rain 13 1009 67 0 6.2 0 14:55 19.10.2019
5894 Rain 14 1009 67 0 6.2 0 14:37 19.10.2019
5895 Rain 15 1010 72 0 3.6 40 14:19 19.10.2019
5896 Rain 15 1010 72 0 3.6 40 14:19 19.10.2019
5897 Rain 14 1010 72 0 4.6 60 13:54 19.10.2019
5898 Rain 14 1010 72 0 4.6 60 13:36 19.10.2019
5899 Rain 14 1011 72 0 2.6 120 13:18 19.10.2019
5900 Rain 14 1012 77 0 3.6 100 12:39 19.10.2019
5901 Rain 13 1012 82 0 3.6 110 12:21 19.10.2019
5902 Rain 12 1013 93 0 2.1 90 11:56 19.10.2019
5903 Rain 12 1013 93 0 2.1 90 11:36 19.10.2019
5904 Rain 12 1013 93 0 0.5 0 11:18 19.10.2019
5905 Rain 12 1014 93 0 1 0 10:40 19.10.2019
5906 Rain 12 1014 93 0 1 0 10:22 19.10.2019
5907 Rain 12 1014 93 0 1 0 10:22 19.10.2019
5908 Rain 12 1013 87 10000 1 0 09:57 19.10.2019
5909 Rain 11 1013 87 10000 1 0 09:39 19.10.2019
5910 Rain 11 1013 87 10000 1 0 09:20 19.10.2019
5911 Rain 11 1011 93 0 1.41 273.754 08:41 19.10.2019
5912 Rain 11 1011 93 0 1.41 273.754 08:21 19.10.2019
5913 Rain 11 1011 93 10000 3.1 200 07:46 19.10.2019
5914 Rain 11 1011 93 10000 3.1 200 07:26 19.10.2019
5915 Rain 11 1010 93 10000 2.1 0 06:49 19.10.2019
5916 Mist 11 1010 93 10000 2.1 0 06:30 19.10.2019
5917 Mist 11 1010 93 10000 2.1 0 06:30 19.10.2019
5918 Rain 11 1011 93 0 3.1 80 05:35 19.10.2019
5919 Clouds 11 1013 93 10000 1.5 210 04:26 19.10.2019
5920 Clouds 11 1012 93 0 3.6 90 02:56 19.10.2019
5921 Rain 12 1014 93 0 1 0 01:56 19.10.2019
5922 Rain 12 1014 93 0 1.71 140.849 01:37 19.10.2019
5923 Rain 12 1014 93 0 2.6 151.726 00:49 19.10.2019
5924 Rain 11 1014 93 0 2.6 151.726 00:28 19.10.2019
5925 Rain 12 1014 93 0 1.25 131.039 23:56 18.10.2019
5926 Rain 12 1014 93 0 1.5 120 23:37 18.10.2019
5927 Clouds 12 1014 93 0 1.5 0 23:19 18.10.2019
5928 Rain 12 1014 93 0 0.5 0 22:43 18.10.2019
5929 Clouds 12 1014 87 0 1 0 22:21 18.10.2019
5930 Clouds 12 1014 87 0 1 0 21:59 18.10.2019
5931 Clouds 12 1014 87 0 0.5 0 21:39 18.10.2019
5932 Clouds 12 1014 87 0 1.5 130 21:21 18.10.2019
5933 Clouds 12 1014 87 0 1.5 130 20:59 18.10.2019
5934 Clouds 12 1014 87 0 1.33 144.557 20:41 18.10.2019
5935 Clouds 13 1014 87 0 1 0 20:22 18.10.2019
5936 Clouds 13 1014 87 0 1 0 19:58 18.10.2019
5937 Clouds 13 1014 81 0 1 0 19:40 18.10.2019
5938 Clouds 13 1013 76 0 2.6 0 19:21 18.10.2019
5939 Clouds 13 1013 76 0 2.6 0 18:58 18.10.2019
5940 Clouds 14 1013 67 0 7.2 40 18:39 18.10.2019
5941 Clouds 14 1013 67 0 6.2 60 18:21 18.10.2019
5942 Clouds 15 1014 72 10000 1 0 17:40 18.10.2019
5943 Clouds 16 1014 77 10000 0.5 0 17:21 18.10.2019
5944 Clouds 16 1014 77 10000 0.5 0 16:59 18.10.2019
5945 Clouds 15 1013 77 10000 1 0 16:38 18.10.2019
5946 Clouds 16 1014 72 10000 0.5 0 16:20 18.10.2019
5947 Clouds 16 1014 72 10000 1 0 15:55 18.10.2019
5948 Clouds 16 1014 72 10000 1 0 15:36 18.10.2019
5949 Clouds 16 1014 72 10000 2.1 230 15:18 18.10.2019
5950 Clouds 16 1014 67 10000 1.42 343.386 14:56 18.10.2019
5951 Clouds 15 1014 67 10000 1.42 343.386 14:38 18.10.2019
5952 Rain 15 1015 72 10000 2.1 90 14:18 18.10.2019
5953 Rain 15 1016 76 0 1.5 90 13:42 18.10.2019
5954 Rain 14 1016 82 0 1 0 13:23 18.10.2019
5955 Rain 14 1016 82 0 1 0 12:58 18.10.2019
5956 Rain 14 1016 82 0 2.6 220 12:39 18.10.2019
5957 Rain 13 1015 77 10000 2.6 40 12:21 18.10.2019
5958 Rain 13 1015 77 10000 2.6 40 11:57 18.10.2019
5959 Clouds 13 1016 81 10000 1 0 11:39 18.10.2019
5960 Rain 12 1016 87 10000 5.1 260 11:20 18.10.2019
5961 Rain 12 1016 87 10000 5.1 260 10:56 18.10.2019
5962 Clouds 12 1015 87 10000 3.1 260 10:38 18.10.2019
5963 Clouds 12 1015 87 10000 1 0 10:19 18.10.2019
5964 -273 0 0 0 0 0 09:55 18.10.2019
5965 -273 0 0 0 0 0 09:55 18.10.2019
5966 -273 0 0 0 0 0 09:54 18.10.2019
5967 Clouds 11 1015 81 10000 1 0 09:54 18.10.2019
5968 Clouds 11 1015 81 10000 1 0 09:36 18.10.2019
5969 Clouds 10 1015 87 10000 1.5 110 09:18 18.10.2019
5970 Clouds 10 1015 93 10000 0.5 0 08:42 18.10.2019
5971 Clouds 9 1015 93 10000 1 0 08:21 18.10.2019
5972 Clouds 9 1015 93 10000 1 0 08:21 18.10.2019
5973 Clouds 9 1016 93 10000 3.11 157.34 07:43 18.10.2019
5974 -273 0 0 0 0 0 07:25 18.10.2019
5975 Clouds 10 1016 100 0 1.5 60 06:40 18.10.2019
5976 Rain 10 1016 100 0 0.5 0 06:22 18.10.2019
5977 Clouds 10 1016 93 0 1.94 161.677 05:56 18.10.2019
5978 Clouds 10 1016 93 10000 2.1 210 05:23 18.10.2019
5979 Clouds 9 1016 93 10000 1.5 280 04:41 18.10.2019
5980 Clouds 10 1016 93 0 1.94 161.677 03:32 18.10.2019
5981 Rain 11 1017 93 0 1.5 130 02:33 18.10.2019
5982 Rain 11 1017 87 10000 0.5 0 01:46 18.10.2019
5983 Rain 11 1017 87 10000 0.5 0 01:28 18.10.2019
5984 Clouds 11 1017 93 0 1 0 00:45 18.10.2019
5985 Rain 12 1017 87 0 1 0 00:21 18.10.2019
5986 Rain 12 1017 87 0 1 0 23:57 17.10.2019
5987 Rain 12 1017 87 0 2.1 110 23:36 17.10.2019
5988 Rain 12 1018 87 0 0.5 0 23:18 17.10.2019
5989 Clouds 12 1017 76 10000 1 0 22:55 17.10.2019
5990 Clouds 12 1017 76 10000 1 0 22:37 17.10.2019
5991 Clouds 12 1017 87 0 1 0 22:18 17.10.2019
5992 Clouds 12 1017 87 0 1 120 21:55 17.10.2019
5993 Clouds 12 1017 87 0 1 120 21:55 17.10.2019
5994 Clouds 11 1017 87 0 1 120 21:37 17.10.2019
5995 Clouds 13 1017 76 10000 1 230 21:19 17.10.2019
5996 Clouds 13 1017 81 0 1.5 90 20:56 17.10.2019
5997 Clouds 13 1017 81 0 1.5 90 20:37 17.10.2019
5998 Clouds 13 1017 71 0 2.6 90 20:18 17.10.2019
5999 Clouds 13 1017 81 0 3.1 70 19:42 17.10.2019
6000 Clouds 14 1017 76 0 2.1 120 19:20 17.10.2019
6001 Clouds 14 1017 76 0 2.1 120 18:59 17.10.2019
6002 Clouds 15 1016 82 0 2.1 90 18:39 17.10.2019
6003 Clouds 15 1016 76 0 1 0 18:20 17.10.2019
6004 Clouds 15 1016 71 0 1 0 17:44 17.10.2019
6005 Clouds 15 1015 63 10000 1.5 80 17:25 17.10.2019
6006 Clouds 16 1015 63 10000 1.5 80 16:59 17.10.2019
6007 Clouds 16 1016 62 10000 1.5 240 16:41 17.10.2019
6008 Clouds 16 1016 62 10000 1 0 16:19 17.10.2019
6009 Clouds 16 1016 62 10000 1 0 15:57 17.10.2019
6010 Clouds 17 1016 58 10000 2.6 230 15:39 17.10.2019
6011 Clouds 16 1016 54 10000 3.1 230 15:20 17.10.2019
6012 Clouds 16 1016 54 10000 3.1 230 14:57 17.10.2019
6013 Clouds 16 1016 58 10000 3.6 240 14:38 17.10.2019
6014 Clouds 16 1016 62 10000 3.6 240 14:20 17.10.2019
6015 Clouds 16 1016 66 10000 4.6 250 13:41 17.10.2019
6016 Clouds 16 1016 62 0 3.1 250 13:21 17.10.2019
6017 Clouds 16 1016 62 0 3.1 250 12:58 17.10.2019
6018 Clouds 15 1017 66 0 1.5 250 12:39 17.10.2019
6019 Clouds 15 1017 71 10000 1 0 12:19 17.10.2019
6020 Clouds 14 1017 71 10000 1 0 11:56 17.10.2019
6021 Clouds 14 1017 71 10000 1 0 11:37 17.10.2019
6022 Clouds 12 1017 71 10000 2.41 179 11:18 17.10.2019
6023 Clouds 12 1018 76 10000 0.5 0 10:42 17.10.2019
6024 Clouds 11 1018 81 10000 0.5 0 10:20 17.10.2019
6025 Clouds 10 1018 81 10000 0.5 0 09:57 17.10.2019
6026 Clouds 10 1018 81 10000 0.5 0 09:57 17.10.2019
6027 Clouds 9 1017 87 10000 2.41 179 09:38 17.10.2019
6028 Clouds 9 1017 87 10000 2.41 179 09:38 17.10.2019
6029 Clouds 8 1017 93 10000 1.364 229 09:20 17.10.2019
6030 Clouds 8 1017 93 10000 1.364 229 08:57 17.10.2019
6031 Clouds 8 1017 93 10000 1.364 229 08:57 17.10.2019
6032 Clouds 8 1017 93 10000 1.5 0 08:38 17.10.2019
6033 Clouds 8 1017 100 10000 0.5 0 08:18 17.10.2019
6034 Clouds 7 1018 100 10000 1.364 229 07:43 17.10.2019
6035 Clouds 8 1017 100 10000 1.364 229 07:21 17.10.2019
6036 Clouds 8 1018 93 0 1 0 06:56 17.10.2019
6037 Clouds 8 1018 93 0 1 0 06:38 17.10.2019
6038 Clouds 8 1017 81 10000 1.5 270 06:19 17.10.2019
6039 Clouds 8 1018 93 0 1 0 05:41 17.10.2019
6040 Clouds 7 1018 93 0 1.495 224 05:20 17.10.2019
6041 Clouds 7 1018 100 0 1 0 04:48 17.10.2019
6042 Clouds 7 1018 93 0 2.6 120 03:49 17.10.2019
6043 Clouds 7 1018 93 0 2.6 120 03:49 17.10.2019
6044 Clouds 7 1018 93 0 1 0 02:32 17.10.2019
6045 Clouds 7 1017 93 0 1.5 100 00:43 17.10.2019
6046 Clouds 7 1017 93 0 0.5 0 00:21 17.10.2019
6047 Clouds 8 1017 93 0 0.5 0 23:59 16.10.2019
6048 Clouds 7 1017 100 0 1.863 204 23:41 16.10.2019
6049 Clouds 7 1017 100 0 1.863 204 23:41 16.10.2019
6050 Clouds 7 1017 93 0 1 0 23:19 16.10.2019
6051 Clouds 7 1018 93 0 1 0 22:54 16.10.2019
6052 Clouds 7 1018 93 0 1 0 22:36 16.10.2019
6053 Clouds 7 1017 93 0 1.5 100 22:18 16.10.2019
6054 Clouds 8 1017 76 10000 2.1 250 21:54 16.10.2019
6055 Clouds 8 1017 76 10000 2.1 250 21:36 16.10.2019
6056 Clear 8 1017 93 0 1 0 21:18 16.10.2019
6057 Clear 8 1017 93 0 1.654 196 20:56 16.10.2019
6058 Clear 8 1017 93 0 1.654 196 20:37 16.10.2019
6059 Clear 9 1016 87 0 1.5 90 20:19 16.10.2019
6060 Clear 9 1016 93 0 2.6 100 19:41 16.10.2019
6061 Clear 9 1016 93 0 2.6 100 19:40 16.10.2019
6062 Clear 10 1016 87 0 2.6 100 19:21 16.10.2019
6063 Clear 11 1016 87 0 2.6 100 18:58 16.10.2019
6064 Clear 12 1016 87 0 1.5 90 18:38 16.10.2019
6065 Clear 13 1016 76 0 1.654 199 18:19 16.10.2019
6066 Clear 13 1016 76 0 1.654 199 18:19 16.10.2019
6067 Clear 13 1016 71 0 1.654 199 17:56 16.10.2019
6068 Clear 13 1016 71 0 1.654 199 17:37 16.10.2019
6069 Clear 13 1016 62 0 2.6 230 17:19 16.10.2019
6070 Clear 14 1016 62 0 2.6 230 16:57 16.10.2019
6071 Clear 14 1016 59 10000 1.5 0 16:38 16.10.2019
6072 Clear 14 1016 55 10000 1.5 0 16:20 16.10.2019
6073 Clear 14 1016 58 10000 2.6 240 15:41 16.10.2019
6074 Clear 14 1016 58 10000 2.6 240 15:41 16.10.2019
6075 Clear 14 1016 63 10000 2.1 250 15:19 16.10.2019
6076 Clear 14 1016 62 10000 3.1 240 14:59 16.10.2019
6077 Clear 15 1016 62 10000 3.1 240 14:41 16.10.2019
6078 Clouds 14 1017 71 10000 3.6 250 14:23 16.10.2019
6079 Clouds 14 1017 71 10000 3.6 250 13:59 16.10.2019
6080 Clouds 14 1017 71 10000 2.1 260 13:41 16.10.2019
6081 Clouds 14 1018 71 0 1.5 220 13:22 16.10.2019
6082 Clouds 13 1018 76 0 1.5 220 12:44 16.10.2019
6083 Clouds 13 1018 76 0 1.5 220 12:44 16.10.2019
6084 Clear 12 1018 76 10000 1 0 12:20 16.10.2019
6085 Clear 11 1018 76 10000 1 0 11:58 16.10.2019
6086 Clouds 11 1019 81 10000 0.5 0 11:40 16.10.2019
6087 Clouds 10 1019 93 10000 1.855 329 11:18 16.10.2019
6088 Fog 9 1019 100 2000 1.855 329 10:37 16.10.2019
6089 Fog 8 1019 100 600 2.6 90 10:19 16.10.2019
6090 Fog 7 1019 93 300 1.5 110 09:41 16.10.2019
6091 Clouds 6 1019 100 10000 2.1 220 09:22 16.10.2019
6092 Clouds 6 1019 100 10000 2.1 220 08:58 16.10.2019
6093 Fog 6 1019 100 150 3.194 325 08:40 16.10.2019
6094 Fog 6 1019 100 250 3.194 325 08:20 16.10.2019
6095 Fog 6 1019 100 600 3.194 325 07:43 16.10.2019
6096 Fog 6 1019 100 550 3.194 325 07:24 16.10.2019
6097 Mist 6 1018 100 0 3.194 325 06:56 16.10.2019
6098 Mist 6 1018 100 0 3.194 325 06:35 16.10.2019
6099 Clouds 7 1018 93 0 3.209 330 05:23 16.10.2019
6100 Clouds 8 1018 93 10000 1.5 0 02:57 16.10.2019
6101 Rain 8 1018 93 0 2.6 60 01:39 16.10.2019
6102 Rain 8 1018 93 0 1.5 60 01:18 16.10.2019
6103 Rain 9 1018 93 0 3.1 60 00:45 16.10.2019
6104 Rain 9 1018 93 0 2.6 70 23:59 15.10.2019
6105 Rain 9 1018 87 0 4.6 60 23:39 15.10.2019
6106 Rain 9 1017 93 0 4.1 60 23:21 15.10.2019
6107 Rain 9 1017 93 0 4.1 60 23:21 15.10.2019
6108 Rain 9 1017 93 0 1.5 120 22:55 15.10.2019
6109 Rain 10 1017 93 0 1.5 120 22:37 15.10.2019
6110 Rain 10 1016 93 0 1 0 22:19 15.10.2019
6111 Rain 10 1015 100 0 3.675 315 21:55 15.10.2019
6112 Rain 10 1015 100 0 3.675 315 21:55 15.10.2019
6113 Rain 10 1015 100 0 3.584 315 21:37 15.10.2019
6114 Rain 10 1015 100 0 1 0 21:19 15.10.2019
6115 Rain 10 1015 100 0 1 0 20:57 15.10.2019
6116 Rain 10 1015 87 0 1.5 190 20:38 15.10.2019
6117 Rain 11 1015 93 0 3.1 270 20:19 15.10.2019
6118 Rain 11 1014 93 0 3.6 260 19:56 15.10.2019
6119 Rain 11 1014 93 0 3.6 260 19:56 15.10.2019
6120 Rain 11 1014 93 0 3.6 260 19:37 15.10.2019
6121 Rain 11 1014 93 0 3.6 260 19:37 15.10.2019
6122 Rain 12 1012 93 0 3.1 250 19:19 15.10.2019
6123 Rain 12 1011 93 0 2.6 270 18:44 15.10.2019
6124 Rain 12 1010 93 0 2.6 270 18:26 15.10.2019
6125 Clouds 12 1009 93 0 2.6 310 17:56 15.10.2019
6126 Clouds 12 1009 93 0 2.6 310 17:38 15.10.2019
6127 Rain 12 1009 87 5000 3.1 60 17:19 15.10.2019
6128 Rain 12 1010 82 9000 1.5 0 16:45 15.10.2019
6129 Rain 12 1010 82 9000 1.5 0 16:45 15.10.2019
6130 Rain 13 1010 93 4000 3.1 250 16:22 15.10.2019
6131 Rain 13 1010 93 4000 3.1 250 15:58 15.10.2019
6132 Rain 13 1010 93 4000 3.1 250 15:58 15.10.2019
6133 Rain 13 1009 87 6000 4.1 300 15:40 15.10.2019
6134 Rain 13 1009 87 6000 4.1 300 15:40 15.10.2019
6135 Rain 14 1009 87 10000 2.6 260 15:20 15.10.2019
6136 Rain 15 1009 77 10000 4.6 310 14:56 15.10.2019
6137 Rain 15 1009 77 10000 4.6 310 14:37 15.10.2019
6138 Clouds 15 1009 72 10000 3.1 280 14:19 15.10.2019
6139 Clouds 15 1009 67 10000 3.1 250 13:43 15.10.2019
6140 Clouds 16 1009 67 0 4.1 220 13:21 15.10.2019
6141 Clouds 16 1009 67 0 4.1 220 12:59 15.10.2019
6142 Clouds 16 1009 67 0 4.1 230 12:38 15.10.2019
6143 Clouds 16 1009 72 10000 4.6 260 12:20 15.10.2019
6144 Clouds 15 1009 77 10000 3.1 180 11:44 15.10.2019
6145 Rain 14 1009 72 10000 2.6 40 11:20 15.10.2019
6146 Rain 14 1009 72 10000 2.6 40 10:57 15.10.2019
6147 Rain 13 1008 71 10000 5.7 250 10:39 15.10.2019
6148 Rain 13 1008 71 10000 6.2 260 10:19 15.10.2019
6149 Fog 12 1007 71 10000 7.2 250 09:56 15.10.2019
6150 Fog 12 1007 71 10000 7.2 250 09:37 15.10.2019
6151 Fog 11 1007 81 10000 2.1 240 09:19 15.10.2019
6152 Fog 10 1006 93 10000 1.5 260 08:41 15.10.2019
6153 Fog 11 1007 87 10000 3.1 240 08:21 15.10.2019
6154 Fog 10 1007 87 10000 1.5 250 07:55 15.10.2019
6155 Fog 10 1007 87 10000 1.5 250 07:37 15.10.2019
6156 Fog 10 1007 87 10000 2.1 260 07:18 15.10.2019
6157 Fog 11 1008 71 0 2.1 0 06:43 15.10.2019
6158 Fog 10 1009 81 0 3.1 250 06:22 15.10.2019
6159 Fog 11 1009 76 0 2.6 260 05:37 15.10.2019
6160 Fog 10 1009 87 0 2.1 0 05:19 15.10.2019
6161 Fog 10 1010 81 0 2.6 280 04:23 15.10.2019
6162 Fog 10 1010 87 0 3.1 280 03:36 15.10.2019
6163 Fog 10 1010 87 0 3.1 280 03:36 15.10.2019
6164 Mist 11 1012 81 0 1 0 02:22 15.10.2019
6165 Mist 11 1012 81 0 1.5 0 01:47 15.10.2019
6166 Clouds 11 1013 81 0 2.1 280 01:18 15.10.2019
6167 Clouds 11 1013 81 0 2.1 250 00:47 15.10.2019
6168 Clear 11 1013 76 0 2.1 270 00:20 15.10.2019
6169 Clear 12 1013 81 0 2.6 270 23:39 14.10.2019
6170 Clear 11 1014 71 0 1.5 0 23:19 14.10.2019
6171 Clear 12 1014 71 0 1.5 0 22:40 14.10.2019
6172 Clear 13 1013 62 10000 1 0 22:21 14.10.2019
6173 Clear 13 1013 62 10000 1 0 21:59 14.10.2019
6174 Clear 13 1013 45 10000 5.1 0 21:40 14.10.2019
6175 Clear 14 1013 45 10000 5.7 0 21:21 14.10.2019
6176 Clear 14 1013 45 10000 5.7 0 21:21 14.10.2019
6177 Clear 14 1013 45 10000 5.7 0 20:58 14.10.2019
6178 Clear 14 1013 51 0 5.1 120 20:39 14.10.2019
6179 Clear 14 1013 48 10000 2.6 0 20:20 14.10.2019
6180 Clear 15 1013 48 10000 2.6 0 19:58 14.10.2019
6181 Rain 15 1013 71 10000 1 0 19:39 14.10.2019
6182 Rain 15 1013 71 10000 1 0 19:39 14.10.2019
6183 Rain 16 1013 71 10000 2.1 280 19:21 14.10.2019
6184 Rain 16 1013 71 10000 2.1 280 19:21 14.10.2019
6185 Clear 17 1013 72 0 1 0 18:57 14.10.2019
6186 Clear 17 1013 72 0 1 0 18:57 14.10.2019
6187 Clear 17 1013 72 0 1 0 18:38 14.10.2019
6188 Clear 18 1014 72 0 2.6 240 18:18 14.10.2019
6189 Clear 18 1014 72 0 2.83 158.285 17:44 14.10.2019
6190 Clear 19 1014 63 10000 1 0 17:25 14.10.2019
6191 Clear 19 1014 63 10000 1 0 16:58 14.10.2019
6192 Clear 19 1014 68 10000 1 0 16:40 14.10.2019
6193 Clear 19 1015 59 10000 2.1 280 16:19 14.10.2019
6194 Clear 19 1015 55 10000 2.1 250 15:41 14.10.2019
6195 Clear 19 1015 68 10000 1.5 80 15:22 14.10.2019
6196 Clear 19 1015 68 10000 2.1 50 14:44 14.10.2019
6197 Clear 19 1016 55 10000 1.5 230 14:26 14.10.2019
6198 Clear 19 1016 55 10000 1.5 230 13:59 14.10.2019
6199 Clear 19 1016 68 10000 1.5 70 13:40 14.10.2019
6200 Clear 19 1017 63 0 1 0 13:21 14.10.2019
6201 Clear 19 1017 63 0 1 0 13:21 14.10.2019
6202 Clear 18 1018 72 0 1 0 12:42 14.10.2019
6203 Clear 17 1017 72 10000 1.5 70 12:21 14.10.2019
6204 Clear 17 1017 72 10000 1.5 70 11:57 14.10.2019
6205 Clear 16 1018 72 10000 2.1 110 11:39 14.10.2019
6206 Clear 15 1017 77 10000 1.5 0 11:20 14.10.2019
6207 Clear 13 1018 87 10000 1.38 162.154 10:44 14.10.2019
6208 Clear 12 1018 93 10000 0.5 0 10:23 14.10.2019
6209 Clear 12 1018 93 10000 0.5 0 09:59 14.10.2019
6210 Clear 11 1018 93 10000 1.5 310 09:40 14.10.2019
6211 Fog 9 1018 100 10000 2.99 159.052 09:20 14.10.2019
6212 Clear 9 1017 93 10000 2.1 250 08:48 14.10.2019
6213 Mist 9 1017 93 10000 1.5 0 08:23 14.10.2019
6214 Mist 9 1017 93 10000 2.1 250 07:45 14.10.2019
6215 Mist 9 1017 93 10000 1 0 07:23 14.10.2019
6216 Clear 9 1017 87 10000 1.5 220 06:57 14.10.2019
6217 Clear 9 1017 87 10000 1.5 220 06:28 14.10.2019
6218 Mist 9 1017 93 10000 1.5 250 05:55 14.10.2019
6219 Mist 9 1017 93 10000 1.5 260 04:59 14.10.2019
6220 Mist 10 1018 87 10000 2.1 240 03:49 14.10.2019
6221 Mist 10 1019 93 0 3.21 154.847 03:22 14.10.2019
6222 Mist 10 1019 93 10000 1 0 02:25 14.10.2019
6223 Mist 11 1019 87 10000 1.5 0 01:19 14.10.2019
6224 Clear 11 1019 93 0 3.08 156.52 00:41 14.10.2019
6225 Clear 11 1019 100 0 3.59 157.897 00:18 14.10.2019
6226 Mist 10 1019 93 0 2.1 90 23:40 13.10.2019
6227 Clear 11 1019 93 0 1 0 23:19 13.10.2019
6228 Clear 11 1018 87 10000 2.1 240 22:56 13.10.2019
6229 Clear 11 1019 93 0 0.5 0 22:38 13.10.2019
6230 Clear 11 1018 93 0 1.5 110 22:19 13.10.2019
6231 Clear 12 1018 93 0 0.5 0 21:56 13.10.2019
6232 Clear 12 1018 93 0 3.59 157.897 21:36 13.10.2019
6233 Clear 12 1018 93 0 3.59 157.897 21:36 13.10.2019
6234 Clear 12 1018 93 0 0.5 0 21:18 13.10.2019
6235 Clear 12 1018 93 0 0.5 0 21:18 13.10.2019
6236 Clear 12 1018 93 0 3.99 156.471 20:55 13.10.2019
6237 Mist 13 1018 93 0 3.81 156.952 20:37 13.10.2019
6238 -273 0 0 0 0 0 20:18 13.10.2019
6239 Clear 14 1018 87 0 2.1 110 19:54 13.10.2019
6240 Clear 15 1018 87 0 2.1 110 19:36 13.10.2019
6241 Clear 15 1018 87 0 2.1 110 19:36 13.10.2019
6242 Clear 16 1017 82 10000 1.5 290 19:18 13.10.2019
6243 Clear 17 1018 87 0 2.1 110 18:40 13.10.2019
6244 Clear 17 1018 87 0 2.1 110 18:40 13.10.2019
6245 Clear 17 1018 82 0 1 0 18:21 13.10.2019
6246 Clear 17 1018 82 0 1 0 17:59 13.10.2019
6247 Clear 19 1017 63 10000 1.5 60 17:41 13.10.2019
6248 Clouds 19 1018 72 0 0.5 0 17:22 13.10.2019
6249 Clouds 20 1018 63 0 3.6 240 16:43 13.10.2019
6250 Clouds 19 1018 63 0 2.1 250 16:19 13.10.2019
6251 Clouds 19 1018 63 0 2.1 250 15:58 13.10.2019
6252 Clouds 19 1018 59 0 1.5 270 15:39 13.10.2019
6253 Clouds 20 1018 59 0 1 0 15:20 13.10.2019
6254 Clouds 20 1018 59 0 1 0 14:58 13.10.2019
6255 Clear 20 1018 72 10000 2.1 60 14:39 13.10.2019
6256 Clouds 19 1018 63 10000 2.6 70 14:20 13.10.2019
6257 Clouds 19 1019 63 0 2.1 270 13:56 13.10.2019
6258 Clouds 19 1019 63 0 2.1 270 13:37 13.10.2019
6259 Clouds 18 1019 67 0 1.5 280 13:18 13.10.2019
6260 Clouds 18 1019 72 0 2.1 260 12:55 13.10.2019
6261 Clouds 18 1019 67 10000 2.6 60 12:37 13.10.2019
6262 Clouds 16 1019 82 0 2.1 280 12:18 13.10.2019
6263 Clear 16 1018 67 10000 0.5 0 11:55 13.10.2019
6264 Clear 16 1018 67 10000 0.5 0 11:55 13.10.2019
6265 Clear 15 1018 67 10000 0.5 0 11:36 13.10.2019
6266 Clouds 14 1019 93 0 1 0 11:18 13.10.2019
6267 Clear 12 1018 82 10000 0.5 0 10:41 13.10.2019
6268 Clouds 12 1019 93 0 1.5 120 10:22 13.10.2019
6269 Clouds 12 1019 93 0 1.5 120 10:22 13.10.2019
6270 Clouds 10 1019 100 0 2.02 161.655 09:41 13.10.2019
6271 Clear 9 1018 93 10000 1.5 0 09:21 13.10.2019
6272 Clear 9 1019 93 0 3.19 159.324 08:57 13.10.2019
6273 Clear 9 1018 87 10000 2.1 220 08:38 13.10.2019
6274 Clear 8 1019 93 0 3.19 159.324 08:19 13.10.2019
6275 Clear 8 1019 100 0 2.6 110 07:45 13.10.2019
6276 Clear 8 1019 87 10000 1.5 240 06:58 13.10.2019
6277 Mist 8 1019 93 0 3.19 159.324 06:31 13.10.2019
6278 Mist 9 1019 100 0 3.45 153.725 05:34 13.10.2019
6279 Mist 9 1019 100 0 3.45 153.725 05:34 13.10.2019
6280 Fog 9 1019 93 10000 1.5 270 04:46 13.10.2019
6281 Mist 9 1019 87 10000 2.1 240 03:39 13.10.2019
6282 Clouds 10 1020 93 0 3.45 158.106 02:39 13.10.2019
6283 Clear 10 1019 87 10000 1.5 270 01:53 13.10.2019
6284 Clear 10 1020 93 0 3.38 159.748 01:22 13.10.2019
6285 Fog 11 1020 93 0 3.38 159.748 00:44 13.10.2019
6286 Clouds 10 1020 93 0 1.5 110 00:21 13.10.2019
6287 Mist 11 1020 93 0 2.6 80 23:55 12.10.2019
6288 Mist 11 1020 93 0 2.6 80 23:36 12.10.2019
6289 Clouds 12 1020 93 0 3.86 156.081 23:18 12.10.2019
6290 Clouds 12 1019 82 10000 1 0 22:55 12.10.2019
6291 Clouds 12 1019 82 10000 1 0 22:36 12.10.2019
6292 Clouds 12 1020 93 0 3.86 156.081 22:18 12.10.2019
6293 -273 0 0 0 0 0 21:41 12.10.2019
6294 Clouds 13 1020 87 0 3.5 152.308 21:23 12.10.2019
6295 Clouds 13 1020 87 0 3.46 153.576 20:56 12.10.2019
6296 Rain 13 1020 81 0 3.46 153.576 20:38 12.10.2019
6297 Rain 13 1020 81 0 3.46 153.576 20:38 12.10.2019
6298 Clouds 14 1019 82 10000 1 0 20:20 12.10.2019
6299 Clouds 15 1019 77 10000 0.5 0 19:37 12.10.2019
6300 Clouds 16 1019 72 10000 1.5 0 19:19 12.10.2019
6301 -273 0 0 0 0 0 18:44 12.10.2019
6302 Clouds 15 1020 76 0 2.1 110 18:26 12.10.2019
6303 Clear 17 1019 63 10000 1 0 17:56 12.10.2019
6304 Clear 17 1019 63 10000 1 0 17:56 12.10.2019
6305 Clear 17 1019 63 10000 1 0 17:37 12.10.2019
6306 Clouds 17 1020 62 0 1.5 160 17:18 12.10.2019
6307 Clouds 16 1020 62 0 3.6 240 16:41 12.10.2019
6308 Clouds 17 1019 62 0 1.5 250 16:21 12.10.2019
6309 Clouds 17 1019 62 0 1.5 250 15:58 12.10.2019
6310 Clouds 17 1019 67 0 0.5 0 15:38 12.10.2019
6311 Clouds 17 1019 51 0 0.5 0 15:19 12.10.2019
6312 Clouds 17 1019 58 0 0.22 149.967 14:41 12.10.2019
6313 Clouds 17 1018 63 10000 1 0 14:21 12.10.2019
6314 Clouds 17 1018 63 10000 1 0 14:21 12.10.2019
6315 Clear 17 1019 59 10000 1 0 13:52 12.10.2019
6316 Clouds 17 1019 62 0 3.1 260 13:33 12.10.2019
6317 Clouds 17 1019 62 0 2.1 250 12:59 12.10.2019
6318 Clear 17 1019 67 10000 2.1 60 12:38 12.10.2019
6319 Clear 16 1019 58 10000 1 0 12:20 12.10.2019
6320 Clear 15 1020 62 10000 0.5 0 11:47 12.10.2019
6321 Clear 14 1020 62 10000 0.5 0 11:26 12.10.2019
6322 Clouds 13 1020 76 0 0.5 0 10:59 12.10.2019
6323 Clouds 12 1021 81 0 1.5 110 10:40 12.10.2019
6324 Clear 11 1020 81 10000 1 0 10:21 12.10.2019
6325 Clear 10 1020 81 10000 1 0 09:57 12.10.2019
6326 Clear 10 1020 81 10000 1 0 09:57 12.10.2019
6327 Clear 8 1020 87 10000 1.5 260 09:38 12.10.2019
6328 Clear 7 1020 100 0 1 0 09:20 12.10.2019
6329 Clear 7 1020 87 10000 1 0 08:55 12.10.2019
6330 Clear 7 1020 100 0 3.47 156.329 08:36 12.10.2019
6331 Clear 7 1020 93 10000 1.5 250 08:18 12.10.2019
6332 Clear 7 1020 93 10000 1.5 250 08:18 12.10.2019
6333 Fog 6 1020 93 10000 1 220 07:32 12.10.2019
6334 Mist 7 1019 81 10000 1.5 260 06:38 12.10.2019
6335 Mist 7 1019 87 10000 1 0 05:44 12.10.2019
6336 Mist 7 1020 93 0 3.19 157.749 04:43 12.10.2019
6337 Mist 7 1019 87 10000 2.1 230 03:56 12.10.2019
6338 Clear 8 1019 87 10000 2.1 240 02:54 12.10.2019
6339 Clouds 7 1020 93 0 3.1 155.561 01:35 12.10.2019
6340 Mist 8 1020 87 10000 1.5 0 00:57 12.10.2019
6341 Clear 8 1020 81 10000 1 0 00:38 12.10.2019
6342 Clouds 8 1021 93 0 0.5 0 23:56 11.10.2019
6343 Clear 9 1020 87 10000 2.1 210 23:37 11.10.2019
6344 Mist 9 1021 93 0 3.17 156.768 23:19 11.10.2019
6345 Clear 9 1020 81 10000 2.1 270 22:39 11.10.2019
6346 Mist 9 1020 100 0 3.17 156.768 22:20 11.10.2019
6347 Clouds 9 1020 93 0 3.17 156.768 21:55 11.10.2019
6348 Clouds 9 1020 93 0 3.17 156.768 21:36 11.10.2019
6349 Clouds 9 1020 87 0 3.55 156.927 21:18 11.10.2019
6350 Clouds 10 1020 93 0 2.6 120 20:42 11.10.2019
6351 Clouds 11 1020 87 0 1 0 20:24 11.10.2019
6352 Clouds 11 1020 81 0 2.1 120 19:56 11.10.2019
6353 Clouds 11 1020 81 0 2.1 120 19:38 11.10.2019
6354 Clear 13 1019 71 10000 2.6 270 19:18 11.10.2019
6355 Clear 15 1019 71 10000 1.5 0 18:56 11.10.2019
6356 Clear 15 1019 71 10000 1.5 0 18:56 11.10.2019
6357 Clear 15 1019 71 10000 1.5 0 18:37 11.10.2019
6358 Clouds 15 1019 71 0 0.11 65.113 18:18 11.10.2019
6359 Clouds 15 1019 71 0 0.5 0 17:57 11.10.2019
6360 Clouds 15 1019 71 0 0.5 0 17:37 11.10.2019
6361 Clear 15 1020 62 10000 1 0 17:18 11.10.2019
6362 Clear 16 1020 44 10000 0.11 65.113 16:42 11.10.2019
6363 Clouds 16 1020 44 0 0.5 0 16:21 11.10.2019
6364 Clouds 16 1020 44 0 0.5 0 15:59 11.10.2019
6365 Clear 17 1021 47 10000 2.6 220 15:39 11.10.2019
6366 Clear 17 1021 54 10000 3.6 240 15:19 11.10.2019
6367 Clear 16 1021 58 10000 4.1 240 14:48 11.10.2019
6368 Clear 16 1021 58 10000 4.1 240 14:29 11.10.2019
6369 Clear 16 1022 58 10000 1 0 13:57 11.10.2019
6370 Clear 16 1022 58 10000 1 0 13:39 11.10.2019
6371 Clouds 15 1022 58 0 1 0 13:21 11.10.2019
6372 Clear 15 1022 62 10000 1 0 12:56 11.10.2019
6373 Clear 15 1022 62 10000 1 0 12:38 11.10.2019
6374 Clear 14 1023 66 10000 0.5 0 12:18 11.10.2019
6375 Clear 12 1023 66 10000 1 0 11:41 11.10.2019
6376 Clear 12 1023 71 10000 0.5 0 11:22 11.10.2019
6377 Clear 11 1023 71 10000 0.5 0 10:58 11.10.2019
6378 Clear 11 1023 71 10000 0.5 0 10:58 11.10.2019
6379 Clear 11 1023 71 10000 0.5 0 10:58 11.10.2019
6380 Clear 11 1023 71 10000 2.1 220 10:40 11.10.2019
6381 Clear 9 1023 81 10000 0.31 348.69 10:22 11.10.2019
6382 Clear 8 1023 87 10000 2.1 260 09:56 11.10.2019
6383 Clear 6 1023 87 10000 2.1 260 09:37 11.10.2019
6384 Clear 6 1023 100 10000 2.35 164.269 09:19 11.10.2019
6385 Clear 5 1023 93 10000 2.35 164.269 08:55 11.10.2019
6386 Clear 5 1023 93 10000 2.35 164.269 08:36 11.10.2019
6387 Clear 4 1023 100 10000 0.5 0 08:18 11.10.2019
6388 Clear 5 1023 100 10000 3.1 110 07:44 11.10.2019
6389 Clear 5 1023 100 10000 1 60 07:25 11.10.2019
6390 Mist 4 1023 100 0 1.5 100 06:48 11.10.2019
6391 Mist 5 1023 93 0 1.94 160.092 06:23 11.10.2019
6392 Clear 5 1023 100 0 1.94 160.092 05:39 11.10.2019
6393 Clear 5 1023 87 10000 2.6 260 04:59 11.10.2019
6394 Mist 5 1024 100 0 1 0 04:24 11.10.2019
6395 Clear 6 1024 93 0 1.5 110 02:32 11.10.2019
6396 Clear 6 1024 93 0 2.26 161.469 00:49 11.10.2019
6397 Clear 6 1024 93 0 2.26 161.469 00:29 11.10.2019
6398 Clear 7 1024 93 0 1.5 100 23:44 10.10.2019
6399 Clear 8 1024 93 0 1 0 23:22 10.10.2019
6400 Clear 7 1024 93 0 1 0 22:58 10.10.2019
6401 Clear 7 1024 93 0 2.47 161.763 22:39 10.10.2019
6402 Clouds 7 1024 93 0 0.5 0 22:20 10.10.2019
6403 Clouds 7 1024 93 0 0.5 0 21:57 10.10.2019
6404 Clouds 8 1024 93 0 2.1 110 21:39 10.10.2019
6405 Clouds 8 1023 87 0 2.1 90 21:20 10.10.2019
6406 Clouds 9 1023 87 0 1.5 90 20:43 10.10.2019
6407 Clouds 10 1022 71 10000 2.1 0 20:22 10.10.2019
6408 Clouds 10 1022 71 10000 2.1 0 19:59 10.10.2019
6409 Clouds 12 1022 66 0 0.5 0 19:41 10.10.2019
6410 Clouds 12 1022 66 0 0.5 0 19:41 10.10.2019
6411 Clouds 13 1021 62 0 2.6 260 19:21 10.10.2019
6412 Clouds 13 1021 62 0 2.6 260 18:59 10.10.2019
6413 Clouds 13 1021 62 0 3.6 260 18:39 10.10.2019
6414 Rain 14 1021 54 0 3.1 260 18:20 10.10.2019
6415 Rain 14 1020 51 0 3.1 270 17:55 10.10.2019
6416 Rain 14 1020 51 0 3.1 270 17:36 10.10.2019
6417 Clouds 14 1020 51 10000 3.6 250 17:18 10.10.2019
6418 Clouds 14 1020 48 10000 2.6 230 16:44 10.10.2019
6419 Clouds 15 1020 45 10000 1 0 16:26 10.10.2019
6420 Clouds 15 1020 55 10000 1.5 0 15:54 10.10.2019
6421 Clouds 15 1020 55 10000 1.5 0 15:36 10.10.2019
6422 Clouds 15 1020 55 10000 1.5 0 15:36 10.10.2019
6423 Clouds 15 1020 58 10000 2.1 0 15:18 10.10.2019
6424 Clouds 15 1020 62 10000 1.5 120 14:54 10.10.2019
6425 Clouds 15 1020 62 10000 1.5 120 14:36 10.10.2019
6426 Clouds 15 1021 67 10000 1 0 14:18 10.10.2019
6427 Clouds 15 1021 62 10000 0.5 0 13:41 10.10.2019
6428 Clouds 15 1021 66 0 3.6 230 13:23 10.10.2019
6429 Clouds 15 1021 66 0 3.6 230 12:57 10.10.2019
6430 Clouds 14 1021 71 0 0.5 0 12:39 10.10.2019
6431 Clouds 12 1021 71 10000 2.13 293.851 12:20 10.10.2019
6432 Clouds 12 1021 81 10000 1 0 11:55 10.10.2019
6433 Clouds 12 1021 81 10000 1 0 11:37 10.10.2019
6434 Clouds 12 1021 87 10000 3.1 110 11:18 10.10.2019
6435 Clouds 11 1020 71 10000 1 0 10:44 10.10.2019
6436 Clouds 10 1019 81 10000 1.5 0 10:26 10.10.2019
6437 Clouds 10 1020 93 10000 1 0 09:56 10.10.2019
6438 Clouds 10 1020 93 10000 1 0 09:38 10.10.2019
6439 Rain 7 1019 93 10000 1.5 200 09:19 10.10.2019
6440 Rain 8 1019 100 10000 1 0 08:42 10.10.2019
6441 Rain 7 1019 100 0 1.19 232.062 08:24 10.10.2019
6442 Rain 8 1019 100 0 1.19 232.062 07:59 10.10.2019
6443 Drizzle 7 1019 100 10000 1 0 07:40 10.10.2019
6444 Clouds 8 1018 100 10000 1.5 100 07:20 10.10.2019
6445 Clouds 8 1018 93 0 2.1 90 06:45 10.10.2019
6446 Rain 8 1018 93 0 1.19 232.062 06:26 10.10.2019
6447 Clouds 8 1018 100 0 1.26 181.454 05:25 10.10.2019
6448 Rain 8 1018 100 0 0.5 0 04:37 10.10.2019
6449 Fog 8 1018 100 0 2.1 70 03:42 10.10.2019
6450 Rain 9 1018 100 0 1.5 110 01:43 10.10.2019
6451 Rain 9 1018 100 0 1.5 110 01:43 10.10.2019
6452 Rain 9 1018 100 0 1.5 70 01:24 10.10.2019
6453 Rain 9 1018 93 10000 0.5 0 00:53 10.10.2019
6454 Rain 9 1018 93 0 1 0 00:21 10.10.2019
6455 Rain 9 1018 100 0 1 0 23:39 09.10.2019
6456 Fog 9 1018 100 0 1 0 23:20 09.10.2019
6457 Mist 9 1018 100 0 1 0 22:44 09.10.2019
6458 Drizzle 9 1018 100 0 1 0 22:24 09.10.2019
6459 Drizzle 9 1018 100 0 1 0 21:59 09.10.2019
6460 Mist 9 1018 100 0 1.5 110 21:40 09.10.2019
6461 Mist 9 1018 100 0 1.5 80 21:20 09.10.2019
6462 Mist 9 1018 100 0 1 0 20:56 09.10.2019
6463 Mist 9 1018 100 0 1 0 20:56 09.10.2019
6464 Mist 9 1018 100 0 1 0 20:37 09.10.2019
6465 Rain 9 1017 93 10000 1.5 0 20:19 09.10.2019
6466 Rain 10 1017 93 0 1.5 60 19:46 09.10.2019
6467 -273 0 0 0 0 0 19:24 09.10.2019
6468 Rain 10 1017 93 0 2.89 170.848 18:58 09.10.2019
6469 Rain 10 1017 93 0 1.5 210 18:38 09.10.2019
6470 Drizzle 11 1017 93 0 0.5 0 18:19 09.10.2019
6471 Rain 11 1017 93 0 1 0 17:56 09.10.2019
6472 Rain 11 1017 93 0 1 0 17:37 09.10.2019
6473 Rain 11 1017 87 10000 1.5 70 17:19 09.10.2019
6474 Rain 11 1016 81 10000 1 0 16:42 09.10.2019
6475 Rain 11 1017 87 10000 1.5 0 16:23 09.10.2019
6476 Rain 11 1017 87 10000 1.5 0 15:58 09.10.2019
6477 Rain 11 1016 87 10000 1 0 15:39 09.10.2019
6478 Rain 11 1016 93 6000 4.6 310 15:20 09.10.2019
6479 Rain 11 1016 93 6000 4.6 310 14:59 09.10.2019
6480 Rain 11 1015 93 4300 3.6 270 14:41 09.10.2019
6481 Rain 11 1015 93 5000 4.1 260 14:18 09.10.2019
6482 Rain 12 1015 93 5000 3.6 290 13:40 09.10.2019
6483 Rain 12 1015 93 4900 1.5 60 13:22 09.10.2019
6484 Rain 12 1015 93 4900 1.5 60 12:59 09.10.2019
6485 Rain 12 1015 93 4900 1.5 60 12:59 09.10.2019
6486 Rain 12 1015 87 0 2.6 0 12:41 09.10.2019
6487 Rain 12 1014 93 10000 1 0 12:22 09.10.2019
6488 Rain 12 1014 93 10000 1 0 12:22 09.10.2019
6489 Rain 12 1014 93 9000 1.5 0 11:56 09.10.2019
6490 Rain 12 1014 93 9000 1.5 0 11:37 09.10.2019
6491 Rain 12 1013 82 10000 5.7 350 11:19 09.10.2019
6492 Rain 12 1012 87 10000 3.1 110 10:44 09.10.2019
6493 Rain 12 1013 93 10000 1.5 260 10:22 09.10.2019
6494 Rain 12 1013 93 10000 1.5 260 09:59 09.10.2019
6495 Rain 12 1013 87 10000 1 0 09:41 09.10.2019
6496 Rain 12 1013 87 10000 1 0 09:41 09.10.2019
6497 Rain 12 1014 100 10000 1.5 0 09:19 09.10.2019
6498 Rain 12 1013 93 10000 1 0 08:55 09.10.2019
6499 Rain 12 1013 93 10000 1 0 08:37 09.10.2019
6500 Drizzle 12 1014 93 10000 1 0 08:18 09.10.2019
6501 Rain 12 1014 93 10000 3.1 90 07:39 09.10.2019
6502 Rain 12 1014 93 10000 1.5 120 07:21 09.10.2019
6503 Rain 12 1014 93 0 1.5 130 06:52 09.10.2019
6504 Rain 12 1014 93 0 1.5 130 06:52 09.10.2019
6505 Rain 13 1014 93 0 2.6 70 06:19 09.10.2019
6506 Rain 13 1014 93 10000 2.6 210 05:44 09.10.2019
6507 Rain 13 1014 87 10000 1.5 0 04:27 09.10.2019
6508 Rain 12 1014 93 0 2.1 80 02:54 09.10.2019
6509 Clouds 13 1014 93 0 0.5 0 01:44 09.10.2019
6510 Clouds 12 1014 93 0 1.5 270 01:21 09.10.2019
6511 Clouds 12 1014 93 0 1.5 270 00:57 09.10.2019
6512 Clouds 12 1013 82 10000 1 180 00:38 09.10.2019
6513 Clouds 12 1013 93 0 3.11 160.534 00:20 09.10.2019
6514 Clouds 12 1014 93 0 0.5 0 23:39 08.10.2019
6515 Clouds 12 1014 87 0 1.5 210 23:19 08.10.2019
6516 Clouds 13 1014 87 0 1.5 210 22:57 08.10.2019
6517 Clouds 13 1015 87 0 2.1 0 22:39 08.10.2019
6518 Clouds 13 1015 87 0 2.1 110 22:19 08.10.2019
6519 Clouds 12 1015 87 0 2.1 110 21:57 08.10.2019
6520 Clouds 12 1015 87 0 3.11 160.534 21:39 08.10.2019
6521 Clouds 12 1014 82 10000 1.5 0 21:19 08.10.2019
6522 Clouds 13 1014 82 10000 2.1 260 20:56 08.10.2019
6523 Clouds 13 1014 82 10000 2.1 260 20:56 08.10.2019
6524 Clouds 13 1014 82 10000 2.1 260 20:37 08.10.2019
6525 Clouds 13 1015 81 0 1 0 20:19 08.10.2019
6526 Clouds 14 1015 81 0 1 0 19:57 08.10.2019
6527 Clouds 14 1015 81 0 2.1 120 19:38 08.10.2019
6528 Clouds 14 1015 81 0 2.1 90 19:20 08.10.2019
6529 Clouds 15 1014 62 10000 1 0 18:46 08.10.2019
6530 Clouds 16 1014 62 10000 1 0 18:28 08.10.2019
6531 Clouds 16 1015 54 0 0.5 0 17:59 08.10.2019
6532 Clouds 16 1015 54 10000 2.1 260 17:40 08.10.2019
6533 Clouds 16 1015 55 10000 1 0 17:20 08.10.2019
6534 Clouds 16 1015 55 10000 1 0 16:57 08.10.2019
6535 Clouds 16 1014 62 10000 2.1 60 16:38 08.10.2019
6536 Clouds 17 1015 63 10000 1.5 270 16:20 08.10.2019
6537 Clouds 17 1016 54 10000 1.5 240 15:40 08.10.2019
6538 Clouds 16 1016 62 10000 1 0 15:21 08.10.2019
6539 Clouds 16 1016 62 10000 1 0 14:57 08.10.2019
6540 Clouds 16 1016 67 10000 1.5 0 14:39 08.10.2019
6541 Clouds 16 1017 66 10000 1.5 280 14:20 08.10.2019
6542 Clouds 15 1016 66 10000 0.5 0 13:56 08.10.2019
6543 Clouds 14 1017 71 10000 1.5 230 13:37 08.10.2019
6544 Clouds 14 1017 66 10000 1.5 120 13:18 08.10.2019
6545 Clouds 13 1018 71 10000 1.5 100 12:42 08.10.2019
6546 Clouds 13 1018 76 10000 1 0 12:22 08.10.2019
6547 Clouds 12 1018 76 10000 1 0 11:59 08.10.2019
6548 Clouds 12 1018 71 10000 0.5 0 11:40 08.10.2019
6549 Clouds 11 1018 76 10000 0.5 0 11:22 08.10.2019
6550 Clouds 11 1019 81 10000 2.1 110 10:56 08.10.2019
6551 Clouds 11 1019 81 10000 2.1 110 10:36 08.10.2019
6552 Clouds 10 1019 87 10000 1.5 130 10:18 08.10.2019
6553 Clouds 9 1019 87 10000 0.67 213.809 09:41 08.10.2019
6554 Clouds 9 1019 87 10000 0.67 213.809 09:41 08.10.2019
6555 Clouds 8 1019 87 10000 0.5 0 09:23 08.10.2019
6556 Clouds 8 1019 93 10000 0.5 0 08:59 08.10.2019
6557 Clouds 7 1019 93 10000 0.5 0 08:41 08.10.2019
6558 Clouds 7 1019 93 10000 2.1 90 08:22 08.10.2019
6559 Clouds 6 1019 100 10000 0.5 0 07:42 08.10.2019
6560 Clouds 6 1019 93 10000 0.55 201.164 07:21 08.10.2019
6561 Clouds 6 1019 93 10000 0.55 201.164 07:21 08.10.2019
6562 Clouds 6 1020 93 0 2.1 110 06:50 08.10.2019
6563 Clouds 6 1020 93 0 2.1 110 06:28 08.10.2019
6564 Clouds 6 1020 93 0 1 0 05:46 08.10.2019
6565 Clouds 6 1020 93 0 1.69 170.973 05:25 08.10.2019
6566 Clear 6 1020 93 0 2.1 100 03:57 08.10.2019
6567 Clear 6 1020 76 10000 1.5 220 03:24 08.10.2019
6568 Clouds 6 1020 87 10000 2.1 220 02:35 08.10.2019
6569 Clouds 7 1020 87 10000 1 230 01:44 08.10.2019
6570 Clouds 7 1021 93 0 0.5 0 01:25 08.10.2019
6571 Clouds 7 1021 87 0 2.1 120 00:45 08.10.2019
6572 Clouds 7 1021 93 0 2.6 110 00:20 08.10.2019
6573 Clouds 7 1021 87 0 2.19 159.184 23:39 07.10.2019
6574 Clouds 7 1021 76 10000 2.1 240 23:20 07.10.2019
6575 Clouds 7 1021 87 0 2.1 110 22:56 07.10.2019
6576 Clouds 7 1021 87 0 2.1 110 22:37 07.10.2019
6577 Clouds 7 1021 93 10000 3.1 100 22:19 07.10.2019
6578 Clouds 7 1021 87 0 2.6 90 21:55 07.10.2019
6579 Clouds 7 1021 87 0 2.6 90 21:37 07.10.2019
6580 Clouds 8 1020 93 10000 2.1 80 21:18 07.10.2019
6581 Clouds 8 1020 93 10000 2.1 80 20:57 07.10.2019
6582 Clouds 8 1020 87 0 2.1 90 20:38 07.10.2019
6583 Clouds 9 1020 87 10000 2.1 100 20:19 07.10.2019
6584 Clouds 11 1019 87 10000 2.1 100 19:55 07.10.2019
6585 Clouds 11 1019 87 10000 2.1 100 19:54 07.10.2019
6586 Clouds 11 1019 87 10000 2.1 100 19:54 07.10.2019
6587 Clouds 11 1019 87 10000 2.1 100 19:36 07.10.2019
6588 Clouds 11 1019 76 10000 1 0 19:18 07.10.2019
6589 Clouds 13 1019 76 0 2.6 0 18:42 07.10.2019
6590 Clouds 13 1019 71 0 1 0 18:19 07.10.2019
6591 Clouds 12 1019 71 0 1 0 17:58 07.10.2019
6592 Rain 13 1019 54 0 2.1 220 17:40 07.10.2019
6593 Clouds 13 1019 54 10000 2.1 240 17:19 07.10.2019
6594 Clouds 14 1019 58 10000 2.6 240 16:46 07.10.2019
6595 Clouds 14 1019 58 10000 2.6 240 16:46 07.10.2019
6596 Clouds 13 1019 58 10000 2.6 240 16:28 07.10.2019
6597 Clouds 14 1019 58 10000 2.1 110 15:58 07.10.2019
6598 Clouds 14 1019 54 10000 1.5 110 15:40 07.10.2019
6599 Clouds 14 1019 62 10000 2.1 70 15:21 07.10.2019
6600 Clouds 14 1019 54 10000 1.5 120 14:42 07.10.2019
6601 Clouds 13 1019 54 10000 2.1 120 14:23 07.10.2019
6602 Clear 14 1020 62 10000 2.6 120 13:45 07.10.2019
6603 Clear 14 1019 62 10000 2.6 90 13:21 07.10.2019
6604 Clear 13 1019 62 10000 2.6 90 12:58 07.10.2019
6605 Clouds 14 1020 71 0 3.1 220 12:40 07.10.2019
6606 Clouds 14 1020 71 0 3.1 220 12:40 07.10.2019
6607 Clouds 12 1020 76 10000 3.1 230 12:21 07.10.2019
6608 Clouds 12 1020 76 10000 3.1 230 12:21 07.10.2019
6609 Clouds 12 1020 76 10000 3.1 230 11:59 07.10.2019
6610 Clouds 12 1020 76 10000 3.1 230 11:59 07.10.2019
6611 Clouds 10 1019 76 10000 3.6 220 11:40 07.10.2019
6612 Clouds 10 1019 81 10000 4.1 230 11:21 07.10.2019
6613 Clouds 11 1019 81 10000 4.1 230 10:57 07.10.2019
6614 Clear 10 1018 81 10000 1 0 10:39 07.10.2019
6615 Clouds 9 1018 81 10000 1.5 0 10:20 07.10.2019
6616 Clear 8 1018 81 10000 0.5 0 09:39 07.10.2019
6617 Clouds 7 1019 93 10000 1.5 110 09:21 07.10.2019
6618 Clouds 7 1019 93 10000 1 0 08:44 07.10.2019
6619 Clouds 7 1019 93 10000 2.1 250 08:21 07.10.2019
6620 Clouds 7 1018 93 10000 1.5 60 07:56 07.10.2019
6621 Clouds 7 1018 93 10000 1.5 60 07:36 07.10.2019
6622 Clouds 7 1017 100 10000 1.5 80 07:18 07.10.2019
6623 Clouds 8 1018 100 0 1 0 06:43 07.10.2019
6624 Rain 8 1017 93 0 1 0 06:20 07.10.2019
6625 Rain 7 1017 100 0 0.5 0 05:27 07.10.2019
6626 Rain 8 1017 93 0 1 0 04:56 07.10.2019
6627 Rain 8 1017 100 0 2.04 195.868 03:51 07.10.2019
6628 Rain 9 1017 100 0 2.04 195.868 03:32 07.10.2019
6629 Rain 9 1017 93 0 1.06 218.449 02:53 07.10.2019
6630 Rain 9 1017 93 0 1 0 02:19 07.10.2019
6631 Rain 10 1015 87 0 4.1 270 01:24 07.10.2019
6632 Rain 11 1014 87 0 2.6 240 00:53 07.10.2019
6633 Rain 11 1013 93 0 2.1 0 00:26 07.10.2019
6634 Rain 11 1013 93 0 2.1 0 23:59 06.10.2019
6635 Rain 11 1013 100 0 1 0 23:40 06.10.2019
6636 Rain 11 1012 93 0 2.53 301.236 23:20 06.10.2019
6637 Rain 11 1012 93 0 2.53 301.236 22:57 06.10.2019
6638 Rain 11 1012 93 0 1 0 22:39 06.10.2019
6639 Rain 11 1012 93 0 1 0 22:20 06.10.2019
6640 Rain 11 1012 93 0 1 0 22:20 06.10.2019
6641 Rain 12 1012 93 0 2.6 80 21:55 06.10.2019
6642 Rain 12 1012 93 0 2.6 80 21:37 06.10.2019
6643 Rain 12 1012 93 0 1.5 110 21:18 06.10.2019
6644 Rain 12 1012 93 0 1.5 110 21:18 06.10.2019
6645 Rain 12 1013 93 0 1 0 20:56 06.10.2019
6646 Rain 12 1013 93 0 1 0 20:38 06.10.2019
6647 Rain 12 1013 93 0 1 0 20:19 06.10.2019
6648 Rain 12 1013 93 0 1 0 19:56 06.10.2019
6649 Rain 12 1013 93 0 1 0 19:36 06.10.2019
6650 Rain 12 1013 93 0 1 0 19:36 06.10.2019
6651 Rain 12 1013 82 0 0.5 0 19:18 06.10.2019
6652 Clouds 12 1013 76 0 3.1 240 18:55 06.10.2019
6653 Clouds 12 1013 76 0 3.1 240 18:37 06.10.2019
6654 Rain 14 1012 76 0 1 0 18:18 06.10.2019
6655 Rain 14 1012 76 0 1 0 18:18 06.10.2019
6656 Rain 14 1012 76 0 1 0 18:18 06.10.2019
6657 Rain 13 1013 76 0 1 0 17:43 06.10.2019
6658 Rain 14 1013 76 0 0.5 0 17:20 06.10.2019
6659 Rain 14 1013 76 0 0.5 0 17:20 06.10.2019
6660 Clouds 14 1013 67 0 0.2 61.621 16:56 06.10.2019
6661 Clouds 15 1013 67 0 0.2 61.621 16:37 06.10.2019
6662 Clouds 15 1014 62 0 2.6 250 16:18 06.10.2019
6663 Clouds 15 1014 67 0 2.6 250 15:43 06.10.2019
6664 Clouds 13 1015 72 0 3.1 260 15:22 06.10.2019
6665 Clouds 14 1015 72 0 3.1 260 14:56 06.10.2019
6666 Clouds 14 1015 67 0 1.5 240 14:38 06.10.2019
6667 Clouds 14 1015 72 0 1.94 321.202 14:19 06.10.2019
6668 Clouds 14 1015 72 0 1.5 90 13:42 06.10.2019
6669 Clouds 14 1016 76 0 1.62 318.645 13:24 06.10.2019
6670 Clouds 13 1016 76 0 1.62 318.645 12:59 06.10.2019
6671 Clouds 13 1016 76 0 0.5 0 12:41 06.10.2019
6672 Clouds 13 1016 87 10000 1 0 12:21 06.10.2019
6673 Clouds 13 1016 87 10000 1 0 11:59 06.10.2019
6674 Clouds 12 1017 82 0 1.01 326.184 11:40 06.10.2019
6675 Clouds 12 1017 82 0 1.01 326.184 11:40 06.10.2019
6676 Clouds 12 1017 87 0 0.5 0 11:21 06.10.2019
6677 Clouds 12 1017 93 0 1 0 10:55 06.10.2019
6678 Clouds 12 1017 93 0 1 0 10:37 06.10.2019
6679 Rain 11 1017 93 0 1 0 10:19 06.10.2019
6680 Rain 10 1017 100 0 1.01 326.184 09:41 06.10.2019
6681 Drizzle 10 1017 93 9000 1 0 09:19 06.10.2019
6682 Drizzle 10 1017 93 9000 1 0 09:19 06.10.2019
6683 Drizzle 9 1017 100 0 1 80 08:48 06.10.2019
6684 Drizzle 9 1017 100 0 1 80 08:48 06.10.2019
6685 Rain 9 1016 100 0 1 110 08:22 06.10.2019
6686 Rain 9 1016 100 0 1 110 07:58 06.10.2019
6687 Clouds 9 1017 93 0 1 0 07:39 06.10.2019
6688 Clouds 9 1017 93 0 0.83 197.219 06:49 06.10.2019
6689 Mist 9 1017 93 0 1.04 183.143 05:41 06.10.2019
6690 Rain 10 1017 93 0 1.04 183.143 04:32 06.10.2019
6691 Rain 10 1018 100 1900 0.5 100 02:52 06.10.2019
6692 Rain 10 1018 100 1900 0.5 100 02:29 06.10.2019
6693 Rain 10 1018 93 0 1.2 161.475 01:46 06.10.2019
6694 Rain 10 1018 93 0 0.9 159.339 01:28 06.10.2019
6695 Rain 10 1018 93 0 0.9 159.339 00:59 06.10.2019
6696 Rain 10 1018 93 0 0.9 159.339 00:31 06.10.2019
6697 Rain 10 1017 100 0 0.41 235.656 23:55 05.10.2019
6698 Rain 10 1017 100 0 0.41 235.656 23:36 05.10.2019
6699 Rain 10 1017 100 0 0.41 235.656 23:18 05.10.2019
6700 Rain 10 1017 100 0 0.5 0 22:54 05.10.2019
6701 Rain 10 1017 100 0 0.5 0 22:54 05.10.2019
6702 Rain 10 1017 100 0 0.5 0 22:36 05.10.2019
6703 Rain 11 1017 93 0 0.41 235.656 22:18 05.10.2019
6704 Rain 11 1017 93 0 0.41 235.656 21:40 05.10.2019
6705 Rain 11 1017 100 0 0.5 0 21:21 05.10.2019
6706 Rain 11 1017 100 0 1.11 142.561 20:57 05.10.2019
6707 Rain 11 1017 100 0 1.39 150.505 20:39 05.10.2019
6708 Rain 11 1016 100 0 1.39 150.505 20:19 05.10.2019
6709 Rain 11 1016 100 0 1.39 150.505 20:19 05.10.2019
6710 Rain 11 1016 93 0 1 0 19:41 05.10.2019
6711 Rain 11 1016 93 0 1 0 19:22 05.10.2019
6712 Rain 12 1016 93 0 1 0 18:58 05.10.2019
6713 Rain 12 1016 87 10000 2.1 40 18:39 05.10.2019
6714 Rain 14 1016 82 0 1.5 260 18:21 05.10.2019
6715 Rain 14 1016 82 0 1.5 260 17:59 05.10.2019
6716 Rain 14 1015 72 0 2.1 250 17:40 05.10.2019
6717 Clouds 14 1015 82 10000 2.6 50 17:21 05.10.2019
6718 Clouds 15 1015 67 0 3.6 230 16:43 05.10.2019
6719 Clouds 14 1015 72 0 5.1 220 16:23 05.10.2019
6720 Clouds 14 1015 72 0 5.1 220 15:59 05.10.2019
6721 Clouds 14 1015 67 0 4.6 230 15:40 05.10.2019
6722 Rain 14 1015 72 0 5.7 250 15:21 05.10.2019
6723 Rain 13 1015 72 0 5.7 250 14:59 05.10.2019
6724 Clouds 12 1015 71 0 4.1 240 14:41 05.10.2019
6725 Clouds 12 1015 71 0 4.1 240 14:41 05.10.2019
6726 Clouds 12 1015 71 0 4.1 240 14:41 05.10.2019
6727 Clouds 12 1015 71 0 2.6 260 14:20 05.10.2019
6728 Clouds 13 1015 71 0 3.6 250 13:43 05.10.2019
6729 Clouds 14 1015 76 0 3.6 230 13:24 05.10.2019
6730 Clouds 12 1015 76 0 3.6 230 12:57 05.10.2019
6731 Clouds 13 1015 71 0 1.5 290 12:39 05.10.2019
6732 Clouds 13 1015 71 0 1.5 290 12:39 05.10.2019
6733 Clouds 13 1015 71 0 1.5 290 12:39 05.10.2019
6734 Clouds 12 1015 76 0 0.5 0 12:18 05.10.2019
6735 Clouds 12 1015 76 0 0.5 0 12:18 05.10.2019
6736 Rain 11 1015 87 0 1.5 140 11:39 05.10.2019
6737 Rain 11 1015 81 0 1 0 11:19 05.10.2019
6738 Rain 12 1015 87 0 2.1 310 10:54 05.10.2019
6739 Rain 12 1015 87 0 2.1 310 10:36 05.10.2019
6740 Rain 11 1015 93 0 0.5 0 10:18 05.10.2019
6741 Rain 10 1014 93 0 1.5 100 09:39 05.10.2019
6742 Drizzle 9 1014 100 0 1 0 09:20 05.10.2019
6743 Rain 9 1014 100 0 1.96 184.423 08:40 05.10.2019
6744 Rain 9 1014 93 0 1 0 08:21 05.10.2019
6745 Rain 9 1014 93 0 1 0 08:21 05.10.2019
6746 Rain 9 1014 93 0 1 0 07:58 05.10.2019
6747 Rain 9 1014 93 0 1 0 07:37 05.10.2019
6748 Drizzle 9 1014 93 0 0.5 0 07:19 05.10.2019
6749 Clouds 9 1014 93 0 1.96 184.423 06:28 05.10.2019
6750 Clouds 9 1014 93 0 1.36 232.555 05:52 05.10.2019
6751 Clouds 10 1013 81 10000 4.6 190 04:42 05.10.2019
6752 Rain 10 1013 100 0 1 0 03:29 05.10.2019
6753 Rain 10 1013 76 10000 2.6 220 01:55 05.10.2019
6754 Rain 10 1013 87 0 4.1 260 01:23 05.10.2019
6755 Rain 10 1013 87 0 4.1 270 00:45 05.10.2019
6756 Clouds 10 1014 87 0 4.6 250 00:26 05.10.2019
6757 Rain 10 1013 93 0 4.1 250 23:45 04.10.2019
6758 Rain 10 1013 100 0 0.77 276.719 23:26 04.10.2019
6759 Rain 10 1013 100 0 0.77 276.719 22:59 04.10.2019
6760 Rain 10 1013 100 0 0.77 276.719 22:41 04.10.2019
6761 Rain 10 1013 100 0 1 230 22:22 04.10.2019
6762 Rain 10 1013 100 0 1 230 21:58 04.10.2019
6763 Rain 10 1013 93 10000 1.5 0 21:39 04.10.2019
6764 Rain 10 1013 93 0 1 0 21:21 04.10.2019
6765 Rain 10 1013 93 0 1 0 20:57 04.10.2019
6766 Rain 11 1013 93 0 3.6 230 20:39 04.10.2019
6767 Rain 11 1012 93 0 1 0 20:20 04.10.2019
6768 Rain 11 1012 93 0 1 0 20:20 04.10.2019
6769 Rain 11 1012 93 0 1 0 19:49 04.10.2019
6770 Rain 11 1012 93 0 1 0 19:30 04.10.2019
6771 Clouds 12 1012 93 0 0.5 0 18:59 04.10.2019
6772 Clouds 11 1012 87 0 1.5 140 18:39 04.10.2019
6773 Clouds 11 1012 81 0 1.5 200 18:19 04.10.2019
6774 Clouds 11 1012 81 0 2.6 120 17:57 04.10.2019
6775 Clouds 11 1012 81 0 2.6 120 17:38 04.10.2019
6776 Clouds 11 1011 87 10000 2.1 110 17:19 04.10.2019
6777 Clouds 11 1012 81 10000 2.1 270 16:54 04.10.2019
6778 Clouds 11 1012 81 10000 2.1 270 16:36 04.10.2019
6779 Clouds 11 1012 81 10000 2.1 270 16:36 04.10.2019
6780 Clouds 11 1012 81 10000 2.1 270 16:36 04.10.2019
6781 Drizzle 12 1012 81 10000 2.1 270 16:18 04.10.2019
6782 Rain 11 1012 76 10000 1 0 15:55 04.10.2019
6783 Rain 12 1012 76 10000 1 0 15:36 04.10.2019
6784 Clouds 11 1012 81 10000 3.6 60 15:18 04.10.2019
6785 Rain 10 1013 81 10000 2.1 80 14:41 04.10.2019
6786 Rain 11 1013 87 10000 1 0 14:22 04.10.2019
6787 Rain 10 1013 87 10000 1 0 13:58 04.10.2019
6788 Rain 10 1014 93 10000 0.94 228.185 13:40 04.10.2019
6789 Drizzle 10 1014 87 0 1.94 160.249 13:19 04.10.2019
6790 Rain 9 1014 87 0 1 150 12:45 04.10.2019
6791 Rain 9 1014 81 10000 1.5 280 12:27 04.10.2019
6792 Rain 9 1014 81 10000 1.5 280 12:27 04.10.2019
6793 Rain 10 1013 81 10000 2.6 80 11:44 04.10.2019
6794 Rain 10 1013 81 10000 2.6 80 11:43 04.10.2019
6795 Rain 10 1013 81 10000 2.6 80 11:43 04.10.2019
6796 Rain 10 1013 81 10000 2.6 80 11:43 04.10.2019
6797 Rain 9 1014 87 10000 2.1 120 11:22 04.10.2019
6798 Rain 9 1014 87 10000 2.1 120 10:58 04.10.2019
6799 Rain 10 1014 87 10000 2.6 100 10:38 04.10.2019
6800 Clouds 9 1014 81 10000 1.53 167.386 10:19 04.10.2019
6801 Clouds 8 1013 87 10000 1 0 09:44 04.10.2019
6802 Clouds 7 1014 93 10000 1 0 09:25 04.10.2019
6803 Clouds 6 1014 93 10000 0.5 0 08:48 04.10.2019
6804 Clouds 6 1014 93 10000 0.5 0 08:29 04.10.2019
6805 Clouds 5 1014 100 10000 1 0 07:56 04.10.2019
6806 Clouds 5 1014 100 10000 1 0 07:38 04.10.2019
6807 Clear 6 1015 93 10000 1.48 179.498 07:19 04.10.2019
6808 Clouds 5 1014 87 10000 1.5 0 06:41 04.10.2019
6809 Clouds 5 1015 93 0 1 0 06:22 04.10.2019
6810 Clouds 5 1015 93 0 1 0 06:22 04.10.2019
6811 Clouds 5 1015 93 0 1.6 162.28 05:23 04.10.2019
6812 Clouds 5 1015 93 0 1 0 04:54 04.10.2019
6813 Clouds 7 1016 93 0 1.5 70 03:42 04.10.2019
6814 Clouds 6 1017 93 0 2.6 100 02:53 04.10.2019
6815 Clouds 6 1017 93 0 2.6 100 02:53 04.10.2019
6816 Clouds 7 1016 87 0 1.5 290 01:54 04.10.2019
6817 Clouds 7 1016 87 0 1.5 290 01:54 04.10.2019
6818 Clouds 7 1016 87 0 1.5 290 01:54 04.10.2019
6819 Clouds 7 1016 87 0 1.5 290 01:54 04.10.2019
6820 Clouds 7 1016 87 0 1.5 290 01:27 04.10.2019
6821 Clouds 7 1017 87 0 1.5 90 00:36 04.10.2019
6822 Clouds 8 1018 87 0 1.5 110 23:41 03.10.2019
6823 Mist 7 1018 87 0 0.5 0 23:22 03.10.2019
6824 Mist 8 1018 87 0 0.5 0 22:58 03.10.2019
6825 Clouds 9 1018 87 0 2.6 90 22:39 03.10.2019
6826 Clouds 9 1018 87 0 2.6 90 22:39 03.10.2019
6827 Clouds 9 1019 87 0 2.1 100 22:21 03.10.2019
6828 Clouds 9 1019 87 0 2.1 100 21:59 03.10.2019
6829 Clouds 9 1018 76 0 3.1 100 21:40 03.10.2019
6830 Clouds 7 1018 81 0 4.1 110 21:20 03.10.2019
6831 Clouds 7 1018 81 0 4.1 110 20:58 03.10.2019
6832 Clouds 7 1018 81 0 2.6 80 20:40 03.10.2019
6833 Clouds 8 1017 76 0 3.6 100 20:21 03.10.2019
6834 Clouds 9 1017 76 0 3.6 100 19:58 03.10.2019
6835 Clouds 10 1017 71 0 3.6 90 19:40 03.10.2019
6836 Clouds 11 1017 57 0 4.6 60 19:20 03.10.2019
6837 Clear 12 1017 66 10000 3.1 200 18:56 03.10.2019
6838 Clear 11 1017 66 10000 3.1 200 18:38 03.10.2019
6839 Clear 11 1017 66 10000 3.1 200 18:38 03.10.2019
6840 Clear 13 1016 54 0 5.7 50 18:18 03.10.2019
6841 Clear 12 1017 50 0 5.7 60 17:42 03.10.2019
6842 Clouds 13 1017 47 10000 4.6 50 17:23 03.10.2019
6843 Clouds 12 1017 47 10000 4.6 50 16:58 03.10.2019
6844 Clouds 12 1017 50 10000 5.1 40 16:39 03.10.2019
6845 Clouds 12 1017 50 10000 5.7 50 16:21 03.10.2019
6846 Clouds 15 1018 47 10000 6.2 50 15:45 03.10.2019
6847 Clouds 13 1018 47 10000 6.2 30 15:24 03.10.2019
6848